GFSCGP_sfc_wetblb_000.txt.gz
Wetbulb
47.61 43.30 39.94 43.13 45.13 45.99 44.76 43.00 42.47 46.85 50.01 47.83 47.77 48.67 50.73 52.00 51.25 50.90 50.38 50.94 51.54 51.54 53.21 55.10 56.56 55.52 55.03 56.24 57.19 57.29 57.69 58.05 58.70 57.19 58.00 57.48 58.04 59.26 60.27 61.46 61.41 61.30 59.65 59.70
43.57 39.93 44.85 47.70 47.53 45.16 44.13 43.22 43.01 46.60 49.24 47.33 47.31 47.21 50.88 51.21 50.50 50.36 50.78 50.94 50.43 51.13 53.54 55.44 55.08 54.53 55.06 56.22 57.33 57.68 58.12 57.60 58.23 57.43 59.53 58.53 58.87 59.38 59.92 60.36 60.79 61.45 60.78 61.16
40.57 44.92 47.98 45.66 44.24 44.09 43.59 42.58 44.02 44.13 47.85 48.84 46.36 45.00 46.85 50.84 51.47 51.94 51.55 51.68 51.65 52.00 52.75 54.33 54.98 53.79 54.27 55.59 56.96 58.22 58.04 58.46 57.49 58.98 59.22 58.65 58.45 58.64 59.36 59.81 60.53 59.88 60.39 61.63
41.78 46.49 45.80 43.81 42.21 44.92 40.93 47.44 47.23 46.83 44.45 38.70 46.36 36.53 42.34 47.17 47.72 49.29 49.85 49.76 50.79 52.03 53.29 54.62 54.52 53.26 54.06 54.67 56.60 58.25 58.43 57.27 58.23 58.89 58.21 57.68 57.04 56.24 57.72 58.18 58.87 59.46 59.98 60.45
40.53 42.68 42.77 41.38 42.47 46.16 43.90 47.91 46.72 46.63 44.25 41.25 43.11 37.28 41.05 45.21 45.72 48.26 49.27 49.51 50.29 52.13 53.09 53.89 54.54 54.85 54.65 56.59 56.41 57.81 57.00 57.90 59.15 58.50 58.40 58.50 56.59 57.68 58.08 57.60 57.76 58.09 60.06 61.12
42.72 46.59 44.60 43.82 46.47 47.20 48.90 46.55 45.68 45.25 42.67 36.24 41.86 39.95 42.07 42.67 46.44 47.53 48.77 50.60 50.79 50.82 52.02 53.63 55.60 55.16 54.69 55.36 56.06 56.71 55.62 56.69 58.46 58.82 58.67 58.00 56.99 57.15 56.62 56.32 56.86 57.12 57.75 60.31
42.08 41.95 45.28 46.41 43.18 46.18 46.29 41.62 34.52 30.01 32.48 33.92 41.82 39.00 41.16 45.96 48.48 49.43 48.01 49.67 50.20 51.67 52.81 54.45 54.70 54.16 53.85 54.38 55.49 55.96 56.24 56.65 57.63 57.82 58.45 57.54 58.03 57.09 56.02 55.94 56.52 55.72 55.92 56.24
36.41 34.90 42.56 46.12 43.84 41.51 41.79 40.58 36.75 29.04 29.82 34.58 42.64 37.34 42.68 48.20 49.75 50.40 50.67 51.24 51.31 50.90 53.34 54.32 54.84 53.98 53.83 54.47 55.32 55.71 55.66 54.72 55.45 57.44 57.86 57.27 58.37 57.38 56.12 57.08 57.14 56.54 56.14 56.52
36.57 37.17 45.74 46.14 46.22 44.97 41.45 39.84 44.40 37.89 38.20 34.87 37.72 42.36 47.25 48.68 48.00 50.56 50.90 51.53 50.39 51.06 52.52 54.04 54.48 53.31 52.27 53.54 54.75 55.03 55.87 55.12 54.68 57.02 57.80 58.25 58.89 58.06 57.56 57.18 57.46 57.10 56.98 58.20
39.86 35.40 44.27 45.39 46.03 45.58 42.99 45.02 38.74 36.17 31.22 29.15 35.40 37.98 39.43 43.51 46.24 49.90 49.82 49.40 49.86 51.24 52.85 54.19 54.16 52.87 51.93 53.52 53.36 53.11 56.13 54.69 56.20 57.21 56.55 59.32 60.78 59.46 58.71 57.78 57.36 57.40 57.08 57.57
42.00 38.62 40.23 44.20 41.50 40.50 40.31 39.99 40.90 40.44 37.33 32.36 29.13 35.68 43.73 45.71 46.27 49.72 50.17 51.07 51.03 51.93 53.38 54.11 53.35 53.07 52.43 52.60 51.78 53.24 55.48 54.70 55.20 56.53 56.85 60.32 60.23 59.99 59.61 58.86 57.28 57.78 57.59 58.11
43.69 37.81 36.16 39.59 44.32 46.03 43.67 41.76 41.59 39.04 34.78 36.22 35.82 37.10 47.01 47.38 48.87 51.72 50.73 52.05 52.01 53.06 53.73 54.00 53.36 53.07 52.18 51.91 52.36 54.99 54.51 54.65 54.60 55.98 56.09 58.77 60.32 59.63 59.25 58.50 58.24 58.34 58.12 58.60
43.84 38.99 33.32 36.91 39.57 44.22 41.70 44.11 43.02 39.94 38.72 36.29 35.28 36.22 48.81 49.34 50.89 52.39 51.23 51.15 51.88 52.25 53.10 53.15 52.91 53.24 53.40 52.38 53.18 54.13 55.51 54.70 54.55 56.15 54.87 59.06 58.96 58.60 59.58 58.59 58.67 58.76 58.69 59.00
42.70 38.61 38.43 35.10 39.27 42.08 40.16 43.21 45.20 41.10 35.60 36.49 39.06 40.66 45.34 48.16 50.89 51.29 51.79 51.79 51.95 53.32 53.98 53.70 53.09 52.61 53.36 53.78 53.82 54.15 55.34 54.19 55.19 54.84 54.93 57.89 58.06 58.39 58.72 58.87 58.76 58.86 59.37 59.17
37.24 38.12 40.68 41.97 43.76 44.68 44.10 44.22 45.06 43.68 42.43 40.09 40.86 41.96 45.11 48.20 51.72 52.75 52.81 52.02 52.10 52.85 53.56 53.94 53.54 52.23 52.14 52.56 53.91 54.78 55.07 53.17 54.85 54.45 55.70 57.52 57.44 58.26 59.49 59.46 58.42 58.69 58.63 59.11
37.04 34.47 41.11 39.92 43.35 43.64 42.21 45.58 46.30 45.84 43.98 43.22 44.30 43.38 48.22 51.83 53.16 51.89 52.59 52.44 52.18 52.97 54.03 54.50 54.99 53.50 52.69 53.28 54.77 55.47 54.92 52.59 54.92 54.08 54.25 57.67 57.94 60.53 59.33 59.49 57.73 59.22 58.71 58.60
33.81 35.60 35.60 37.07 42.96 42.05 38.36 43.62 45.85 45.90 46.72 45.36 42.02 44.20 47.33 47.93 52.47 52.84 52.30 53.36 52.92 53.38 54.45 54.72 55.40 54.82 53.63 53.33 55.46 54.82 54.06 52.98 55.04 54.08 55.01 55.70 55.56 59.60 57.93 58.40 57.04 57.72 55.82 55.13
34.21 33.62 34.28 35.19 39.16 31.58 42.79 48.03 49.07 47.13 46.94 46.82 45.13 47.10 48.49 50.45 51.64 55.02 55.07 53.95 53.76 54.30 55.09 55.48 56.16 55.61 54.20 54.14 54.56 55.66 53.68 53.91 55.43 54.50 55.36 54.80 55.47 59.34 56.63 55.90 56.22 56.32 54.47 54.45
38.50 34.73 32.97 31.22 35.36 40.14 44.66 46.74 46.51 44.17 43.33 47.01 47.79 47.53 48.88 50.14 51.65 51.56 55.73 55.97 55.04 55.20 56.11 56.57 57.26 56.46 54.52 54.28 54.77 55.40 53.33 52.77 55.54 55.28 54.93 54.60 55.31 58.11 57.27 55.50 55.89 55.49 54.46 53.46
40.25 38.90 37.49 35.61 31.07 31.42 42.47 48.84 51.36 48.99 42.75 48.26 48.70 47.92 47.91 51.96 47.07 49.87 55.28 56.26 55.70 55.97 56.75 56.83 57.16 55.88 54.89 55.20 54.97 55.17 52.97 52.00 54.24 55.27 55.97 54.97 54.83 57.33 57.80 55.67 56.06 56.09 54.84 54.00
37.83 39.72 34.62 34.82 31.04 40.10 45.54 48.59 52.01 41.29 40.94 48.79 50.03 49.84 48.70 48.67 50.87 54.13 57.01 56.35 56.79 56.46 56.35 57.22 57.12 55.51 55.66 55.74 55.67 55.02 53.33 52.06 53.45 55.75 56.49 55.26 54.55 55.97 58.20 56.79 57.00 56.82 56.36 55.29
34.51 34.43 34.09 34.97 32.79 34.26 46.36 47.90 42.84 44.13 49.30 50.44 49.53 49.13 49.54 50.36 50.61 51.39 56.18 56.98 57.42 56.38 55.98 57.41 57.20 55.96 55.70 56.26 56.14 55.20 53.20 54.03 53.71 54.59 55.28 55.40 54.49 57.64 59.65 58.38 57.24 57.58 56.72 55.41
33.59 37.70 34.67 36.45 39.25 41.88 46.41 45.12 45.57 44.51 45.99 50.77 49.83 51.42 51.87 51.25 51.51 53.85 54.36 56.44 57.63 57.46 57.35 58.63 57.74 56.01 55.74 56.65 56.96 55.28 55.77 54.60 54.41 53.58 53.33 53.21 55.18 56.79 60.04 59.19 57.41 56.94 57.03 55.76
37.97 40.94 37.47 36.53 42.93 41.06 43.33 44.99 45.80 46.03 45.18 49.03 51.92 51.08 51.97 51.97 51.77 53.14 55.03 56.66 58.04 58.11 58.01 58.93 57.72 55.96 55.60 56.62 57.19 56.80 56.99 56.52 55.37 53.28 52.16 51.72 55.13 58.10 59.96 60.25 59.34 58.33 56.18 56.34
38.12 39.87 37.00 37.15 41.31 41.23 44.76 44.12 45.44 45.57 46.48 46.58 51.03 52.26 51.98 51.52 51.39 53.90 55.08 56.79 58.37 58.60 59.03 59.19 57.78 56.91 56.71 57.00 56.85 57.13 57.92 57.68 55.92 53.46 53.21 52.83 55.76 58.83 59.04 59.58 58.74 58.55 57.67 57.17
40.99 38.09 36.08 34.88 41.11 39.95 41.10 44.08 46.97 45.18 44.59 46.53 46.87 50.97 51.50 53.86 51.73 54.38 55.97 57.73 58.68 59.14 59.26 58.96 58.64 58.00 58.04 57.69 57.34 57.55 58.66 58.47 56.68 54.59 54.19 53.71 56.01 58.31 59.10 57.12 50.74 41.26 46.03 46.45

GFSCGP_sfc_wetblb_003.txt.gz
Wetbulb
45.37 41.48 39.36 42.45 42.99 43.20 42.12 40.29 40.22 43.59 47.10 46.27 44.97 45.68 48.95 51.56 49.97 50.32 51.00 50.93 50.56 50.92 50.59 52.09 53.02 53.09 54.38 54.78 55.57 56.46 56.45 56.81 57.52 56.61 55.85 56.41 56.69 57.49 58.21 59.86 60.71 60.89 61.06 59.60
41.86 39.40 45.36 46.30 45.05 42.65 42.03 40.16 40.53 44.65 47.30 45.31 45.06 45.00 48.25 49.62 49.92 50.95 51.65 49.79 49.97 49.24 50.73 52.37 52.19 53.25 54.69 55.31 56.12 56.35 56.67 56.98 57.14 55.91 57.57 57.17 57.03 57.87 58.55 59.22 61.47 61.91 60.76 59.71
38.49 41.97 47.53 46.71 43.50 42.32 41.54 40.06 41.02 41.53 45.41 46.29 44.76 43.03 46.00 49.37 49.89 50.78 50.37 49.57 49.81 50.55 50.71 52.05 52.15 52.67 53.86 55.44 55.67 56.60 56.49 56.61 57.03 56.97 57.81 57.21 56.95 57.49 57.79 57.82 58.22 58.70 59.59 60.04
40.22 44.24 44.02 43.86 41.82 42.89 39.24 45.53 44.85 43.50 41.20 37.51 44.16 33.61 41.69 45.27 47.24 47.99 49.52 48.84 49.94 50.11 51.60 52.69 52.82 51.53 53.99 54.82 56.24 57.05 56.75 56.71 56.70 58.61 57.02 56.17 55.52 54.90 55.97 56.51 57.34 57.73 59.30 60.21
38.66 41.56 41.40 41.25 42.36 44.90 41.99 46.82 45.25 43.84 40.70 38.42 41.68 36.15 39.68 43.27 44.34 45.85 47.62 47.82 48.21 49.35 51.39 52.39 52.47 52.90 53.74 54.39 55.44 56.31 56.87 55.71 57.38 57.82 57.31 57.27 55.36 55.77 56.37 56.45 56.35 56.63 58.48 60.33
40.12 45.94 44.02 43.23 46.31 46.56 46.22 43.68 42.29 41.46 38.46 33.11 40.25 37.42 39.48 41.54 44.48 45.90 47.71 48.94 49.16 48.73 50.88 51.88 52.48 53.13 53.03 54.02 54.98 55.88 55.18 56.62 57.20 57.48 57.42 57.04 55.73 55.76 55.00 55.33 55.19 55.51 56.35 59.64
39.35 40.92 44.06 45.24 42.37 44.30 42.85 38.05 30.70 26.90 30.21 31.34 40.46 37.11 41.35 45.40 47.27 48.32 48.63 47.72 48.12 49.56 51.26 51.88 52.57 52.01 52.66 53.07 54.54 54.48 54.29 55.64 56.88 57.92 57.90 56.63 56.55 56.27 55.30 55.00 55.07 54.13 54.59 56.87
34.46 32.79 40.91 44.78 42.60 40.35 40.86 40.72 32.56 26.79 27.79 32.32 40.72 36.20 41.75 47.40 49.58 49.18 49.55 48.22 49.10 49.52 51.51 52.38 52.70 52.70 52.78 53.55 54.39 55.46 54.24 55.39 55.40 57.15 57.29 56.03 57.16 55.48 54.92 55.22 55.59 54.73 54.49 55.07
34.83 35.41 43.38 44.60 44.83 43.97 40.15 37.63 43.06 35.43 35.96 33.31 36.29 40.54 45.48 46.67 46.48 47.99 47.96 48.85 47.98 49.27 51.33 52.37 52.80 52.22 52.59 53.26 53.86 54.51 54.09 53.40 54.12 56.62 56.70 56.31 56.79 55.36 55.82 55.66 55.49 55.07 55.33 56.43
37.91 32.89 41.75 43.72 45.01 44.24 40.38 42.68 34.77 33.08 27.40 26.57 34.34 36.58 38.59 42.55 44.69 47.57 47.57 47.17 47.59 49.68 51.22 52.58 52.59 51.77 52.33 53.16 53.72 53.79 54.91 54.17 53.97 56.19 56.69 57.50 58.87 57.04 56.07 56.29 55.83 55.28 55.74 56.19
38.00 36.16 37.69 42.38 40.02 39.09 37.11 38.36 36.45 38.24 35.91 29.79 28.05 34.88 42.53 44.33 45.45 47.50 47.57 47.92 48.59 50.44 51.88 52.70 51.95 51.93 51.72 52.24 52.31 52.85 54.52 53.62 54.66 55.74 55.70 59.07 58.30 58.38 57.01 56.81 56.31 55.88 55.32 56.31
39.80 35.84 34.59 37.36 41.82 44.77 42.62 39.94 39.72 35.21 32.83 34.46 35.09 38.40 45.48 44.64 45.05 48.40 48.15 49.32 49.15 51.03 52.47 52.53 52.39 50.91 50.10 50.95 50.43 51.93 53.90 53.73 54.73 55.54 55.95 58.12 58.56 58.56 57.19 56.25 56.00 56.03 56.27 56.81
39.50 34.36 30.09 32.76 37.78 40.51 39.08 40.81 40.64 38.72 36.67 34.78 33.34 38.25 47.17 46.03 45.08 49.48 48.21 48.88 50.37 50.86 51.28 51.13 51.17 51.52 50.85 50.50 50.97 53.59 53.65 53.78 53.54 54.69 55.11 57.56 57.68 57.47 56.84 56.21 56.67 56.77 56.59 57.13
39.12 34.52 35.57 32.46 35.24 39.36 37.42 40.14 40.90 40.25 36.21 37.00 37.87 38.73 43.14 45.29 46.93 48.00 48.61 49.36 50.29 51.93 52.71 51.98 51.56 51.38 51.17 51.50 52.23 53.76 54.11 53.50 53.74 53.43 56.17 56.75 56.51 57.28 57.24 57.01 57.13 57.17 57.67 57.77
34.44 29.05 37.42 39.82 40.65 41.75 41.34 41.01 41.12 39.74 40.98 38.21 40.80 40.09 43.47 46.86 47.68 49.93 49.65 49.18 50.49 51.38 51.80 52.34 51.80 51.22 51.00 50.83 51.90 53.01 54.55 53.29 53.99 52.88 56.25 56.78 56.12 57.06 57.55 57.50 57.43 57.68 57.58 58.10
34.77 28.46 35.19 37.22 40.81 40.90 39.60 41.64 42.47 42.96 42.00 41.96 41.45 41.16 45.57 48.89 50.44 50.29 50.45 50.47 51.06 52.01 52.91 53.20 52.93 52.02 51.90 52.64 52.57 53.27 54.03 52.71 53.50 52.61 56.27 56.65 55.83 57.11 57.56 56.18 56.46 56.92 57.27 58.01
32.02 31.49 30.45 31.38 40.14 38.82 35.30 40.42 41.34 43.08 43.55 44.03 39.15 42.78 45.69 47.00 50.80 51.00 50.08 51.38 51.78 52.76 53.68 53.49 53.47 52.48 52.62 53.48 54.23 52.74 53.62 52.41 53.10 52.60 55.43 56.36 56.02 57.20 57.08 56.36 56.69 56.54 55.06 54.98
32.38 30.76 31.09 27.97 35.48 28.20 39.55 44.27 44.95 44.10 44.86 44.91 43.14 45.35 47.80 48.97 53.28 53.55 53.79 52.37 52.37 53.54 54.26 54.42 54.72 53.68 52.85 53.20 53.67 53.74 52.74 53.25 53.22 52.44 54.45 54.24 55.18 56.32 56.07 55.39 55.70 53.63 53.06 53.64
40.49 32.45 28.39 27.83 28.60 37.28 42.07 44.33 43.14 41.34 41.60 45.78 45.08 45.93 47.67 49.19 50.54 49.48 53.72 54.76 54.10 54.17 55.28 55.46 55.89 55.18 53.11 52.56 53.94 53.41 51.53 53.32 53.68 52.75 53.41 53.03 55.20 55.05 54.60 54.19 54.71 52.79 52.31 51.32
38.30 35.88 31.30 31.90 26.29 28.81 38.53 43.55 46.83 46.13 37.74 45.18 48.01 46.92 45.62 49.16 46.26 48.07 52.64 54.35 53.75 54.09 55.58 55.47 55.83 55.25 53.13 52.72 52.99 53.50 51.45 52.90 53.42 53.97 53.83 53.00 54.36 55.67 54.31 54.40 53.98 52.89 51.90 51.57
32.84 33.07 28.48 29.02 28.77 38.26 41.87 44.51 45.87 38.19 36.23 42.26 46.85 48.11 45.93 47.99 50.77 53.30 54.06 54.69 54.94 54.37 54.85 55.33 55.14 54.77 53.70 53.44 53.65 53.40 51.26 52.61 54.69 55.20 54.09 52.54 52.83 56.28 55.13 54.67 54.41 52.93 52.16 51.41
32.04 32.36 34.44 35.10 30.49 31.60 42.99 42.80 36.77 39.61 42.30 43.18 43.67 48.11 47.58 48.93 50.22 51.41 54.53 54.90 54.00 52.97 53.76 55.11 54.92 54.79 54.02 53.92 54.42 53.54 51.43 53.27 54.61 54.93 54.52 52.22 51.29 57.02 56.72 55.14 54.80 53.68 52.80 50.99
31.81 35.13 34.62 35.84 36.62 43.03 43.34 41.65 43.45 43.29 42.22 43.13 43.50 45.45 49.06 48.81 48.41 51.88 53.70 54.95 55.13 54.37 54.85 56.06 55.70 54.16 53.96 54.22 55.22 53.71 53.80 52.01 53.13 53.81 53.91 52.26 51.15 53.55 57.05 55.42 54.81 54.53 53.08 51.79
36.50 39.45 37.14 36.18 41.53 42.02 43.09 44.54 44.21 45.93 44.17 45.39 46.14 46.01 49.22 48.37 48.88 50.07 54.34 55.25 55.35 54.93 54.69 55.83 55.53 53.50 52.76 54.22 55.31 55.76 54.19 53.11 52.60 52.53 52.23 52.19 51.88 52.32 56.17 57.20 56.56 56.08 54.59 53.42
37.62 38.97 35.98 36.73 40.49 41.92 43.60 42.91 43.48 45.28 45.78 46.00 46.72 46.66 48.33 48.43 51.27 49.19 52.64 55.54 56.52 56.04 55.63 56.24 55.99 54.43 54.02 54.76 55.11 55.61 54.85 53.90 52.29 52.10 51.12 50.75 53.05 53.88 56.15 56.75 55.97 56.87 56.86 55.88
40.28 37.37 34.80 33.94 39.81 39.97 41.26 42.82 44.51 44.95 44.47 45.89 45.74 46.41 48.66 48.09 50.49 52.70 51.16 55.42 57.14 56.70 56.53 56.50 56.30 55.42 55.03 55.26 55.37 55.24 56.39 55.05 53.33 51.74 51.11 50.26 52.75 54.67 56.49 55.78 51.14 41.39 43.56 46.14

GFSCGP_sfc_wetblb_006.txt.gz
Wetbulb
41.42 38.95 37.33 40.23 42.32 41.91 40.03 38.63 37.78 39.82 45.23 43.76 42.25 43.04 46.01 49.21 47.84 47.60 49.05 50.03 50.32 50.40 50.59 50.85 51.46 51.96 54.12 55.28 55.72 56.14 56.22 56.32 56.53 56.67 56.25 56.59 57.14 58.02 59.12 60.43 61.35 61.34 61.63 61.31
40.35 36.97 41.95 44.22 43.32 41.91 40.40 37.76 37.59 41.58 45.91 44.34 42.93 42.73 45.93 47.80 48.20 48.00 49.51 50.15 50.36 48.39 49.93 50.78 50.15 51.98 54.24 55.25 55.89 55.75 56.29 56.20 56.98 56.36 57.14 57.68 57.48 58.31 59.15 60.10 61.43 61.91 61.80 60.94
36.98 39.98 44.44 43.69 42.18 40.07 39.51 38.44 39.02 38.73 44.70 44.58 42.42 40.67 43.17 47.36 48.05 48.45 49.07 49.60 49.11 48.58 49.57 50.25 49.88 51.21 54.01 54.76 55.62 56.29 56.40 57.01 57.09 57.05 57.76 57.55 57.55 57.81 57.99 58.63 59.37 59.89 60.25 60.74
38.27 42.11 41.90 42.12 41.65 42.36 37.72 43.65 42.54 41.86 40.95 34.65 41.88 31.51 40.57 43.67 46.38 46.99 47.99 47.28 48.49 48.77 50.18 50.13 49.86 51.26 53.68 54.79 56.12 56.37 56.43 56.78 57.27 57.70 56.73 56.48 56.27 56.03 56.67 57.75 58.41 58.95 60.12 60.57
35.84 39.27 39.63 39.81 42.18 45.41 41.03 45.79 42.93 43.31 39.32 35.01 37.78 33.66 38.71 41.83 42.50 45.88 47.20 48.06 47.57 47.36 50.00 49.61 50.05 52.56 54.44 55.20 55.85 56.18 56.36 56.66 57.02 57.88 57.37 57.44 56.58 56.59 57.43 57.49 57.81 58.88 59.16 61.01
38.46 42.57 41.94 41.71 44.66 45.08 45.48 41.94 40.45 38.94 35.77 30.77 37.19 35.80 35.08 39.64 43.79 45.07 46.64 47.65 48.70 47.96 49.76 49.95 51.15 53.62 52.97 54.34 55.56 55.86 56.11 55.77 56.94 57.33 57.61 57.70 56.41 56.77 56.19 56.71 56.61 56.87 57.71 59.57
37.15 37.39 41.14 43.20 39.61 42.59 41.53 35.76 27.77 25.27 25.60 28.18 38.76 35.20 38.91 43.15 45.31 46.74 47.55 47.49 47.47 48.70 49.58 50.21 51.42 51.76 52.14 53.27 54.86 55.40 55.48 55.61 56.57 57.38 57.94 57.13 57.24 56.92 56.42 56.59 56.43 56.07 56.53 58.17
31.56 29.92 38.16 42.73 40.21 38.78 39.89 37.84 29.05 24.11 26.35 32.28 38.20 33.83 39.90 45.99 48.26 48.21 48.67 47.50 47.94 49.04 49.83 50.49 51.59 51.88 52.59 53.42 54.56 54.90 54.44 55.38 56.66 57.40 57.57 57.18 57.58 56.57 56.19 56.57 56.67 55.97 56.17 56.93
32.76 33.13 41.02 42.73 43.82 43.04 39.29 34.34 40.35 33.76 35.76 30.97 33.80 39.36 44.46 45.82 46.69 46.93 46.42 47.27 46.87 48.42 49.49 50.36 51.27 51.84 52.43 53.35 54.35 54.57 53.90 55.03 56.01 56.86 57.22 56.93 57.52 56.36 56.90 57.23 56.83 56.23 56.67 57.72
35.91 31.20 39.89 41.49 42.77 43.92 39.14 41.81 33.64 34.30 26.01 25.15 32.71 35.18 37.54 41.66 43.76 46.25 46.16 45.66 46.39 48.88 49.90 50.74 51.04 51.52 52.38 53.54 54.18 54.65 54.42 54.11 54.89 56.36 57.09 57.54 57.58 57.15 57.20 57.21 56.85 56.61 57.25 58.27
35.86 33.98 35.71 39.27 37.56 37.21 36.00 35.31 34.39 36.68 31.94 28.39 26.86 33.28 41.58 44.04 45.05 46.00 46.33 46.21 46.99 49.34 50.52 51.38 50.86 51.78 52.38 53.00 53.37 53.62 54.43 54.25 54.63 56.60 56.43 58.89 58.37 57.68 57.10 57.48 56.92 56.90 57.08 57.67
37.03 32.10 30.83 35.40 39.81 43.03 41.58 38.87 36.82 33.90 29.94 33.92 33.00 33.89 44.38 44.92 44.44 45.40 46.44 47.31 47.76 49.71 50.76 51.45 51.58 50.74 51.35 51.96 52.36 52.85 54.21 54.35 54.74 56.68 56.74 58.66 59.06 58.21 57.40 57.30 56.90 57.37 57.14 58.05
36.89 30.70 27.56 30.98 35.36 37.99 38.20 39.70 40.20 35.55 33.87 33.46 32.78 34.31 45.49 45.96 46.08 46.13 46.49 47.33 48.79 49.80 50.11 50.11 50.31 50.58 51.18 51.02 51.48 52.03 53.54 54.76 54.78 56.00 55.94 58.22 58.34 57.43 56.96 56.64 57.08 57.49 57.69 58.17
37.57 31.00 30.62 30.40 33.12 36.37 34.66 38.35 39.72 36.98 31.12 32.91 36.98 37.13 41.47 45.40 45.01 46.14 47.09 47.67 48.57 50.00 50.85 51.33 50.44 49.87 50.18 51.07 51.29 52.70 53.90 54.28 54.35 54.78 57.00 57.70 57.62 57.88 57.19 57.50 57.70 57.79 58.54 58.81
33.78 27.65 32.89 34.05 38.16 38.66 38.52 38.59 38.90 36.90 38.41 35.16 36.88 38.02 40.81 44.09 46.09 46.51 47.30 48.22 49.55 50.23 50.59 51.41 51.20 50.21 49.63 50.03 51.10 53.85 54.23 53.80 54.24 53.81 57.05 57.03 57.18 57.91 57.71 57.94 57.95 58.43 58.90 59.21
33.72 28.03 31.68 31.07 38.12 39.32 37.66 38.47 39.44 39.46 39.51 39.18 38.94 39.12 43.94 45.67 48.21 47.94 48.71 49.40 49.93 50.74 51.66 52.11 52.27 51.49 50.56 50.94 51.24 53.22 54.47 53.57 54.25 53.54 56.77 57.08 57.40 57.95 57.79 57.73 58.01 58.30 58.53 59.00
31.86 30.22 28.34 25.58 33.22 36.17 32.37 38.39 38.60 39.36 40.74 40.84 37.79 43.00 44.15 46.41 48.37 48.43 48.42 50.13 50.79 51.60 52.31 52.56 52.64 52.72 52.19 52.01 52.68 52.26 53.63 53.44 53.69 53.70 57.18 57.07 57.61 57.79 57.09 57.43 57.69 57.54 57.57 58.02
33.60 32.32 31.69 25.48 31.61 25.73 36.67 43.11 42.33 41.00 42.15 42.37 42.32 43.35 45.04 47.76 51.25 50.86 51.83 50.99 51.58 52.61 53.31 53.58 53.58 53.18 52.55 52.96 52.49 53.19 53.66 53.10 53.42 53.25 56.26 56.64 57.37 57.54 56.89 57.18 57.03 55.78 55.86 56.92
39.37 36.71 30.01 25.39 26.86 34.38 39.64 40.07 38.54 38.72 39.15 41.00 42.46 45.82 47.38 47.74 50.03 49.51 52.38 52.70 53.37 53.77 54.82 54.53 54.75 53.82 51.58 53.13 53.80 53.29 52.77 52.94 53.13 52.95 54.98 55.30 56.55 56.88 56.32 56.59 56.08 54.87 54.98 54.58
37.76 36.57 31.41 28.56 25.61 26.65 35.91 40.03 44.11 44.48 35.50 40.94 41.32 41.34 43.24 46.38 44.21 47.92 52.02 53.24 52.71 53.82 55.27 54.64 54.62 53.71 52.44 53.12 53.68 53.33 52.45 52.50 52.84 53.56 54.47 54.60 56.65 56.99 56.05 56.08 55.50 54.73 54.44 54.79
32.38 32.97 26.94 27.29 24.91 35.54 39.88 41.51 44.02 34.89 33.63 41.29 42.00 41.54 42.06 43.92 46.81 48.38 50.68 53.49 54.56 54.38 55.14 54.98 54.57 53.63 53.64 52.57 53.94 53.41 52.04 52.66 54.60 54.82 54.42 53.67 56.09 56.12 56.39 55.60 55.19 54.46 53.74 53.78
31.78 30.54 32.86 32.94 31.70 32.25 42.67 40.88 35.43 39.27 41.29 42.52 42.60 42.64 42.75 43.56 47.79 49.27 50.69 53.01 52.69 53.04 54.25 54.62 54.42 54.28 53.66 53.32 54.39 53.50 51.90 54.69 54.55 54.43 54.32 53.24 54.10 56.93 56.12 56.08 55.28 54.30 53.45 52.65
32.04 34.75 32.76 35.56 35.12 41.15 43.67 42.67 45.19 44.79 41.68 42.47 42.52 44.30 44.69 44.27 46.73 48.37 49.42 52.39 53.52 53.67 54.88 55.21 55.05 54.24 53.04 53.64 55.09 53.43 53.84 53.05 53.89 54.18 53.80 52.72 52.49 56.91 56.25 56.12 54.74 53.52 53.10 52.40
36.47 39.53 36.10 35.97 38.14 39.20 41.54 44.94 45.19 44.70 42.54 44.43 44.67 45.26 45.91 44.75 46.32 48.96 48.75 52.04 53.03 53.83 54.58 55.10 54.66 53.28 52.47 53.74 55.13 55.80 53.93 53.75 54.13 53.70 53.25 52.26 51.64 54.30 56.32 56.74 56.30 54.88 53.28 52.59
34.91 37.20 35.80 36.12 38.88 39.96 43.05 43.26 44.26 44.91 44.48 44.90 45.79 46.58 46.84 46.46 46.87 47.35 50.77 52.44 53.83 53.74 54.49 55.21 54.64 53.55 53.62 53.98 54.82 54.90 54.04 53.41 53.43 53.40 53.21 52.43 52.31 53.22 56.35 56.57 55.98 56.51 56.30 54.21
37.67 35.57 34.98 34.05 39.87 39.30 40.09 43.85 45.26 44.18 44.04 44.53 45.01 45.89 47.96 48.43 48.87 52.40 52.81 51.03 54.45 53.36 54.52 55.03 54.99 54.17 53.89 54.51 54.91 54.49 54.64 53.62 53.05 52.11 51.67 52.02 52.75 52.51 55.75 55.82 52.81 41.20 44.95 47.06

GFSCGP_sfc_wetblb_009.txt.gz
Wetbulb
43.89 41.69 40.35 42.73 44.52 45.62 45.56 44.55 44.32 47.33 48.19 46.05 46.05 46.59 49.34 51.96 52.77 52.84 53.85 54.67 56.25 58.08 59.92 57.84 58.29 58.91 59.78 61.28 62.26 63.46 63.81 64.47 63.71 63.03 62.63 63.53 63.62 64.83 65.26 65.88 66.67 66.77 66.75 66.13
41.20 38.97 44.12 45.90 44.87 43.56 43.54 42.69 43.02 45.32 46.55 46.45 46.19 46.09 49.65 51.14 51.63 52.95 54.25 55.23 56.20 57.91 58.72 57.04 56.89 58.32 59.91 60.53 61.86 63.07 63.70 63.83 64.04 63.95 64.34 65.41 65.54 65.59 66.01 66.77 66.67 66.60 66.19 65.95
40.05 42.38 44.10 43.45 43.19 41.69 42.37 41.49 42.24 42.56 45.77 47.05 45.89 44.21 46.84 50.60 52.71 53.53 54.17 55.55 56.81 57.15 57.98 57.51 56.10 57.57 59.67 60.30 61.33 62.62 63.32 63.86 64.46 65.11 64.47 64.89 65.32 65.12 64.76 65.11 65.92 66.04 65.09 64.44
41.00 44.84 42.88 42.12 41.55 43.45 39.58 44.81 43.99 43.15 42.12 38.48 46.46 37.34 45.34 48.11 49.35 51.32 52.94 55.32 56.55 57.53 57.15 57.33 56.23 56.97 59.04 60.26 61.93 63.37 63.73 64.24 64.61 65.02 64.75 64.95 63.94 63.49 64.59 65.06 65.13 65.47 64.11 64.42
39.13 40.85 41.23 40.66 41.93 44.86 42.26 45.98 44.48 44.21 42.61 42.70 42.60 39.73 43.55 47.95 46.76 49.63 52.43 54.24 56.97 56.00 56.19 56.88 56.77 57.68 59.32 60.84 62.15 63.28 64.04 64.41 64.70 64.99 65.28 64.61 64.67 64.52 65.01 64.76 64.05 64.41 65.18 64.48
42.26 45.26 43.49 43.31 44.99 45.94 47.30 45.49 45.35 44.90 42.95 35.88 41.15 40.46 40.87 44.68 47.22 49.46 53.07 55.31 54.86 55.22 55.91 56.25 57.38 58.57 59.42 61.41 62.26 62.85 63.42 63.93 64.41 64.82 65.15 65.86 64.55 63.82 63.09 63.45 63.47 63.71 64.36 64.06
39.52 40.37 43.53 44.63 42.92 46.13 45.95 43.01 35.82 34.12 34.33 33.80 43.09 40.53 41.48 47.85 49.56 50.80 52.48 55.32 55.17 55.68 55.73 55.82 56.57 57.75 59.30 60.55 61.81 62.46 63.19 62.77 64.01 64.42 64.75 64.80 64.28 63.71 62.75 62.99 63.29 62.91 62.47 62.12
35.18 33.19 40.51 44.30 42.97 42.24 43.63 42.53 37.18 31.14 33.18 36.93 42.58 37.60 41.50 50.69 52.27 52.49 54.39 55.71 55.16 55.86 56.06 56.37 57.37 58.44 59.42 60.83 61.67 62.37 62.81 62.71 63.54 64.35 64.83 64.61 64.51 63.68 63.29 63.00 63.65 63.00 62.77 62.94
36.94 36.94 43.24 44.16 45.01 45.43 42.91 40.37 45.57 38.93 40.98 38.32 41.04 43.93 48.12 51.48 51.87 53.62 53.71 53.05 54.57 55.70 56.11 56.29 57.57 58.94 59.91 60.78 61.92 62.72 62.80 63.01 63.86 64.39 64.54 64.36 64.21 62.84 62.99 63.30 63.37 62.71 63.27 63.25
39.09 36.30 42.64 42.90 45.14 45.15 43.92 45.83 38.24 39.79 32.01 30.62 37.50 40.21 43.33 48.66 50.50 52.52 53.04 53.39 54.29 55.66 55.89 56.29 57.53 58.82 59.92 61.34 62.28 63.03 62.90 62.83 63.79 63.73 64.46 64.03 63.89 63.05 63.46 63.23 62.69 62.98 63.33 63.57
40.41 38.96 40.18 42.27 41.12 40.56 41.04 41.19 42.32 42.71 39.99 34.55 33.36 38.52 50.55 51.46 53.40 53.25 53.93 54.82 54.77 55.65 56.14 56.62 57.78 59.12 60.04 61.35 61.85 61.97 61.94 61.89 62.12 63.06 64.10 64.18 63.54 63.26 63.42 62.99 62.65 62.70 63.20 63.15
39.90 38.63 36.52 39.73 44.94 46.20 44.51 42.97 43.06 37.48 35.78 39.71 39.20 40.00 51.07 52.81 53.62 53.28 53.20 54.11 55.24 56.47 56.97 57.36 58.06 58.83 59.55 60.04 61.31 61.16 61.74 61.78 62.22 63.70 63.70 64.14 64.13 63.53 62.95 62.64 62.58 62.78 62.66 63.06
38.90 37.04 34.24 37.20 41.28 44.11 41.92 43.75 44.48 44.65 43.78 38.25 34.98 40.08 50.96 53.49 53.02 53.35 53.46 53.61 54.75 56.15 56.59 57.30 57.80 58.24 58.85 59.86 60.53 60.52 61.80 62.16 61.99 63.16 63.39 64.47 64.10 63.84 63.46 62.53 62.84 62.81 62.95 63.11
40.18 35.67 35.96 35.23 38.21 41.79 39.50 41.56 43.42 43.35 39.25 39.52 39.45 42.39 47.22 49.65 52.18 53.58 53.76 54.59 55.66 56.19 56.33 56.90 57.49 58.40 58.94 59.62 60.03 60.06 60.88 62.04 61.91 62.31 62.97 63.96 63.72 63.77 63.07 62.49 63.04 62.89 63.32 63.15
38.11 32.11 35.17 37.27 38.51 40.23 41.40 40.92 41.65 40.82 42.04 38.72 41.99 42.75 45.97 50.60 51.54 53.26 54.96 54.77 55.14 55.69 56.19 56.88 57.35 58.41 58.71 59.22 59.59 59.94 60.64 61.27 61.88 61.85 62.98 63.42 63.85 63.71 63.18 63.14 63.04 63.21 63.62 63.91
39.15 32.92 35.43 35.47 39.54 40.09 39.36 41.69 42.44 42.00 42.11 41.99 43.01 43.46 49.72 51.42 53.01 52.98 54.50 54.56 55.09 55.99 56.52 57.28 57.96 58.54 58.38 58.70 58.79 59.43 60.60 60.95 61.77 61.82 62.85 62.92 63.26 62.64 63.08 63.15 63.25 63.31 63.43 64.00
35.67 35.06 33.64 33.19 37.54 39.14 36.51 41.39 42.58 42.80 43.57 43.51 40.71 45.56 48.93 49.44 52.09 54.54 55.18 55.38 55.96 56.98 57.07 57.43 58.20 58.70 58.83 58.89 59.49 59.16 61.15 61.08 61.02 61.02 62.72 62.58 62.89 62.32 62.47 62.88 63.04 62.89 63.34 64.15
35.67 34.77 34.77 34.34 37.16 30.71 41.43 45.60 46.48 44.22 43.37 44.19 45.96 48.25 48.91 51.16 52.95 54.28 56.76 56.98 57.13 57.90 57.99 58.47 59.09 59.59 59.84 59.97 59.94 60.54 61.64 60.88 60.38 60.75 62.46 62.49 62.56 62.11 62.43 62.58 62.66 62.83 63.29 63.74
39.33 36.50 33.24 32.41 35.36 39.91 40.69 41.44 40.79 43.14 40.65 44.01 44.09 46.00 47.44 49.45 52.91 54.49 57.56 58.37 58.89 59.65 59.83 60.12 60.62 60.83 60.50 59.95 60.27 60.12 60.50 60.88 60.39 59.95 62.12 62.19 62.92 62.19 62.28 62.43 62.74 62.13 62.65 62.77
38.42 38.59 34.32 34.26 33.39 32.90 38.36 42.65 45.09 47.07 39.78 44.88 45.27 45.46 46.01 48.01 48.01 53.16 52.35 55.66 58.34 60.54 60.88 60.36 60.77 61.04 60.32 60.44 60.74 59.87 59.91 60.14 60.16 60.10 61.60 62.34 63.31 62.81 62.80 63.58 62.56 62.07 62.78 62.13
34.59 34.95 31.10 33.23 33.78 36.51 41.55 44.47 46.49 40.03 38.79 45.26 46.01 46.50 46.65 45.59 50.02 50.41 53.29 55.52 58.52 60.30 60.83 61.12 60.80 60.44 60.71 61.14 60.71 59.88 60.05 59.80 61.34 61.40 61.34 61.98 62.93 63.47 63.90 64.09 62.97 61.61 61.64 61.24
33.65 33.70 32.50 34.76 33.85 32.20 43.94 42.86 39.23 42.19 45.81 46.08 46.67 47.33 47.20 48.56 50.02 51.20 53.13 54.49 57.57 59.07 60.01 60.36 59.76 60.28 60.95 60.72 60.66 60.25 59.70 61.51 61.97 61.55 60.59 61.23 62.59 63.08 62.87 63.59 62.69 61.65 61.93 60.68
32.72 35.39 34.11 35.31 35.58 42.71 45.04 43.55 45.67 46.27 45.44 45.98 46.58 48.24 49.02 49.41 50.64 51.89 52.52 54.68 57.27 59.07 60.10 60.40 60.37 60.42 60.32 60.36 61.23 60.41 60.90 61.59 61.35 61.12 60.70 60.88 61.61 62.47 62.89 62.77 62.43 60.65 61.39 60.47
37.15 40.13 36.54 36.64 39.03 41.06 43.74 45.49 45.75 46.09 46.41 47.73 48.16 48.74 50.26 49.75 51.49 52.30 54.59 55.97 56.78 58.74 59.79 60.36 60.68 59.92 59.05 60.08 61.03 61.81 61.85 61.07 60.94 60.80 61.04 60.71 60.20 61.53 62.30 62.57 62.56 61.67 60.14 59.81
38.74 40.18 37.35 37.12 39.67 41.69 43.65 44.07 44.47 45.21 46.92 47.31 48.36 49.03 50.20 50.97 51.47 52.95 53.59 57.35 57.64 58.61 59.93 60.29 60.41 60.24 59.74 60.00 60.68 62.06 61.67 60.94 60.44 61.11 60.78 60.22 60.04 60.70 61.97 62.67 62.27 61.80 62.61 59.72
39.91 38.16 36.78 35.77 39.81 39.94 40.58 44.29 45.61 44.65 44.95 46.98 47.52 48.08 50.44 52.23 51.88 53.73 55.44 58.18 58.56 58.71 59.55 59.69 60.55 60.58 60.40 60.07 60.61 61.28 61.49 60.90 61.11 60.49 60.28 59.82 59.28 59.34 61.44 61.78 59.86 41.94 46.59 46.54

GFSCGP_sfc_wetblb_012.txt.gz
Wetbulb
47.25 43.95 43.64 46.90 48.35 48.99 48.84 48.72 48.32 50.98 53.31 51.64 50.98 51.28 53.15 55.61 55.33 54.97 56.20 56.59 57.14 58.57 61.63 63.86 64.24 64.48 64.95 65.77 66.48 67.29 68.13 69.64 68.72 66.93 65.24 64.98 64.77 66.73 67.35 68.00 69.18 68.86 68.67 67.92
45.24 42.21 47.39 49.21 49.37 47.98 47.76 47.09 47.74 50.93 52.67 51.89 50.96 49.61 52.63 54.07 54.63 55.40 56.00 56.36 57.58 59.49 60.06 62.92 63.45 63.50 64.48 64.96 66.23 67.08 67.95 68.60 67.94 66.36 66.31 66.07 66.24 66.60 67.73 68.51 68.72 68.84 68.15 67.40
43.05 44.75 48.01 47.52 47.19 46.23 46.49 46.03 46.85 46.48 49.11 51.41 49.30 47.39 49.44 52.77 54.41 55.09 56.09 57.71 58.92 58.86 59.12 62.71 62.74 63.14 64.36 64.71 65.83 66.61 67.63 67.76 67.43 67.78 67.29 67.79 68.01 68.10 66.23 66.97 67.11 67.41 67.76 67.37
43.94 47.64 46.65 46.50 45.73 47.09 44.06 48.20 46.67 46.16 45.73 42.18 49.33 40.76 48.38 51.10 51.91 53.58 55.02 56.59 57.77 58.59 61.45 62.42 63.08 63.06 64.03 64.77 65.99 66.97 67.30 67.37 67.66 68.06 67.02 66.96 64.28 63.38 66.36 67.11 68.06 67.33 66.87 66.10
42.46 44.05 44.53 44.87 45.94 48.04 45.97 47.33 46.75 46.77 45.18 45.16 45.18 42.86 46.22 50.50 49.81 52.15 55.05 56.87 58.47 59.07 61.24 62.07 62.59 63.19 64.17 64.82 65.70 66.45 67.09 67.28 67.62 67.57 67.67 66.13 65.92 65.96 66.66 66.41 65.96 66.59 66.78 66.08
44.20 48.24 46.65 46.57 47.92 48.11 48.74 46.64 46.82 46.97 45.38 39.51 44.17 43.73 44.54 47.86 50.62 52.84 55.34 55.83 57.15 60.25 61.14 62.28 62.83 63.26 63.55 65.03 65.62 66.31 66.64 66.57 67.36 67.38 67.46 67.30 66.87 66.07 65.20 65.31 64.81 65.42 66.20 66.40
43.01 43.28 46.66 47.52 45.77 47.94 47.27 45.29 39.95 38.28 38.77 37.98 46.15 43.67 45.87 51.78 53.62 53.81 54.07 56.75 59.59 61.13 61.43 61.40 61.72 62.22 63.14 63.97 64.75 65.62 65.63 65.57 66.60 66.86 67.05 67.73 67.30 66.60 65.76 65.26 65.35 64.49 63.43 65.88
36.74 36.70 43.38 46.76 45.80 44.53 45.03 45.45 40.87 34.65 36.63 40.21 46.52 41.73 46.19 52.40 54.22 56.02 55.38 56.90 59.04 61.02 61.68 61.76 62.08 62.58 63.02 63.69 64.60 64.63 65.19 65.24 66.01 66.04 66.92 67.70 67.83 66.05 66.11 65.76 65.89 65.88 65.40 64.86
37.20 39.24 45.86 46.35 47.11 47.86 45.40 43.16 48.28 43.22 44.21 42.15 44.73 47.86 51.27 53.44 53.80 54.47 56.07 56.92 58.96 60.91 61.36 61.61 62.23 62.86 63.29 64.04 64.42 65.00 65.11 65.09 65.29 65.79 67.30 67.16 67.41 66.31 65.75 65.42 66.44 64.85 65.80 64.85
41.76 38.17 45.53 45.15 47.36 48.40 47.97 49.09 42.40 43.74 37.13 35.72 41.04 43.76 46.62 50.57 51.73 53.97 55.02 57.29 59.54 61.01 61.15 61.54 62.14 62.82 63.80 64.58 65.07 65.78 65.69 64.44 65.32 66.97 67.05 66.81 67.02 66.71 66.15 65.70 64.79 64.92 65.36 65.14
42.61 41.89 43.21 45.16 43.30 43.46 45.46 45.09 45.96 46.40 43.79 38.85 38.39 41.80 50.05 51.83 54.06 55.18 56.90 59.09 59.80 60.32 60.73 61.22 62.02 63.16 64.06 64.69 65.17 65.38 64.45 64.54 65.00 66.26 66.66 66.51 66.52 66.50 65.96 65.39 64.86 65.29 65.43 65.45
42.20 42.06 37.99 41.85 46.42 48.24 47.57 46.52 46.80 41.60 40.34 42.94 41.88 41.64 53.80 54.57 55.70 56.31 56.88 59.16 60.50 61.14 61.07 61.49 62.15 62.67 63.41 63.98 64.38 64.03 63.78 64.06 65.08 65.77 66.20 66.42 66.52 66.55 66.01 65.04 65.20 64.85 65.13 65.25
39.40 40.34 37.46 40.58 44.21 46.69 45.01 45.65 47.21 47.59 47.74 42.66 38.97 42.34 52.50 55.10 56.36 57.11 57.76 58.84 60.04 60.68 60.93 61.33 61.77 61.92 62.69 63.15 63.39 62.78 63.34 63.55 64.67 65.46 65.51 66.12 66.15 65.96 65.71 65.15 65.48 64.88 64.67 64.42
41.77 40.58 39.95 38.23 41.33 44.85 43.07 44.37 46.51 46.65 42.91 42.97 43.13 44.01 49.36 53.54 54.17 56.21 57.81 59.20 59.97 60.51 60.55 61.13 61.36 61.94 62.72 63.11 62.65 61.86 62.83 63.64 64.29 64.83 65.10 65.40 65.30 65.81 65.66 65.29 65.12 64.72 64.75 64.14
40.37 37.54 41.38 42.43 42.50 43.28 44.75 44.28 45.20 44.85 46.14 43.10 44.42 45.33 48.59 52.77 53.28 56.03 57.23 58.97 59.35 59.96 60.35 60.77 61.15 61.95 62.69 62.48 62.06 61.80 62.81 63.42 64.11 63.84 64.59 65.33 66.29 66.02 65.44 65.12 65.01 65.09 65.01 65.10
41.79 37.88 41.23 39.66 42.75 42.55 42.12 44.93 45.35 45.76 46.47 46.11 45.84 46.32 51.94 53.49 54.06 54.29 56.22 58.19 59.14 59.83 60.26 60.95 61.57 62.30 62.30 62.02 61.32 61.21 62.19 62.79 63.81 63.66 64.09 65.11 65.54 64.98 64.90 64.92 64.77 65.22 65.36 65.62
38.44 37.44 38.98 36.55 42.15 41.49 38.94 43.91 45.02 45.68 47.32 47.13 44.31 48.44 51.68 51.64 52.30 54.02 56.84 57.83 59.12 60.53 60.74 61.01 61.65 62.58 62.65 62.12 61.64 61.26 62.33 62.84 63.14 63.58 64.24 64.69 64.71 64.08 64.24 64.83 64.79 65.04 65.31 66.05
36.75 37.10 40.59 38.40 41.28 32.56 45.40 49.21 48.61 46.89 47.27 48.73 48.36 50.01 51.45 52.74 54.43 55.65 57.46 57.14 58.71 61.25 61.62 62.12 62.74 63.28 63.25 62.82 61.93 62.28 62.82 62.06 62.31 62.97 63.95 64.48 64.09 64.03 64.38 64.54 64.59 65.22 65.63 65.88
41.13 37.37 34.34 37.11 37.55 42.27 44.48 45.84 46.18 46.83 44.41 48.20 48.73 50.56 51.98 53.25 53.97 54.68 57.89 59.87 60.28 62.15 63.50 63.60 64.16 64.48 63.81 62.58 62.28 62.01 62.28 61.35 61.70 62.10 63.72 64.42 64.41 64.48 64.69 64.60 65.43 65.85 65.66 65.55
39.61 40.27 35.51 39.86 36.04 33.84 43.16 46.44 48.83 50.08 43.36 48.86 49.50 50.29 51.01 52.55 49.00 54.08 56.80 57.97 60.38 63.14 64.41 64.17 64.43 64.78 63.67 62.93 62.66 61.91 61.63 61.00 60.90 61.89 63.85 64.98 64.80 64.62 64.54 65.07 65.23 66.29 66.08 65.19
36.51 35.67 32.74 36.43 39.25 41.04 44.93 48.52 50.50 42.25 42.84 49.32 50.17 51.03 51.54 50.74 53.60 55.54 57.38 58.23 59.98 62.36 64.09 65.28 64.90 64.27 63.65 63.28 62.72 61.54 61.50 60.70 61.92 62.33 63.99 64.91 65.57 65.35 65.95 66.18 65.65 65.40 64.98 64.88
35.32 34.37 34.05 35.91 36.99 34.83 47.45 46.82 44.17 45.52 49.83 50.21 50.92 51.82 51.80 53.45 54.91 56.47 57.58 58.49 59.34 61.43 63.49 64.66 64.20 64.27 64.06 63.48 62.55 61.43 61.22 62.04 62.42 62.33 63.04 63.99 65.50 65.33 65.76 66.50 65.49 64.95 64.63 64.71
34.85 36.18 35.99 35.51 36.15 44.94 47.21 46.52 49.27 50.06 49.37 50.37 51.03 52.30 53.14 54.07 54.96 56.45 57.53 58.96 59.60 60.98 63.24 64.62 64.36 64.12 63.66 63.47 62.61 61.39 62.57 62.33 61.94 62.29 62.28 63.24 64.53 65.41 65.81 65.67 65.28 63.79 64.27 62.73
38.79 41.08 37.27 36.75 40.46 43.97 45.48 48.43 48.79 49.54 49.28 50.92 52.17 52.57 53.61 53.90 56.15 56.89 58.25 59.06 60.83 61.16 62.70 64.39 64.28 63.69 62.58 63.25 62.72 62.91 63.20 62.54 62.03 62.30 62.30 62.82 62.83 64.51 65.36 65.00 64.86 63.68 62.88 61.54
39.94 40.80 38.36 37.34 42.25 44.56 45.95 47.42 47.42 48.06 49.50 50.08 52.17 52.84 53.43 54.77 55.96 56.94 58.71 60.20 61.02 61.99 62.68 64.01 63.93 64.04 63.17 62.96 62.75 63.29 63.11 62.68 62.01 62.40 62.48 62.47 62.48 63.19 64.97 64.74 64.75 63.81 64.83 61.01
40.05 38.67 36.68 36.51 42.27 42.33 44.78 47.02 47.68 46.90 47.59 49.98 50.42 51.70 53.80 54.92 55.69 56.89 58.30 61.76 62.51 62.32 62.54 63.66 64.20 64.52 63.80 62.72 62.59 63.06 63.06 62.81 62.49 62.19 62.26 61.75 61.09 61.99 62.89 64.20 63.94 42.75 48.27 47.37

GFSCGP_sfc_wetblb_015.txt.gz
Wetbulb
50.03 45.49 43.62 46.53 49.35 50.37 50.10 49.54 49.06 51.68 54.51 52.70 52.23 52.80 55.01 56.43 56.75 56.65 57.60 58.47 59.21 59.40 61.57 63.53 64.52 66.36 67.32 68.59 69.88 70.91 71.34 74.43 73.29 71.23 69.34 68.08 66.38 67.58 67.47 68.34 69.41 69.39 69.30 69.60
46.95 43.37 47.67 49.17 49.60 49.02 48.53 47.72 48.22 51.57 53.86 52.62 52.52 52.15 55.08 56.34 56.59 56.99 57.05 57.71 58.48 59.35 60.42 61.75 63.77 67.60 67.24 68.02 68.84 69.08 70.28 72.66 72.74 70.94 70.39 68.87 68.47 67.16 67.63 68.25 69.20 69.47 68.77 68.88
43.72 46.41 49.02 47.51 47.22 47.15 48.09 47.23 48.07 48.56 52.13 52.72 52.20 50.43 52.23 54.92 56.15 56.52 57.04 57.82 58.42 59.12 59.80 61.44 62.35 66.81 66.88 67.27 68.04 68.56 69.74 71.46 71.94 71.91 70.37 69.20 68.65 68.44 67.00 66.51 67.20 68.48 68.03 68.31
44.83 48.09 47.56 46.69 45.99 47.47 44.91 50.30 49.74 49.23 48.39 44.88 51.58 43.80 50.28 52.88 53.45 54.97 56.37 57.38 58.10 59.32 60.64 61.57 62.66 66.08 66.69 67.17 68.47 68.92 69.87 69.80 69.70 71.45 70.13 70.93 66.60 64.62 65.49 67.66 67.63 68.07 67.15 66.95
42.78 44.93 45.20 45.58 46.25 48.72 47.20 50.67 50.26 49.75 47.64 47.19 47.21 44.76 47.97 51.97 50.94 53.25 55.63 56.76 58.27 59.09 60.10 60.85 64.05 65.91 66.63 67.41 68.03 68.88 69.17 68.71 69.29 69.53 70.85 67.02 67.47 65.58 66.60 66.24 67.27 67.78 67.95 66.53
44.14 48.73 47.70 46.95 48.93 49.37 50.20 49.20 49.65 49.95 47.82 41.79 45.97 45.43 45.89 48.89 51.32 53.53 55.98 57.09 58.32 59.42 60.74 62.67 65.69 66.24 66.36 67.17 67.73 68.05 67.82 68.01 68.38 68.13 68.35 68.51 67.47 66.30 65.76 65.73 66.89 67.61 67.44 66.95
41.19 43.36 47.76 49.13 46.01 49.17 49.11 47.35 41.24 39.69 39.95 40.22 47.56 45.43 47.33 52.18 53.65 54.73 55.42 56.95 57.98 61.34 63.00 63.90 64.07 64.56 65.37 65.91 66.72 66.99 67.19 66.80 67.41 67.46 67.62 67.62 67.67 67.53 66.71 65.76 66.16 65.79 64.72 66.31
35.84 34.75 43.46 48.08 46.80 45.73 46.73 47.06 42.08 36.09 38.98 41.69 47.52 43.23 47.62 53.80 55.54 55.94 56.61 57.41 61.14 62.57 63.30 63.56 64.09 64.70 65.02 65.79 66.18 66.33 66.43 66.16 66.66 66.85 67.11 67.70 67.75 66.52 66.12 66.48 65.70 66.25 65.58 66.13
37.76 37.09 44.88 46.99 48.39 47.86 46.19 44.69 49.07 45.42 47.06 44.01 46.20 48.94 52.39 54.69 55.09 55.25 56.45 57.17 60.41 62.34 63.11 63.70 64.43 64.85 65.05 65.55 65.75 66.15 66.18 66.20 66.38 66.33 67.15 67.19 67.32 66.77 66.62 66.87 66.99 65.47 66.31 65.49
42.17 37.07 43.33 46.60 48.05 48.34 47.85 50.13 43.47 46.40 39.40 38.61 43.96 46.10 45.77 51.42 52.88 54.59 56.41 57.14 59.69 62.47 63.10 63.66 64.21 64.70 65.33 65.69 65.95 66.75 66.64 66.12 65.94 66.55 66.82 66.82 66.92 66.85 66.90 66.59 65.87 65.99 66.38 65.80
42.30 38.81 42.20 45.42 44.87 43.73 45.22 45.56 46.79 47.59 46.03 41.27 40.43 43.22 52.23 53.11 54.52 54.84 55.99 58.37 61.16 62.25 62.72 63.23 63.99 64.72 65.34 65.80 66.17 66.40 65.95 65.35 65.33 66.38 66.42 66.60 66.59 66.79 66.61 65.89 65.39 65.80 65.61 66.17
44.18 40.12 37.52 42.07 48.03 48.56 47.81 47.05 47.70 43.98 43.32 45.43 45.02 45.44 54.96 54.75 55.75 57.47 58.24 60.26 62.04 62.55 62.82 63.43 63.86 64.40 64.62 65.09 65.59 65.48 65.19 64.77 65.43 65.91 66.30 65.90 66.30 66.62 66.49 65.69 65.10 65.92 65.17 65.46
41.55 39.73 34.00 39.30 44.98 46.90 45.80 47.36 49.10 49.11 49.72 44.52 42.63 45.31 54.80 55.87 56.62 57.59 58.40 60.71 61.50 62.12 62.29 63.08 63.61 63.74 64.18 64.92 65.15 64.21 64.21 64.21 65.24 65.66 65.67 66.06 65.84 66.45 66.38 65.48 65.75 65.18 65.09 64.50
41.59 39.98 38.52 36.02 41.43 45.02 43.89 46.15 48.56 48.47 45.00 45.52 45.28 47.34 51.81 54.55 55.33 57.42 59.33 61.03 61.18 61.51 62.21 62.71 63.01 63.64 64.32 64.76 64.16 63.20 63.40 64.30 65.08 65.14 65.18 65.76 66.10 66.31 66.04 65.96 65.52 64.76 64.58 64.13
40.30 36.04 39.97 39.41 42.59 45.77 45.20 45.67 46.99 46.89 47.95 45.68 47.44 47.24 50.55 54.50 55.51 56.56 59.60 60.56 60.50 60.97 61.43 62.30 62.70 63.21 64.19 64.02 63.25 62.74 63.41 63.77 65.02 64.58 64.80 65.51 66.03 66.23 65.46 64.97 65.05 64.91 64.64 64.64
41.43 36.54 38.40 35.55 40.90 44.30 44.42 45.99 46.49 47.34 48.14 48.35 48.57 48.19 52.13 54.20 55.86 55.87 57.90 59.51 60.00 60.76 61.39 62.30 62.90 63.47 63.56 63.14 62.06 62.66 63.21 63.47 64.52 64.14 64.72 65.37 65.47 65.18 65.17 65.15 64.94 64.87 64.83 65.26
38.46 37.46 37.34 31.74 39.99 41.78 40.77 45.68 46.41 47.36 49.37 49.36 46.22 49.44 53.36 53.30 54.59 56.78 57.60 58.74 60.23 61.30 61.81 62.60 63.03 63.77 63.97 63.13 62.53 62.44 62.96 63.76 63.90 64.23 65.16 64.95 64.85 64.43 64.53 64.94 64.68 64.92 66.16 67.00
37.87 36.41 37.62 34.95 37.90 32.47 44.98 50.15 49.55 48.37 49.57 51.02 51.07 51.18 53.89 54.46 55.16 56.30 58.70 59.28 58.72 61.98 62.48 63.29 63.82 64.54 64.56 63.77 62.60 63.06 63.33 62.94 63.35 64.06 64.77 64.70 64.37 64.26 64.70 64.91 64.65 65.39 67.29 66.33
42.78 38.15 35.49 33.23 35.06 42.03 44.73 48.68 48.58 47.64 47.71 51.95 50.92 51.91 54.26 55.02 55.61 55.57 59.43 60.14 61.48 63.08 64.13 64.48 65.15 65.57 64.91 63.19 63.03 62.64 62.46 62.42 62.99 63.93 64.41 64.34 65.02 64.80 64.82 64.65 64.83 66.01 66.94 67.00
42.47 42.37 35.48 37.26 33.84 31.85 42.92 49.22 51.92 52.83 44.64 51.83 52.40 52.66 53.06 54.35 50.60 55.27 58.97 59.87 61.32 64.13 65.09 65.03 65.55 65.95 64.67 63.33 63.33 62.45 61.93 61.85 62.25 64.07 64.79 65.20 65.62 65.40 65.09 65.78 66.14 66.59 66.53 65.47
34.86 36.76 33.88 37.33 38.06 41.31 46.74 51.24 52.08 43.05 44.05 52.16 53.10 53.74 53.59 53.13 55.47 56.90 59.49 60.02 61.28 63.22 65.27 66.20 65.97 65.52 64.74 63.73 63.15 62.02 62.11 61.32 62.95 64.56 65.47 65.49 65.95 65.75 66.29 65.93 66.35 66.43 65.94 65.70
34.86 36.62 37.34 39.37 36.01 35.10 48.46 49.47 46.20 49.08 52.80 53.00 53.56 53.74 53.92 55.53 57.04 58.11 59.36 60.02 60.80 61.84 64.47 65.98 65.44 65.60 65.05 63.84 62.86 62.03 62.09 62.77 63.42 64.16 65.32 65.76 66.17 65.77 66.21 66.20 65.35 65.07 65.50 65.66
35.34 36.69 36.02 36.09 34.99 43.38 47.32 46.97 49.85 52.48 51.43 52.40 53.06 54.14 54.87 55.81 57.01 58.72 59.48 60.36 61.40 62.19 64.29 65.82 65.61 65.66 64.79 63.75 63.10 62.19 63.10 62.95 63.16 63.29 64.83 65.72 66.23 66.15 66.63 66.10 64.56 63.62 64.77 64.40
38.97 41.43 38.25 38.43 40.49 43.34 46.50 47.90 49.27 50.82 51.57 52.82 54.23 54.65 55.55 55.38 57.77 58.85 60.36 61.27 61.55 63.08 63.77 65.60 65.88 65.28 64.14 63.71 63.20 63.42 63.47 62.78 62.97 62.89 64.21 64.90 65.39 65.15 66.02 65.49 64.62 62.94 62.81 63.27
38.55 39.87 38.33 38.72 40.98 44.30 47.04 47.91 48.75 50.63 52.09 52.64 53.82 54.42 54.93 56.13 57.23 58.61 59.70 62.59 63.04 63.65 63.79 65.36 65.53 65.51 64.67 63.81 63.12 63.57 63.68 62.98 62.90 63.18 63.14 63.87 64.31 64.94 65.29 65.47 64.20 63.98 65.15 60.82
41.31 38.85 37.39 36.70 41.69 41.77 44.58 48.65 50.29 49.83 50.92 51.87 52.01 53.32 55.05 56.50 56.76 58.41 59.19 61.23 63.05 64.28 64.04 64.78 65.75 66.01 65.40 64.02 63.05 63.12 63.72 63.03 62.98 63.71 62.69 62.69 63.00 63.84 64.99 64.20 64.10 43.62 47.66 47.26

GFSCGP_sfc_wetblb_018.txt.gz
Wetbulb
47.49 44.15 42.12 44.68 47.29 48.55 48.13 47.62 47.01 50.65 53.58 52.44 52.26 52.43 54.21 56.85 56.30 57.28 57.67 58.17 58.62 59.76 62.86 63.69 66.56 67.87 67.47 70.72 72.49 73.93 74.25 75.05 73.08 72.41 70.86 70.16 68.53 69.12 69.39 69.85 70.64 69.94 69.85 69.87
43.81 42.14 46.88 47.89 47.48 46.85 46.63 45.99 46.40 50.22 52.27 52.03 51.83 51.76 54.96 56.35 56.80 57.83 58.56 59.23 59.61 59.94 60.46 61.92 64.69 66.09 69.62 70.29 71.24 73.32 73.02 73.88 72.86 72.63 71.33 70.69 69.08 67.95 68.24 69.16 69.97 69.93 69.50 69.20
41.11 44.27 48.01 46.89 45.75 45.11 45.79 45.30 46.50 46.40 50.05 51.67 50.82 49.44 52.52 55.20 56.75 57.65 58.39 58.86 59.30 59.01 59.49 60.86 62.11 66.07 68.45 68.97 70.08 70.50 71.38 73.44 72.52 72.32 71.55 72.16 70.14 69.82 68.50 69.32 69.06 69.18 68.69 68.58
42.31 46.10 44.82 45.72 44.83 45.80 43.04 47.89 47.55 47.32 46.59 43.61 50.69 42.65 50.71 54.15 54.57 55.92 56.97 58.02 58.78 59.93 61.25 61.87 62.94 66.95 67.46 67.91 69.09 70.10 71.69 72.09 72.27 71.76 70.21 68.81 66.21 66.48 67.25 67.46 67.93 68.39 68.93 67.68
38.78 42.13 43.15 42.40 45.32 47.47 45.15 48.41 47.57 47.63 46.33 46.65 46.46 44.45 47.77 52.17 51.20 53.32 55.85 57.04 58.34 59.43 60.35 60.35 61.73 66.70 67.44 67.89 68.58 69.67 70.95 70.81 71.06 70.55 69.33 68.97 68.35 68.30 69.19 68.00 67.95 67.85 68.22 67.42
41.21 44.63 43.88 45.27 46.72 47.66 49.21 46.98 47.01 47.49 46.65 40.91 46.10 45.15 45.46 48.58 50.77 53.47 56.02 56.96 58.50 59.59 60.82 62.03 66.11 66.71 66.69 67.85 68.55 69.41 69.15 69.34 68.76 70.50 70.27 68.93 68.66 68.83 67.45 66.91 66.63 66.83 67.58 67.42
40.76 40.57 43.53 44.83 43.85 46.89 46.85 45.75 39.33 38.02 39.29 38.47 46.90 45.07 47.64 52.08 53.51 54.41 55.23 56.44 58.81 62.62 62.34 64.35 64.61 65.05 65.63 66.49 67.51 67.88 67.76 67.09 68.06 68.98 68.55 69.61 69.05 68.58 67.67 67.74 66.68 66.58 66.04 65.72
34.24 34.29 40.67 44.47 43.59 43.49 44.57 45.50 40.27 33.51 36.04 39.81 46.49 42.58 46.52 54.26 55.79 56.65 56.08 57.53 60.85 62.73 64.35 64.34 64.70 64.69 65.10 66.25 66.69 66.66 67.13 66.62 67.24 67.67 67.95 69.16 69.49 67.26 68.15 68.25 66.97 66.50 65.76 65.92
34.99 36.64 45.59 43.69 45.81 46.29 44.39 41.37 47.27 43.53 44.75 41.38 44.90 48.24 52.17 54.37 54.41 55.24 55.44 57.24 61.31 62.38 63.52 63.82 64.32 64.62 65.09 65.91 66.32 66.61 66.39 66.41 66.99 67.43 68.57 68.73 68.79 66.84 67.24 68.10 67.51 66.68 66.94 65.63
38.57 31.50 41.93 45.20 44.93 46.21 45.68 47.90 41.48 44.00 36.79 37.13 42.92 45.02 46.21 51.55 53.16 55.01 54.85 57.70 61.46 62.98 62.95 63.45 64.04 64.89 65.72 65.88 66.59 66.81 66.90 66.17 66.77 67.08 67.66 67.42 66.17 67.52 67.47 67.91 66.26 66.22 66.28 66.11
40.54 35.68 35.12 41.90 42.05 41.00 43.45 43.00 44.64 46.46 44.89 39.48 38.98 43.73 54.68 53.84 54.29 54.87 55.57 57.58 61.44 62.04 62.54 63.37 64.16 65.35 65.71 66.08 66.32 66.72 66.41 66.15 66.03 66.81 67.38 66.43 65.98 65.09 64.81 66.19 64.87 66.25 66.60 64.28
41.12 36.98 34.13 38.38 46.15 45.57 46.33 44.30 45.48 41.63 41.15 44.35 44.41 44.72 55.14 55.72 56.29 57.61 56.51 59.78 61.91 62.58 62.73 63.20 63.88 64.39 64.49 64.84 65.45 65.60 65.69 64.91 65.58 66.10 66.32 65.38 65.61 65.50 66.08 65.74 64.05 65.91 64.23 65.98
39.28 36.78 31.40 35.82 42.02 46.05 43.89 45.46 47.20 47.99 48.88 44.28 41.40 44.30 55.11 54.84 56.02 57.58 58.83 60.90 61.63 62.10 62.42 62.96 63.58 63.70 64.00 64.69 65.02 65.14 64.76 64.41 65.11 65.71 64.85 65.07 65.39 66.63 66.29 65.40 64.40 64.95 64.83 65.19
40.63 36.41 34.69 31.66 37.52 39.88 40.48 43.88 46.17 47.67 43.04 44.61 45.65 46.95 51.55 53.79 55.53 57.10 60.31 61.25 61.33 61.65 62.32 62.65 63.01 63.46 64.16 64.69 64.65 63.81 63.96 64.33 64.88 65.23 64.26 64.99 65.53 66.01 66.07 64.53 65.10 66.07 65.39 64.86
38.34 34.03 37.14 37.37 37.57 38.21 39.61 43.34 44.82 46.16 46.90 44.46 47.35 46.86 51.87 55.46 55.82 57.88 60.67 61.01 60.68 60.71 61.57 62.32 62.43 63.35 64.26 64.59 63.91 63.17 63.42 64.06 65.36 64.79 65.14 65.23 65.60 66.34 65.38 64.37 65.45 65.11 65.42 64.20
41.08 33.98 36.62 35.17 38.20 37.11 37.22 42.39 45.41 46.24 47.27 47.93 48.87 48.21 55.49 56.19 56.95 58.05 60.08 59.86 59.63 60.37 61.29 62.12 62.91 63.88 64.11 63.82 62.61 62.64 63.16 63.87 64.85 64.87 64.60 64.37 64.85 65.06 64.04 64.49 65.61 65.30 64.36 64.18
38.68 36.70 35.01 31.16 35.63 35.95 35.48 43.30 45.43 46.61 49.95 49.96 46.27 51.50 54.88 54.88 55.99 57.40 59.40 60.20 60.08 60.70 61.62 62.19 62.88 63.74 64.16 63.48 63.21 62.70 63.29 63.82 64.21 64.68 64.29 64.84 64.65 64.39 64.42 64.52 63.98 64.21 63.83 64.53
38.17 36.36 35.88 33.78 35.18 28.62 44.05 49.86 49.69 48.34 50.66 51.88 51.65 52.76 54.19 54.84 55.66 57.16 59.36 60.14 60.61 61.68 62.12 63.01 63.82 64.66 64.94 63.73 63.16 63.79 63.62 63.07 63.27 64.31 63.22 63.93 63.47 63.59 64.20 63.96 64.22 64.96 65.00 65.23
42.60 37.57 33.83 31.69 33.04 37.14 43.06 45.12 48.07 47.89 47.22 52.40 51.69 53.29 53.95 55.36 55.69 56.58 59.06 59.68 60.58 62.96 64.37 64.38 65.25 65.58 65.50 63.52 63.28 63.07 62.64 62.57 63.03 63.73 64.10 63.92 63.92 64.03 63.43 63.12 63.73 64.88 65.41 64.93
41.08 40.99 35.73 34.55 29.13 33.71 42.04 47.21 51.84 52.97 43.38 52.32 53.56 53.17 53.54 54.33 49.06 53.74 58.50 59.94 60.58 62.86 65.43 64.58 65.60 65.93 64.96 64.00 63.35 63.01 61.88 62.23 62.82 63.95 64.19 64.63 64.83 63.72 63.90 65.23 65.44 65.84 66.05 65.92
36.13 36.66 33.78 33.24 32.29 37.96 44.41 47.82 51.80 42.01 42.70 52.61 53.68 53.79 54.01 53.22 54.91 57.33 59.52 60.21 61.62 62.89 64.72 65.89 66.11 65.28 65.10 64.54 63.57 62.63 61.90 61.80 63.59 64.93 65.00 65.30 65.54 66.33 66.48 66.55 66.52 66.72 63.38 64.55
34.31 34.34 34.53 35.57 33.38 31.61 44.23 47.90 43.19 48.14 52.77 53.29 53.49 54.16 54.52 56.28 57.33 58.30 59.06 60.07 61.14 61.82 64.17 65.78 65.64 65.55 64.93 64.32 62.95 62.45 61.95 63.38 63.95 65.13 65.00 65.49 66.33 65.03 65.59 66.53 67.21 66.22 64.74 63.91
33.77 36.68 33.54 36.51 34.67 40.93 44.94 46.35 48.17 50.76 50.70 52.63 53.52 54.66 56.02 56.65 57.29 58.62 59.30 60.56 61.01 62.01 63.75 65.51 65.68 65.56 64.52 63.88 63.14 62.36 63.11 63.60 63.49 64.99 65.68 65.43 65.56 65.98 65.90 65.27 65.83 64.36 65.56 64.07
38.54 41.06 37.41 39.33 40.17 41.60 45.17 48.33 50.41 51.16 51.38 53.31 54.34 55.01 56.01 55.97 57.42 58.32 60.26 61.63 61.38 62.75 62.87 65.74 65.84 65.25 63.84 63.74 63.42 64.19 63.93 63.32 63.20 64.75 65.96 65.47 65.05 65.69 65.78 64.86 64.39 63.29 63.83 62.66
39.17 39.99 37.92 39.00 40.48 43.17 44.75 47.43 48.73 49.98 51.77 52.58 54.09 54.53 55.09 56.20 56.73 58.27 59.17 60.67 62.68 63.37 63.63 65.74 65.82 65.68 64.53 64.04 63.29 64.21 63.84 63.05 63.58 64.51 65.43 65.89 65.48 65.87 65.50 65.53 62.97 63.86 63.41 60.65
42.42 39.49 37.39 36.63 42.56 42.50 43.90 47.54 49.68 49.63 50.21 52.07 52.27 53.45 55.39 55.96 56.33 58.10 58.10 59.55 60.70 63.21 64.47 64.97 66.75 66.58 65.46 63.90 63.43 63.33 63.85 63.33 64.47 63.33 64.30 64.24 64.51 64.46 64.76 63.65 61.25 43.28 47.12 45.40

GFSCGP_sfc_wetblb_021.txt.gz
Wetbulb
42.19 37.30 36.39 39.49 41.78 43.45 43.95 43.44 42.70 45.73 49.25 48.44 47.92 48.47 50.66 53.27 52.58 52.35 53.01 54.01 54.83 55.43 56.82 57.35 59.60 59.75 58.99 63.85 65.00 66.43 68.23 69.71 70.40 69.57 68.22 66.46 64.86 64.40 65.07 64.43 65.49 65.91 66.05 66.05
39.32 35.51 41.24 44.49 44.11 43.01 42.56 40.50 41.06 45.78 49.28 47.83 47.61 47.27 50.90 52.82 52.21 53.11 53.46 53.22 53.90 54.22 56.48 57.45 57.36 57.99 60.90 61.93 65.39 66.80 69.44 69.86 69.54 69.26 67.42 66.44 64.40 64.41 64.63 64.24 64.34 64.82 64.56 64.35
35.45 39.68 44.12 43.39 42.49 41.56 41.16 40.35 40.57 41.24 46.00 47.13 45.57 43.75 46.34 49.83 51.93 53.32 53.85 53.50 54.51 54.51 54.38 55.13 55.76 56.26 62.40 63.06 65.45 66.77 68.97 68.51 68.71 68.56 67.79 65.45 63.54 62.96 62.17 62.44 63.77 64.07 64.54 64.97
36.58 41.72 42.55 41.02 40.92 42.88 37.97 44.57 44.21 43.83 42.20 37.38 45.22 36.33 44.13 47.28 49.00 51.60 53.25 53.54 55.06 54.54 55.59 56.15 55.60 59.48 62.28 63.49 64.86 65.92 68.85 68.49 68.57 67.41 65.31 63.34 61.35 60.65 61.35 61.65 62.96 64.17 64.04 64.23
35.11 37.66 38.11 38.54 40.50 44.11 40.91 45.71 43.90 43.73 41.02 40.13 41.48 37.73 42.48 46.90 46.31 47.92 50.72 52.20 52.65 53.76 54.93 55.24 56.14 62.04 63.43 63.77 64.43 66.79 67.77 66.98 66.56 65.10 63.90 61.95 60.57 61.65 62.03 62.60 62.52 62.97 61.92 62.74
38.88 42.79 40.42 39.05 41.78 44.24 45.21 43.70 43.12 42.47 39.86 33.08 39.52 39.60 40.29 43.14 46.10 48.93 51.04 52.29 53.53 53.60 54.21 56.71 62.49 63.39 63.29 64.95 65.70 66.79 66.03 65.06 65.22 64.15 63.56 62.44 61.65 61.50 60.70 61.72 61.73 61.43 60.97 62.07
38.67 39.43 41.31 42.21 38.11 40.74 41.54 37.31 30.83 29.93 31.20 31.22 40.72 39.20 42.01 45.89 49.49 50.85 50.78 51.82 53.78 56.41 59.54 60.74 61.33 62.06 63.29 64.36 65.23 65.06 64.32 62.54 63.81 64.33 62.47 63.62 61.20 61.68 61.02 60.36 60.40 60.59 60.79 60.67
31.06 29.79 39.90 44.20 38.67 35.95 36.41 37.75 31.58 25.04 28.88 33.11 41.41 36.01 41.42 48.97 51.34 52.06 52.56 51.29 57.92 58.65 59.65 60.08 60.97 61.97 63.18 64.09 64.01 63.49 62.79 62.37 63.29 62.45 63.03 62.92 62.10 61.24 61.39 60.93 60.85 60.98 60.48 60.81
31.40 32.43 42.49 42.21 43.13 40.97 36.72 33.97 41.15 35.51 37.69 34.20 37.35 41.98 46.36 48.56 49.50 51.13 51.74 52.56 56.31 58.27 59.35 59.93 60.27 61.79 63.00 63.13 62.26 62.72 62.53 62.18 62.68 62.14 62.94 62.57 61.99 62.14 61.49 61.46 61.33 60.79 60.87 60.82
36.43 29.09 38.52 40.20 41.96 42.88 39.49 41.26 34.13 35.85 28.19 27.46 36.06 38.33 39.79 46.08 47.97 50.43 50.37 55.13 56.31 58.28 59.05 59.47 60.39 61.46 62.51 62.67 62.74 62.70 62.18 61.83 62.26 62.96 62.68 61.89 62.59 62.59 61.92 61.24 60.72 60.96 60.71 60.97
37.11 32.76 33.29 37.94 35.44 35.37 37.22 35.83 36.82 37.73 35.72 31.18 30.28 36.42 46.89 47.81 50.06 49.60 51.02 56.31 56.85 57.69 58.72 59.30 60.78 61.87 62.12 62.48 62.60 61.96 61.72 61.87 61.54 62.48 61.30 61.99 62.64 62.55 60.81 60.74 61.78 60.52 60.19 62.19
37.71 34.01 29.63 33.07 39.61 42.09 40.32 37.76 38.10 33.26 33.32 37.03 35.67 37.69 50.62 51.20 51.24 50.03 53.00 57.15 57.55 58.66 59.17 60.23 61.02 61.37 61.38 61.63 61.66 61.26 61.30 61.38 61.16 62.62 61.93 62.95 62.63 61.21 60.87 60.56 61.23 60.20 58.58 59.55
37.58 31.26 26.73 30.17 35.10 40.32 38.20 41.48 40.21 38.84 38.36 35.67 34.72 37.40 48.65 49.95 52.89 54.86 56.14 57.27 58.21 58.60 59.15 60.22 60.50 60.28 60.70 60.76 61.45 61.14 60.63 60.25 61.32 63.12 62.91 62.88 62.76 61.14 60.54 60.71 62.06 59.67 59.39 61.05
39.74 32.46 29.98 26.73 32.29 36.15 34.37 36.74 39.28 38.49 34.73 36.66 39.42 41.61 44.71 48.93 51.51 55.28 56.57 57.35 57.84 58.53 59.22 59.45 59.64 59.60 60.76 61.29 61.14 60.82 59.79 60.15 60.76 62.91 62.28 62.55 61.20 61.17 60.77 60.90 60.51 61.95 60.35 60.46
37.68 31.81 33.40 35.31 37.54 37.60 35.34 35.38 36.70 34.94 38.78 37.16 40.53 42.13 46.86 50.41 52.37 55.56 56.68 57.34 57.45 58.03 58.55 58.99 58.96 59.55 60.05 59.80 60.24 60.04 59.37 59.99 60.26 62.78 62.92 62.58 61.54 61.59 60.93 60.93 59.75 60.75 60.94 60.04
39.08 33.37 35.05 32.77 37.25 37.27 33.99 36.42 36.83 37.01 38.07 41.30 42.86 43.82 51.31 51.89 54.91 56.18 56.77 57.28 57.09 58.10 58.96 59.28 59.72 60.28 60.15 60.04 58.87 58.85 58.69 59.64 62.08 62.55 62.70 63.40 63.26 62.89 62.11 61.73 61.81 58.80 60.90 61.40
34.17 34.09 32.21 29.84 36.59 35.56 30.20 34.72 36.46 38.48 40.46 42.02 40.32 45.48 52.88 52.76 53.93 53.71 55.09 57.11 57.51 58.77 59.29 59.48 60.14 60.39 60.19 59.09 58.25 57.33 58.63 59.69 62.26 62.40 63.08 63.96 62.84 61.43 62.05 62.02 59.84 59.64 60.78 61.91
33.33 32.48 34.10 32.30 34.01 23.47 35.76 46.16 43.64 40.87 43.61 48.57 48.01 51.31 53.15 52.78 54.26 54.16 55.21 55.20 57.49 58.95 59.37 59.56 60.26 59.97 59.63 58.22 57.68 58.23 58.93 58.95 61.03 62.31 62.69 62.01 61.55 60.59 61.18 61.53 60.37 60.65 59.41 59.23
37.78 35.55 31.78 30.25 30.27 33.48 37.60 42.37 41.50 40.95 44.63 50.52 49.35 50.51 51.94 53.80 53.67 52.39 56.19 57.19 57.01 58.15 59.26 60.14 61.17 60.48 58.75 58.50 58.04 58.40 57.67 58.32 58.99 61.62 60.77 61.00 61.13 60.16 61.77 61.50 60.05 59.78 60.01 59.84
39.87 38.01 34.44 33.10 27.98 27.94 37.62 41.47 44.67 45.75 41.18 50.53 51.22 50.24 52.16 52.11 46.80 48.34 53.68 56.43 57.71 58.09 59.29 61.20 61.48 60.30 58.63 58.25 57.71 57.40 56.69 57.30 57.86 61.61 60.92 61.39 61.21 61.75 61.45 61.90 60.23 59.84 60.35 60.97
33.55 34.31 32.40 31.94 30.72 33.67 41.09 41.99 43.81 39.61 41.47 51.31 52.03 51.84 51.73 48.71 49.74 52.15 54.36 55.94 58.12 58.27 58.92 61.94 61.62 59.44 58.68 58.67 57.70 56.68 56.34 56.62 58.96 62.50 62.39 61.46 61.62 62.44 61.33 60.88 60.42 60.74 61.02 60.98
33.07 31.97 32.77 33.72 31.04 29.06 41.18 42.68 41.71 45.20 48.75 51.54 50.75 52.31 51.32 52.36 53.94 54.64 55.88 56.82 58.00 58.04 59.55 62.18 60.68 59.61 59.33 58.79 58.33 56.63 55.54 57.84 60.03 61.57 62.17 61.96 62.07 63.64 62.78 60.73 60.54 61.10 60.63 59.71
32.47 35.58 31.97 35.15 34.16 41.83 43.82 44.37 47.98 49.40 48.76 49.91 50.50 51.42 52.65 52.80 53.33 54.83 55.86 57.71 57.74 58.79 58.76 62.45 60.94 59.14 59.10 58.63 58.26 56.96 56.72 58.37 59.85 60.82 62.09 62.00 61.52 61.76 60.96 60.17 60.07 60.27 59.92 60.13
37.76 40.56 33.93 37.49 39.56 41.23 44.29 46.00 47.04 48.88 48.99 50.36 50.49 51.02 51.70 51.52 53.20 54.60 56.39 57.21 57.64 58.52 58.99 61.42 60.95 58.96 58.09 58.51 58.12 58.46 58.38 59.07 60.02 61.15 61.05 60.81 61.61 60.58 60.57 60.51 60.32 60.34 60.03 59.87
38.55 39.37 37.78 37.57 41.43 42.87 44.47 45.30 46.16 48.27 50.35 49.51 50.29 51.19 52.39 52.42 53.09 54.23 54.69 56.43 56.22 57.36 59.66 60.80 60.86 59.52 58.92 59.07 58.06 59.60 59.03 58.50 59.73 61.65 61.08 59.97 61.79 61.27 60.16 57.54 56.02 58.60 57.94 61.66
39.81 38.47 36.20 35.99 42.19 41.89 43.09 46.29 47.64 47.15 48.52 49.88 49.90 50.56 52.17 52.47 52.89 53.75 53.90 55.46 55.80 57.79 60.41 60.61 61.73 60.42 60.02 59.67 59.15 59.55 59.64 58.56 59.79 61.29 61.26 60.82 61.33 61.74 60.63 55.02 52.71 43.80 43.70 46.72

GFSCGP_sfc_wetblb_024.txt.gz
Wetbulb
38.97 34.06 33.49 37.09 39.58 40.27 41.46 40.41 39.73 42.72 46.29 45.23 45.32 45.87 48.04 50.59 51.21 50.26 51.30 52.47 53.71 54.49 56.12 56.41 55.67 57.45 58.15 57.47 58.17 60.51 65.46 65.84 67.55 66.70 66.92 65.92 63.56 63.67 63.02 63.58 64.93 65.24 65.13 65.24
36.30 33.10 38.41 41.32 41.39 40.50 39.42 37.96 37.97 41.75 45.22 45.22 44.81 44.55 48.13 50.07 50.74 51.62 52.06 52.34 52.42 52.83 53.28 55.39 56.04 56.83 57.16 58.78 61.41 61.72 65.62 67.58 68.09 67.84 67.40 65.09 64.39 62.84 63.18 63.71 65.09 64.95 64.56 64.44
33.35 36.91 42.16 40.18 38.84 38.62 38.76 37.10 38.11 38.44 42.56 43.84 42.05 40.76 43.55 47.41 48.71 49.79 50.81 52.45 52.00 52.39 53.23 54.36 55.37 55.00 56.04 60.13 62.66 65.22 66.91 67.54 67.40 66.82 65.35 62.84 62.25 61.73 61.08 62.13 62.48 63.22 63.84 63.50
34.57 38.57 37.81 37.44 37.62 39.08 35.06 41.87 41.43 40.39 38.74 34.17 42.46 33.57 41.49 44.53 46.25 48.01 49.23 49.11 50.18 52.55 52.68 54.06 54.75 53.48 58.75 61.26 64.79 66.91 67.13 67.34 67.22 67.05 64.44 63.67 60.33 59.59 60.06 61.09 61.71 62.06 63.72 63.50
33.56 35.97 35.58 35.37 37.41 41.40 37.16 43.46 41.54 41.17 37.93 37.10 37.89 33.48 39.92 43.74 44.05 46.42 48.59 50.31 50.19 51.45 52.64 52.91 52.72 55.93 60.45 63.71 65.25 67.34 67.14 67.02 65.86 64.95 63.88 62.34 60.38 59.88 59.97 60.94 61.49 61.28 61.57 62.40
36.85 40.69 38.70 37.37 39.45 39.91 41.31 40.69 40.23 39.68 35.32 29.49 36.62 35.46 35.26 40.06 43.57 45.47 48.07 49.66 51.38 51.43 51.53 52.13 57.52 61.49 62.15 64.10 66.39 66.62 66.11 64.71 63.98 63.19 61.79 60.60 60.60 59.92 60.13 59.73 60.14 59.81 59.72 60.36
36.72 38.03 40.87 41.44 37.02 39.06 36.88 31.27 26.26 24.52 26.68 28.70 38.21 35.31 38.48 42.13 45.47 47.02 47.95 49.68 50.94 51.64 54.75 58.50 59.62 61.16 62.93 64.68 65.38 64.57 64.38 62.62 62.59 61.32 61.10 60.61 60.56 59.80 59.95 59.76 59.67 59.16 59.19 59.49
28.51 27.03 38.07 42.90 38.26 33.78 33.05 31.72 26.10 21.38 23.78 29.02 38.60 32.33 36.94 45.22 47.81 48.96 49.93 51.06 54.49 55.97 57.48 58.25 59.80 61.69 63.43 64.17 63.96 62.76 62.34 62.12 61.42 61.47 60.31 60.29 60.52 60.25 59.87 59.56 59.59 59.49 59.23 59.30
29.88 31.09 40.08 40.95 41.08 38.79 34.28 30.59 34.76 30.35 34.05 28.83 33.79 38.18 42.47 45.63 46.28 47.51 48.16 53.49 54.82 55.65 57.46 58.98 60.76 62.16 62.72 62.19 62.36 61.49 61.55 60.95 60.96 61.22 60.65 60.33 60.89 60.63 59.90 59.27 59.61 59.33 59.21 59.87
34.07 27.37 37.19 39.46 40.44 39.87 37.38 39.40 29.68 29.05 23.97 22.63 31.36 34.09 35.72 42.39 44.22 46.88 46.75 52.50 54.54 56.45 57.81 59.12 60.75 61.76 61.70 61.73 61.42 60.81 61.07 60.34 61.01 60.80 60.93 61.03 60.88 60.76 60.48 60.22 59.74 59.73 58.64 59.81
34.37 30.77 31.57 36.76 34.80 32.69 33.36 32.33 32.58 32.31 30.69 27.58 25.55 31.35 41.89 42.58 45.55 47.75 46.84 54.43 55.76 56.86 57.43 59.13 60.64 60.97 61.24 61.83 61.16 60.32 60.66 60.50 60.87 60.42 60.20 60.68 60.44 60.49 60.07 59.19 59.58 59.46 58.65 59.60
36.22 31.64 28.20 30.71 37.97 40.79 36.88 34.12 33.65 26.88 26.98 31.98 31.17 33.75 45.81 45.04 46.88 48.23 53.58 56.02 56.36 57.18 57.84 59.63 60.36 60.73 61.14 60.95 60.64 59.76 60.12 60.26 60.71 60.24 59.73 59.69 60.03 59.33 59.36 59.54 59.49 59.08 58.40 59.42
35.70 28.57 23.85 25.33 32.00 38.78 34.74 37.82 37.56 34.99 33.25 31.29 30.53 32.66 45.94 45.74 47.79 50.89 54.20 55.39 56.57 56.78 58.59 59.31 59.81 60.51 60.47 60.66 60.65 59.76 60.06 59.50 60.70 60.93 60.47 61.66 61.14 59.12 58.90 59.17 59.58 57.99 57.66 58.61
39.40 30.44 27.81 20.94 28.93 33.97 32.34 35.52 36.88 34.34 29.38 32.41 33.80 37.38 42.43 44.46 47.35 53.04 54.29 55.73 56.41 57.75 58.60 58.67 59.36 59.67 60.35 60.73 60.70 60.10 59.34 59.40 60.91 61.34 62.05 60.61 59.69 59.64 58.92 59.24 58.81 58.59 58.54 60.24
37.61 29.96 32.31 32.94 34.59 35.43 35.68 35.19 35.70 33.76 34.74 31.16 36.06 37.70 42.03 44.70 46.31 53.44 55.28 56.23 56.48 57.30 57.86 58.18 58.44 59.24 59.59 59.71 59.99 59.88 59.17 58.83 60.54 61.57 61.97 61.14 60.82 60.20 59.06 59.33 59.07 61.47 60.81 61.00
38.54 29.21 34.15 30.68 34.74 35.49 33.93 36.28 36.22 36.22 36.42 35.83 36.69 37.20 45.34 52.93 52.91 54.15 55.75 56.19 56.43 57.06 58.01 58.36 59.12 59.55 59.31 59.47 59.40 59.18 58.57 58.02 60.58 61.61 61.90 61.82 61.94 60.36 60.17 58.87 57.91 58.48 59.17 60.07
34.15 32.43 31.26 26.81 34.67 35.28 30.03 34.60 36.01 36.67 39.27 38.99 34.67 40.28 46.07 52.32 53.35 52.04 55.19 56.58 56.63 57.58 58.15 58.73 59.20 59.67 59.86 59.72 59.37 57.33 57.24 59.31 60.77 62.22 63.06 62.58 61.21 60.43 60.02 60.40 59.03 57.53 60.15 60.24
32.25 29.95 32.69 27.44 31.32 24.06 35.06 42.48 43.03 39.78 41.20 42.27 45.80 46.09 47.30 50.61 54.04 55.00 55.20 56.01 57.40 58.30 58.76 59.22 59.62 59.76 59.99 59.45 57.42 56.40 58.95 59.89 60.74 62.04 63.17 61.66 60.13 59.59 59.56 58.79 57.20 57.83 58.29 58.49
35.84 32.66 29.68 27.63 24.75 33.03 38.25 39.49 39.77 39.99 41.79 48.50 47.48 49.98 51.45 51.99 52.66 53.12 56.33 56.24 57.42 59.11 59.87 59.76 60.64 59.94 58.03 57.55 56.57 58.07 58.44 59.48 59.94 61.49 61.07 60.81 59.85 58.78 59.72 59.92 57.82 57.61 58.12 57.22
39.13 35.45 31.33 31.06 26.98 24.00 36.32 38.90 43.29 43.56 38.36 48.99 49.31 48.66 49.89 51.35 45.87 49.69 53.79 56.71 55.79 58.15 58.35 59.90 60.12 59.32 57.92 55.90 57.47 57.96 56.68 57.41 59.08 61.42 60.44 60.68 59.69 59.78 59.96 60.60 58.59 58.34 58.16 59.27
32.77 34.12 29.29 29.38 23.76 32.58 37.35 39.51 42.72 36.50 41.03 47.72 50.16 49.93 50.70 48.78 51.12 52.82 55.12 56.49 57.02 56.68 58.76 60.20 59.55 58.33 57.31 56.83 57.61 56.72 55.36 55.78 59.23 61.36 61.30 59.70 59.59 59.31 59.39 58.87 58.52 58.89 58.94 59.15
32.30 30.82 31.73 33.36 29.70 27.81 40.62 40.79 40.17 44.02 47.75 48.51 49.31 50.89 52.72 53.12 54.13 54.16 55.49 56.11 57.49 57.08 59.71 60.10 58.40 57.25 56.91 56.86 57.35 55.68 54.67 56.23 59.71 61.49 60.05 59.42 59.63 61.06 60.47 58.94 59.32 59.61 58.71 57.65
31.93 34.43 31.74 33.00 32.29 37.97 42.02 44.39 46.19 47.26 45.70 47.68 48.53 50.89 53.40 52.62 52.37 53.48 53.02 53.81 55.39 58.24 59.58 59.58 57.75 56.82 56.68 56.60 57.41 55.43 56.04 56.59 59.77 59.85 59.44 59.59 60.39 60.52 59.52 58.76 59.01 58.36 57.73 57.21
37.41 39.44 32.47 34.96 39.60 40.91 43.16 45.67 46.98 47.48 46.93 48.19 49.82 51.16 51.30 50.94 51.38 52.03 53.01 54.04 55.94 58.23 59.51 58.76 57.64 56.60 55.63 55.21 57.08 57.02 55.66 58.28 60.25 59.78 59.71 59.74 59.74 58.73 58.94 59.42 59.29 58.68 57.89 57.43
37.52 39.28 37.20 37.11 40.63 42.82 43.98 45.50 46.42 47.27 48.52 48.40 50.48 50.25 50.16 49.95 49.66 50.98 51.72 52.85 55.17 56.50 58.17 59.59 57.64 56.95 56.08 55.96 56.51 57.10 56.67 59.40 60.04 60.18 60.03 59.88 59.27 58.88 57.82 55.83 56.55 59.41 59.51 59.06
38.71 37.28 35.31 35.35 41.36 41.55 42.92 46.26 47.77 47.06 47.17 48.12 48.43 49.35 50.10 49.84 49.16 50.35 50.51 52.28 54.46 55.13 56.43 58.38 57.92 57.54 57.16 56.74 56.80 57.89 56.95 60.33 59.95 59.31 60.06 59.88 59.37 57.96 57.25 53.16 50.46 43.54 44.93 44.64

GFSCGP_sfc_wetblb_027.txt.gz
Wetbulb
37.85 32.75 31.86 36.13 38.45 39.19 37.68 37.17 36.37 40.92 44.31 43.60 42.64 43.34 45.66 47.98 48.54 48.96 50.06 50.83 51.67 52.80 54.11 55.07 55.40 55.87 54.94 55.28 54.66 55.75 59.38 62.21 64.90 64.75 64.31 64.19 64.46 64.12 64.25 65.61 66.14 65.74 65.54 65.05
33.74 31.95 37.56 39.55 39.21 37.98 36.87 35.04 34.80 39.76 43.56 41.56 41.66 42.01 45.41 47.11 47.92 49.08 49.53 49.83 50.72 51.41 52.71 53.81 53.81 54.25 54.25 55.79 55.51 55.18 58.81 63.01 64.70 65.52 65.51 63.91 64.13 62.11 63.27 64.21 65.03 65.78 65.76 64.52
31.30 35.09 40.66 38.50 36.47 35.91 35.39 34.64 35.70 35.90 40.84 42.30 39.66 38.69 40.77 44.78 47.28 49.05 49.98 50.63 50.71 50.24 51.10 52.10 53.18 53.80 54.15 54.31 56.19 57.99 60.68 63.87 64.79 63.82 63.28 62.04 61.93 61.64 60.96 61.50 62.44 63.75 64.32 63.69
32.60 37.07 36.48 35.41 34.95 36.63 31.55 39.04 39.51 38.70 36.00 31.16 39.70 30.32 38.95 42.49 43.37 45.37 47.09 47.76 47.58 49.91 51.07 51.22 52.96 52.51 52.68 54.06 59.60 62.55 64.31 64.89 65.10 64.81 62.74 62.65 61.60 60.85 59.40 61.60 61.38 61.62 63.16 62.94
31.60 33.97 33.23 33.29 34.85 37.58 34.63 39.69 38.80 38.31 35.37 32.32 34.67 30.47 37.52 40.41 40.56 43.51 46.07 46.84 48.79 49.93 49.70 50.88 51.62 51.51 51.72 57.27 62.53 64.68 65.45 65.39 64.36 63.26 63.56 61.73 59.98 59.28 60.76 61.64 60.81 60.60 61.25 62.24
35.06 39.46 36.95 35.41 38.22 38.83 40.02 37.99 36.54 35.99 33.09 25.78 33.76 32.53 34.57 37.80 40.55 42.29 45.20 46.82 48.61 48.75 49.10 49.80 52.58 54.34 58.59 63.50 65.31 65.40 65.07 63.93 63.59 62.72 61.56 61.41 59.90 59.83 59.85 59.25 59.39 59.15 59.21 59.83
35.30 34.83 38.28 39.17 34.14 37.36 36.15 28.98 22.95 22.20 23.88 25.78 35.86 33.49 35.99 39.90 42.62 43.43 44.32 46.14 47.55 48.07 48.32 52.03 54.52 58.48 61.91 64.57 64.08 64.39 63.89 61.72 61.72 60.91 60.66 60.72 59.92 59.83 59.60 59.68 59.48 58.16 58.01 58.26
28.83 26.65 36.02 41.97 36.62 32.98 31.43 29.91 23.44 20.51 22.97 26.54 36.62 30.46 35.67 42.58 45.14 46.58 47.01 47.00 46.75 49.54 54.56 56.65 58.28 60.20 62.61 63.23 62.29 63.50 62.53 59.99 60.31 60.06 59.64 59.57 59.48 59.34 59.15 59.12 59.33 58.60 58.52 58.86
30.15 29.97 39.05 40.26 40.60 37.85 32.87 27.60 33.46 27.13 29.77 25.62 30.25 34.99 40.90 44.05 44.82 44.87 44.84 45.20 47.14 51.73 55.61 57.52 59.94 61.26 62.37 61.27 60.63 62.08 60.77 59.93 59.81 59.18 59.29 59.21 59.74 59.49 59.06 58.89 58.73 58.70 58.24 59.46
33.30 26.36 35.93 38.78 39.07 38.95 35.07 37.34 27.54 25.29 21.71 20.97 27.95 30.79 33.61 38.66 42.26 43.32 44.12 44.51 48.16 54.30 56.76 58.99 60.36 60.56 60.96 60.27 59.94 60.64 60.31 60.06 59.60 59.57 60.22 60.01 59.20 59.28 59.01 58.98 58.75 58.35 58.34 58.45
33.51 29.39 30.51 35.50 32.33 29.94 33.09 30.99 31.55 30.27 27.78 22.94 23.40 28.29 38.99 41.07 41.77 42.76 44.88 45.98 51.69 55.31 57.28 59.39 59.93 60.13 60.55 59.79 59.97 59.52 60.21 59.75 59.29 59.96 59.84 59.71 59.37 59.68 59.05 58.79 58.63 58.21 57.68 58.75
35.42 30.26 27.25 29.52 35.84 38.40 36.13 32.56 32.64 25.01 25.62 27.48 27.73 29.85 43.00 40.42 42.22 44.17 49.50 49.54 54.70 56.22 58.10 59.01 59.62 60.02 60.20 59.62 59.65 59.08 59.83 59.67 59.61 60.10 59.59 58.96 58.75 58.47 57.91 58.31 58.49 58.18 57.79 58.49
34.50 27.79 23.08 24.28 30.90 35.91 32.43 35.78 34.41 33.38 30.82 27.77 25.55 29.39 42.38 42.65 42.87 47.29 50.19 52.62 55.39 56.96 58.18 58.88 59.29 60.00 59.85 59.51 59.37 59.28 59.46 59.67 59.01 59.32 58.62 58.35 58.11 58.03 58.03 58.37 58.35 57.31 57.24 57.75
38.72 28.97 26.50 20.89 26.35 31.73 29.84 34.24 35.70 32.94 27.14 29.51 31.58 33.53 39.05 40.87 41.57 44.46 51.72 53.74 53.40 57.30 58.17 58.64 58.78 59.25 59.76 59.70 59.69 59.60 58.77 59.68 59.37 59.14 58.99 58.42 57.79 57.79 57.95 58.35 57.83 56.73 57.22 57.91
34.80 28.82 30.27 31.12 33.04 33.80 32.90 32.90 34.58 32.65 33.29 29.61 32.80 33.75 39.29 40.77 43.47 44.79 52.00 54.20 55.75 56.72 57.49 58.26 58.11 58.84 59.28 58.75 59.30 59.30 58.39 59.00 59.93 59.60 59.08 58.42 59.86 58.68 58.22 58.26 57.35 57.62 57.63 59.70
38.02 28.67 32.00 29.61 33.51 33.33 32.69 33.73 34.64 35.48 35.39 34.81 35.14 34.75 43.41 45.37 49.97 51.73 53.03 55.01 55.81 56.54 57.65 58.14 58.70 59.23 59.16 59.03 59.09 58.92 57.92 58.13 59.64 59.40 60.91 60.92 61.11 58.94 57.92 57.88 57.82 57.90 58.07 59.78
33.45 31.44 28.07 24.62 31.64 31.46 28.30 32.88 34.15 35.84 36.72 36.12 32.05 38.98 44.62 43.85 46.46 51.88 52.60 55.79 56.32 56.86 57.58 58.07 58.70 59.21 59.32 59.15 59.37 57.37 57.51 57.64 59.55 61.41 61.73 61.44 59.82 58.97 58.84 58.13 57.25 56.35 58.89 59.95
31.78 31.90 30.76 25.96 29.32 20.29 33.74 41.97 41.61 38.20 37.71 39.10 39.71 41.15 46.76 46.33 47.68 53.93 54.26 54.12 56.86 57.56 57.79 58.51 59.11 59.48 59.13 58.75 58.11 56.64 56.74 58.02 60.47 61.82 61.54 60.15 59.52 58.54 58.41 57.87 56.42 56.81 58.41 59.83
36.11 31.14 27.34 24.57 25.83 30.60 35.31 39.08 38.21 37.31 37.73 45.85 46.23 47.44 49.46 49.88 51.48 52.28 56.37 56.49 56.78 57.95 58.78 59.15 59.73 59.57 58.62 57.28 56.38 56.71 57.13 58.49 59.73 61.79 60.65 59.88 58.89 57.68 57.76 55.84 55.68 55.66 55.86 56.16
37.98 34.62 29.37 28.28 24.58 23.80 35.84 39.15 41.27 41.27 34.09 45.88 46.85 47.33 47.34 48.99 45.92 48.45 56.51 57.19 56.33 57.36 57.84 58.67 59.55 59.52 58.83 56.76 55.94 56.56 57.06 58.06 58.29 60.40 60.70 59.62 58.41 57.66 57.60 56.84 56.76 56.58 56.78 56.54
32.66 31.04 27.66 26.91 26.37 31.51 37.99 39.10 41.42 33.92 35.21 46.06 47.73 46.59 47.30 46.56 48.93 52.25 56.13 56.71 57.54 56.48 57.59 58.74 59.20 58.18 58.04 55.60 56.12 55.75 56.45 57.34 58.67 60.78 61.81 58.79 58.04 58.32 58.36 57.55 56.95 57.48 57.42 58.19
31.41 29.89 30.37 30.44 28.52 26.82 39.28 37.05 38.39 42.61 46.14 47.10 46.48 46.91 48.27 50.31 51.63 53.25 55.56 56.33 57.11 56.28 58.21 58.95 58.39 57.38 55.08 56.83 56.88 54.25 55.37 57.65 58.97 59.91 59.41 58.19 57.58 59.17 58.65 57.74 57.64 58.14 57.16 56.72
31.03 32.47 30.83 32.10 31.76 36.30 38.72 39.02 41.10 47.52 45.60 46.91 47.68 48.12 49.79 49.69 50.26 51.53 52.68 55.30 56.67 58.25 58.59 59.06 58.30 55.47 55.57 56.66 57.13 54.26 55.46 55.91 58.34 58.52 57.43 57.27 58.23 58.72 58.20 57.82 57.34 57.06 56.62 56.24
36.77 38.73 32.33 34.10 37.37 37.11 41.16 45.84 46.46 47.71 47.46 48.50 49.34 51.00 49.92 48.83 49.66 50.00 51.47 53.29 54.78 58.13 57.83 57.81 56.56 55.77 54.45 54.84 55.99 56.71 54.34 57.45 58.57 57.48 57.11 57.85 58.13 57.50 57.83 58.52 57.97 57.36 56.38 55.92
37.89 39.31 36.11 34.74 39.32 41.40 43.76 45.52 46.30 47.40 48.33 49.00 50.70 50.55 49.06 49.30 49.01 50.42 51.51 52.62 53.64 54.47 57.57 56.75 56.88 55.90 55.73 55.54 55.33 54.36 55.65 58.13 57.65 57.96 58.14 57.98 57.64 57.55 56.94 55.94 56.08 57.86 57.32 56.78
39.43 36.46 35.82 34.43 40.76 41.31 42.82 46.07 47.56 46.89 46.85 47.70 48.05 48.49 49.18 49.68 49.36 50.10 51.35 52.63 52.98 53.63 55.37 56.88 56.67 56.14 55.82 56.38 55.86 54.60 57.20 58.48 58.15 57.72 57.91 57.79 57.79 57.12 56.22 54.10 52.12 43.59 44.88 45.54

GFSCGP_sfc_wetblb_030.txt.gz
Wetbulb
36.41 31.41 30.20 34.70 38.06 37.62 36.10 34.65 34.10 37.88 42.15 40.85 41.07 42.11 44.34 46.08 46.14 47.05 48.14 49.32 50.36 51.40 53.40 52.95 53.83 54.65 54.71 54.33 54.33 54.24 55.13 60.82 64.50 63.87 62.77 62.45 63.75 64.11 64.42 65.35 65.53 65.46 65.69 65.13
32.02 29.01 35.56 38.02 37.72 36.63 35.07 32.47 32.35 37.63 41.30 39.66 38.96 38.48 41.61 43.84 45.18 46.61 47.66 48.07 48.34 49.12 49.72 52.02 52.75 53.36 52.76 54.16 54.21 53.95 54.80 60.50 64.38 64.94 63.47 63.81 63.80 64.05 64.21 65.20 65.74 66.02 65.69 65.47
29.34 33.06 38.39 37.38 35.31 34.37 33.44 32.56 33.04 34.16 39.12 40.92 38.19 37.31 40.03 42.90 44.24 45.88 47.14 48.07 49.17 49.45 49.13 51.22 52.60 51.63 52.58 52.37 54.07 54.89 55.01 60.26 62.83 63.65 62.83 62.00 62.03 62.06 61.91 63.32 63.85 65.06 65.76 65.53
31.20 35.73 34.86 33.73 33.96 35.02 29.34 37.25 37.39 37.41 34.46 29.91 37.36 27.93 37.15 40.96 42.14 43.61 44.96 46.38 47.66 48.16 49.90 50.53 50.68 51.20 52.70 52.78 53.05 55.13 58.46 62.18 63.55 63.87 62.43 62.66 61.01 60.45 61.33 62.72 63.37 63.79 64.64 64.26
31.98 32.62 31.71 31.06 32.89 36.64 32.86 38.35 36.11 35.62 32.78 30.19 32.74 28.71 35.79 38.58 38.28 40.54 43.77 45.54 46.57 47.14 47.38 48.02 49.68 50.87 51.25 51.07 53.71 59.66 62.34 63.70 63.56 63.32 63.37 62.57 60.71 59.91 61.80 62.29 62.14 61.97 62.67 63.28
35.40 37.77 35.76 34.32 36.71 36.93 38.34 35.81 34.85 33.30 30.89 24.18 31.13 30.58 32.51 35.87 38.84 39.79 43.19 44.39 45.86 46.17 46.85 47.68 48.99 51.91 54.72 60.90 63.07 64.08 63.35 62.33 62.87 63.05 61.67 61.37 60.27 60.80 60.82 60.69 60.91 61.15 60.83 61.67
34.01 33.23 37.84 37.74 32.54 34.96 33.79 28.45 21.19 20.61 21.35 23.22 33.38 30.64 34.51 37.95 41.02 41.59 42.38 44.09 45.59 46.30 46.45 46.65 48.10 56.84 60.77 62.86 63.30 64.02 62.92 61.42 61.24 61.34 61.11 61.07 60.82 61.04 60.93 60.74 60.15 59.78 59.27 59.66
28.08 25.09 34.18 38.93 33.89 30.59 29.58 28.37 22.11 19.59 20.85 23.48 34.53 27.87 33.25 41.10 43.58 44.28 44.51 44.27 44.46 44.84 44.99 48.92 55.95 59.56 62.49 62.75 63.66 62.64 61.66 60.34 60.81 61.13 60.23 60.53 60.99 61.12 61.14 60.60 60.55 60.10 59.78 60.26
29.56 29.07 38.81 38.97 39.00 36.88 31.42 26.05 31.80 25.47 27.11 23.07 27.69 32.40 38.50 42.51 42.27 43.04 43.15 44.35 44.01 44.32 45.36 54.77 59.31 61.77 62.36 62.60 61.70 61.27 60.42 59.70 59.95 59.72 60.00 59.92 60.16 60.16 59.79 59.50 59.95 59.77 60.08 60.49
33.68 26.85 35.82 38.39 39.78 38.39 33.54 35.35 25.21 23.29 20.08 19.85 25.35 28.34 30.94 36.93 38.87 41.92 42.50 42.85 44.17 46.85 54.94 58.27 59.67 60.91 60.10 59.87 60.06 59.78 59.96 59.59 59.30 59.77 60.18 59.79 59.78 60.19 59.93 60.07 59.61 59.86 60.10 60.92
33.86 29.79 29.95 34.51 31.62 29.38 31.92 29.17 29.79 26.87 25.04 22.06 22.11 26.14 36.38 38.86 39.90 40.51 41.83 45.92 49.88 50.15 57.00 58.77 59.51 60.59 59.09 59.63 59.55 59.52 59.34 59.28 59.44 60.07 59.88 59.73 59.51 59.87 59.76 59.67 59.63 59.75 59.51 59.53
34.52 30.06 27.14 29.26 34.42 36.42 32.73 30.55 31.29 24.19 24.52 25.77 24.27 26.20 38.94 39.23 40.37 41.25 44.04 52.13 53.24 54.87 57.57 58.98 59.53 59.91 59.06 58.75 59.37 59.18 59.17 59.36 59.54 60.05 59.83 59.55 59.46 59.19 58.95 59.14 59.35 59.00 59.10 60.09
33.52 27.50 22.97 24.69 30.92 34.06 30.53 33.41 31.89 30.81 29.48 24.85 22.91 26.83 39.55 40.58 41.22 42.96 42.71 52.45 54.38 56.70 57.08 58.71 59.77 59.22 58.67 58.48 58.91 59.13 59.30 59.25 59.76 59.89 59.06 58.52 58.36 58.38 58.61 59.08 59.31 59.02 59.07 60.01
37.69 27.68 25.14 19.66 25.40 30.42 28.48 31.78 32.93 31.76 26.04 26.67 28.30 30.86 37.34 39.82 39.92 42.73 45.55 51.04 53.98 57.17 58.14 58.60 59.46 58.54 58.70 58.83 59.25 59.43 58.91 59.45 59.36 59.40 58.68 58.19 58.20 58.46 58.96 59.28 58.66 58.20 58.85 58.96
32.82 27.99 28.24 30.07 31.46 32.24 31.30 31.62 32.07 31.05 32.79 28.49 30.97 31.90 37.10 39.08 40.62 43.22 47.29 49.83 55.24 56.71 58.38 58.30 58.36 58.32 58.15 58.30 58.81 59.21 59.21 59.12 59.22 59.36 59.01 58.25 58.47 58.88 59.10 59.07 58.44 58.46 58.80 60.05
34.91 28.28 30.11 28.25 31.60 32.15 30.58 32.05 32.08 32.27 32.91 32.80 34.30 33.20 40.66 42.33 43.11 44.25 48.26 52.40 55.21 56.54 57.86 58.32 58.75 58.83 58.43 58.78 58.81 58.89 58.90 58.92 59.50 59.22 58.94 59.69 60.28 59.07 59.01 58.65 58.33 58.79 59.84 61.34
33.26 31.64 28.31 22.38 30.21 29.72 24.02 28.81 30.67 31.91 35.20 34.57 30.80 35.92 41.06 41.18 43.49 44.86 49.94 53.16 55.56 56.94 58.13 58.16 58.68 59.20 59.05 59.05 59.36 58.06 58.18 59.08 59.59 60.40 60.71 60.83 60.09 58.93 58.86 58.77 58.75 57.72 59.40 60.94
34.15 31.73 28.29 23.28 23.37 14.37 28.78 37.17 38.84 35.25 36.37 37.74 37.26 39.49 42.20 43.81 47.67 49.79 51.27 53.05 55.79 57.55 58.27 58.46 59.08 59.15 59.24 58.60 58.36 58.04 57.38 59.00 59.93 60.74 61.26 60.62 59.78 59.02 58.80 58.27 57.72 58.73 60.32 60.43
36.42 32.47 27.49 20.93 21.91 28.16 31.90 37.07 37.60 36.20 35.29 40.67 38.67 40.33 42.89 48.81 50.20 50.95 55.47 55.92 56.05 57.31 58.34 58.95 59.34 58.80 58.05 58.05 57.68 57.58 57.15 58.67 60.39 61.08 60.34 60.21 59.61 58.50 58.56 57.91 56.72 57.94 58.89 58.21
36.48 34.84 29.40 26.96 22.27 20.54 32.66 38.66 40.43 40.90 32.22 45.57 46.36 46.21 47.19 47.29 44.39 48.74 54.93 56.00 56.09 57.39 57.87 58.32 58.63 58.37 57.68 57.20 56.93 57.06 56.99 58.13 59.33 60.82 60.26 60.24 59.36 58.41 58.21 57.20 57.18 58.22 58.34 58.60
31.45 31.35 26.90 26.72 25.32 27.90 37.35 38.60 39.38 32.73 33.18 45.75 46.73 46.01 46.27 45.27 48.51 50.96 55.91 56.51 57.45 57.67 57.59 58.48 58.55 58.14 58.03 55.91 56.87 56.66 57.07 57.62 59.68 61.79 61.07 59.66 58.87 58.17 58.78 57.97 58.72 58.78 58.75 58.82
30.89 29.77 27.96 29.42 26.14 24.02 37.71 35.94 35.35 40.83 45.72 46.34 47.08 48.10 46.82 47.67 50.38 53.38 54.38 56.12 57.20 57.59 57.48 58.97 58.30 57.20 56.40 56.51 57.17 55.96 56.82 58.67 60.13 61.44 60.06 59.08 58.35 59.53 59.21 58.51 58.73 59.13 58.96 58.00
29.94 32.17 29.97 31.45 31.25 36.79 37.30 36.61 39.98 41.13 41.54 47.43 47.41 49.05 48.56 48.52 49.17 50.96 52.86 55.94 56.38 57.50 57.85 59.26 58.81 56.60 55.51 56.77 57.55 55.93 57.08 58.38 59.35 59.40 58.79 58.38 58.53 59.19 58.63 58.69 58.50 58.38 58.72 57.74
35.53 36.90 31.61 32.37 35.83 36.86 39.60 41.17 46.63 47.45 47.00 49.03 49.36 50.43 49.33 47.47 49.82 50.94 51.89 52.38 53.63 57.66 57.97 58.63 57.29 56.14 55.10 56.43 56.78 57.90 55.87 58.52 59.00 58.35 58.03 58.21 58.30 58.06 58.92 59.50 59.16 58.70 57.92 57.74
37.82 38.83 35.96 35.14 38.24 39.97 40.34 43.74 45.62 46.78 47.72 47.56 48.22 49.42 49.30 48.43 49.02 50.82 51.49 52.37 53.47 54.68 57.70 57.02 56.89 56.52 55.92 56.27 55.86 55.46 56.75 58.84 58.15 58.00 58.07 58.43 58.29 58.46 58.41 57.85 57.61 59.09 59.10 57.83
38.88 37.25 35.38 34.78 41.01 40.47 42.00 44.77 47.01 44.40 46.43 47.16 47.10 47.34 48.70 49.56 49.36 50.98 50.73 52.22 53.78 54.78 56.41 56.47 56.49 56.04 55.90 56.18 55.46 55.05 57.80 58.69 58.10 57.64 58.14 58.24 58.37 58.31 58.09 56.51 53.42 42.08 45.99 47.59

GFSCGP_sfc_wetblb_033.txt.gz
Wetbulb
41.25 37.18 34.58 38.33 40.85 41.57 40.78 39.13 39.51 42.93 46.37 45.43 44.75 45.72 48.26 50.75 51.26 51.41 52.61 53.75 54.52 55.68 57.69 59.59 61.05 62.25 63.57 65.70 65.93 67.69 65.55 65.99 65.58 67.40 67.31 67.60 67.32 68.29 68.32 68.66 69.25 69.16 69.31 69.06
37.89 34.34 38.92 40.07 40.22 39.45 39.42 37.90 37.98 41.28 44.24 43.78 44.90 44.37 47.42 48.87 49.56 50.82 51.55 52.29 53.23 54.62 55.76 57.95 59.69 61.83 62.96 64.00 65.41 66.90 65.19 64.98 67.27 67.90 68.63 68.93 68.94 67.92 67.92 68.28 69.52 69.94 69.43 69.18
36.07 38.08 39.96 38.73 38.10 37.15 38.28 37.14 38.06 37.87 41.92 43.95 42.61 41.40 44.52 48.27 49.67 50.35 51.48 52.57 53.22 54.00 55.22 57.37 58.56 60.87 62.59 63.42 64.57 65.09 65.49 65.10 67.94 69.47 68.95 68.99 68.38 66.22 66.57 67.42 66.79 68.24 68.76 69.18
36.78 40.60 37.73 37.41 35.99 38.38 34.45 40.32 39.96 39.34 38.54 35.18 42.76 34.73 43.01 46.14 46.76 48.40 49.76 51.23 52.06 53.34 54.62 56.24 57.94 59.86 61.77 62.49 62.78 62.55 64.24 65.09 67.40 69.47 68.81 68.43 67.92 65.62 67.17 66.39 67.07 67.11 69.30 68.99
35.66 36.88 35.98 35.35 36.31 38.87 36.24 40.81 39.13 38.38 37.30 37.27 38.25 35.60 39.94 45.18 43.74 46.57 49.17 50.34 51.84 53.19 54.61 54.31 55.66 58.14 60.24 60.94 60.69 62.11 65.03 66.68 67.53 68.79 69.47 68.80 68.60 68.35 68.85 68.46 67.81 68.26 69.42 69.40
38.69 42.80 39.43 38.39 39.35 39.11 40.24 38.80 38.77 38.73 37.10 30.30 36.04 35.78 37.64 41.24 44.12 46.03 48.37 49.83 51.14 52.08 53.20 54.37 55.65 57.10 57.51 61.27 65.45 66.15 66.73 67.69 68.13 68.48 69.01 69.40 68.60 67.77 67.56 67.99 67.62 67.96 68.16 68.52
36.73 37.46 40.92 41.03 36.43 39.23 37.88 35.17 28.88 27.05 27.91 28.02 37.56 35.08 38.15 44.35 45.79 46.88 47.92 49.73 51.74 53.51 54.55 55.72 56.03 56.08 60.29 64.39 65.94 64.97 67.22 67.22 68.30 68.50 68.43 68.67 68.63 68.72 68.49 68.36 67.04 66.37 66.56 67.02
30.47 27.69 35.73 40.33 37.77 35.20 35.93 35.12 29.83 22.86 26.14 29.46 36.55 32.28 38.49 45.69 47.95 48.99 49.43 50.88 52.37 53.36 54.91 54.89 54.95 60.53 63.58 65.31 65.14 65.28 67.60 67.30 67.84 67.85 67.68 68.04 68.61 68.33 68.39 68.40 67.78 66.73 66.72 67.19
29.94 30.15 39.67 40.87 41.42 39.36 35.65 32.15 38.24 32.05 33.56 31.36 34.07 37.84 42.37 44.71 45.89 47.68 49.04 51.27 53.66 55.14 56.32 55.11 60.10 63.66 64.98 64.79 64.96 67.80 67.56 67.38 67.65 67.19 67.00 67.48 67.75 68.04 67.26 67.66 67.99 67.00 67.60 67.04
34.64 28.06 36.89 37.84 41.21 40.87 38.10 40.19 31.19 32.92 25.29 25.02 32.18 33.89 36.70 41.44 43.85 46.61 48.65 51.36 54.42 59.18 56.92 59.58 61.72 63.37 63.68 64.95 67.34 67.82 67.65 66.88 66.95 67.02 67.03 66.91 67.17 67.31 67.10 67.19 66.81 67.12 67.31 67.02
37.74 32.98 32.73 36.83 34.47 31.78 34.43 33.25 36.02 35.69 33.95 29.04 29.41 34.57 43.77 43.89 45.12 45.74 47.61 51.56 56.50 58.69 58.15 59.80 61.07 62.90 63.97 66.63 66.64 66.53 66.28 66.16 66.16 66.39 66.28 66.25 66.18 66.40 66.76 66.64 66.57 66.66 66.74 66.39
38.06 34.69 29.03 31.51 38.24 39.66 37.65 34.84 36.26 31.32 30.28 33.13 32.33 33.61 44.92 45.58 45.86 46.95 47.42 49.50 55.29 58.25 58.19 59.75 61.50 62.90 64.35 65.89 65.72 65.75 65.82 65.65 65.82 65.88 65.89 65.72 66.16 66.25 66.20 65.92 66.18 66.11 65.60 65.37
38.24 32.86 26.82 29.34 35.01 37.77 34.35 36.26 37.07 36.99 36.18 31.79 29.88 33.62 45.10 45.42 45.94 47.29 47.61 48.85 52.24 58.33 58.98 59.87 61.05 62.48 64.27 64.81 64.82 64.77 65.03 64.80 65.26 65.42 65.39 65.39 65.39 65.77 65.72 65.36 65.35 65.29 64.83 65.28
40.46 34.43 30.25 26.05 29.57 33.88 31.77 34.40 36.33 34.75 31.72 32.74 33.39 35.51 40.60 42.86 44.08 46.07 47.61 49.96 52.69 58.90 58.73 59.79 60.76 62.64 64.29 64.55 63.95 63.92 64.01 64.76 64.89 64.87 64.64 64.50 64.81 65.14 65.17 65.10 64.77 64.76 65.03 65.00
38.17 30.96 33.08 33.53 34.30 34.49 33.49 33.24 34.66 33.32 34.56 31.20 35.20 36.07 40.06 42.94 44.51 46.03 48.76 50.18 51.37 57.16 58.62 59.57 60.22 62.30 63.38 63.98 63.75 63.85 63.88 64.28 64.52 63.47 63.74 64.10 64.62 65.10 64.79 64.22 64.12 64.44 64.80 64.57
38.25 31.78 33.07 29.66 33.67 33.63 31.38 33.95 34.65 34.77 35.33 35.29 35.96 35.45 43.25 44.75 46.36 46.97 47.85 48.81 50.62 55.99 58.66 59.76 60.37 62.21 63.07 63.38 63.35 63.54 63.55 63.81 64.15 63.52 63.33 63.86 64.12 64.30 64.36 64.29 63.88 63.73 63.86 65.44
35.02 33.85 30.98 26.47 32.03 31.84 28.00 32.97 34.37 35.47 37.42 36.92 33.02 38.04 42.27 42.87 45.06 47.21 49.60 51.59 52.18 56.23 60.47 60.31 61.65 63.17 63.58 63.48 63.81 63.48 63.48 63.84 63.89 63.68 63.75 63.85 63.93 63.49 63.64 63.24 63.46 63.53 64.29 64.06
34.91 33.55 32.50 27.46 29.36 19.78 33.37 39.72 39.20 37.82 40.19 42.18 40.34 40.63 42.92 43.26 46.63 49.08 51.04 51.99 54.34 58.86 61.02 62.77 63.62 63.84 64.07 64.43 64.30 64.60 64.18 63.71 63.57 63.89 63.76 63.78 63.80 63.26 63.10 63.08 63.18 63.95 64.00 63.29
36.58 34.00 29.92 25.98 25.90 29.69 33.15 37.36 36.98 35.48 35.95 43.02 40.93 42.10 44.20 45.32 47.10 49.47 52.91 56.55 59.09 61.13 62.72 63.87 64.55 64.36 64.27 64.10 64.45 64.02 63.23 63.78 63.82 64.04 64.05 63.89 63.78 63.08 62.87 62.70 63.60 64.87 64.50 61.76
36.21 35.90 30.49 28.97 23.64 21.70 34.42 39.30 40.12 39.85 32.55 44.53 44.62 43.31 44.10 45.59 42.90 47.64 56.67 59.89 60.68 62.94 63.68 63.83 64.42 64.43 64.37 64.34 64.47 63.05 62.55 63.10 63.36 64.33 64.34 64.41 63.64 63.21 62.71 63.35 63.40 64.66 65.45 64.09
32.23 32.17 27.85 26.71 26.44 30.81 37.39 38.75 39.99 31.40 36.44 44.29 46.66 47.74 48.37 45.63 48.36 54.62 57.15 59.77 62.01 63.07 63.35 64.51 64.16 63.90 64.22 64.08 63.81 62.84 63.02 62.95 64.19 65.13 65.03 64.07 63.84 63.48 63.84 63.69 63.83 64.29 64.19 63.69
31.31 30.92 30.01 30.42 27.38 25.45 37.14 36.07 34.01 39.15 40.72 41.52 43.13 49.47 49.34 50.52 51.74 53.32 55.86 59.72 60.80 61.12 62.74 63.81 63.64 63.90 64.31 64.01 63.38 62.72 62.93 64.52 64.64 65.19 64.50 63.70 63.72 62.91 63.23 63.58 63.88 64.11 64.38 63.41
31.52 32.59 31.26 31.85 32.39 37.89 38.67 34.40 37.34 39.08 38.02 40.22 43.04 50.01 51.18 52.66 53.31 54.79 57.51 59.33 60.12 60.33 62.20 63.51 63.62 63.60 63.58 63.71 63.92 62.79 64.02 64.26 64.51 65.06 63.38 63.80 63.55 63.62 64.15 63.93 64.00 63.56 63.76 62.62
36.21 37.18 31.70 32.61 37.22 38.09 40.74 41.89 44.97 47.61 45.70 48.29 49.46 50.26 51.26 51.18 52.98 54.40 56.28 58.34 59.51 60.11 61.40 62.55 62.14 62.52 62.24 63.39 63.79 64.30 64.35 64.28 64.47 64.41 62.45 63.83 63.33 63.04 64.05 63.96 64.15 63.71 62.90 62.11
39.08 39.24 36.26 35.15 38.57 39.85 41.42 42.35 45.08 46.13 47.41 46.97 49.36 48.63 49.04 52.81 53.56 54.36 56.09 56.99 57.73 58.53 60.57 62.42 61.67 62.66 62.89 63.39 63.33 64.43 63.86 64.31 64.13 64.32 61.91 63.74 63.40 63.56 63.67 63.94 63.23 64.38 64.62 62.14
40.95 37.85 34.84 34.34 40.55 40.50 41.24 44.79 45.36 44.83 45.84 46.20 45.78 45.62 46.75 49.46 51.75 54.80 55.45 56.78 57.63 58.55 59.94 60.41 61.12 62.55 63.28 63.02 63.25 63.61 63.89 64.28 64.45 63.73 63.00 63.34 63.57 63.54 63.29 62.52 60.64 42.04 45.76 45.29

GFSCGP_sfc_wetblb_036.txt.gz
Wetbulb
46.32 41.54 39.07 41.35 42.63 42.33 42.33 42.64 42.67 45.32 48.24 47.34 47.85 47.90 50.00 53.16 54.01 54.70 55.88 57.19 58.23 59.34 60.98 61.96 62.37 63.36 64.04 66.13 69.45 70.79 71.69 73.57 70.37 68.47 69.29 70.29 70.12 71.27 71.26 71.98 72.58 72.34 71.97 71.76
42.09 38.79 42.84 43.19 42.10 41.13 41.23 40.55 41.52 45.22 47.00 47.49 46.88 46.74 50.11 51.67 52.89 54.21 55.11 55.93 56.84 57.90 58.89 60.04 61.43 62.55 63.67 66.43 69.33 70.71 71.84 72.22 70.81 69.47 71.20 71.69 71.60 71.62 72.09 71.89 71.29 72.20 71.87 71.62
38.76 40.96 43.47 41.17 40.22 38.84 39.38 38.76 40.23 41.18 45.18 47.33 46.26 44.89 47.62 51.15 52.89 53.93 54.85 55.81 56.45 56.80 57.30 58.78 60.05 61.83 62.95 64.99 68.30 68.53 70.28 70.67 71.21 71.77 71.80 72.05 72.55 71.87 70.76 70.01 69.89 70.44 71.09 70.76
40.49 42.60 40.85 40.66 39.14 40.00 36.25 41.61 41.17 40.97 40.99 37.51 46.21 37.31 45.62 48.68 49.81 51.75 53.24 54.46 55.32 56.44 57.63 58.37 59.26 60.52 62.43 63.20 65.45 67.13 68.95 69.53 70.06 72.48 73.21 73.04 70.35 68.79 69.81 70.54 68.89 69.23 69.89 69.66
38.95 40.38 39.98 38.73 39.43 41.21 38.36 42.10 41.01 41.67 40.51 40.29 40.81 38.83 43.67 48.19 47.26 50.08 52.70 53.82 55.13 56.20 57.13 57.52 58.45 59.73 61.25 62.70 64.17 67.31 67.70 68.27 70.01 71.76 72.79 71.41 71.60 71.06 71.32 70.71 67.58 69.18 69.78 70.12
41.51 45.50 43.68 42.18 42.64 41.88 42.61 40.08 39.42 40.58 39.13 33.54 39.86 39.83 40.87 44.51 47.19 49.65 52.13 53.23 54.17 55.01 55.88 57.28 58.47 59.87 60.38 62.27 62.93 64.70 67.90 69.38 70.76 71.70 71.92 72.41 72.17 71.96 71.00 70.86 68.23 69.44 69.85 70.50
39.60 40.61 44.17 44.52 39.93 42.35 40.44 36.27 28.93 27.81 30.23 30.08 40.67 38.77 41.48 47.64 48.76 49.21 50.11 52.14 54.00 55.48 56.73 57.98 58.66 59.11 60.68 62.13 64.24 68.09 69.51 69.87 70.94 71.31 71.48 72.03 72.65 72.61 72.20 71.33 70.76 70.88 69.54 70.02
32.41 29.62 39.23 42.90 40.78 37.33 38.06 35.89 30.14 23.65 28.26 32.28 39.57 35.39 41.05 48.16 50.22 51.05 51.82 53.48 54.49 55.69 57.58 58.94 60.92 60.54 59.58 62.52 67.29 68.84 69.21 70.04 70.75 71.25 71.68 72.64 73.02 72.15 72.05 72.66 71.46 70.77 70.03 70.12
32.73 31.18 40.72 42.44 43.81 41.97 37.97 33.25 40.31 33.50 35.08 33.53 37.26 40.87 45.09 48.28 48.71 50.26 51.00 53.91 56.17 59.07 61.43 62.14 62.67 61.75 64.81 67.55 68.39 69.75 70.22 70.40 71.09 71.65 72.03 72.30 72.87 72.77 72.05 71.86 71.62 70.18 71.25 70.39
37.00 30.64 39.00 39.81 40.53 42.65 39.80 41.33 30.42 34.52 25.34 26.98 34.90 37.47 39.00 44.46 45.55 48.50 49.95 52.94 55.53 60.98 62.49 62.59 63.43 64.91 67.52 68.56 70.58 71.03 71.32 70.91 71.29 71.57 71.89 71.75 71.79 71.84 71.66 71.13 69.84 69.99 70.34 70.14
39.78 35.85 35.33 39.81 36.91 35.47 37.45 35.70 37.03 36.71 34.88 28.94 31.94 36.50 46.13 46.40 48.59 49.27 50.39 52.24 53.90 59.82 62.03 63.45 64.82 65.59 66.39 70.12 70.67 70.91 70.92 70.69 70.80 71.03 71.01 70.97 70.61 70.64 70.38 69.84 70.01 70.09 70.38 69.93
40.78 37.26 32.27 35.48 40.80 41.79 37.71 36.11 34.95 31.88 31.59 35.67 34.24 38.45 49.09 49.54 49.62 50.24 50.88 52.11 54.06 60.50 60.20 61.31 62.80 64.63 68.69 69.32 69.76 69.82 70.11 70.09 70.40 70.58 70.26 69.88 69.62 69.48 69.53 69.34 69.64 69.83 68.96 68.39
40.78 35.87 30.13 33.06 38.20 40.62 36.79 38.76 37.44 37.73 37.13 33.99 33.15 38.70 49.22 49.10 48.67 50.35 50.50 51.64 53.20 57.72 60.47 61.22 62.76 64.24 66.20 68.34 69.10 69.30 69.53 69.38 69.61 69.32 68.89 68.88 68.99 69.09 68.94 69.01 68.95 68.41 67.44 66.70
41.46 37.39 33.84 29.52 33.60 37.72 34.82 36.62 38.88 38.48 33.24 34.31 36.61 39.32 44.70 47.07 47.28 49.15 50.69 51.37 52.40 54.37 61.85 60.88 62.03 63.83 65.24 67.56 68.32 68.35 68.17 68.34 68.10 68.01 67.89 67.80 67.99 68.26 67.99 68.15 67.80 67.22 66.64 66.51
39.55 34.05 36.20 37.34 37.98 37.83 36.62 36.20 37.18 36.31 37.75 34.38 36.88 38.54 43.36 46.24 47.42 49.10 50.31 50.54 51.13 53.11 59.46 60.56 61.37 63.23 64.22 65.16 66.87 67.21 67.00 67.07 67.19 66.20 65.76 66.17 67.12 67.51 67.14 66.62 66.58 66.48 66.68 66.49
38.92 34.21 36.28 33.98 36.85 37.14 35.06 37.11 37.19 37.43 38.15 38.67 39.07 38.75 45.17 46.81 47.55 47.54 48.76 50.04 50.63 53.13 56.19 61.28 61.46 62.89 63.45 64.50 66.06 66.25 66.14 65.77 65.25 64.55 65.07 66.20 66.57 66.63 66.22 66.14 66.19 66.12 65.88 65.96
36.09 33.78 33.09 30.52 36.03 35.34 31.83 36.56 37.81 38.38 39.97 39.83 36.33 41.16 45.08 44.82 45.73 47.28 48.48 50.15 51.67 53.08 56.18 61.73 61.48 63.47 65.09 64.47 65.12 65.70 65.19 64.63 64.61 64.96 65.25 65.58 66.05 65.77 65.74 65.46 65.20 65.23 65.80 66.47
34.82 34.64 35.22 31.60 32.11 23.35 36.75 41.45 41.24 40.10 41.35 42.91 42.53 43.71 45.75 46.16 47.31 48.75 49.82 50.90 51.98 54.24 57.43 63.25 63.32 65.17 65.41 65.05 66.66 66.25 64.59 64.59 64.66 64.69 64.93 65.32 65.18 65.02 64.94 64.75 64.78 65.51 66.05 66.16
37.33 34.72 32.22 29.07 29.27 32.96 35.51 39.41 38.60 36.10 38.01 44.62 44.92 46.37 47.42 48.15 48.32 48.28 50.71 52.63 55.15 57.62 61.73 65.04 65.21 66.01 65.42 65.97 66.71 64.86 63.68 64.49 64.24 64.58 64.62 64.87 64.46 64.34 63.84 63.87 64.87 65.50 65.70 65.47
37.29 36.97 33.21 31.17 25.84 23.66 34.45 40.02 41.92 41.80 33.43 46.76 46.69 46.79 47.20 47.02 42.21 46.34 53.92 60.79 62.22 63.98 64.98 64.82 65.74 66.88 66.66 66.58 66.29 63.82 63.88 64.08 64.31 64.30 64.32 64.83 65.09 64.46 64.25 64.65 65.21 65.80 65.50 64.92
32.94 33.07 30.07 30.07 28.41 31.89 38.66 39.57 40.44 31.63 37.41 45.27 46.41 45.52 48.66 46.51 48.30 52.61 55.93 57.10 60.60 64.26 65.30 65.95 66.79 66.00 66.22 66.58 65.63 62.86 63.89 64.00 64.21 64.68 65.05 65.38 65.15 64.43 65.10 65.50 65.98 65.89 65.40 65.50
32.39 31.83 33.00 33.23 30.18 27.56 39.23 36.43 33.74 41.48 44.09 43.56 44.76 44.72 46.89 51.63 53.20 53.88 55.75 58.40 59.11 63.45 65.36 65.52 65.73 65.57 66.21 66.27 64.42 62.61 63.74 64.88 65.38 65.58 65.35 65.40 65.13 64.62 64.89 65.35 65.56 65.69 65.98 65.41
33.12 34.03 32.94 32.76 33.48 39.84 41.45 37.60 38.88 39.04 37.86 42.48 45.19 45.97 48.51 52.44 54.00 55.53 57.67 59.70 61.67 63.50 64.69 66.34 65.81 65.25 65.52 65.10 63.73 63.47 65.01 65.71 66.08 65.61 65.17 65.10 64.80 65.09 65.59 65.40 65.21 65.58 66.48 65.92
39.78 37.66 32.76 33.48 39.05 39.45 41.93 43.06 43.46 45.76 46.43 46.36 45.95 47.27 51.90 53.05 55.36 55.93 59.29 60.31 61.74 63.73 63.74 65.93 64.88 63.82 63.36 63.74 63.74 65.06 65.96 66.05 65.99 65.70 65.18 65.18 64.85 64.83 65.44 65.41 66.19 66.39 65.91 64.56
40.58 39.66 36.22 37.17 41.00 42.30 41.47 43.61 43.84 45.53 46.83 47.09 48.87 49.11 51.08 53.06 55.14 56.88 58.53 60.66 62.64 62.74 64.88 65.54 63.71 62.83 62.64 63.53 64.24 65.33 65.87 66.12 65.28 65.38 65.22 64.94 65.09 65.23 65.05 65.78 64.69 66.47 66.59 61.73
43.26 39.30 36.67 37.28 42.21 41.37 40.92 44.33 43.58 43.62 45.52 46.42 45.93 47.06 48.57 51.34 53.74 56.28 59.37 61.65 62.38 62.58 62.66 65.39 64.47 63.42 62.16 62.76 64.20 65.05 65.80 66.19 66.04 64.90 64.86 63.84 64.35 64.99 64.65 64.46 63.37 43.65 44.18 43.43

GFSCGP_sfc_wetblb_042.txt.gz
Wetbulb
46.82 42.85 40.80 43.69 45.49 44.79 43.54 41.91 40.85 43.42 45.84 44.77 44.83 47.11 49.39 52.26 52.60 52.49 54.65 56.61 57.20 58.02 61.16 64.11 64.39 67.57 66.40 70.93 72.72 72.32 72.26 73.09 74.80 73.64 70.71 69.38 69.23 69.98 71.82 72.80 74.59 75.46 74.16 73.18
42.84 40.16 44.52 45.45 44.84 43.49 42.69 40.58 40.07 42.98 44.92 44.66 44.42 44.27 48.15 51.26 51.99 53.64 54.89 55.13 56.27 58.58 60.79 61.49 63.62 67.12 69.92 70.84 71.09 71.36 72.43 73.25 73.36 71.72 70.48 71.62 70.86 69.52 71.21 73.39 74.41 75.33 74.46 73.27
39.87 42.00 44.78 43.46 42.16 40.95 41.47 40.07 40.17 39.84 42.98 44.08 42.89 41.86 45.70 49.02 52.01 53.29 54.38 56.09 57.23 57.30 58.06 60.47 63.59 66.54 69.72 69.38 70.00 70.74 71.04 71.49 72.22 70.75 70.95 71.69 71.43 73.85 74.32 73.34 73.40 74.15 74.03 73.47
41.30 43.78 42.02 41.44 40.55 41.34 37.35 42.41 41.58 41.10 39.42 34.66 42.70 34.44 43.14 46.78 48.88 51.54 52.77 54.30 55.95 57.19 57.98 58.34 60.99 63.73 67.18 68.42 69.98 72.05 71.26 70.57 70.90 72.34 71.13 70.13 68.73 68.27 71.37 73.26 72.94 73.06 73.47 72.87
39.09 40.87 40.78 40.00 40.44 42.94 40.05 43.64 42.17 41.13 39.11 38.29 38.22 35.67 39.78 44.84 45.15 49.03 52.65 54.25 55.71 57.04 57.92 57.33 57.95 60.34 63.85 65.16 65.51 67.73 70.46 71.05 70.74 71.15 71.26 69.51 70.86 71.12 74.15 74.01 73.70 72.09 73.15 71.91
41.90 45.52 43.84 43.06 44.44 44.67 45.07 42.15 41.70 40.92 39.21 32.27 36.46 36.55 37.47 41.16 44.48 47.47 51.57 54.23 55.19 56.26 57.27 58.85 60.20 60.16 59.89 62.34 64.38 67.21 67.66 68.03 70.61 71.45 72.89 71.98 71.98 71.61 71.34 72.33 70.83 69.78 70.26 69.67
39.88 40.94 43.91 44.89 40.85 43.47 43.24 38.80 31.05 29.52 30.56 29.92 38.52 36.25 39.41 44.49 46.08 47.88 49.85 52.69 54.58 56.19 58.19 58.89 59.17 59.55 60.24 60.70 61.23 62.51 67.55 68.09 71.11 70.37 72.21 70.83 73.04 71.98 74.34 70.96 69.47 68.80 68.13 68.15
33.45 31.63 39.72 43.35 40.44 38.92 38.95 35.43 29.80 23.33 25.96 30.40 37.89 32.54 37.80 45.76 47.83 50.10 51.38 52.73 54.79 56.34 57.16 58.50 59.65 61.31 60.19 61.93 63.34 65.06 66.67 68.43 69.94 69.44 69.65 71.96 71.90 72.64 72.21 70.39 69.09 68.62 67.95 68.46
33.93 33.86 42.05 42.31 43.47 43.26 39.62 35.61 38.76 33.16 35.40 30.34 34.23 37.56 42.03 45.28 46.10 47.84 50.26 52.08 54.26 55.42 56.57 58.83 60.46 60.48 61.21 62.99 65.49 65.80 66.56 67.32 68.19 69.92 71.19 72.28 72.92 73.52 71.67 71.17 70.57 70.14 70.23 70.39
39.26 32.67 40.21 41.37 43.01 42.70 41.47 42.79 34.78 34.89 25.15 23.87 31.33 33.15 35.16 41.44 44.72 46.68 49.11 51.72 53.38 56.53 57.43 59.88 62.29 64.20 65.90 68.02 66.52 67.10 68.46 70.00 71.55 71.80 72.66 72.85 73.59 74.26 72.85 72.65 71.44 70.97 71.53 70.80
41.69 37.52 36.60 40.81 38.47 37.53 39.25 37.77 37.87 36.52 33.64 26.60 26.45 32.01 43.87 43.19 43.66 42.93 48.41 51.73 54.90 55.50 56.15 59.91 63.93 65.54 65.91 69.17 70.13 71.03 70.49 71.43 71.12 71.17 71.73 72.43 72.84 73.06 72.97 71.89 70.85 70.90 71.25 70.53
42.34 38.13 32.84 35.29 41.64 43.02 41.76 38.88 37.95 31.65 29.92 33.75 32.90 32.75 45.29 43.88 42.37 42.99 42.85 52.21 53.66 56.74 61.97 62.79 64.06 66.90 67.11 67.44 69.36 70.75 71.13 69.59 70.21 71.87 72.08 72.18 71.49 71.49 70.68 69.68 69.24 70.39 69.50 69.69
40.89 35.60 29.15 31.99 38.02 40.83 37.27 38.62 39.57 39.52 37.54 32.14 29.50 32.52 44.75 42.54 40.91 43.18 43.90 50.05 52.96 54.32 62.69 62.55 63.40 64.94 66.60 68.54 68.25 68.67 69.13 69.61 70.03 69.85 69.42 69.38 68.32 68.48 68.99 68.80 69.43 69.58 68.96 69.40
41.29 36.20 32.06 27.97 32.60 34.51 32.32 34.79 38.19 37.94 32.89 33.27 33.82 35.50 40.19 39.62 40.48 42.90 45.02 46.89 52.13 53.46 61.79 62.50 63.67 65.95 67.24 67.51 67.38 68.11 68.02 68.81 68.43 68.21 68.36 68.17 69.02 69.45 69.32 69.14 69.60 68.69 68.35 67.35
39.00 33.36 36.13 36.88 37.55 37.94 36.78 35.74 37.74 36.51 37.43 33.14 35.28 35.44 39.44 41.60 41.67 43.01 44.83 47.49 50.89 51.88 60.18 62.03 63.71 65.79 66.01 65.07 66.45 67.09 67.89 68.01 68.32 67.62 68.24 68.50 69.20 69.33 68.85 68.29 68.08 67.58 67.46 65.68
41.20 35.34 36.73 34.71 37.88 37.73 35.97 37.96 38.67 38.64 38.17 37.70 37.74 37.07 43.02 45.12 45.58 45.67 47.80 48.98 49.66 50.99 54.96 62.06 62.95 64.58 63.16 64.78 65.05 66.09 66.41 66.73 68.57 67.73 67.74 68.30 67.87 67.68 67.55 67.53 64.94 64.61 65.54 65.67
36.98 36.64 34.37 30.29 36.29 35.42 32.31 37.54 38.66 39.48 40.31 39.33 35.29 40.15 44.70 43.54 44.75 47.36 48.28 49.36 49.82 50.87 52.68 60.86 62.54 63.84 65.46 65.13 64.95 64.47 66.66 67.48 66.99 66.47 66.08 65.66 65.66 64.79 64.62 65.56 64.83 64.53 65.46 66.18
37.59 36.51 35.56 32.15 34.05 24.49 37.35 43.09 42.44 39.53 41.23 42.19 42.42 43.53 45.06 45.96 48.02 48.00 49.08 49.94 50.41 51.34 53.20 60.41 63.71 64.53 65.58 65.31 64.48 65.32 66.25 65.63 65.05 64.60 64.44 65.00 64.80 64.57 64.36 64.20 63.98 64.13 66.18 66.50
41.23 36.63 33.22 29.45 29.43 33.71 36.45 39.89 38.39 36.36 36.03 42.58 43.35 45.51 46.65 48.05 48.87 49.72 52.39 52.52 52.69 54.07 60.46 61.68 64.83 65.01 65.50 65.37 64.36 64.99 64.50 64.56 63.91 63.95 64.76 64.53 64.04 63.62 63.68 64.02 63.82 65.01 66.07 65.56
41.75 39.16 34.37 32.02 27.50 25.10 35.42 39.30 41.42 42.19 32.25 43.28 43.95 44.07 45.99 48.49 42.25 46.84 54.18 55.89 56.73 59.02 59.17 62.10 64.31 64.98 66.91 64.30 63.83 64.32 64.00 63.87 63.42 64.20 63.84 64.56 64.30 63.57 63.72 64.45 64.14 65.24 65.56 65.46
36.53 34.37 30.89 31.16 30.23 33.58 38.52 40.45 40.49 30.60 34.53 42.31 42.86 43.15 43.66 44.43 46.80 52.11 54.91 54.70 57.78 59.20 59.85 60.96 63.57 63.58 65.75 65.34 64.73 63.93 63.77 63.24 64.69 65.09 64.66 64.94 63.75 64.55 64.64 64.84 65.36 66.05 65.03 64.85
34.61 32.34 31.93 33.86 30.41 28.56 42.36 39.41 33.75 39.46 41.11 41.03 41.48 42.44 43.55 45.92 49.03 52.12 53.36 55.65 58.17 58.96 60.05 61.84 62.89 64.92 66.16 64.80 64.83 63.88 64.11 64.94 65.37 64.97 64.33 64.36 64.61 63.26 65.13 64.59 64.28 65.78 66.08 64.41
35.42 37.31 34.71 34.75 34.97 42.64 43.57 41.04 42.60 43.24 40.38 40.41 41.66 46.78 46.59 47.08 48.64 51.79 53.29 57.12 58.34 59.40 61.02 62.81 63.57 65.68 64.22 64.66 64.94 64.58 65.02 65.33 65.08 64.88 63.98 64.37 64.99 63.14 65.10 63.38 63.33 65.56 65.20 64.08
42.11 41.57 35.07 37.79 40.29 41.71 42.60 44.09 44.61 43.34 42.18 44.02 46.76 49.08 49.85 50.19 51.39 52.38 53.56 57.30 58.15 60.34 60.15 63.03 65.00 63.14 62.88 64.34 65.60 65.35 65.45 65.63 65.11 63.97 63.83 64.39 63.61 64.25 64.39 64.25 65.96 64.54 63.89 64.12
42.74 42.26 40.63 39.06 41.42 42.16 42.58 43.51 43.61 43.12 44.61 45.15 46.68 47.85 49.30 49.72 50.47 52.05 53.86 57.16 59.03 60.55 61.49 63.39 62.51 62.74 63.72 64.16 65.15 65.03 65.30 65.39 63.60 64.01 63.30 63.16 63.39 64.15 62.55 57.93 57.49 61.75 54.59 57.08
45.17 41.45 39.62 37.20 42.59 40.31 40.53 44.41 45.25 42.98 43.54 45.09 45.54 46.12 48.02 49.46 50.11 53.24 54.56 57.63 58.89 60.41 61.88 61.99 63.25 62.93 62.69 63.38 64.99 65.42 65.73 64.62 64.67 64.13 62.34 62.42 63.30 63.74 63.98 61.39 57.67 42.63 42.78 41.03

GFSCGP_sfc_wetblb_045.txt.gz
Wetbulb
42.16 36.38 33.21 37.77 40.10 40.90 39.97 38.80 37.84 40.73 43.50 40.89 39.78 40.67 43.19 45.82 46.13 47.94 49.73 50.57 52.05 55.11 57.42 58.06 58.53 59.30 62.24 63.51 65.47 64.89 65.02 66.72 70.29 68.89 68.54 67.48 67.07 66.55 67.56 68.40 68.92 69.80 71.67 70.27
37.99 33.87 40.60 42.60 41.73 40.29 38.92 36.68 36.49 40.63 43.38 41.27 39.98 39.40 42.53 44.16 45.09 46.74 48.10 49.97 50.85 53.29 55.10 56.67 57.66 58.51 58.78 61.63 65.23 64.97 64.85 65.36 68.09 67.97 66.01 64.68 64.20 64.84 65.08 66.86 68.71 69.58 71.15 71.12
35.06 38.56 43.10 41.18 38.98 37.96 37.45 35.92 36.33 36.62 40.58 41.68 39.64 37.07 39.55 43.33 44.95 46.81 48.40 49.82 50.96 51.72 53.38 55.30 56.89 58.23 59.16 62.15 64.84 65.19 64.97 65.46 66.08 66.07 64.95 64.76 64.61 64.19 65.81 66.46 67.97 69.50 70.73 70.75
37.40 41.38 40.53 39.02 38.16 39.23 34.08 40.56 40.15 38.93 36.15 30.07 38.84 28.73 36.64 40.37 41.62 44.26 46.33 47.81 48.43 49.81 52.71 54.50 54.76 56.48 59.43 62.46 63.84 63.93 64.79 65.47 66.37 66.17 63.61 64.09 64.35 63.08 62.81 66.39 68.50 69.42 70.50 70.16
36.39 38.61 37.92 37.31 39.09 41.65 37.35 42.25 39.91 39.19 35.55 34.13 34.63 29.56 34.73 39.34 39.38 41.36 43.72 45.94 48.11 49.74 51.34 52.77 53.04 53.74 55.95 61.42 61.06 63.86 65.11 64.79 64.46 65.93 65.49 64.79 63.18 63.87 65.13 67.47 68.21 68.20 68.65 69.61
39.20 42.95 42.18 40.59 42.68 42.97 42.10 39.15 38.30 37.58 33.87 27.05 33.12 32.37 32.81 35.64 38.83 41.67 44.12 46.19 47.82 49.38 51.84 52.42 53.60 53.70 54.13 55.55 58.55 58.71 62.73 64.33 64.30 64.72 66.33 64.80 64.35 65.22 65.77 67.91 67.26 67.03 67.05 67.89
36.90 37.66 40.87 43.66 38.03 40.18 38.16 32.23 27.36 22.29 22.37 24.30 35.15 32.64 34.22 38.74 41.94 43.41 43.83 45.48 47.30 48.08 50.25 51.88 52.94 53.57 54.71 53.83 54.80 56.60 59.83 62.14 65.10 64.90 66.43 65.69 64.91 65.46 66.47 68.09 67.08 66.38 65.81 65.45
27.60 27.55 37.51 42.68 38.49 34.68 34.24 33.73 25.18 20.20 23.11 25.88 33.46 28.98 33.53 41.50 43.31 45.53 46.74 46.54 47.44 48.28 49.23 50.56 52.23 54.15 55.21 55.88 54.99 54.47 55.09 59.65 63.64 65.11 67.74 67.30 66.47 69.01 68.45 68.37 67.42 66.72 66.02 65.79
29.45 31.08 40.96 41.59 41.71 40.32 34.09 31.37 38.13 29.76 31.17 26.51 29.27 34.23 39.16 42.28 42.23 43.05 43.18 45.05 44.47 45.27 49.91 51.05 52.49 53.41 54.93 55.47 56.13 56.40 57.04 59.36 65.76 65.66 66.56 67.30 65.90 68.69 67.93 67.04 66.88 66.58 65.91 66.79
36.15 29.45 38.92 40.35 41.87 41.00 36.15 38.39 27.50 31.16 22.73 20.83 27.19 29.18 30.95 37.36 38.15 40.69 41.02 42.56 44.94 47.70 51.45 51.73 51.68 52.71 53.36 53.69 56.47 57.74 60.22 63.73 64.55 64.94 65.64 67.37 68.27 69.52 67.95 67.62 66.57 66.39 65.89 67.15
37.15 32.85 33.49 37.89 35.44 33.42 35.37 33.02 33.89 32.44 29.55 23.70 21.03 25.84 41.35 38.18 38.92 39.15 40.91 43.44 44.96 47.62 50.14 52.90 53.13 58.51 59.60 59.18 59.43 58.86 62.14 64.61 65.86 67.23 67.98 68.53 69.31 69.73 68.62 68.00 67.59 67.53 67.53 67.85
38.11 33.70 28.85 32.01 38.97 41.17 39.32 36.35 33.49 28.24 27.25 29.79 28.12 27.67 41.49 39.83 40.98 41.61 41.97 44.18 45.29 47.78 48.93 51.35 53.62 61.10 63.07 63.09 63.93 63.96 65.95 67.00 67.73 68.48 68.33 68.55 69.05 69.91 69.23 68.53 68.85 68.73 67.44 67.90
37.94 31.80 26.43 28.21 33.55 36.94 33.90 35.82 35.17 34.36 32.30 27.79 25.31 27.82 43.15 41.65 41.32 42.32 41.97 44.53 46.38 47.80 49.30 50.41 55.62 57.28 61.83 62.71 66.19 66.62 66.86 67.40 68.26 69.41 68.69 68.34 67.73 67.79 67.22 67.39 67.11 67.69 66.40 65.45
40.57 34.84 30.24 25.46 29.11 32.56 31.25 33.95 36.04 34.42 26.58 29.40 30.81 33.27 38.20 39.72 40.48 42.29 43.98 45.19 46.24 46.68 48.01 50.26 50.17 56.37 61.84 62.77 65.31 66.30 66.54 68.30 68.55 68.40 67.13 66.03 66.52 66.96 66.52 66.61 66.42 65.90 65.83 64.51
39.70 32.70 33.97 34.87 36.05 36.21 35.10 34.58 35.88 33.18 33.86 29.74 32.88 34.24 37.01 39.61 41.40 43.21 44.76 45.65 46.12 46.32 46.74 49.36 53.02 59.48 61.57 64.21 65.73 66.57 66.54 67.30 67.85 66.70 66.78 66.70 66.53 66.57 66.48 66.03 64.96 63.99 62.25 62.00
40.16 33.00 34.93 32.01 36.01 36.25 34.38 35.85 35.96 36.65 37.33 36.10 36.42 35.71 42.43 42.46 43.35 42.64 44.35 45.02 45.43 46.40 48.23 52.88 59.54 60.48 62.81 62.70 65.06 66.11 66.54 66.71 67.47 66.74 66.23 66.37 65.51 65.13 64.05 62.84 63.51 62.27 61.98 61.88
33.12 33.55 31.61 26.17 35.34 34.50 27.81 35.02 36.67 37.26 37.99 36.93 32.31 36.91 42.80 42.83 42.98 42.72 43.58 44.79 45.14 47.15 48.40 52.76 59.96 61.05 60.28 61.87 64.71 64.81 65.89 66.43 66.16 65.88 65.64 65.47 64.58 63.66 63.87 62.08 61.95 62.35 62.02 62.34
34.34 33.98 33.11 28.43 31.11 21.77 33.88 40.98 40.45 37.35 38.31 39.80 39.00 41.52 43.88 44.59 46.93 48.01 48.58 47.53 48.26 47.98 54.53 57.75 60.09 60.57 61.51 62.84 63.92 65.21 65.91 65.50 64.84 64.05 63.61 62.54 63.11 61.68 61.38 62.14 61.81 62.21 62.02 61.96
39.34 36.11 30.72 24.76 24.05 31.83 35.59 37.84 36.52 34.72 33.88 41.05 39.20 40.68 42.39 43.77 44.83 46.87 49.70 50.30 51.63 53.04 54.44 55.80 60.32 58.15 56.60 60.06 63.53 63.24 62.63 62.24 62.18 61.37 61.68 61.92 61.88 61.52 62.38 61.67 61.74 62.44 61.32 60.10
40.82 39.39 34.00 28.86 23.94 18.61 34.02 39.26 41.51 39.22 29.47 40.65 39.58 38.48 39.09 40.90 35.95 41.62 47.09 48.65 51.61 53.61 55.57 57.72 60.05 61.24 59.97 62.18 62.55 61.17 60.57 60.64 60.49 61.55 62.21 62.53 63.24 62.30 62.08 62.18 62.38 61.85 60.35 61.01
33.58 34.14 29.30 29.87 27.53 30.60 37.98 40.81 41.07 27.39 31.44 38.97 39.28 38.95 38.78 37.25 39.86 43.30 46.19 47.94 52.19 53.32 56.02 59.24 59.71 60.25 63.14 60.99 61.97 59.82 59.22 58.75 62.07 62.66 62.34 61.76 61.83 61.82 62.34 62.38 62.20 60.23 60.26 60.84
32.33 30.43 30.34 31.85 28.36 22.11 40.65 39.21 33.76 38.25 40.47 40.56 40.77 40.92 40.53 42.12 42.75 44.22 45.76 48.71 51.63 53.77 56.91 59.31 58.69 60.57 62.30 60.66 61.44 58.80 60.13 61.55 62.20 61.99 62.00 62.01 62.40 62.78 62.66 62.03 60.88 60.90 60.38 60.71
28.89 35.39 32.34 33.05 31.57 40.50 41.83 40.88 43.52 42.98 41.85 41.68 41.29 42.92 43.92 45.05 45.50 45.27 46.66 50.22 52.35 55.39 58.51 60.25 60.74 61.54 62.61 61.79 61.60 60.59 61.37 61.42 60.80 61.26 61.21 61.50 60.92 61.48 61.42 59.56 61.04 59.56 60.74 60.29
38.00 39.90 34.35 35.62 38.26 39.88 42.14 43.83 42.33 44.10 42.97 43.41 43.96 44.47 46.17 45.75 48.14 49.14 49.87 50.72 52.63 55.88 58.55 60.68 61.73 60.01 60.57 62.18 61.82 61.95 62.49 62.80 61.30 60.87 61.64 61.29 62.23 61.48 60.38 61.14 60.89 59.46 59.89 59.88
38.07 40.84 39.18 38.01 39.46 41.02 42.39 41.81 43.28 44.47 44.36 43.24 44.76 46.08 45.78 46.73 46.59 47.76 49.00 50.75 53.78 56.51 59.16 60.50 60.99 61.50 61.07 62.02 61.81 62.26 62.46 61.97 61.14 61.24 61.07 60.75 61.07 58.01 55.56 53.37 54.75 59.02 56.57 57.83
42.84 40.66 36.02 33.72 39.95 39.74 39.21 42.49 45.21 43.39 42.52 44.00 44.60 44.92 46.92 46.95 47.18 49.03 50.13 52.95 55.43 57.27 60.00 60.16 61.63 60.58 61.92 62.40 62.39 61.91 62.62 62.30 61.25 59.73 60.83 61.61 61.58 59.37 56.93 55.87 53.80 42.13 42.45 41.76

GFSCGP_sfc_wetblb_048.txt.gz
Wetbulb
39.64 33.96 31.21 35.44 37.46 39.19 37.87 36.12 34.22 37.31 41.30 39.26 38.08 38.82 41.37 42.51 42.95 42.71 43.81 45.99 47.46 50.07 53.52 55.33 57.17 56.67 57.83 59.79 60.65 59.44 62.80 66.09 69.75 69.42 68.97 69.12 68.94 68.98 68.06 68.89 69.07 69.51 70.08 68.47
35.35 31.38 37.96 41.05 39.79 37.87 36.24 33.70 33.05 37.26 40.61 39.27 37.97 38.30 41.59 41.97 41.75 42.42 43.40 44.69 46.11 48.40 51.08 53.12 54.97 56.47 55.53 57.23 60.08 61.40 62.12 67.02 70.14 70.22 70.23 69.39 69.55 66.71 69.02 69.26 68.87 68.62 70.08 69.41
32.31 36.65 41.43 39.84 37.22 36.50 34.87 32.89 34.87 35.06 39.63 39.74 36.73 35.36 37.92 41.87 42.36 43.69 43.87 44.66 45.90 47.12 49.34 51.49 53.92 54.45 55.00 54.88 57.28 62.23 63.07 66.59 69.79 70.16 69.08 63.69 64.05 63.35 63.27 63.47 64.31 66.13 69.22 70.00
35.58 39.88 39.08 37.18 36.39 38.21 32.49 39.86 38.81 37.25 34.16 27.52 36.64 26.55 35.38 38.65 40.01 41.44 42.45 42.12 43.67 45.76 47.64 49.13 51.61 52.17 54.40 57.30 59.65 61.82 63.67 63.91 67.75 67.10 66.11 64.95 62.93 61.11 60.94 61.64 64.91 65.56 69.08 69.82
35.01 36.87 36.46 35.04 37.88 40.33 35.59 40.84 37.87 37.51 33.66 30.05 33.04 27.07 33.57 36.80 37.04 39.70 41.91 43.33 43.96 44.81 44.98 46.76 49.60 52.52 53.87 56.51 60.98 61.85 61.92 61.93 63.16 64.25 64.67 64.60 60.18 60.49 60.55 63.52 63.89 65.36 67.39 69.21
37.42 40.89 39.95 39.30 41.67 40.95 41.94 37.17 35.57 33.98 30.89 23.79 31.10 29.64 31.00 34.64 36.77 40.20 42.99 44.10 45.44 46.62 47.25 47.53 49.25 52.01 52.47 53.78 58.36 61.14 61.90 62.48 62.45 62.35 61.85 60.92 60.44 60.78 62.06 63.71 64.50 65.27 66.30 67.32
34.88 35.46 39.92 42.46 36.17 38.58 36.16 28.93 21.82 21.39 20.62 21.68 32.68 29.22 32.09 37.48 39.98 40.75 42.05 43.34 44.88 46.14 46.21 47.90 49.07 48.74 50.51 50.97 53.64 57.84 61.71 62.38 63.04 62.95 62.76 63.13 62.47 62.26 62.44 64.85 65.45 64.89 64.90 65.26
26.08 26.44 35.64 41.75 37.04 33.15 31.76 29.84 21.49 17.31 20.53 24.43 33.24 25.87 30.92 40.34 43.04 43.70 44.22 43.49 44.85 44.94 46.48 48.15 49.68 51.71 49.69 51.52 51.88 54.71 56.74 61.04 61.76 61.99 61.81 63.71 63.81 64.01 64.73 66.72 67.06 67.23 67.08 66.83
28.03 29.65 40.01 40.70 40.22 37.55 32.41 28.33 34.00 24.44 29.83 27.27 27.47 31.48 36.68 41.06 40.81 41.88 42.01 43.40 43.05 44.18 45.52 47.92 50.13 51.65 54.49 51.92 53.17 53.35 54.85 57.71 59.10 61.99 62.20 62.51 64.03 64.90 66.42 66.69 67.08 66.42 65.59 66.36
33.82 27.72 37.42 39.76 40.56 39.46 35.51 36.19 25.09 26.15 21.04 20.73 25.59 27.76 27.96 36.14 37.48 39.75 40.31 40.74 42.44 44.21 45.29 47.57 49.33 50.84 53.33 56.56 53.72 53.31 53.61 54.94 58.03 61.13 63.38 65.14 64.49 67.26 66.83 66.87 65.74 65.77 65.30 66.29
34.67 31.49 32.26 36.43 33.62 32.28 31.46 29.89 32.59 31.25 30.36 24.00 21.82 23.86 37.30 37.43 38.37 37.58 39.44 41.14 41.98 43.85 45.25 47.24 48.58 50.38 52.63 54.40 58.16 53.71 53.15 54.29 60.36 62.45 63.73 65.27 66.32 66.79 66.69 66.31 66.09 65.77 65.39 65.86
36.52 31.89 27.66 31.51 38.41 39.80 35.79 32.92 32.71 26.06 27.41 30.65 29.04 26.26 38.97 38.89 39.18 39.41 39.57 42.16 43.87 44.97 45.93 47.39 47.91 48.89 52.37 53.30 56.35 59.04 56.24 59.75 62.72 64.17 65.09 65.85 67.62 66.65 66.00 65.79 66.07 66.11 65.91 67.03
36.24 29.08 26.56 26.87 32.07 36.08 32.51 35.06 35.14 32.88 30.41 26.66 24.50 25.43 39.93 40.13 40.33 40.23 39.89 42.67 44.50 45.38 46.64 46.44 46.42 47.92 49.99 52.88 56.32 61.35 62.19 63.27 65.22 66.23 66.48 67.01 67.93 66.99 66.76 66.85 67.03 66.90 66.83 66.59
39.81 34.04 29.30 25.24 29.92 34.25 30.18 33.21 35.13 31.76 25.30 26.64 28.03 29.94 35.32 38.27 39.48 40.27 41.47 43.07 43.56 44.77 46.03 46.87 46.70 47.84 49.34 52.57 57.71 63.37 64.59 65.98 66.81 67.58 66.90 66.47 67.50 67.21 67.17 66.81 67.03 66.74 66.90 65.83
38.26 32.84 33.45 34.36 35.48 35.39 34.05 33.67 34.51 32.26 31.94 27.73 30.92 31.68 35.54 37.13 39.75 40.62 42.93 44.67 44.54 45.12 46.94 47.36 47.29 48.01 49.03 51.31 58.86 63.23 65.38 67.04 67.27 66.45 65.82 65.18 65.43 65.42 65.36 65.16 65.74 65.59 65.43 64.36
39.73 32.74 35.70 32.91 35.04 34.99 32.64 34.99 35.20 35.21 35.03 34.46 34.22 33.06 40.33 40.93 42.34 41.94 43.07 44.01 44.44 45.64 47.66 48.17 48.34 50.24 55.21 55.42 61.59 60.87 64.80 65.29 66.38 65.50 64.95 65.34 64.99 65.71 65.00 64.66 63.25 62.05 61.42 61.09
34.35 33.28 31.02 27.31 33.39 33.23 28.58 34.61 35.93 36.26 38.04 35.28 30.23 34.59 39.17 40.37 41.09 42.01 42.40 44.77 47.79 49.33 51.76 53.04 55.94 58.03 59.29 61.09 59.12 57.92 62.83 65.74 65.25 65.16 65.36 65.51 65.24 64.38 63.46 62.73 62.04 59.94 59.33 59.60
34.88 31.59 33.80 28.16 28.59 22.46 33.12 39.60 38.67 35.93 37.51 37.85 37.70 38.55 38.48 38.39 40.34 41.80 44.03 47.04 45.99 46.37 49.51 53.12 56.76 57.14 57.78 58.93 58.69 58.67 63.15 65.26 65.17 64.84 65.06 64.64 64.34 63.28 61.48 61.46 60.57 59.53 60.95 61.36
36.16 33.73 30.61 27.21 24.04 29.58 34.80 37.52 36.83 35.25 33.32 38.97 37.40 37.59 38.54 39.47 39.52 40.46 47.30 45.38 44.48 46.05 49.24 53.24 57.32 57.96 58.36 57.90 59.06 58.95 60.90 64.35 64.57 63.83 64.03 64.08 63.04 60.90 60.14 59.55 60.48 60.92 62.20 62.20
38.54 38.18 32.71 29.92 24.23 18.11 32.26 39.43 41.21 39.19 29.97 40.11 38.50 38.17 38.38 38.66 32.32 36.98 42.57 44.41 45.06 46.60 49.53 53.70 56.97 59.15 58.18 57.59 58.16 57.18 62.66 62.28 61.42 61.54 61.39 60.71 61.25 60.61 59.71 61.12 61.09 61.44 61.08 60.13
33.34 34.65 30.59 29.54 27.00 29.75 37.81 40.56 40.60 26.30 29.94 39.86 39.03 40.18 39.41 37.46 39.68 42.38 44.78 45.31 46.45 46.89 50.66 55.76 58.52 59.56 58.74 59.93 61.30 61.06 60.60 60.24 61.01 61.31 60.67 60.57 61.07 61.82 62.02 61.62 61.43 60.85 60.15 59.93
26.73 28.80 28.39 31.58 27.81 21.97 39.93 37.63 31.59 37.70 40.20 39.92 39.96 41.59 40.39 41.61 43.14 44.91 46.98 46.84 46.47 48.19 52.58 55.49 57.98 58.42 59.51 59.02 60.34 58.28 59.36 60.71 61.51 61.10 61.06 60.49 60.37 61.83 62.37 61.43 60.87 60.67 59.75 58.35
26.79 33.40 31.85 33.01 30.92 40.05 40.50 37.14 40.71 42.34 41.17 41.44 42.05 42.69 42.31 42.54 43.71 46.27 46.22 47.94 48.95 51.10 53.27 56.01 58.66 59.44 58.52 59.28 60.96 58.91 59.84 61.18 60.97 60.22 59.80 60.70 60.45 60.46 61.82 60.51 58.94 59.55 59.57 58.69
34.89 37.81 34.14 35.41 38.74 38.90 40.39 42.40 43.20 42.28 42.34 44.14 43.73 42.91 43.69 43.41 45.67 45.62 46.08 46.86 48.51 50.43 52.28 56.66 58.96 56.61 57.68 60.78 61.20 60.14 60.83 61.86 60.62 59.54 59.81 59.92 59.51 59.11 59.08 60.27 60.04 59.93 59.01 58.25
35.48 39.00 36.26 35.12 39.45 40.11 41.67 42.74 41.36 42.85 44.23 43.66 43.58 44.06 44.78 45.57 45.95 46.46 46.91 48.34 49.78 51.59 54.24 57.63 59.26 59.92 59.84 60.53 60.96 61.56 61.61 61.53 60.06 59.06 59.79 59.54 59.33 57.57 54.80 51.21 53.14 58.43 57.30 58.04
40.85 39.84 36.71 35.62 41.79 39.28 39.52 40.35 42.86 42.21 43.37 43.05 43.32 43.98 45.27 45.60 45.38 46.63 47.08 49.89 52.26 54.03 56.32 58.70 59.41 59.77 59.89 61.63 61.04 61.29 61.91 61.66 59.87 59.69 59.46 58.32 56.88 56.92 55.41 53.50 50.41 41.18 42.45 45.56

GFSCGP_sfc_wetblb_051.txt.gz
Wetbulb
37.38 32.78 29.93 33.92 35.52 36.87 35.21 33.52 31.75 35.08 38.77 36.41 35.49 37.15 39.52 41.53 41.62 41.35 42.18 43.63 44.37 46.05 49.11 51.31 54.29 56.60 57.98 60.16 60.60 61.05 60.94 61.51 62.61 65.82 66.28 66.74 67.31 68.58 68.95 68.73 68.78 68.13 67.64 67.08
34.06 29.75 36.60 39.04 37.97 36.03 34.25 31.25 31.26 35.65 40.11 38.57 37.14 36.90 40.14 39.71 40.29 41.14 41.84 42.52 43.57 44.58 47.13 49.31 51.86 53.45 54.97 57.05 59.27 60.86 60.74 61.88 61.47 66.58 67.50 67.04 67.66 68.18 69.12 69.44 68.34 68.77 68.52 67.48
31.20 35.61 39.82 38.28 35.48 35.73 33.55 32.45 33.24 33.53 37.82 38.18 35.85 34.68 36.33 39.48 40.42 41.99 42.24 42.63 42.79 43.43 44.46 46.89 48.84 49.86 53.07 53.58 56.20 58.93 60.21 61.22 62.41 66.77 66.84 63.25 64.12 63.37 64.71 64.69 66.17 67.44 67.90 68.54
33.99 38.17 37.73 35.48 34.71 36.55 30.43 38.22 37.40 35.72 32.52 25.99 35.82 25.22 34.39 37.89 38.49 39.39 40.49 40.54 41.21 42.35 43.57 44.81 45.73 46.80 48.03 51.03 53.17 56.59 59.09 59.43 61.78 63.78 66.89 66.98 66.80 66.23 65.31 66.65 66.33 64.78 67.04 67.79
34.35 35.44 34.95 33.26 35.75 38.64 33.94 39.19 35.98 35.36 31.47 28.17 30.29 25.80 32.66 35.65 35.49 38.23 40.59 41.52 42.87 43.75 44.86 45.59 46.90 48.22 48.91 50.19 51.30 54.26 58.03 60.14 61.24 64.67 67.87 67.35 66.59 63.28 60.02 60.17 62.73 62.89 64.52 67.00
36.16 39.42 38.42 37.30 39.94 39.22 40.05 35.33 32.86 31.76 28.70 21.67 28.74 27.80 28.91 30.74 33.84 37.11 41.34 43.05 44.50 44.49 45.61 46.82 48.31 49.88 50.33 51.51 48.93 52.05 57.95 60.16 61.27 64.78 66.15 66.52 66.02 61.50 59.74 60.60 60.74 61.52 63.40 65.30
33.84 34.08 38.65 40.99 34.50 36.54 34.58 27.34 20.07 19.26 19.99 21.39 30.59 27.57 29.68 36.68 39.78 40.65 41.00 42.05 43.05 43.63 44.12 45.21 46.23 48.15 49.90 50.69 52.65 49.18 54.64 58.85 60.09 61.84 64.39 64.06 64.05 62.74 61.71 61.08 61.90 62.05 63.35 64.25
25.12 25.61 34.37 40.21 35.57 31.60 30.28 28.59 19.26 14.02 18.04 21.79 30.57 24.18 29.27 39.82 42.06 42.86 43.44 42.73 43.46 43.23 42.52 43.99 45.83 47.48 49.05 51.05 53.48 50.61 50.37 56.33 59.12 61.14 62.31 63.36 62.80 62.59 61.43 61.10 62.92 63.76 64.90 65.17
26.83 29.00 38.69 39.61 38.98 36.53 30.73 27.33 31.19 21.55 25.74 21.81 25.39 30.24 35.09 39.44 40.20 41.04 40.87 41.89 41.13 41.78 42.97 43.74 45.44 46.90 48.51 49.37 51.24 53.26 53.05 51.25 56.89 59.81 61.56 60.73 60.64 60.10 61.01 62.24 64.16 64.83 64.79 65.96
32.86 26.82 35.87 38.37 38.83 38.28 33.57 34.96 23.91 24.44 19.53 18.71 23.80 26.00 27.89 33.10 35.91 39.52 39.87 39.67 40.38 41.81 43.75 45.46 46.12 47.01 48.73 48.83 50.66 53.37 55.09 53.53 52.91 58.05 59.83 59.71 60.77 61.40 62.38 64.28 64.62 64.68 64.33 65.99
33.66 30.07 31.14 34.88 32.61 30.20 29.76 28.08 29.92 29.23 27.67 20.79 20.25 24.25 33.94 35.13 37.43 37.89 39.49 40.49 39.69 41.69 43.97 45.15 46.18 47.58 47.77 48.29 50.15 53.00 54.24 55.20 51.08 54.28 57.18 59.23 61.17 63.20 64.29 64.80 64.75 64.81 65.42 65.58
35.23 30.62 27.06 30.45 37.47 38.35 34.60 31.52 32.33 25.79 23.63 27.40 26.47 25.99 39.10 38.98 37.82 38.25 39.45 41.13 41.45 43.32 44.32 45.15 45.92 47.44 47.90 47.77 48.89 51.24 54.20 55.53 51.84 53.43 57.41 61.04 63.10 64.75 64.77 64.70 64.96 64.86 65.20 65.63
35.20 28.42 26.05 26.08 30.07 33.96 32.41 35.18 35.52 33.88 31.72 26.77 21.92 25.27 38.13 37.74 38.90 40.24 39.85 41.67 42.41 43.09 44.50 45.45 45.74 46.53 47.24 47.84 49.20 50.92 55.14 59.06 56.64 59.31 60.98 63.38 64.34 64.79 64.88 64.63 64.65 65.09 65.49 65.69
39.23 30.74 27.83 25.04 27.64 31.68 30.52 33.03 35.39 33.07 28.26 26.52 27.26 28.98 34.48 36.88 37.32 39.11 40.87 41.57 42.23 42.99 46.99 46.34 46.06 46.18 46.42 47.88 49.67 51.62 55.71 61.70 61.98 62.91 63.94 65.09 64.99 65.00 65.01 65.28 65.24 65.60 66.30 66.06
35.85 31.02 32.41 32.99 34.08 34.27 33.65 33.44 33.89 32.04 31.72 28.66 30.23 30.44 34.24 36.74 36.71 39.43 41.93 43.06 43.79 46.60 48.05 48.24 49.87 48.62 49.56 49.04 51.44 53.10 58.19 63.61 64.29 64.88 65.26 65.92 66.26 66.14 66.07 66.17 66.03 66.62 66.22 66.15
38.07 31.03 32.35 30.81 33.73 33.27 31.68 34.37 34.75 34.35 34.22 33.45 33.60 32.81 38.33 38.46 39.64 39.61 39.87 41.28 41.97 47.28 47.47 47.29 48.92 53.07 55.18 53.95 57.99 56.62 60.04 64.79 65.20 64.64 65.07 66.13 65.71 65.94 65.71 66.06 65.97 65.64 63.44 62.78
30.48 31.74 32.06 26.45 33.12 32.23 28.11 32.84 34.92 35.47 37.59 35.73 31.30 35.04 38.21 37.11 38.19 38.30 38.73 40.07 42.64 44.29 45.30 46.08 47.12 50.79 54.99 56.72 57.98 58.53 60.21 63.58 64.45 64.68 65.44 65.45 65.61 64.33 64.08 63.77 63.10 61.98 61.29 60.67
30.84 33.23 33.56 27.13 27.42 20.92 31.42 39.10 38.50 35.87 36.96 38.15 38.12 38.66 39.31 39.06 39.27 40.37 41.13 42.26 42.82 43.82 45.18 46.32 47.28 50.19 55.07 57.94 58.72 58.83 59.52 60.28 63.98 64.22 64.39 64.31 63.83 63.17 62.17 62.01 61.11 60.79 60.35 59.34
34.57 32.66 31.37 24.44 24.18 28.91 32.64 37.53 36.11 33.47 33.10 37.98 37.57 38.93 39.66 39.29 39.99 38.62 42.91 43.70 43.40 44.21 45.88 47.02 48.39 50.93 56.62 58.02 58.79 58.88 57.91 57.93 59.88 63.59 63.63 63.62 62.57 61.64 61.46 60.31 60.20 60.21 59.13 57.98
38.11 38.55 32.88 28.00 24.15 18.05 29.10 39.30 41.15 39.14 28.76 39.74 38.68 37.21 37.32 38.34 32.64 36.39 41.97 43.56 44.53 46.07 48.04 47.72 48.66 53.54 57.12 57.90 58.12 58.04 57.28 58.19 59.37 63.26 63.53 62.24 62.18 60.91 60.49 60.11 60.60 59.52 59.75 58.82
31.39 31.24 29.27 28.80 27.60 28.13 36.42 40.27 41.18 27.99 28.13 37.83 38.08 38.44 39.12 37.44 39.22 41.88 43.67 44.86 46.43 47.99 48.61 49.13 51.80 55.70 56.32 57.78 58.97 57.68 57.63 60.81 63.32 63.45 62.35 61.35 60.66 60.53 60.38 59.59 60.24 60.08 59.57 57.96
25.50 25.56 28.91 30.78 25.63 20.29 40.41 38.84 33.57 36.44 41.29 40.29 38.98 40.06 40.29 41.74 42.25 42.64 43.89 44.97 46.47 47.36 49.09 50.87 52.51 55.90 57.19 57.76 58.15 57.19 58.56 61.91 61.69 61.34 60.84 60.33 60.46 60.97 60.41 59.80 60.66 60.19 58.26 56.20
27.24 31.76 30.50 31.23 27.99 38.12 41.79 40.41 42.81 42.60 40.20 40.24 40.99 42.68 42.85 41.41 41.99 43.41 44.23 45.67 46.51 47.54 48.72 51.29 53.52 56.18 57.10 57.83 58.76 56.90 60.22 60.96 60.38 59.61 58.76 59.11 60.20 60.36 60.75 60.41 59.80 58.71 57.72 57.70
34.33 35.02 31.99 33.99 38.25 39.63 41.45 43.20 41.83 41.87 40.32 41.91 43.38 43.29 42.48 41.74 43.49 44.26 44.92 45.45 46.66 48.49 49.91 52.11 54.18 56.18 56.08 57.31 58.84 60.19 60.16 60.11 59.20 58.61 58.42 58.88 59.10 59.92 60.40 60.73 60.08 58.35 58.26 57.32
34.86 36.49 35.97 36.25 38.52 40.80 41.95 42.07 40.21 40.21 41.32 42.11 43.85 42.86 42.81 43.75 43.73 44.54 44.95 46.17 47.57 49.23 51.15 53.61 55.13 58.00 58.49 59.96 58.93 59.77 60.38 60.05 59.05 58.68 58.96 57.74 58.27 58.75 54.78 50.02 54.37 58.29 58.27 57.56
36.36 36.98 34.96 34.33 40.95 40.89 41.36 42.86 40.03 39.11 40.43 43.19 42.24 42.27 43.88 44.29 43.84 44.77 44.93 46.90 48.72 50.58 53.15 55.13 58.22 58.05 57.97 59.88 59.39 59.74 61.06 60.31 59.36 58.37 57.93 56.96 56.20 55.48 53.58 53.34 51.76 41.62 43.81 45.28

GFSCGP_sfc_wetblb_054.txt.gz
Wetbulb
36.09 32.17 28.67 32.65 34.43 34.89 33.22 31.39 30.00 33.57 37.45 36.31 35.38 36.22 38.86 40.87 40.74 40.66 41.67 42.19 43.77 45.76 48.51 50.10 51.21 52.62 53.33 54.95 58.95 60.26 61.23 63.60 63.57 64.36 65.01 65.09 65.40 66.04 66.40 67.07 67.46 67.14 66.90 66.30
32.75 28.97 35.24 37.45 36.23 34.70 33.06 30.11 30.33 34.71 38.16 36.37 34.94 35.24 38.74 39.70 39.76 40.67 41.35 41.98 42.36 43.68 45.62 48.19 48.83 50.52 51.46 51.75 53.11 57.19 59.65 60.58 61.84 65.02 66.30 66.45 66.45 66.37 66.97 67.97 68.10 67.99 67.66 67.06
30.12 34.04 38.70 36.89 33.91 34.07 31.83 30.86 31.29 32.01 35.99 36.21 34.15 31.45 33.79 38.04 39.99 41.29 41.93 42.24 42.50 41.96 42.70 44.43 47.11 48.14 48.38 49.38 50.92 52.94 55.59 59.41 60.25 60.86 65.18 64.63 64.96 65.00 65.91 66.55 67.63 68.35 68.23 67.80
32.62 36.63 36.30 33.48 33.37 34.85 28.73 36.90 36.00 34.12 30.48 23.79 34.29 22.47 30.25 33.87 35.75 38.71 39.97 39.68 40.28 42.28 44.68 45.53 46.91 47.16 48.57 50.46 49.91 51.12 52.93 55.39 58.20 59.91 61.69 64.91 65.10 65.06 66.53 67.51 67.35 67.03 68.56 68.47
33.02 33.94 33.39 31.91 33.86 37.06 32.54 37.69 34.39 33.53 28.75 26.69 28.56 23.86 27.88 34.27 32.84 34.67 37.55 39.53 41.99 43.77 44.37 44.99 46.11 47.23 49.01 50.30 49.31 49.98 50.21 52.84 56.24 58.28 60.87 62.75 64.42 65.49 66.48 62.98 65.08 64.91 66.94 68.08
34.98 37.93 36.30 36.00 38.37 37.89 38.04 33.64 30.79 28.73 26.68 20.35 26.20 25.67 23.92 29.63 32.39 36.32 39.86 41.78 43.27 43.47 44.31 44.85 46.04 47.07 47.50 49.05 49.70 50.20 49.46 51.68 56.29 58.05 60.23 62.35 64.10 64.72 61.28 61.24 62.89 63.26 64.05 65.29
32.90 33.34 37.55 39.53 33.39 34.96 32.48 26.41 19.19 18.38 18.43 19.37 28.66 25.34 28.69 34.54 38.04 38.46 39.68 41.26 42.45 42.89 42.71 43.09 43.47 44.65 46.21 46.99 48.84 50.91 51.73 50.25 53.43 58.46 60.41 63.78 64.67 65.07 62.90 63.08 63.21 61.68 62.59 64.04
27.10 27.19 34.21 39.41 34.39 30.87 28.17 27.72 18.26 13.34 17.24 18.66 28.36 22.76 27.37 36.59 39.88 41.52 42.41 42.12 42.64 42.54 41.65 41.84 43.39 44.41 45.67 47.43 48.56 49.99 50.92 50.81 51.58 57.13 59.78 62.50 65.07 65.75 64.98 64.12 63.34 62.83 63.22 64.19
28.45 29.57 38.20 38.68 37.86 36.14 29.30 25.28 28.80 19.44 22.02 20.86 23.88 27.96 34.47 38.05 37.91 40.49 40.18 41.51 40.95 41.39 42.14 42.88 44.05 44.32 45.33 47.35 48.04 49.16 50.19 51.19 53.08 52.66 57.79 60.56 62.87 62.41 62.92 62.08 63.03 62.65 64.04 65.31
32.91 27.08 35.57 37.79 37.51 36.45 32.73 34.04 22.72 23.00 16.86 17.62 22.11 24.01 26.40 32.38 34.80 37.34 37.87 38.71 39.72 41.24 42.30 44.21 45.07 45.61 47.12 47.85 48.27 49.50 49.59 51.43 53.75 54.76 54.29 59.56 61.08 62.43 62.09 60.98 62.24 63.45 64.56 66.33
33.36 29.41 30.70 34.47 31.65 29.59 29.16 27.06 28.52 25.60 24.73 21.78 19.66 23.72 32.35 33.47 35.00 35.48 37.71 40.28 40.87 42.06 42.54 43.94 44.97 46.48 46.82 47.58 48.26 48.82 49.32 51.07 52.17 54.96 52.73 56.98 58.40 60.58 61.12 62.06 63.01 64.06 65.25 66.22
34.60 29.44 26.70 29.88 35.18 36.55 33.00 30.20 28.99 22.29 19.46 27.38 19.28 25.09 37.08 36.72 35.89 37.64 37.69 39.39 41.87 43.58 43.68 43.28 44.61 46.45 46.66 48.19 48.22 48.27 49.04 49.69 52.44 55.61 53.96 55.18 58.87 60.90 61.92 63.01 63.89 64.92 65.49 66.47
34.49 27.35 23.64 24.86 28.75 32.50 30.46 33.21 33.66 34.02 32.37 27.09 23.67 24.96 36.72 37.48 38.33 39.92 39.11 39.66 41.87 42.95 41.77 45.40 47.64 48.22 48.83 51.03 51.25 48.97 49.36 50.03 52.80 57.43 53.43 56.12 59.67 62.30 62.62 63.60 64.34 65.33 65.73 66.00
39.24 28.64 26.98 21.74 26.20 28.23 27.76 31.55 33.26 32.74 28.26 27.10 27.68 28.92 33.82 36.08 36.82 37.58 38.53 40.33 40.72 41.84 43.33 47.28 46.47 47.21 48.04 49.28 52.53 49.54 49.64 51.61 54.14 59.52 56.66 58.41 61.32 62.89 63.57 64.18 64.78 65.52 66.22 66.00
34.51 30.27 30.83 31.92 33.16 33.45 32.25 31.92 32.61 31.25 32.81 29.10 30.38 29.87 33.94 36.45 36.74 37.99 39.17 40.07 40.63 41.10 42.02 46.83 46.57 47.08 47.41 48.35 50.88 55.61 57.70 56.21 58.20 61.29 60.07 60.71 63.05 64.16 64.60 65.06 65.28 65.93 66.27 66.45
35.74 28.00 30.57 28.35 32.39 32.48 30.66 32.80 33.21 33.39 33.50 33.67 33.80 33.43 39.23 39.89 39.53 39.22 39.40 39.64 39.84 41.39 43.31 45.90 46.50 47.97 47.85 48.68 50.75 53.67 57.70 58.99 63.52 62.91 62.94 64.68 64.75 64.92 64.87 64.80 65.44 65.80 65.95 65.53
32.62 28.86 28.53 25.27 31.25 30.46 26.51 31.36 33.31 34.57 37.47 35.74 31.06 34.46 38.33 38.17 39.32 39.02 39.03 39.95 40.16 41.39 44.22 44.73 46.41 47.94 49.00 50.00 51.48 52.71 57.44 59.74 63.68 64.20 65.37 65.46 64.83 64.39 64.83 65.47 66.00 65.07 64.14 64.44
29.85 30.16 31.74 27.40 26.51 20.45 30.16 38.17 38.04 35.63 36.90 38.15 36.61 36.84 38.54 38.87 39.98 41.14 41.06 40.20 40.78 42.61 43.50 44.55 45.79 47.76 49.27 50.75 52.38 54.97 58.23 59.36 62.76 64.52 64.27 64.58 64.87 64.51 64.67 64.72 63.78 62.92 62.93 61.83
33.91 33.21 30.17 27.61 25.40 27.54 31.39 36.03 35.49 33.50 33.25 38.27 36.77 38.32 37.75 38.64 38.98 38.71 41.94 42.67 42.32 43.07 43.93 44.88 47.08 49.02 50.02 51.06 51.95 56.59 58.20 57.64 59.18 63.19 63.46 64.12 64.34 63.59 62.86 61.93 61.74 61.28 60.42 59.65
35.26 35.66 32.96 29.08 23.86 20.34 28.50 38.19 40.39 39.10 29.84 39.17 38.26 38.58 38.49 38.65 31.10 35.56 42.04 43.24 43.83 44.61 45.37 45.96 47.73 50.00 50.66 51.22 53.67 57.09 57.35 56.68 57.50 63.79 63.67 63.90 63.26 62.35 61.40 61.29 60.81 60.49 59.92 58.17
32.13 31.72 29.26 26.95 25.59 27.72 34.46 39.59 39.39 29.88 29.94 38.71 40.66 39.53 38.92 36.73 38.71 41.34 43.85 43.56 44.84 45.00 45.75 47.76 48.96 49.24 50.92 53.61 55.95 57.13 57.33 56.35 59.06 64.23 62.63 62.30 62.41 61.49 61.56 61.44 60.24 59.14 57.95 57.26
23.30 23.58 21.90 25.88 22.59 19.65 39.23 37.88 33.49 37.67 40.12 40.89 40.39 39.47 38.69 40.55 42.45 41.97 42.78 43.48 45.14 45.83 46.62 48.34 48.23 49.62 52.31 54.02 56.67 56.81 57.53 59.95 61.35 62.65 61.58 61.42 61.00 61.86 61.65 60.58 59.08 58.22 57.39 56.54
23.19 29.39 29.08 30.24 25.71 34.54 41.15 40.40 43.10 43.32 41.80 40.53 38.88 39.67 41.03 42.06 41.41 42.24 43.03 44.53 45.40 46.22 46.89 48.44 49.61 51.07 53.19 56.03 56.97 56.79 57.59 61.02 61.41 60.82 60.22 60.31 60.82 61.08 60.74 59.54 58.35 57.76 57.90 57.30
32.91 33.89 29.40 32.81 34.11 37.31 40.31 42.67 43.39 43.49 41.30 39.84 39.93 40.19 42.82 41.17 41.89 42.69 43.81 44.31 45.11 46.51 47.32 49.05 49.97 51.12 52.93 56.48 57.82 57.71 59.86 61.32 60.80 60.02 59.81 59.99 59.76 59.44 59.97 59.80 59.45 58.78 58.02 57.30
33.48 32.92 31.78 32.78 37.14 39.22 41.69 42.72 42.91 41.64 39.58 39.55 42.26 42.43 42.01 42.03 42.30 42.98 43.32 44.17 45.34 46.74 48.29 50.19 51.21 52.65 54.58 57.66 58.01 59.29 60.32 60.88 59.06 59.36 59.55 59.28 59.49 58.60 54.14 51.00 56.38 58.96 58.85 57.09
34.46 34.73 34.59 33.32 39.00 39.95 40.24 42.60 42.74 39.27 38.97 41.61 41.13 41.38 42.63 42.94 42.17 43.23 43.17 44.80 46.26 47.29 48.90 50.56 53.77 56.88 58.45 59.45 59.03 59.42 60.18 60.11 58.96 58.14 58.34 57.88 57.07 55.98 55.06 54.56 52.03 41.35 44.29 45.01

GFSCGP_sfc_wetblb_057.txt.gz
Wetbulb
42.11 40.31 38.00 39.37 40.75 39.87 38.75 37.17 36.24 39.18 41.86 40.87 40.64 40.79 42.64 44.95 45.07 45.38 46.17 46.48 48.02 49.82 52.52 53.84 55.13 56.59 56.96 59.08 59.75 61.50 66.54 72.98 72.20 69.97 67.44 66.15 65.10 67.05 67.81 68.56 70.20 66.83 68.19 68.87
39.73 37.23 40.92 41.02 40.28 38.98 38.40 36.64 36.38 39.77 41.82 40.64 40.05 39.36 42.43 44.17 44.86 46.02 46.72 47.16 47.81 48.58 49.80 51.87 54.03 56.03 57.70 57.39 59.33 59.79 61.08 65.53 70.61 71.61 71.57 70.87 69.99 68.79 69.44 69.94 71.73 71.33 69.87 69.28
37.12 38.92 41.41 40.09 39.07 38.16 38.33 36.86 36.61 36.01 39.44 40.88 39.41 37.39 39.17 42.67 44.61 45.86 47.05 48.02 48.38 48.26 48.00 50.21 52.66 54.97 56.40 57.27 58.13 58.90 60.02 60.91 64.65 69.67 70.98 71.33 70.99 71.11 69.62 70.49 71.15 70.97 70.38 70.22
39.05 40.94 39.83 39.10 37.84 39.58 35.18 40.92 38.72 37.16 35.84 31.85 38.77 30.51 37.51 40.43 42.01 43.71 45.21 47.12 47.82 49.02 49.65 51.12 51.94 53.14 54.28 55.49 56.73 58.13 59.61 60.44 60.66 64.96 67.38 70.78 69.23 68.85 70.96 71.24 72.04 72.31 71.26 70.78
38.06 39.04 38.61 37.62 38.19 41.08 37.02 41.15 38.82 38.00 36.05 34.57 35.08 32.47 36.66 39.96 39.59 41.56 44.91 46.80 48.70 50.22 51.04 51.21 51.86 51.87 53.35 54.89 55.21 57.06 58.87 60.15 61.66 61.97 65.39 66.31 69.57 70.51 71.77 71.25 73.26 74.05 72.33 72.28
39.90 42.24 41.34 40.53 41.69 41.44 41.13 38.86 37.49 36.22 35.36 29.48 33.26 32.92 34.54 37.63 39.66 41.84 44.89 47.21 48.92 49.89 50.84 51.70 52.53 53.28 53.51 54.44 54.67 56.04 57.16 59.82 61.08 61.22 62.89 64.84 66.61 68.46 68.59 69.89 69.96 70.18 70.59 71.28
37.60 37.77 41.57 42.92 39.17 40.47 39.32 36.22 30.00 28.36 28.75 28.30 34.94 32.25 35.17 40.49 42.36 43.10 43.89 46.42 49.12 50.32 50.89 51.15 51.18 51.88 52.90 54.05 55.33 55.59 55.89 57.37 59.86 59.79 60.93 63.36 65.20 66.52 68.13 69.22 68.75 69.70 68.60 69.34
32.83 30.86 38.53 42.01 39.73 37.34 37.02 36.10 30.30 21.08 25.18 28.98 34.34 29.48 36.49 41.76 44.00 45.58 46.76 48.14 49.46 49.96 50.15 50.52 51.59 51.86 52.48 53.95 55.18 55.78 55.76 56.05 57.63 59.03 59.90 62.46 65.08 65.53 67.29 68.89 67.99 67.36 67.46 70.28
33.03 32.26 40.08 40.99 42.06 41.08 35.83 33.75 36.74 30.94 31.50 28.07 32.17 35.71 40.16 42.84 43.12 44.24 45.52 46.88 47.73 48.05 49.47 50.63 51.53 51.82 52.66 54.23 55.49 55.75 55.48 55.99 57.58 58.68 59.63 61.55 63.34 66.33 67.95 71.03 71.09 69.37 69.76 70.26
37.39 31.12 38.07 39.82 41.58 40.80 39.20 40.47 31.52 33.46 23.58 22.21 30.02 31.70 33.19 38.75 40.32 42.71 43.60 45.10 46.27 47.99 49.43 50.90 51.38 51.24 52.71 55.27 55.81 56.24 56.37 55.81 56.77 58.18 59.11 60.32 62.07 65.31 67.42 69.99 69.83 70.27 70.84 70.40
39.23 35.59 34.71 37.68 36.65 36.07 35.61 34.50 35.02 34.23 32.44 26.11 25.15 31.33 40.35 40.04 42.02 42.14 43.96 45.33 46.02 47.48 49.01 50.06 50.97 51.96 54.24 55.36 56.54 57.25 58.29 57.26 55.96 57.25 58.31 59.99 61.43 64.15 66.12 67.08 68.20 68.78 69.76 69.93
39.62 36.71 31.19 33.50 39.74 40.22 38.63 36.68 36.52 30.45 28.49 31.66 30.21 30.11 42.83 43.14 42.95 44.04 44.53 45.67 46.69 48.16 49.11 49.70 50.37 51.87 54.01 54.21 54.57 55.58 56.73 58.13 57.09 56.89 57.58 59.07 61.55 63.64 64.87 65.86 67.20 68.49 68.93 69.99
40.12 34.44 28.27 30.13 35.22 37.93 35.76 37.04 37.71 37.31 34.28 30.23 26.85 30.64 42.49 43.67 43.68 44.62 44.45 45.61 46.48 47.59 48.32 49.01 49.83 50.39 52.78 53.27 53.50 54.47 55.73 56.97 59.34 58.60 58.79 59.37 61.41 63.15 64.56 65.49 67.25 68.34 68.93 69.62
41.27 36.41 32.15 27.31 31.03 35.49 32.46 35.40 37.27 35.89 29.89 31.35 31.84 34.10 38.89 41.11 42.00 43.96 44.97 46.01 46.60 46.93 47.51 48.20 48.58 49.69 52.57 53.20 53.25 53.69 54.35 56.44 58.12 61.31 61.69 60.28 62.26 64.00 64.84 65.87 67.07 68.14 69.10 69.44
39.96 32.75 34.93 35.06 35.59 35.86 35.34 35.08 35.83 34.32 34.87 30.11 33.93 35.01 38.99 41.80 42.91 44.23 45.04 45.61 45.61 45.60 46.42 47.30 47.79 49.75 50.84 51.44 52.96 54.04 54.36 55.95 57.86 59.79 61.67 62.68 64.13 65.27 65.32 65.96 67.16 68.29 69.12 69.54
39.67 32.54 33.78 30.84 35.22 35.73 33.39 36.04 36.64 36.40 36.37 36.08 36.23 35.97 42.82 44.56 45.00 43.79 44.36 43.59 43.58 44.60 45.37 46.35 47.63 49.43 49.41 50.61 52.11 53.65 53.89 55.63 57.39 58.96 60.50 63.89 65.36 64.98 65.50 66.62 67.04 67.41 68.70 69.52
36.51 34.56 30.96 26.69 33.64 33.90 30.62 35.81 36.80 37.60 39.31 38.37 34.43 39.77 43.74 42.40 42.61 42.51 42.49 43.22 42.98 44.18 45.40 46.20 47.85 47.85 49.07 50.40 52.10 53.52 54.62 55.59 56.23 58.92 60.24 63.33 65.94 64.95 65.27 65.64 65.82 66.20 67.33 69.34
34.43 32.39 32.26 28.89 31.65 24.45 36.12 40.90 40.20 38.40 39.83 41.46 40.99 41.65 42.74 42.48 43.15 43.58 43.49 43.09 43.90 44.96 45.73 46.63 47.57 49.14 50.04 50.93 51.76 53.93 54.87 55.53 55.89 58.29 59.50 64.65 65.11 64.38 64.76 65.09 65.32 65.97 68.39 69.20
37.57 34.60 30.88 28.54 28.90 32.84 34.94 38.42 38.17 36.56 35.65 41.05 39.88 40.87 41.87 41.75 42.30 41.23 44.12 44.50 42.93 44.94 46.47 47.38 48.50 50.10 50.25 50.82 52.47 53.27 52.96 54.76 54.33 59.21 59.14 64.45 64.07 63.40 64.22 64.95 65.60 66.71 67.69 66.89
36.09 36.00 33.01 32.15 25.83 23.04 34.26 40.22 42.23 40.88 32.19 41.53 41.24 39.92 39.53 41.07 32.87 36.65 43.78 44.27 44.78 46.24 47.42 47.71 49.09 50.14 50.95 51.37 52.89 52.13 51.86 52.55 56.85 58.94 60.00 64.68 64.63 64.80 65.40 65.22 65.55 66.07 66.64 64.69
31.50 31.58 28.17 28.53 27.87 32.61 39.04 41.43 42.23 31.26 33.81 41.45 41.49 40.81 41.56 39.08 40.28 43.56 44.25 45.65 46.05 46.84 47.06 48.75 49.78 49.93 51.42 52.47 52.63 51.79 53.39 55.93 58.55 59.94 62.16 64.30 64.34 65.23 64.86 65.06 65.02 63.88 62.99 60.50
32.37 30.60 30.53 31.64 28.82 26.16 41.83 40.49 33.63 39.17 41.60 42.00 43.57 43.32 42.08 42.26 42.81 42.14 43.58 44.37 44.82 46.07 47.44 48.63 48.86 50.14 51.70 52.66 52.37 52.51 54.54 58.28 60.68 60.68 62.60 63.75 63.89 63.68 63.78 63.35 62.44 61.87 59.66 59.92
31.71 35.94 33.29 34.33 35.15 41.61 42.51 41.63 43.94 44.34 43.48 44.05 43.10 43.18 42.51 41.97 42.45 43.36 43.51 43.43 45.39 46.29 46.89 49.09 48.89 49.45 51.52 52.13 53.75 54.21 55.86 59.64 61.56 61.88 62.41 62.79 63.20 62.58 63.19 61.23 60.44 59.06 59.77 58.78
36.99 38.72 35.16 34.65 38.85 39.88 42.88 44.07 45.49 45.57 44.34 44.26 43.88 43.04 42.48 40.27 41.62 41.87 42.74 43.90 44.61 45.06 45.65 47.35 48.25 48.80 49.91 52.62 54.16 55.05 58.07 59.54 61.74 61.75 61.85 61.89 61.19 61.43 61.20 61.10 61.65 61.77 59.89 59.10
37.37 37.92 36.52 35.98 38.73 41.41 42.50 43.84 44.86 44.12 44.69 43.46 43.81 42.51 41.82 41.72 41.55 42.35 42.51 43.08 43.94 44.87 46.37 47.55 48.20 49.69 51.47 53.56 54.39 57.23 58.84 60.91 60.68 60.91 60.75 60.68 61.33 60.91 59.74 58.92 62.36 62.63 63.02 59.94
38.77 35.41 33.68 33.93 39.30 40.39 42.00 45.02 45.43 43.33 42.43 42.99 41.58 41.46 42.18 42.31 41.68 42.36 42.28 43.48 44.20 44.39 45.52 47.23 49.59 51.22 51.73 54.10 55.59 58.20 60.83 62.29 61.90 59.58 61.07 59.25 58.23 58.35 58.76 57.77 54.79 41.63 44.75 44.96

GFSCGP_sfc_wetblb_060.txt.gz
Wetbulb
46.57 43.30 41.57 43.67 44.61 43.70 42.17 40.96 40.50 42.73 45.04 44.17 44.26 44.74 46.33 48.33 48.76 48.66 49.35 49.55 50.34 51.18 53.86 55.81 56.88 58.98 60.13 62.60 63.59 64.97 64.53 69.20 72.59 68.21 67.96 67.80 68.46 68.83 68.93 70.21 71.87 71.65 72.26 72.14
43.47 40.69 44.25 44.30 43.65 42.55 41.95 40.79 40.98 43.08 44.59 43.68 43.62 43.13 45.64 47.27 47.45 48.50 49.06 50.22 50.54 51.13 52.10 53.65 55.29 57.59 60.00 61.16 62.80 63.49 64.63 65.28 67.80 72.61 73.13 71.81 69.99 68.82 69.23 70.34 71.54 72.52 71.20 71.60
41.34 42.57 44.58 42.80 42.13 40.76 41.83 40.47 40.52 39.92 42.53 44.01 42.68 41.83 43.78 45.54 47.14 47.91 49.17 50.26 50.58 50.24 50.95 51.98 53.66 56.41 58.55 59.16 60.05 61.12 63.19 65.05 65.98 67.30 70.96 73.74 73.92 73.51 71.33 70.28 69.90 71.39 72.40 70.69
42.88 44.63 42.44 42.17 40.92 42.12 39.21 42.85 40.86 39.85 39.28 36.89 42.00 35.92 42.17 44.33 44.78 46.35 47.09 47.68 49.39 50.70 52.48 52.70 53.76 54.80 55.93 57.25 59.22 60.81 62.24 63.46 64.87 66.04 66.84 70.99 71.20 70.80 70.72 73.14 71.43 72.21 74.29 72.55
40.89 41.97 41.71 40.76 41.48 42.54 40.13 42.56 41.57 41.09 39.67 39.49 39.65 36.81 40.99 43.41 42.28 45.15 46.48 48.38 50.55 52.56 52.66 52.83 53.64 54.43 56.46 57.83 58.63 60.54 61.59 62.75 63.93 65.84 66.70 65.85 69.03 69.15 71.62 73.35 75.14 75.39 75.78 74.24
42.76 46.35 44.03 43.50 44.04 44.03 43.95 42.13 42.32 42.47 40.24 34.05 38.93 37.58 39.78 41.64 42.96 44.74 46.58 47.62 49.69 52.16 53.36 53.96 54.10 55.38 55.87 57.73 59.03 60.12 60.60 61.05 62.52 63.79 65.14 66.33 66.40 68.16 68.33 71.39 72.44 72.95 73.69 74.58
42.80 41.61 44.59 44.85 41.97 44.30 43.02 40.44 34.76 33.42 33.62 34.18 39.28 36.40 41.30 43.84 44.72 45.57 46.24 47.74 49.69 52.29 52.66 52.72 53.90 54.91 55.83 56.04 57.79 58.70 59.63 60.22 61.76 62.10 63.24 64.74 65.90 67.59 68.60 70.77 69.59 72.51 71.85 72.34
36.39 34.26 41.44 44.61 42.21 40.73 41.33 40.33 34.54 26.32 30.65 34.71 39.25 34.31 40.31 45.28 46.46 47.49 48.16 49.41 50.91 51.91 52.65 53.07 54.12 55.24 55.45 56.40 57.65 58.88 59.22 59.47 60.38 61.25 62.27 63.61 64.93 64.99 67.12 68.54 68.20 68.64 70.22 71.55
36.79 36.85 43.26 43.57 43.86 43.06 39.43 37.10 42.03 35.41 36.72 33.32 36.90 39.84 43.84 46.08 45.71 46.27 46.85 47.90 49.62 50.98 52.18 52.98 54.06 55.13 55.62 56.51 57.73 58.99 59.67 60.73 61.44 61.40 62.79 63.47 63.49 64.65 66.42 71.27 72.47 69.26 72.04 71.15
41.21 35.27 41.48 42.83 43.48 43.83 42.03 43.54 35.62 36.85 27.21 27.95 34.95 36.80 38.68 42.43 43.72 45.38 45.98 47.16 49.42 51.21 51.66 52.82 53.83 54.87 55.96 56.96 58.28 59.25 60.28 60.59 62.24 62.80 62.32 61.72 62.98 64.80 66.48 68.30 70.37 71.97 72.98 72.63
43.25 39.47 38.38 41.51 39.92 38.15 39.04 38.70 38.83 38.66 37.02 30.93 30.71 36.28 44.54 43.60 44.92 45.08 46.13 48.00 49.47 50.13 51.03 51.91 53.50 54.74 55.35 56.09 57.81 58.78 58.96 59.07 60.22 62.48 62.82 61.94 62.15 63.14 64.84 66.41 68.80 70.84 73.43 72.66
42.51 39.81 34.61 36.86 42.65 43.51 42.43 40.08 40.04 33.55 32.33 35.68 34.33 34.77 46.36 46.22 46.72 46.83 47.82 48.98 50.00 51.32 51.74 52.34 53.31 54.14 54.56 54.93 55.81 57.18 58.20 58.36 59.33 61.24 63.04 62.35 62.33 63.19 64.15 65.87 68.49 70.08 70.84 72.44
43.29 37.67 32.27 33.51 39.05 41.38 39.08 40.49 40.84 39.99 38.46 34.64 32.02 36.20 46.73 46.71 47.05 48.45 48.20 49.14 49.96 50.77 51.48 52.31 53.12 53.23 53.80 54.53 55.11 56.52 57.45 57.72 58.56 59.40 61.88 63.50 63.83 64.32 64.41 65.82 68.05 69.87 69.97 71.66
42.74 39.60 35.71 31.16 34.93 38.71 35.35 38.24 39.76 38.07 33.36 35.40 36.63 38.80 43.17 45.34 46.12 47.74 48.67 49.71 49.95 50.09 50.76 51.40 51.55 52.12 53.28 54.28 54.88 56.23 56.70 57.81 58.40 58.65 60.73 62.17 64.26 65.77 65.47 66.24 67.76 69.46 69.59 70.74
42.41 35.56 38.05 38.63 39.29 38.99 37.77 37.61 38.02 35.76 37.07 33.96 38.17 39.04 42.71 45.33 46.54 47.82 49.34 49.73 49.32 49.32 49.42 49.84 50.16 51.17 52.10 53.01 54.64 55.40 56.08 57.08 58.24 57.96 59.75 61.69 63.89 65.64 66.77 66.44 67.73 69.30 69.50 70.17
43.20 35.26 37.55 34.54 38.30 38.25 36.61 39.23 39.97 40.11 40.47 40.38 40.53 40.01 46.45 47.93 48.46 46.60 46.01 47.07 47.90 47.82 48.65 48.91 49.42 50.24 51.28 52.45 53.72 54.14 54.61 56.20 57.88 58.03 58.98 61.35 62.88 64.52 65.96 67.00 68.24 68.95 69.13 70.03
38.11 37.15 33.15 31.03 36.68 36.88 34.11 39.55 40.45 41.49 42.74 41.97 38.15 43.07 46.67 46.13 45.81 44.58 46.33 47.30 47.12 47.59 47.60 47.49 47.80 49.81 51.90 52.56 53.59 53.40 54.47 56.54 56.86 57.88 58.92 61.10 62.53 63.80 65.19 67.19 68.03 68.33 69.61 71.56
37.59 36.33 34.36 30.83 33.75 26.63 38.98 44.02 43.19 41.14 42.41 44.03 44.08 44.84 45.81 46.22 47.10 46.47 48.51 47.42 46.86 46.27 46.53 48.85 48.58 49.24 51.53 52.41 53.21 54.25 54.81 55.61 56.11 56.76 58.75 60.33 61.80 63.29 65.32 67.38 67.87 69.36 70.36 72.24
39.44 36.53 32.26 31.13 31.89 36.20 38.91 41.64 41.11 39.59 39.18 44.14 43.83 44.57 45.36 46.03 46.13 43.42 48.02 48.53 46.80 46.01 47.45 48.21 48.85 49.86 49.01 51.05 52.66 53.52 53.91 54.04 55.81 56.47 58.20 59.51 61.56 63.35 64.86 66.79 67.86 67.70 68.45 69.38
38.56 38.39 35.50 33.70 28.38 25.94 37.61 42.33 44.54 43.89 33.78 44.36 44.36 43.49 43.17 42.12 36.40 41.84 47.74 47.36 46.57 47.84 46.02 47.55 48.87 49.62 51.12 51.40 52.76 53.42 52.84 53.39 55.26 56.72 57.96 60.50 63.07 62.10 64.70 65.73 65.76 67.58 68.35 68.86
32.18 32.70 30.23 30.81 30.08 34.98 42.54 43.81 44.85 32.44 36.33 44.68 44.76 43.18 42.86 40.80 44.62 46.20 46.85 46.39 46.62 47.49 47.40 48.85 48.62 49.58 50.73 52.97 53.21 52.69 52.63 53.64 55.98 57.62 58.65 61.54 62.23 62.77 64.77 65.19 66.62 67.53 67.39 67.88
34.57 33.10 32.23 33.02 30.31 28.95 44.24 43.15 35.93 42.25 45.19 44.84 45.21 45.42 44.39 44.96 45.32 44.89 45.09 44.28 44.69 45.50 46.39 47.99 47.66 48.08 49.79 51.86 51.64 52.56 52.93 54.42 55.11 56.49 58.45 60.86 60.26 63.95 64.95 65.45 65.47 66.02 66.77 65.83
34.61 38.84 35.82 36.88 37.42 44.26 45.14 44.52 46.71 46.92 45.32 45.63 45.21 45.49 45.33 43.97 43.35 42.58 42.69 43.59 44.37 45.61 46.37 48.04 47.90 48.20 50.35 51.81 52.27 52.21 55.19 55.76 57.03 58.25 59.14 59.76 63.20 64.03 64.99 63.64 63.98 65.54 66.35 64.66
39.58 41.50 36.60 36.94 41.00 41.28 44.41 46.53 47.31 47.73 45.96 46.20 46.24 44.89 44.49 42.53 42.24 41.81 42.29 42.92 43.60 44.87 45.78 47.27 46.95 46.80 47.65 50.91 52.48 55.19 56.46 58.38 58.19 58.23 59.90 62.42 62.12 62.27 62.90 63.87 65.78 65.82 64.77 63.35
38.96 39.20 37.20 38.46 41.36 42.25 43.73 44.95 46.57 45.66 45.87 45.57 45.73 44.20 42.21 42.00 41.68 41.98 42.22 42.31 42.97 44.22 45.32 46.84 46.39 46.79 48.16 50.57 52.93 56.79 58.46 59.54 57.75 58.34 61.17 61.83 61.53 61.89 62.44 63.63 64.77 64.41 64.67 62.67
38.20 36.28 33.33 32.90 36.93 37.51 40.62 45.86 45.41 44.40 44.00 43.77 41.90 41.44 42.08 42.16 41.54 42.04 41.47 42.34 42.88 43.54 44.17 44.32 45.25 46.39 47.82 50.51 55.12 56.87 57.78 59.22 59.53 60.64 60.47 60.90 60.51 60.44 62.03 61.27 55.52 43.46 46.03 43.85

GFSCGP_sfc_wetblb_063.txt.gz
Wetbulb
49.30 45.14 43.17 45.26 47.28 46.47 45.64 44.22 44.04 45.74 47.74 45.27 45.90 46.52 48.30 50.43 50.86 50.46 51.26 52.07 52.61 53.52 55.25 56.96 57.61 58.30 60.01 62.98 63.96 65.26 65.62 70.17 71.81 72.08 70.42 70.87 70.57 71.21 71.78 71.64 71.44 73.38 73.40 72.30
45.98 42.80 46.15 47.11 46.26 45.00 44.41 42.63 42.79 45.44 47.01 46.03 45.74 45.40 48.31 49.72 50.14 51.04 51.36 51.85 52.23 52.94 53.86 54.95 56.31 58.09 58.92 59.79 65.02 64.41 64.18 66.21 68.57 72.44 70.39 70.48 69.71 70.39 71.28 71.87 72.44 72.01 72.60 73.66
43.34 45.41 46.94 44.42 44.11 42.77 43.18 42.23 42.86 42.89 45.54 46.27 44.72 43.05 45.49 48.40 50.08 50.60 51.34 52.30 52.78 53.27 53.41 54.11 54.91 57.58 58.81 59.71 59.79 61.36 63.40 64.50 67.08 69.90 71.45 73.03 72.32 72.40 70.90 69.41 69.45 71.30 71.86 72.87
45.04 46.93 43.70 43.56 42.77 44.17 40.94 45.69 44.29 42.61 41.28 38.20 44.97 37.06 44.66 46.56 46.76 48.33 49.65 51.03 51.92 52.79 53.55 54.57 55.31 56.70 57.79 58.07 59.18 60.16 62.46 63.99 65.56 66.96 67.95 71.02 72.37 71.63 72.15 71.69 72.04 72.35 71.34 72.49
43.44 44.48 43.03 41.71 43.44 45.06 42.17 44.78 43.52 43.18 41.71 41.28 41.51 39.19 42.78 46.78 45.03 46.66 49.03 50.56 51.89 53.34 53.78 54.04 54.88 55.95 56.83 57.37 59.60 60.71 62.18 63.67 64.49 65.56 68.96 66.42 68.06 68.61 72.54 74.12 75.75 76.27 73.91 73.01
45.94 48.73 46.48 44.85 45.34 45.89 46.07 43.75 43.62 43.59 42.05 36.09 40.78 40.15 40.89 43.69 45.11 47.11 48.64 49.45 50.51 52.50 54.16 54.36 55.14 55.93 56.55 57.82 58.21 59.84 61.07 62.25 63.55 63.91 64.95 66.75 67.26 68.55 67.42 69.67 72.02 74.11 72.65 73.67
44.57 44.89 47.25 47.11 42.55 44.62 44.49 41.71 35.57 34.76 35.44 35.12 42.54 40.24 42.43 46.19 46.94 47.59 47.68 48.92 50.44 53.31 54.19 54.47 54.17 54.64 56.28 56.95 57.67 58.53 59.87 61.46 62.32 62.91 63.43 64.62 67.39 67.29 69.36 69.45 67.37 71.16 73.21 74.62
39.20 37.42 44.69 47.99 44.37 41.81 41.81 41.09 35.07 28.80 31.59 34.31 41.93 36.82 41.91 47.69 49.21 48.50 49.20 50.18 51.10 52.58 53.93 54.52 54.79 55.21 55.69 56.41 57.67 58.13 59.18 60.17 61.68 62.46 63.13 64.08 65.98 63.71 64.97 67.71 67.79 66.80 67.94 71.59
39.02 38.69 45.49 46.83 46.99 45.68 41.46 38.20 43.38 36.86 39.32 36.01 39.16 42.26 46.47 47.71 47.11 48.20 48.79 49.55 49.80 52.00 53.64 53.90 54.88 55.51 55.91 56.68 57.44 58.36 59.02 60.04 61.32 62.14 63.70 64.37 64.63 66.21 65.54 68.93 70.32 68.66 71.63 69.76
42.95 36.43 44.07 45.18 46.18 46.20 43.97 44.97 36.99 38.45 29.16 28.45 35.54 37.58 38.08 44.21 45.84 47.62 47.88 48.78 50.12 51.87 52.87 53.71 54.30 55.02 56.33 57.18 57.56 58.80 59.95 60.04 61.00 61.55 62.07 62.71 64.16 64.20 65.96 67.93 68.64 69.67 71.29 73.76
44.17 41.04 40.45 43.59 41.59 40.56 40.87 40.27 40.26 40.51 38.13 30.93 30.73 35.82 45.10 45.26 46.88 47.03 48.00 49.29 50.71 51.79 52.51 53.45 53.69 54.88 55.94 56.95 57.16 57.90 57.96 59.14 59.78 60.36 61.12 63.16 63.82 64.17 65.08 66.14 67.40 68.75 70.99 71.94
44.57 41.44 36.49 38.75 44.90 46.55 44.74 41.74 41.81 34.40 33.68 37.00 35.46 35.66 46.73 48.09 48.45 48.46 48.78 50.55 51.81 52.51 52.72 53.44 54.08 55.04 55.37 55.74 56.15 56.58 57.46 57.36 58.84 59.84 60.09 60.64 63.27 64.51 65.97 65.87 66.49 68.34 69.79 71.65
43.82 38.08 32.94 35.70 41.38 43.48 40.51 41.01 42.46 40.88 39.76 35.67 32.56 36.21 47.65 48.08 48.61 49.34 49.48 50.71 51.57 52.23 52.76 53.08 53.61 53.96 54.56 54.78 55.20 55.99 56.93 56.95 58.13 59.17 59.26 61.39 62.80 64.37 66.83 66.84 67.57 68.40 68.69 70.18
44.49 39.91 36.15 31.49 34.50 37.38 36.43 39.27 41.94 40.85 35.80 36.15 37.28 39.13 44.02 46.13 46.95 48.90 49.94 51.22 51.63 51.95 53.10 53.32 53.35 53.78 53.99 54.28 54.43 54.95 55.85 57.24 58.12 58.40 58.56 60.23 62.38 64.36 65.24 67.49 67.87 67.22 67.02 68.79
43.01 36.26 38.48 39.77 40.71 40.64 39.29 39.14 39.84 39.05 39.92 35.68 39.39 40.14 42.98 45.75 47.15 48.67 50.68 51.14 51.00 50.98 51.26 52.43 52.61 52.83 53.30 53.67 53.87 54.33 54.76 55.95 57.79 57.39 57.99 59.93 62.00 62.98 63.74 64.88 67.32 67.39 68.18 68.81
43.85 36.96 38.60 37.07 40.49 39.80 37.68 39.63 40.39 40.55 41.05 41.07 41.49 41.22 47.07 48.84 49.07 49.11 48.67 50.28 49.75 49.94 51.19 51.80 51.70 52.13 51.61 52.39 52.51 53.51 55.58 55.40 57.18 56.61 56.67 58.84 59.43 60.56 63.22 64.91 66.92 68.64 67.96 69.65
39.71 39.31 35.72 32.93 38.56 38.66 34.97 39.70 40.96 41.84 42.22 40.96 38.64 44.20 47.07 46.51 47.62 48.66 49.21 49.32 49.19 49.97 50.08 50.43 51.37 51.11 49.99 51.80 52.81 50.50 52.00 55.22 56.05 55.94 56.59 57.90 58.65 59.34 61.32 63.01 65.14 66.40 69.11 71.23
39.94 37.62 37.41 33.70 36.39 27.66 39.58 43.80 44.32 42.74 43.41 44.96 44.70 45.69 46.58 47.55 49.01 49.57 49.29 47.76 48.99 49.96 49.17 49.79 50.73 51.06 52.04 51.65 52.97 53.43 53.59 52.75 54.26 55.26 55.83 57.26 57.88 58.73 61.12 62.05 65.23 67.02 69.55 71.23
41.92 37.70 34.67 31.74 32.68 37.27 40.17 43.33 43.11 41.12 40.53 45.25 44.82 46.61 47.05 46.38 47.61 47.59 48.65 50.42 49.65 50.52 50.65 50.08 50.97 51.68 52.18 51.04 50.54 51.96 51.81 51.69 51.94 53.88 55.32 56.48 57.61 58.34 60.34 61.68 65.42 67.67 68.88 70.36
42.22 39.67 35.62 35.33 30.02 27.09 39.13 44.27 46.65 45.83 36.45 46.76 46.17 44.47 43.50 44.21 37.74 43.90 48.27 49.83 49.53 49.97 50.20 48.54 49.73 50.88 51.84 51.22 52.04 50.51 50.98 51.84 51.68 53.60 55.51 56.91 56.70 57.65 60.02 62.98 65.51 68.09 69.25 70.05
36.21 35.57 33.07 33.18 31.86 36.40 43.61 45.61 46.77 33.90 37.45 45.73 46.20 45.13 44.42 43.35 45.17 47.75 48.65 48.66 49.35 49.60 49.86 49.54 49.36 48.69 49.37 50.37 49.50 50.46 51.95 51.55 53.78 54.88 56.45 56.62 57.97 58.91 61.96 63.67 66.26 68.27 69.06 68.68
36.21 34.54 34.10 35.64 32.87 29.99 46.51 44.71 37.92 43.89 46.53 45.62 45.41 46.53 45.28 45.84 46.15 46.50 47.28 47.78 48.43 48.10 47.38 47.66 47.09 47.34 48.89 49.65 49.85 48.84 49.29 52.55 54.62 55.25 55.87 55.96 59.03 59.36 62.35 63.50 66.53 67.99 68.60 66.79
36.56 39.90 36.65 37.86 38.89 46.05 46.85 45.79 48.18 48.23 45.33 45.76 45.70 45.01 44.58 45.09 45.07 46.14 45.90 46.64 45.48 45.29 45.29 46.46 46.67 47.73 49.39 50.01 50.79 49.35 51.41 53.89 55.00 54.62 55.58 56.32 57.01 59.13 63.00 63.17 64.46 66.73 64.79 64.08
41.40 44.91 39.22 39.49 42.82 42.43 45.16 46.98 47.80 48.00 46.35 45.72 45.38 45.80 44.45 42.45 42.91 42.31 42.67 43.04 43.23 44.13 44.40 45.49 45.13 45.33 46.64 49.05 49.91 50.44 51.95 53.57 54.16 53.97 54.73 55.39 56.70 61.03 63.61 64.01 65.92 63.76 63.91 65.83
39.03 41.57 38.18 38.47 41.57 40.96 43.26 45.39 46.95 46.47 46.28 45.68 44.86 42.34 41.83 41.69 40.74 40.99 40.78 41.51 42.12 42.89 44.00 44.72 44.56 45.08 46.28 48.50 50.03 51.43 53.34 54.64 53.22 54.51 54.88 56.72 58.83 60.04 62.74 62.44 62.93 66.72 68.04 66.13
39.36 36.79 33.67 33.38 38.13 38.12 39.39 44.66 46.68 45.03 44.71 44.94 40.90 41.62 42.20 41.92 40.95 41.02 40.76 41.75 42.16 42.40 43.60 44.08 45.04 45.50 46.41 47.70 49.69 52.10 55.23 55.11 55.66 57.86 58.73 58.27 60.75 60.34 57.58 60.56 54.27 45.30 45.86 47.47

GFSCGP_sfc_wetblb_066.txt.gz
Wetbulb
48.51 44.40 42.12 44.43 46.32 45.89 44.82 43.49 43.14 45.98 48.62 46.63 45.86 46.07 47.56 49.87 50.82 50.28 51.17 52.26 53.42 54.38 56.42 59.74 61.09 62.25 64.04 66.13 67.41 68.19 68.10 74.10 72.55 71.87 70.17 69.95 69.63 70.58 70.10 70.60 71.57 71.96 73.41 73.15
45.51 42.59 46.92 47.44 46.43 45.37 44.70 42.92 42.57 45.45 47.88 46.74 45.71 44.83 47.58 49.20 50.27 51.37 52.30 52.35 53.03 54.20 55.34 56.75 59.54 61.52 63.42 64.49 65.51 65.13 67.60 67.55 72.78 71.39 70.37 68.90 69.71 70.21 70.56 70.82 70.27 70.97 71.77 72.05
43.28 45.49 47.99 46.17 44.86 43.14 43.15 41.82 41.93 41.88 45.27 46.63 45.12 42.97 45.10 48.09 50.04 51.47 52.17 53.43 53.64 54.38 54.70 56.39 57.19 60.59 61.85 63.68 63.58 64.57 65.63 67.54 67.98 70.66 71.89 68.95 68.43 70.46 69.50 69.76 70.27 69.45 71.15 70.69
44.72 47.35 45.91 44.37 42.81 43.65 40.02 44.86 44.17 43.35 41.64 37.75 45.17 36.19 43.77 47.08 47.76 49.44 50.75 51.92 52.38 53.64 55.38 56.42 56.88 58.13 60.89 60.86 63.65 65.17 66.16 63.86 64.59 67.83 67.98 68.09 69.73 66.02 67.16 67.74 68.69 69.38 70.20 69.55
43.44 44.54 44.35 42.78 42.95 45.06 41.68 45.82 44.05 43.29 41.23 40.47 40.52 37.72 41.14 45.94 44.93 46.73 49.05 50.12 51.58 53.00 53.86 54.03 55.64 57.61 59.23 61.32 62.66 63.69 64.40 65.88 64.83 64.45 66.74 67.12 66.99 68.39 67.69 71.48 70.04 70.12 69.53 69.29
45.47 48.54 47.02 45.58 46.43 45.93 46.38 43.30 43.09 42.79 40.49 33.86 38.83 38.58 39.31 42.56 45.57 47.23 48.74 49.89 51.19 52.36 53.80 54.64 56.64 58.21 58.17 60.10 59.92 63.15 63.78 63.55 64.21 64.92 64.92 65.72 66.34 66.61 66.40 67.46 67.19 68.86 69.64 70.32
44.77 44.89 47.64 48.00 43.98 46.00 44.18 40.35 32.13 30.67 32.89 32.73 41.36 39.17 41.88 46.41 48.04 48.37 48.25 49.00 50.66 52.36 54.57 54.68 54.56 54.97 57.57 58.61 59.83 60.60 61.55 63.45 64.88 64.79 65.26 64.63 65.02 66.48 66.63 66.72 66.43 66.07 66.50 69.69
36.51 36.00 44.19 47.11 45.11 41.17 42.17 40.83 33.84 26.40 28.98 32.49 39.61 36.25 41.48 47.99 49.08 49.53 49.83 50.28 50.79 51.81 54.45 54.84 55.96 56.27 55.56 58.45 60.37 59.13 60.41 62.82 63.93 64.79 65.20 65.42 65.56 63.94 64.13 65.18 65.04 65.28 65.39 67.56
38.80 38.37 43.98 45.94 47.82 45.19 41.27 38.47 43.68 36.66 36.63 33.30 36.23 40.92 46.54 47.60 47.76 48.14 48.46 49.56 50.07 51.32 53.30 53.85 55.15 56.46 57.12 58.98 60.69 60.15 60.52 62.10 63.09 63.75 65.45 66.81 66.21 65.54 63.66 64.77 65.81 64.75 65.64 68.15
42.51 36.65 43.18 45.29 46.82 46.04 43.94 45.20 36.77 38.42 28.72 27.04 33.89 36.12 37.10 43.58 45.47 47.29 47.76 48.57 49.81 51.72 52.27 53.58 54.73 56.32 57.24 58.67 59.89 61.78 61.95 60.91 61.53 62.35 63.37 62.62 64.52 66.35 65.23 65.06 64.80 65.57 66.34 67.25
41.98 40.74 39.92 43.83 40.50 37.70 40.45 39.57 40.59 40.27 37.34 29.23 28.69 34.11 44.28 44.25 46.35 46.71 47.96 49.63 50.26 51.17 51.80 52.77 53.67 55.70 56.68 58.69 58.61 60.75 60.55 60.11 60.98 61.48 62.09 62.69 63.29 64.05 66.44 65.06 64.42 64.87 66.33 67.03
43.27 40.84 34.94 37.77 44.57 45.78 43.54 41.55 40.04 33.66 32.62 36.71 35.54 35.44 46.82 47.28 46.73 48.22 48.62 49.66 50.53 52.05 52.64 52.86 53.46 54.40 54.81 55.61 56.32 57.15 59.77 59.53 59.47 59.48 60.02 61.19 61.65 63.00 64.65 65.59 65.11 65.17 64.41 65.40
44.04 38.83 32.10 33.14 40.10 42.66 38.86 40.08 42.48 41.43 41.20 34.86 30.36 34.30 47.35 47.80 46.89 48.51 47.67 49.26 51.40 52.45 52.61 53.21 53.75 53.51 54.11 54.95 55.82 55.67 57.04 56.37 56.78 57.88 58.00 60.21 62.13 62.92 62.80 64.04 65.76 65.44 64.65 64.78
43.89 39.28 35.43 30.21 34.18 37.41 33.39 36.71 39.53 39.90 35.35 34.93 35.98 37.99 43.18 44.12 44.13 46.76 46.83 48.13 50.99 51.93 53.17 54.82 54.00 54.16 54.93 56.19 56.03 55.48 55.63 56.20 56.22 56.24 56.54 57.28 60.91 61.81 62.71 63.61 64.49 64.91 65.95 64.52
43.38 35.77 38.07 38.37 39.59 39.82 37.97 38.32 39.56 38.43 39.27 35.48 37.87 38.57 42.04 44.92 45.53 46.57 46.24 47.61 50.32 51.15 51.81 52.61 53.05 54.24 54.83 54.78 55.25 55.09 55.02 55.17 56.06 54.93 55.52 56.00 59.02 61.04 61.49 61.03 61.64 63.34 64.55 65.71
44.02 36.61 38.74 36.20 39.79 40.15 38.52 40.33 40.65 40.02 40.29 39.76 39.82 39.51 45.38 47.96 47.68 47.91 48.08 48.26 48.14 49.26 50.55 51.23 52.54 53.03 53.10 54.26 54.30 53.60 53.48 54.15 54.76 54.25 53.32 56.13 57.76 58.76 59.55 60.12 61.34 62.90 63.73 64.69
40.10 38.51 35.80 32.14 38.53 37.98 34.21 38.64 40.70 41.43 42.01 40.67 36.71 41.03 45.62 44.60 45.06 46.67 47.36 48.03 47.39 49.11 49.70 50.85 51.52 52.47 53.21 53.51 54.35 53.42 53.32 53.88 54.00 53.63 54.13 53.67 55.52 57.05 58.05 59.22 59.90 60.70 62.10 64.35
39.45 37.99 36.96 32.45 35.52 26.32 38.00 43.87 41.88 40.03 41.82 41.37 43.07 44.42 45.82 46.16 47.06 48.11 48.85 48.37 48.90 49.65 49.89 51.20 52.01 52.60 54.48 54.15 53.86 53.65 53.58 52.99 51.75 53.06 53.41 53.45 53.28 55.73 56.96 58.03 58.58 59.97 62.42 63.69
43.30 38.88 34.14 30.74 31.70 35.97 39.45 42.27 40.47 38.60 38.66 45.25 43.30 43.95 45.29 46.48 46.65 45.90 48.98 50.23 49.83 50.10 50.70 51.38 52.34 52.01 52.56 52.70 52.76 52.04 50.98 51.84 51.95 51.44 52.30 53.01 53.40 53.28 56.36 56.72 58.23 60.94 62.42 63.22
43.18 42.35 36.20 34.14 28.36 26.17 38.51 43.83 46.47 45.01 34.95 44.90 44.50 43.55 43.74 44.48 39.25 43.55 48.24 48.86 49.12 50.30 50.98 50.62 51.50 51.92 52.21 52.03 52.10 51.39 51.09 51.17 50.57 51.76 52.57 53.89 53.14 52.33 53.68 56.97 58.01 59.83 61.97 62.97
36.32 36.60 32.73 32.46 31.49 35.30 42.81 44.58 46.41 33.37 36.22 45.13 44.92 44.13 43.81 41.45 43.04 46.45 48.69 48.65 49.85 50.11 49.71 50.27 49.89 49.47 50.89 51.60 50.83 49.57 50.02 49.84 51.46 52.32 53.13 53.85 53.08 52.53 53.66 57.91 59.09 59.36 61.19 62.26
36.66 34.63 34.13 35.46 32.31 29.59 45.32 43.50 36.83 42.24 45.91 45.53 44.90 44.23 44.02 44.62 44.73 44.90 45.62 46.03 46.80 46.92 47.85 49.26 48.25 48.63 49.83 48.92 48.90 48.44 48.21 49.62 50.52 52.36 52.84 53.50 54.24 54.43 55.99 57.97 58.30 59.61 60.67 61.67
36.67 39.96 37.29 37.55 38.22 46.13 46.29 44.46 46.85 47.72 45.42 44.50 45.04 45.31 45.18 44.16 42.76 43.02 42.45 43.03 43.97 44.31 44.58 45.94 46.01 45.90 46.80 47.49 47.65 46.85 48.96 50.79 50.79 51.79 52.42 53.33 54.73 55.82 56.27 56.88 58.18 58.68 60.69 61.53
41.99 44.12 40.12 39.56 42.26 42.61 43.34 45.84 46.32 46.21 45.43 46.10 45.59 45.59 44.60 42.24 41.02 40.55 41.62 41.81 42.23 42.92 42.56 43.82 43.76 43.75 44.78 46.98 47.57 47.68 49.05 50.77 51.40 50.84 52.21 53.64 54.35 54.93 56.29 57.29 58.03 59.28 60.88 62.10
41.35 42.06 37.27 37.96 41.64 41.01 42.64 42.75 44.34 44.32 45.87 45.62 45.93 44.34 42.33 41.09 40.94 40.66 40.21 40.77 41.15 41.58 42.50 43.00 42.93 43.27 44.02 45.98 46.82 48.55 50.09 50.22 49.48 50.48 52.08 53.14 53.66 55.45 56.21 56.86 57.38 60.43 62.80 62.69
41.12 37.03 34.24 33.49 38.89 38.10 39.78 42.66 43.86 44.14 44.63 45.22 43.88 42.84 42.15 41.62 40.09 39.98 39.87 40.29 40.30 40.53 40.38 40.06 41.26 42.06 43.15 44.84 46.27 48.62 49.83 50.77 51.25 50.74 51.87 53.53 54.11 54.90 56.48 57.44 54.24 45.41 50.61 47.40

GFSCGP_sfc_wetblb_069.txt.gz
Wetbulb
43.93 37.83 35.26 38.95 41.59 42.13 41.17 39.70 38.92 42.07 45.26 44.19 42.43 41.54 43.91 45.69 45.31 45.04 46.31 47.21 47.86 48.97 51.36 54.52 57.00 58.42 59.32 60.51 61.20 61.44 63.13 69.02 69.66 70.08 68.96 68.07 68.67 69.00 68.42 68.49 69.14 69.30 71.40 72.42
40.37 37.04 43.03 45.64 44.92 43.38 41.66 39.20 38.08 42.05 44.81 44.01 42.42 42.43 43.81 44.95 45.08 45.57 46.52 46.67 47.67 48.52 50.15 52.67 55.71 57.68 57.68 59.15 59.62 59.79 61.54 63.57 68.15 69.53 68.91 68.21 68.07 67.84 68.52 68.47 68.56 68.90 69.71 70.66
38.61 42.12 46.46 45.34 43.40 41.87 40.15 37.86 38.46 38.66 42.30 43.46 41.52 39.38 41.95 45.34 46.06 47.23 47.94 48.05 48.58 48.59 48.99 50.02 53.56 54.94 57.55 57.66 57.68 59.00 59.37 61.31 61.97 65.13 68.02 66.81 66.37 67.70 67.48 68.07 67.88 67.86 68.49 69.22
41.18 44.52 44.08 42.86 41.72 41.60 36.29 42.62 42.48 41.70 38.52 31.44 40.75 29.34 38.20 42.10 43.24 45.86 47.18 47.65 47.20 48.65 50.45 50.80 50.75 52.44 53.90 57.14 57.02 57.32 58.39 58.71 59.62 60.29 63.32 66.77 64.85 63.33 65.18 65.23 66.91 68.33 68.37 68.71
40.02 42.26 41.70 41.14 42.25 43.81 39.42 44.50 41.47 40.86 37.79 34.47 36.38 30.13 34.55 40.90 40.98 43.28 45.98 47.66 46.61 47.77 49.31 49.90 50.01 50.85 52.99 54.10 55.84 57.47 57.62 57.47 57.87 58.76 60.70 62.59 62.95 64.42 66.09 66.61 66.30 66.62 67.72 68.44
42.19 46.29 44.25 43.40 46.58 45.86 44.76 41.47 39.31 38.23 34.17 26.94 34.37 32.83 34.30 37.51 40.79 43.45 45.31 46.37 47.59 47.54 49.13 50.46 51.81 51.96 51.55 51.95 53.60 54.21 56.58 57.06 57.63 57.84 57.93 59.37 61.00 62.54 63.15 64.04 64.08 66.25 66.97 67.73
41.43 41.79 45.09 47.30 41.99 44.54 42.49 35.07 24.32 23.20 23.42 25.69 37.45 35.90 36.73 42.62 45.83 45.46 45.15 45.60 47.04 48.48 48.90 49.69 49.37 50.01 50.33 51.25 52.05 54.91 55.03 55.05 57.08 57.15 58.39 58.72 59.26 59.86 61.14 62.65 63.27 63.97 64.45 65.47
34.38 32.56 42.63 44.39 42.44 39.79 38.83 37.79 28.36 21.44 21.43 27.42 38.05 31.14 36.67 45.47 47.20 46.55 47.00 45.93 47.19 48.56 48.77 48.52 49.02 49.11 50.84 51.23 52.08 52.18 53.00 54.43 56.38 58.14 57.82 57.81 56.62 58.05 59.26 60.02 61.17 61.05 62.55 64.94
35.89 35.25 44.23 44.32 44.58 44.39 39.92 34.28 39.48 32.80 33.74 27.90 31.20 36.90 43.30 46.30 46.44 46.21 45.74 45.32 44.80 46.00 47.94 48.58 49.81 49.74 49.94 50.72 51.14 51.53 51.47 52.55 54.73 56.44 56.77 58.19 59.32 59.11 58.00 58.34 59.24 60.37 60.94 62.62
39.45 32.88 42.17 44.30 45.84 45.20 41.56 43.19 33.97 31.98 26.82 22.85 29.27 32.08 35.13 41.06 43.60 46.41 45.43 44.83 44.84 45.17 47.22 48.36 49.09 49.78 49.94 50.85 51.76 51.99 52.52 52.72 53.03 53.73 54.39 57.37 58.89 60.01 59.43 59.32 59.19 59.40 60.05 62.13
41.21 37.29 35.79 40.76 38.81 36.27 36.48 34.97 37.36 35.57 32.27 24.52 23.18 28.62 40.50 41.41 43.05 44.56 44.99 46.68 44.06 45.15 46.08 46.87 48.10 49.51 50.27 51.46 50.60 51.71 52.19 52.96 53.52 54.02 55.01 55.27 55.91 56.93 58.19 60.52 60.37 60.33 60.36 62.15
39.71 35.10 32.63 34.92 41.83 42.65 39.77 37.57 35.55 30.87 26.53 30.68 28.27 28.83 43.72 43.20 44.15 45.80 44.99 47.15 47.03 48.75 46.58 47.13 47.74 48.26 48.79 48.89 49.71 51.07 53.08 52.81 52.97 54.25 54.83 55.87 56.71 57.02 56.90 57.85 60.03 60.26 59.77 60.60
38.92 31.58 25.62 29.65 34.72 38.70 35.61 38.31 38.44 36.76 35.72 30.31 27.55 27.92 44.62 44.41 44.43 45.07 45.41 47.14 48.21 47.72 48.28 50.51 50.58 48.00 48.51 48.96 49.87 50.26 50.42 50.72 50.98 51.81 51.00 50.79 53.18 55.33 56.06 57.65 58.69 59.98 60.83 60.58
41.63 32.80 29.80 24.57 30.12 34.25 32.75 36.20 37.21 35.36 30.78 31.40 32.18 34.27 39.59 42.19 42.80 44.58 45.84 47.68 46.72 47.58 49.08 49.64 49.31 51.01 48.44 49.87 50.55 50.41 49.99 50.38 50.82 51.54 50.36 49.78 50.10 52.24 55.48 57.26 58.77 59.94 61.77 61.67
37.66 30.91 34.42 35.89 37.62 37.32 36.30 36.81 37.33 35.45 35.10 30.03 34.48 34.64 37.66 40.91 42.76 42.99 45.26 46.87 47.21 47.65 48.27 49.39 49.77 49.02 48.51 48.49 49.71 50.59 49.62 49.84 50.30 50.65 49.91 49.54 49.98 50.82 52.54 54.95 57.41 58.39 58.96 59.44
39.00 30.54 34.90 33.11 37.80 38.13 36.00 38.22 38.72 37.49 37.85 36.60 37.06 36.39 41.66 41.72 44.08 44.00 44.69 46.57 46.81 47.51 48.76 49.30 49.52 48.49 48.08 49.15 49.62 50.64 49.40 49.22 49.71 49.73 49.63 50.58 50.70 51.52 51.61 53.37 55.77 56.44 56.98 58.30
34.38 31.98 30.02 27.02 35.66 34.63 29.43 36.73 37.73 38.57 39.83 37.54 32.65 37.06 42.07 41.36 43.19 42.72 44.88 46.79 46.67 47.45 48.15 48.79 47.80 47.56 47.63 48.43 49.33 48.53 49.27 49.39 49.12 49.04 50.27 51.06 50.98 51.57 51.68 52.70 55.26 54.67 55.11 57.14
34.00 32.35 31.15 26.55 30.31 22.06 35.89 40.34 39.81 38.90 39.88 41.62 41.44 42.13 42.63 42.15 44.24 44.77 45.03 44.68 43.96 44.43 45.04 45.79 46.61 46.68 47.74 48.38 47.67 48.43 49.13 48.59 49.30 48.92 49.79 50.75 51.10 51.36 51.33 51.25 51.35 52.81 53.11 54.14
38.63 34.32 29.08 22.96 24.14 32.82 37.26 40.43 38.94 37.56 36.77 41.54 39.84 40.88 41.92 42.19 42.47 41.25 45.05 44.96 44.41 44.80 45.85 46.37 47.05 47.02 46.68 46.68 47.73 48.31 47.77 47.78 48.17 48.82 49.43 50.28 50.31 49.64 50.60 50.57 50.35 50.84 53.05 54.92
40.83 39.40 31.14 28.15 23.24 17.31 36.03 41.64 43.75 42.03 30.04 41.15 41.45 40.61 40.24 40.62 34.34 37.37 42.59 44.10 43.71 44.08 44.44 44.74 46.00 47.04 47.11 47.51 47.79 47.33 47.05 47.27 47.56 48.63 49.41 50.28 50.27 49.95 49.59 50.16 50.76 50.82 53.85 55.56
31.56 34.59 29.02 28.73 24.43 31.81 40.63 42.65 43.18 27.13 30.51 41.00 41.50 40.65 40.35 38.29 39.86 42.27 44.03 44.03 44.33 43.32 43.10 44.42 45.04 44.75 45.70 47.19 47.64 46.91 46.76 46.60 48.54 49.39 50.07 50.49 50.39 50.05 50.22 50.09 50.01 50.59 52.27 54.60
32.97 31.30 27.92 32.69 27.22 23.54 42.43 41.07 32.56 37.12 40.84 40.91 41.19 41.58 41.25 42.07 42.87 42.08 41.95 41.72 42.02 42.18 43.11 44.17 43.32 43.61 44.81 45.83 46.19 45.99 45.58 47.40 48.95 49.34 49.96 49.66 49.76 50.41 51.78 50.27 50.37 50.87 53.65 53.66
31.98 36.10 29.55 31.91 30.94 39.32 40.71 39.59 40.72 41.22 40.48 41.41 41.97 42.89 43.44 42.86 41.00 41.09 40.97 41.24 41.76 42.67 42.95 43.56 43.41 43.07 44.25 45.38 46.15 45.28 46.07 47.84 48.42 48.80 49.15 49.26 49.97 51.04 51.80 50.90 51.25 51.54 53.26 53.72
39.73 40.78 32.44 33.69 38.11 36.90 39.54 41.56 41.93 42.24 41.61 43.74 44.22 43.52 42.57 40.30 40.70 39.70 39.81 40.48 40.48 40.82 40.61 42.00 41.86 41.82 42.04 43.69 44.43 45.83 47.14 47.80 47.91 47.29 48.43 49.39 49.79 50.46 51.21 52.02 52.56 52.11 53.40 54.31
37.14 38.28 33.91 33.96 37.40 37.13 40.58 40.11 41.01 41.74 43.88 44.52 44.65 43.51 41.56 41.25 40.63 39.94 38.48 38.59 39.31 39.89 40.23 40.51 40.46 40.84 41.79 43.68 44.15 45.20 46.52 47.47 46.53 46.96 48.00 49.98 49.98 50.22 50.61 51.66 52.12 53.58 54.23 54.81
38.44 33.92 30.72 30.07 36.42 36.34 36.93 40.35 41.90 42.63 43.47 44.11 43.41 41.86 41.98 41.63 40.23 39.52 37.14 37.53 37.76 36.84 37.51 37.59 38.16 39.29 40.72 41.97 41.82 43.91 46.35 46.92 46.63 46.91 47.99 48.77 49.29 49.95 51.52 51.29 51.01 42.80 43.52 44.94

GFSCGP_sfc_wetblb_072.txt.gz
Wetbulb
42.28 36.02 33.25 36.95 38.76 39.88 38.41 36.89 36.06 39.75 43.11 40.22 39.53 39.87 41.93 45.23 44.00 43.14 43.32 45.68 46.42 47.87 49.76 53.69 57.08 57.76 57.62 57.31 57.24 59.57 64.83 67.37 68.59 69.11 66.99 66.81 68.74 68.68 68.92 68.92 70.00 71.24 70.63 70.36
38.09 34.37 40.86 42.79 42.39 41.04 39.82 37.27 36.60 39.50 42.71 40.52 39.37 39.13 41.43 43.65 43.47 43.68 44.92 44.61 44.85 44.73 47.61 53.19 55.03 56.78 57.58 57.16 56.97 58.84 60.96 63.76 67.24 68.59 68.10 66.84 66.34 67.37 68.41 68.60 68.61 68.64 71.13 71.59
36.19 39.84 44.43 43.11 41.21 40.09 39.64 37.79 36.29 36.80 40.90 40.92 38.41 36.52 38.53 43.17 44.37 45.00 45.36 45.98 46.23 46.14 46.22 51.55 54.41 54.83 56.30 56.10 55.37 56.51 58.06 59.60 60.51 63.60 67.24 66.03 65.38 66.08 65.86 66.86 67.84 68.34 68.53 69.95
38.55 42.79 42.45 41.30 39.78 40.81 35.14 41.04 40.79 40.06 35.78 29.79 40.19 28.12 35.75 40.09 41.57 43.03 44.19 43.39 44.61 46.51 47.32 50.42 52.88 52.76 55.11 54.81 55.46 56.03 56.51 56.49 57.21 58.09 60.53 64.54 63.15 61.49 62.96 65.10 66.46 67.20 68.05 67.76
38.83 40.29 39.54 38.88 40.50 44.00 38.85 42.87 40.59 39.25 33.91 30.65 34.40 29.54 34.27 38.29 38.71 40.28 42.94 43.77 44.61 46.04 48.05 47.78 50.43 54.41 54.65 54.92 54.11 54.60 55.22 55.14 55.54 56.27 58.90 60.08 60.54 62.78 63.97 64.68 64.30 65.35 67.30 67.72
40.54 44.55 42.48 42.07 45.29 45.06 45.11 40.36 37.04 35.13 31.32 25.05 33.13 30.88 32.42 35.11 37.46 39.79 43.37 46.20 46.43 45.79 46.65 48.19 51.66 51.55 51.73 53.31 54.15 54.56 54.59 54.44 55.42 55.71 55.40 56.23 57.48 58.81 60.98 61.53 62.19 64.42 66.18 66.03
40.28 40.99 44.29 46.64 41.88 43.61 42.32 36.82 27.76 23.05 22.85 25.46 34.33 32.39 35.06 39.64 43.50 44.16 44.95 45.18 45.44 46.39 47.65 48.75 50.14 49.70 48.63 50.18 51.88 52.95 54.09 53.64 54.69 55.19 55.14 55.73 56.25 56.71 56.93 58.62 60.82 62.03 63.47 63.79
33.93 30.85 41.03 45.16 42.90 39.55 37.61 35.11 26.96 23.65 20.53 26.69 35.42 29.22 33.47 42.99 45.75 46.48 47.36 44.42 45.45 46.95 48.33 49.01 49.18 48.78 48.69 50.00 49.74 52.40 51.90 52.07 53.76 54.28 54.22 54.62 55.16 54.73 56.31 57.69 58.33 58.59 60.11 62.14
35.02 34.99 43.39 44.74 45.11 43.54 38.39 32.79 37.00 32.27 33.27 29.35 30.26 34.18 39.78 43.26 43.99 46.07 46.63 46.18 43.39 45.29 46.59 48.07 47.11 47.08 48.35 48.09 50.47 51.81 52.10 52.42 53.08 54.88 55.83 55.45 55.34 55.27 55.79 56.91 56.62 57.68 60.15 60.81
37.85 30.98 40.29 43.19 44.31 43.85 41.27 41.84 29.56 34.18 25.90 24.35 27.85 29.92 30.78 38.05 41.15 44.21 44.99 44.96 45.78 46.51 46.62 46.89 46.98 46.93 48.17 48.44 50.41 50.04 50.94 50.39 51.48 52.73 54.02 54.69 55.41 57.82 57.62 56.55 56.94 57.11 57.36 58.75
37.51 33.91 34.19 37.96 37.71 35.95 37.02 34.96 34.63 34.16 33.74 27.25 23.98 26.05 37.94 39.08 41.31 43.49 45.10 46.95 44.97 46.12 46.58 47.25 46.13 46.74 47.43 47.86 48.69 49.07 49.08 49.65 50.13 50.26 50.56 50.74 52.43 54.28 55.27 57.01 58.43 57.54 57.84 58.84
37.76 33.15 28.00 31.88 38.86 43.18 39.57 36.25 35.83 29.28 28.24 31.92 29.52 27.28 40.94 39.73 41.70 44.21 44.90 47.36 47.36 46.50 45.85 46.55 48.14 48.00 47.47 46.05 47.83 49.97 49.72 49.95 50.80 51.24 51.72 52.53 53.39 54.17 53.88 54.29 55.24 58.24 58.59 59.18
37.97 29.27 23.37 26.78 32.86 37.80 35.11 37.03 36.64 34.69 33.94 28.75 27.16 27.70 41.53 42.93 43.59 43.83 44.71 46.93 47.71 48.25 48.61 48.35 46.93 47.28 48.02 47.46 49.04 48.95 51.44 52.03 52.52 52.21 52.37 51.06 51.27 51.45 51.61 52.68 54.27 55.78 58.18 58.87
40.87 30.01 27.75 23.96 28.38 31.47 31.14 35.78 37.36 34.16 28.22 31.20 31.44 33.57 38.74 39.81 40.48 42.12 43.82 45.45 46.57 47.97 49.07 48.98 48.87 48.29 49.30 49.42 48.98 50.21 49.70 48.58 48.42 48.97 48.29 48.10 48.12 48.96 49.93 50.94 52.30 54.46 56.63 57.99
36.08 29.36 32.42 34.02 36.26 36.47 35.03 35.33 36.84 34.44 34.35 29.72 32.42 34.50 36.22 38.54 39.81 41.01 43.13 45.06 46.24 46.36 47.44 48.74 48.80 48.74 49.06 49.43 49.25 50.11 48.71 49.03 49.20 49.59 48.77 48.36 48.46 48.73 48.68 48.83 49.55 51.44 53.90 55.56
35.27 28.92 32.57 31.47 35.41 36.28 33.28 36.19 37.14 37.00 37.20 36.65 35.99 33.52 39.59 40.79 42.09 42.36 42.50 43.93 44.21 45.57 47.14 48.73 48.97 49.28 48.49 48.37 49.99 50.59 49.06 48.53 48.50 48.43 48.41 49.32 49.28 49.66 49.23 49.08 49.34 49.40 50.61 52.53
31.53 29.13 27.43 25.52 33.99 33.15 27.97 35.07 36.31 36.81 38.21 36.43 30.63 37.31 41.18 39.34 40.28 39.99 41.78 42.22 42.60 44.61 44.32 44.38 44.68 45.58 45.65 46.42 47.73 48.30 49.39 49.79 48.26 48.16 49.14 49.94 49.67 49.75 49.31 50.02 49.87 49.35 49.45 52.57
31.35 30.17 28.59 24.91 27.91 21.30 35.45 40.22 39.26 38.59 39.14 39.35 38.48 39.42 40.63 39.67 40.44 41.54 41.94 41.29 41.17 41.78 42.57 43.20 43.43 43.99 44.92 45.61 46.40 47.90 48.35 48.42 48.62 47.84 48.47 49.56 49.50 49.59 49.42 49.02 49.45 49.53 48.87 49.99
35.36 31.46 26.27 21.60 21.81 29.82 35.88 39.03 38.10 36.06 35.14 39.10 37.46 38.56 39.84 40.64 40.67 39.63 42.18 42.16 42.04 43.05 43.90 44.29 44.83 44.73 44.71 45.01 45.97 46.60 46.83 47.44 48.07 48.37 48.40 49.12 49.16 48.86 48.76 48.70 49.01 49.20 48.21 49.85
38.27 37.32 32.06 28.52 24.74 15.40 34.78 39.84 42.29 40.71 28.97 39.13 38.59 37.72 37.82 38.82 33.39 36.65 42.04 43.58 43.80 44.59 43.96 43.59 44.48 44.90 44.32 44.45 45.28 44.92 45.41 46.58 46.96 48.07 48.44 48.70 48.65 48.45 48.05 48.53 48.29 49.08 48.54 49.49
31.98 30.08 25.21 28.77 22.77 28.17 39.08 41.07 41.20 25.46 27.72 38.65 39.12 39.19 39.78 38.13 39.29 41.38 43.60 43.94 44.71 43.79 43.14 43.76 43.86 43.62 44.10 44.79 44.48 43.70 44.58 45.06 47.20 48.77 49.34 48.95 48.73 48.44 48.73 48.72 48.36 48.34 48.77 49.06
33.19 28.82 25.19 31.63 28.44 23.06 40.54 37.85 30.42 35.26 38.03 39.07 39.59 40.32 40.45 41.17 42.16 43.23 42.34 41.48 41.81 42.17 42.89 42.72 42.06 43.00 44.42 44.89 44.41 43.49 43.40 45.49 46.96 48.39 48.51 47.95 47.98 48.70 49.60 48.33 48.09 48.33 48.76 47.14
28.63 33.95 28.52 31.80 28.66 36.96 38.66 38.09 39.12 39.29 38.43 39.86 39.97 41.82 42.37 42.15 41.85 41.27 40.13 40.52 40.70 41.28 41.84 41.96 40.65 41.63 43.17 44.44 44.50 43.25 44.76 45.98 47.14 47.70 46.43 46.92 48.05 48.90 49.09 48.14 48.07 48.04 48.31 48.30
37.05 38.51 29.35 31.93 35.35 35.85 37.71 39.51 39.81 40.30 39.97 41.43 42.76 42.87 43.35 42.14 41.01 39.56 39.26 39.37 39.96 40.07 39.94 40.20 39.16 38.87 40.17 42.29 43.43 44.31 45.19 45.96 46.19 46.21 46.57 46.94 47.63 47.83 48.57 50.41 50.12 49.49 49.40 50.42
35.11 35.63 31.73 31.20 35.33 36.27 38.31 38.68 39.71 40.74 41.94 42.82 43.40 43.58 43.25 41.48 39.85 39.01 38.90 37.67 37.52 37.91 38.07 37.57 37.23 37.74 38.32 40.14 41.63 43.38 44.57 45.01 45.06 46.23 46.55 46.69 47.73 48.44 48.76 49.65 49.78 50.37 51.46 51.35
36.07 31.57 25.36 26.08 34.29 34.58 36.24 40.17 41.24 40.53 41.07 42.63 43.54 43.26 41.92 40.84 39.54 38.82 36.83 37.45 37.35 36.41 36.76 36.85 37.45 36.91 37.01 38.27 39.27 41.74 44.04 44.90 44.44 44.76 46.45 46.73 47.25 48.66 48.85 48.91 49.21 43.82 44.10 44.17

GFSCGP_sfc_wetblb_075.txt.gz
Wetbulb
40.18 35.50 32.21 35.53 36.76 38.10 36.32 34.54 33.89 37.86 41.60 37.81 38.59 39.07 40.54 42.23 42.18 42.37 42.63 42.38 44.92 46.49 48.80 50.56 54.92 56.40 56.72 57.62 60.17 62.76 65.52 67.39 68.88 68.36 67.50 67.25 66.99 67.37 67.91 68.76 68.81 68.58 68.74 69.04
36.75 33.18 38.96 40.60 39.96 38.46 37.18 34.81 34.79 38.59 41.16 38.09 37.79 37.26 40.72 40.97 41.79 42.45 42.32 42.19 43.97 44.02 45.18 51.86 55.10 55.64 55.26 55.30 56.71 60.57 64.78 65.80 67.55 68.09 67.30 66.65 66.17 66.73 67.97 68.09 68.97 70.36 69.81 68.95
34.88 38.46 42.56 41.20 39.09 37.82 36.65 34.58 35.50 35.74 39.50 39.58 36.81 34.98 37.28 40.80 42.49 44.00 44.07 43.16 43.84 44.69 44.93 49.11 53.53 54.56 54.55 53.96 55.99 59.17 61.34 62.75 62.89 65.68 66.14 64.74 64.79 65.13 65.15 65.85 66.01 67.05 69.57 70.80
37.31 41.90 40.73 39.18 37.77 38.94 33.59 40.13 39.64 37.92 34.72 29.19 37.36 28.53 35.54 37.76 39.44 41.13 42.22 41.98 43.18 44.22 45.39 46.73 52.61 52.90 54.02 54.56 54.39 56.50 58.06 57.72 57.96 61.38 63.76 64.09 63.63 62.48 63.18 63.81 65.68 65.75 67.28 67.59
37.40 38.68 38.38 37.38 38.64 42.65 38.33 42.58 38.62 37.47 33.72 29.37 31.85 27.08 32.21 36.46 36.88 39.32 41.10 42.70 42.75 42.95 44.41 45.31 50.39 54.27 54.74 53.25 53.05 54.08 54.38 54.22 54.92 56.79 57.64 59.76 60.49 62.67 62.97 63.29 63.25 63.12 65.12 66.45
39.46 43.93 41.21 39.68 43.78 43.83 44.16 39.55 36.45 32.96 29.84 23.90 31.40 29.51 31.29 35.63 36.51 38.83 42.27 45.02 45.65 46.18 45.28 45.05 48.31 53.01 52.94 52.58 52.51 52.47 52.63 52.46 53.26 54.04 56.32 57.59 57.71 57.30 59.19 60.25 61.04 61.73 63.37 64.23
38.35 39.38 42.90 44.97 39.52 42.09 40.22 35.41 25.42 23.79 22.71 26.02 32.96 29.67 33.65 37.46 40.82 42.22 43.07 44.14 44.33 45.26 45.84 44.08 48.37 51.84 52.55 51.53 51.43 52.39 52.00 52.05 53.20 53.89 53.74 53.78 54.40 55.43 56.04 56.43 57.63 58.98 60.68 61.93
31.68 30.61 39.29 44.25 41.31 36.90 36.49 35.22 27.30 24.16 23.55 25.40 33.22 27.36 32.75 40.68 43.91 44.27 44.40 42.83 43.31 42.99 43.20 45.15 49.68 52.61 52.65 51.56 51.66 52.48 51.68 51.10 52.55 53.30 53.27 53.98 54.22 54.20 54.38 55.32 57.21 57.42 57.66 59.68
32.45 33.46 42.20 43.63 43.98 41.35 36.48 32.36 39.56 31.21 30.98 27.01 28.01 32.97 39.21 42.24 41.78 43.57 43.53 44.15 43.13 43.33 44.31 44.21 45.52 46.21 48.74 50.02 50.27 51.40 51.37 50.58 52.40 53.22 52.63 52.49 52.73 52.81 53.03 53.91 54.78 55.47 56.83 59.83
36.12 29.74 38.75 41.60 42.68 42.18 37.89 40.20 31.83 32.77 24.24 22.37 26.48 28.07 30.17 36.87 39.68 41.97 42.11 40.70 42.93 44.01 45.19 45.06 45.51 46.24 45.92 46.30 49.52 49.72 51.39 51.08 51.65 51.78 52.93 53.90 53.85 54.08 53.98 54.19 54.38 54.42 55.58 56.60
36.61 32.67 32.53 35.90 34.45 33.28 33.20 34.69 36.85 35.15 32.58 22.76 20.34 26.52 38.35 39.31 40.63 40.89 41.94 43.53 42.90 44.32 44.83 45.68 46.39 46.88 45.96 45.65 45.81 47.71 49.11 49.94 49.20 50.87 51.93 53.06 53.34 53.40 54.97 55.22 54.79 54.80 55.15 55.43
37.06 32.39 27.54 30.85 36.61 39.52 38.47 35.13 36.16 29.06 27.87 31.98 29.16 26.54 41.36 41.54 41.81 40.94 41.77 44.47 46.13 45.08 46.37 45.64 46.98 47.09 47.22 45.50 45.36 46.82 47.41 46.42 47.94 49.61 49.25 49.38 49.33 50.44 51.01 51.80 52.85 53.77 55.02 56.43
37.48 28.65 23.25 25.69 30.06 34.66 33.26 36.37 36.22 34.51 33.27 28.34 23.85 26.75 41.70 42.88 42.21 40.97 40.87 43.19 45.88 47.59 48.82 48.73 47.00 46.97 47.37 48.08 47.58 46.65 47.99 48.70 49.15 48.97 48.80 49.03 49.90 50.72 51.41 51.74 51.22 52.64 53.88 54.93
40.26 28.66 27.02 22.55 27.49 29.66 29.57 33.40 35.04 34.33 29.12 28.02 30.77 32.24 37.53 39.21 39.97 41.17 40.90 42.50 43.86 45.18 46.90 48.74 47.80 48.56 48.56 49.14 48.68 48.29 48.00 47.37 48.28 48.42 48.38 48.79 48.96 49.56 49.12 49.73 50.29 50.97 52.32 53.32
34.02 28.39 29.73 31.30 33.79 34.55 33.42 33.68 34.29 31.80 33.43 29.36 32.52 32.67 36.72 38.95 39.33 40.42 41.07 42.12 43.54 44.88 46.30 47.52 47.85 47.89 48.03 48.69 48.17 48.11 47.65 47.91 48.11 48.21 47.54 47.56 47.49 47.82 48.24 48.33 48.67 49.45 49.94 50.65
33.24 28.47 31.12 30.32 34.58 33.95 32.25 34.81 36.15 36.81 37.00 35.99 35.56 34.41 39.08 40.60 40.26 39.91 40.10 41.23 41.59 42.50 43.77 45.39 46.99 46.32 44.80 45.30 47.08 47.27 47.80 48.42 48.73 48.42 47.91 48.71 48.45 48.29 48.04 47.93 47.84 47.63 48.01 48.30
30.51 28.55 26.55 25.04 32.19 31.28 27.53 34.08 35.37 36.08 37.67 36.40 30.10 34.24 37.99 38.01 39.11 38.79 39.08 41.01 41.54 42.51 43.34 42.81 43.06 43.47 43.73 43.96 45.17 45.39 45.92 47.59 47.58 47.19 48.01 49.04 49.01 48.94 48.69 48.45 47.97 47.43 46.82 47.00
29.45 28.68 27.77 24.44 27.22 20.67 32.92 40.66 38.97 37.30 38.32 38.06 37.42 37.68 39.09 39.14 39.72 40.57 41.37 40.39 40.86 41.65 41.37 42.34 42.89 43.75 44.19 43.84 44.11 44.97 45.26 46.29 47.12 47.75 48.60 49.19 49.15 49.11 48.31 47.74 47.31 46.69 46.33 46.40
33.38 30.37 29.30 22.99 21.71 28.29 34.38 38.89 37.80 35.64 33.60 38.22 37.06 37.91 38.16 38.87 39.07 38.17 41.19 41.51 40.41 40.31 42.34 43.89 44.79 44.89 44.89 44.47 44.76 44.55 44.64 44.79 45.31 46.00 47.87 48.36 48.51 48.43 48.06 47.73 46.98 46.55 45.59 45.70
36.14 36.64 31.68 27.40 24.71 16.33 30.85 39.13 40.91 38.91 29.33 38.60 37.52 36.38 36.84 37.80 32.63 35.51 40.09 42.38 42.62 43.59 44.29 44.53 45.06 44.64 44.50 44.60 44.94 43.89 43.82 43.92 43.48 44.57 46.03 48.21 49.25 48.70 48.19 48.25 47.67 46.94 45.64 47.34
30.53 27.85 24.66 28.42 26.70 27.16 36.80 39.32 40.80 25.67 27.14 36.70 37.67 37.47 37.74 36.48 38.22 40.50 43.09 43.33 44.51 44.69 44.16 44.01 42.85 42.23 43.28 44.35 44.45 42.54 43.17 42.78 44.33 45.16 45.90 46.63 48.23 48.70 48.90 48.12 46.98 46.38 45.90 46.85
29.43 28.94 28.65 30.41 25.35 21.74 39.37 36.96 29.85 33.21 36.96 37.97 38.21 38.74 39.07 40.33 41.68 41.71 43.03 42.64 42.01 42.09 42.49 42.35 41.31 41.64 43.29 44.05 43.68 42.19 41.70 44.51 45.65 45.75 45.56 46.13 47.18 48.16 48.56 46.07 46.47 45.52 45.45 45.46
29.79 33.91 26.88 29.57 27.15 34.72 36.91 36.04 38.34 38.74 37.49 38.04 38.86 40.53 40.92 41.31 41.42 42.43 41.19 41.01 40.63 40.42 40.78 41.49 40.33 40.07 41.23 42.43 42.95 41.43 41.73 44.88 45.25 45.09 45.16 45.09 46.31 47.34 47.94 46.88 45.48 45.33 45.99 46.26
38.22 36.69 27.78 31.69 33.99 34.81 36.67 38.33 39.45 39.59 39.07 40.34 41.14 41.67 42.11 41.37 42.00 39.72 40.06 39.39 38.65 38.94 38.56 39.23 39.02 38.35 38.66 40.28 41.23 41.74 41.80 44.13 44.94 44.00 44.61 45.74 46.71 46.91 47.51 47.23 47.40 46.90 46.73 46.72
33.85 34.24 31.20 30.68 32.80 35.30 36.91 38.23 38.44 39.76 40.87 41.21 42.10 42.05 42.31 41.62 40.65 39.00 38.09 37.68 38.04 37.74 37.75 37.85 37.30 37.41 36.89 37.56 38.45 40.42 41.63 43.37 43.48 44.50 45.25 45.93 47.04 46.78 46.99 47.87 47.90 48.11 48.70 47.93
35.52 31.24 25.47 25.66 32.00 34.79 35.45 37.73 39.89 39.64 40.32 41.16 40.97 41.50 42.11 42.11 39.36 38.07 37.22 37.78 36.78 35.52 36.70 37.66 38.72 39.86 41.35 42.33 38.09 39.57 41.47 42.90 43.49 43.22 44.25 44.80 45.96 46.77 47.88 48.11 48.15 41.91 44.63 43.90

GFSCGP_sfc_wetblb_078.txt.gz
Wetbulb
38.71 35.06 31.70 34.62 35.57 36.20 34.35 32.20 31.91 35.67 40.16 36.03 36.27 37.67 39.02 41.05 40.70 40.63 41.97 41.52 41.97 43.53 47.50 48.04 49.90 53.04 55.99 59.11 61.65 64.08 65.94 66.43 66.92 66.95 67.19 66.47 66.22 67.28 67.55 68.32 68.73 68.39 68.22 69.14
35.79 32.46 37.84 38.95 38.02 36.83 35.25 32.83 32.50 36.05 39.57 36.84 36.05 36.29 38.90 39.25 40.23 41.01 41.35 42.20 41.64 42.08 44.31 47.11 51.12 53.73 55.79 58.72 60.35 62.35 65.59 66.09 66.36 67.65 68.03 67.73 67.15 66.65 67.10 67.84 68.49 68.88 68.56 68.67
34.06 37.11 40.97 39.48 37.31 36.18 34.53 32.45 33.12 33.84 37.91 37.58 35.69 34.80 36.31 39.37 40.93 42.94 43.27 42.96 42.72 42.99 43.14 44.88 50.56 53.23 53.96 55.72 57.83 61.65 64.66 66.50 66.97 66.94 65.81 65.22 65.67 66.21 65.63 66.94 67.57 68.42 69.10 69.54
36.22 39.73 39.67 36.74 36.33 36.84 32.07 38.15 38.27 37.33 33.19 28.22 35.87 28.25 35.37 36.85 38.15 40.48 41.85 41.16 41.55 42.40 43.67 44.67 46.73 52.27 53.28 54.04 55.18 59.43 62.65 63.88 65.41 66.64 65.88 65.30 63.91 63.09 65.69 66.44 67.75 67.62 68.15 68.67
36.39 37.06 36.10 35.47 37.00 40.50 36.84 41.31 38.57 36.27 32.05 28.06 30.56 26.31 32.78 35.05 35.02 37.38 40.69 42.49 42.10 43.46 44.10 45.20 45.42 50.05 53.61 54.10 53.63 57.04 59.70 59.48 60.63 63.65 65.39 64.79 62.33 63.17 63.44 64.50 64.62 65.20 66.31 67.10
37.43 41.63 39.70 38.60 41.79 42.37 42.83 38.33 36.19 31.49 28.75 24.41 31.96 29.73 32.43 35.94 35.39 37.15 39.85 42.09 44.87 44.67 44.59 44.08 46.26 47.27 52.02 52.56 52.43 53.97 55.17 54.62 55.51 56.72 58.00 59.98 61.11 60.93 61.21 61.79 62.66 63.34 64.52 65.47
35.89 37.25 41.25 43.35 38.47 40.66 38.97 33.25 26.86 23.58 22.22 25.51 32.01 28.05 33.51 37.40 39.66 39.16 40.04 42.57 42.93 42.93 43.19 44.26 42.75 44.19 49.46 51.47 52.19 52.23 52.06 51.92 52.87 54.58 56.40 57.27 57.54 57.43 58.02 58.98 59.59 60.67 62.33 63.93
29.88 28.21 38.36 42.92 39.37 35.79 35.18 33.82 25.98 20.35 21.74 25.54 32.17 28.21 31.85 39.71 42.59 43.22 43.64 42.58 43.26 43.15 42.68 43.52 44.04 45.41 49.40 52.41 52.83 53.24 51.36 51.66 52.73 53.52 53.76 54.17 54.81 55.35 55.96 56.37 57.22 58.32 60.12 61.65
30.93 32.20 40.93 42.26 42.34 40.12 34.61 30.76 34.21 25.27 29.61 27.52 27.47 31.26 37.14 39.99 41.56 43.01 42.55 43.33 42.55 42.89 43.74 43.22 44.88 45.10 49.00 51.07 51.95 52.38 50.75 51.21 52.53 53.28 53.03 53.68 54.24 54.51 54.41 55.48 56.70 56.68 57.68 59.48
34.13 28.79 37.02 40.18 41.52 40.77 36.61 38.70 26.27 31.04 23.60 23.43 26.01 27.10 28.71 35.00 38.21 40.59 41.41 41.30 42.32 43.42 44.36 45.21 45.38 45.26 46.17 47.16 47.99 49.89 50.88 50.78 52.41 52.48 52.56 53.14 53.28 54.02 54.30 54.30 55.10 56.06 57.01 58.80
35.19 31.21 31.22 34.54 33.67 31.87 31.25 31.17 33.17 34.65 31.76 25.56 24.19 25.62 37.22 37.32 39.48 40.45 40.49 41.68 41.62 42.41 44.36 45.03 46.12 47.23 47.17 45.79 47.22 48.89 49.36 49.01 49.77 51.18 52.16 53.18 53.42 54.34 54.75 55.13 55.73 55.95 56.67 57.09
35.97 31.74 27.93 30.66 35.33 37.63 33.72 31.44 31.84 24.07 23.01 29.38 29.42 27.74 40.33 39.03 39.56 40.97 41.76 42.93 43.33 43.33 44.53 45.99 48.04 48.51 48.54 48.21 47.47 46.87 48.47 48.92 48.76 49.35 51.58 52.68 53.72 53.73 54.23 55.15 55.71 55.83 56.13 57.17
37.37 29.06 24.69 26.48 29.29 33.10 31.40 34.18 33.90 31.85 31.59 27.52 25.02 24.89 39.51 40.18 40.67 42.18 40.73 42.08 42.49 44.08 44.96 46.17 46.92 46.94 48.11 48.53 49.06 48.57 47.97 48.17 49.64 49.11 49.16 49.64 50.36 50.37 51.24 52.04 53.26 54.16 55.05 56.35
40.01 28.74 27.91 23.27 26.73 28.49 28.07 31.60 33.68 30.91 25.55 26.88 27.98 30.37 35.93 37.83 38.76 40.38 40.92 41.36 41.25 42.37 43.38 44.25 45.15 47.62 48.98 49.55 49.40 48.91 48.52 48.55 49.36 49.41 49.31 49.38 49.35 49.97 50.87 52.15 52.78 53.36 54.47 54.64
34.07 28.41 28.90 29.94 31.50 31.95 31.67 32.17 32.51 29.99 31.39 28.58 31.03 31.04 34.96 37.75 38.09 38.68 40.28 41.22 41.46 41.56 42.12 43.09 43.71 44.39 46.74 46.88 47.39 48.48 48.47 48.62 48.96 48.77 48.41 49.18 50.70 50.63 50.73 50.91 51.26 52.15 52.37 52.82
33.10 28.83 30.34 29.60 33.66 33.15 30.95 32.65 33.33 34.81 35.30 33.92 33.70 33.21 37.93 39.07 39.09 39.07 39.37 40.17 40.11 40.98 42.15 42.98 43.98 44.50 44.09 44.75 44.89 46.07 46.44 46.98 48.13 48.03 48.01 49.47 49.31 49.70 49.84 50.31 50.20 49.99 50.29 50.69
29.98 28.35 26.49 24.86 30.55 29.77 25.69 31.31 34.09 34.45 35.97 35.11 31.45 33.84 37.03 36.44 37.49 37.72 38.44 39.64 39.71 40.52 41.76 42.46 43.01 43.73 43.95 44.07 44.86 44.49 45.58 46.32 46.68 47.25 48.17 49.14 49.64 49.50 49.55 50.09 49.72 48.89 48.71 49.10
28.26 27.82 27.01 23.96 26.49 19.57 30.33 38.52 37.97 36.05 37.44 37.80 37.33 37.20 37.34 38.07 38.38 39.26 40.33 39.62 39.85 40.98 41.75 42.31 42.95 43.51 44.63 45.70 44.76 44.74 45.17 45.23 45.63 46.03 46.77 48.23 48.78 49.05 49.40 49.14 49.00 48.81 48.59 48.32
32.10 30.76 29.53 22.65 21.45 27.36 31.10 37.40 36.36 33.18 32.05 36.58 34.80 36.02 37.94 37.74 37.95 37.40 39.65 40.76 41.09 41.58 42.33 43.57 44.57 44.84 45.28 45.49 46.22 45.85 44.78 44.70 44.80 44.91 45.38 46.42 47.71 48.46 49.09 48.48 48.74 48.36 47.98 47.99
34.05 35.94 32.22 27.23 20.75 16.00 28.53 38.77 39.90 37.74 28.74 36.96 36.54 35.83 35.80 36.79 31.80 35.09 41.14 42.43 43.14 43.95 44.25 44.73 45.11 44.81 44.62 45.80 46.66 45.16 43.65 43.70 43.61 44.70 45.17 46.11 46.71 47.82 48.45 48.89 49.05 48.45 48.83 48.79
30.70 31.87 29.11 27.61 25.21 27.12 34.70 38.24 39.30 26.93 27.90 35.76 36.82 36.44 36.35 35.46 37.73 40.50 42.71 42.82 44.30 44.12 44.49 45.11 43.95 43.34 43.89 44.75 44.98 43.66 43.34 42.27 44.06 45.39 45.81 45.93 46.12 46.16 47.65 48.92 49.22 48.31 48.29 49.03
29.23 22.62 23.40 29.88 23.40 19.58 37.84 36.47 29.80 32.47 36.20 37.12 37.87 38.14 37.98 39.13 40.43 41.34 42.33 42.23 41.37 41.79 41.99 42.33 41.74 41.32 42.18 42.77 42.66 41.69 41.16 43.13 44.71 45.13 45.03 45.01 45.50 45.94 46.51 46.54 48.51 48.61 47.49 46.91
29.03 31.08 26.12 28.68 26.81 33.60 36.23 35.29 36.97 37.58 37.01 38.02 38.83 39.62 40.14 39.99 40.17 41.07 40.50 40.68 41.08 40.18 39.81 40.55 39.84 39.66 40.35 40.83 41.03 39.60 41.01 42.95 43.56 44.14 44.36 44.56 45.33 45.65 46.82 46.59 47.30 46.32 46.45 47.08
37.72 36.99 27.35 31.00 33.21 33.17 35.56 37.19 37.76 38.19 38.72 39.56 40.43 40.77 40.88 39.73 40.41 39.96 40.65 40.23 39.11 38.38 37.87 38.38 37.21 36.27 36.75 38.78 39.92 39.97 40.73 41.76 42.32 43.06 43.09 44.14 44.30 44.76 45.94 47.01 47.72 46.63 45.97 46.35
33.63 33.44 31.23 30.60 31.97 34.56 35.75 37.13 38.32 39.41 40.01 40.24 40.68 40.61 40.35 40.63 39.96 39.03 39.05 39.66 37.33 36.61 36.79 37.03 36.35 36.92 37.77 39.73 41.27 42.08 39.47 40.59 40.25 42.13 42.26 42.31 44.09 44.37 44.89 46.13 47.44 47.28 48.68 47.61
33.57 32.54 26.70 25.40 31.32 33.08 34.80 39.09 40.53 39.04 38.80 39.97 39.35 39.54 40.91 40.68 38.69 39.37 39.16 38.59 36.42 34.77 36.46 37.46 38.18 38.71 40.38 41.71 39.94 41.10 40.12 39.75 40.79 41.20 40.85 43.59 44.34 45.06 46.08 46.58 47.11 42.46 43.98 42.57

GFSCGP_sfc_wetblb_081.txt.gz
Wetbulb
44.61 42.75 40.66 42.59 43.10 41.80 40.21 38.67 38.31 41.69 44.80 41.99 43.03 43.67 45.38 48.10 48.05 48.28 49.61 50.56 50.64 51.24 53.95 54.52 55.33 56.32 59.17 62.72 66.91 71.07 71.21 72.48 72.19 70.88 70.31 70.33 70.40 71.78 71.83 71.83 73.14 72.98 72.67 73.57
42.99 40.51 44.70 43.85 42.35 40.97 40.44 39.18 39.61 42.36 44.19 42.54 43.57 43.14 46.13 46.83 47.66 48.81 49.39 50.02 51.30 52.22 53.35 54.74 55.69 56.78 58.60 61.54 64.33 68.47 71.39 72.27 71.93 70.99 71.87 70.99 70.86 71.19 71.05 71.39 71.71 72.72 72.62 72.35
40.81 42.12 43.45 42.44 41.56 40.11 41.06 39.12 39.88 39.78 42.98 44.85 43.13 41.36 43.96 46.56 47.38 48.49 49.64 51.01 51.77 52.12 52.14 53.75 55.20 56.25 59.56 60.41 63.89 66.62 69.96 71.48 71.35 71.78 71.66 71.40 70.96 70.71 70.13 70.38 70.43 71.41 71.53 71.38
42.32 44.84 42.63 41.58 40.51 41.88 38.52 42.69 41.83 41.09 40.62 36.30 42.91 34.17 42.01 44.92 45.78 47.19 48.30 49.90 50.89 51.81 52.77 53.14 55.26 56.31 58.46 61.02 62.17 64.66 67.57 69.94 70.31 71.50 70.70 70.06 68.85 68.11 69.37 70.16 70.50 70.67 70.94 71.03
41.73 41.65 41.50 40.89 41.71 43.04 41.03 44.58 43.40 42.66 40.46 38.88 39.57 35.84 39.85 44.44 42.80 45.56 47.77 49.11 50.72 51.77 52.10 53.19 54.21 55.50 56.91 59.40 61.90 63.55 66.98 69.30 70.79 71.20 72.03 70.43 70.40 70.84 70.93 70.65 71.03 72.02 71.68 71.58
42.93 45.41 44.20 43.45 44.50 45.04 45.46 43.65 43.15 40.77 39.63 32.55 38.04 37.24 37.22 40.80 43.26 44.98 47.30 48.45 49.50 51.54 52.46 53.49 54.63 55.17 55.22 57.23 60.88 62.41 65.15 68.43 70.25 71.11 71.36 71.32 70.72 70.42 69.35 70.13 69.63 70.33 71.08 71.58
41.72 42.12 44.97 46.41 42.82 45.17 43.85 40.36 33.20 31.56 32.04 30.72 38.21 35.71 37.94 43.68 45.22 46.46 47.10 48.68 50.42 51.79 52.40 52.65 53.26 54.22 55.11 55.13 58.14 61.23 62.60 65.48 66.95 69.56 70.93 71.16 70.96 70.68 69.99 69.84 69.37 69.64 69.18 69.62
35.82 34.26 42.03 45.77 43.25 40.43 40.80 38.99 32.19 24.86 26.96 30.30 37.06 31.65 37.40 45.03 47.63 48.16 48.70 49.46 50.59 51.35 52.50 52.75 53.13 53.42 55.02 55.34 55.42 59.31 61.27 63.43 64.45 64.52 65.48 66.08 66.56 66.43 67.17 68.22 67.36 67.68 67.99 68.92
37.12 36.11 43.73 44.71 45.60 44.28 39.40 36.42 40.67 34.71 34.73 30.14 33.48 37.74 42.93 45.22 46.33 47.28 47.58 48.74 49.34 50.47 51.42 52.68 54.07 54.04 54.30 56.59 56.68 57.68 59.54 61.77 61.57 61.36 62.47 63.05 63.65 63.89 63.56 65.14 65.94 65.07 66.38 66.30
40.05 34.04 40.22 42.28 45.28 44.32 41.90 43.36 33.76 35.83 24.09 23.31 31.17 33.33 35.18 40.70 43.01 45.62 46.42 46.91 48.29 50.31 51.02 52.09 53.18 54.41 54.72 54.91 57.27 57.62 58.73 59.48 60.13 60.55 61.14 61.07 62.13 62.94 63.45 63.38 63.59 64.25 64.75 64.72
42.15 37.95 36.16 40.06 38.56 37.24 38.84 37.66 38.30 36.10 32.23 26.77 25.72 32.03 42.17 41.46 43.58 43.75 45.63 46.94 47.19 48.02 49.56 51.05 52.47 54.15 55.55 56.35 55.51 57.29 57.45 56.08 56.50 59.29 60.35 61.07 61.72 62.31 62.36 62.33 63.15 63.48 63.71 64.00
41.56 39.14 33.75 35.74 40.02 41.03 39.92 37.63 37.70 31.48 28.91 33.08 31.56 30.91 43.78 44.95 44.79 45.55 46.06 47.13 47.87 47.73 48.62 49.65 50.91 52.63 53.48 54.30 55.87 56.26 57.23 58.33 57.87 57.36 57.55 59.40 61.11 61.49 61.77 62.04 62.73 63.46 63.11 63.71
41.67 36.73 31.26 32.49 36.68 38.70 37.56 39.33 39.59 37.79 35.68 30.27 27.63 31.08 43.97 45.33 44.83 45.85 46.00 47.04 47.22 47.28 48.01 48.89 49.38 49.80 50.98 52.37 53.54 54.42 54.88 55.37 55.61 56.58 57.53 59.02 59.58 60.44 61.28 62.22 63.11 63.42 63.35 63.03
44.62 37.54 35.16 30.19 33.28 36.67 33.84 36.40 38.53 37.27 31.53 31.65 32.27 34.29 39.76 42.32 43.18 45.16 45.97 46.40 46.44 46.99 47.62 47.96 48.18 48.98 49.96 51.24 52.33 51.95 51.84 52.95 53.81 54.33 54.75 56.72 59.20 59.62 60.51 61.83 61.91 61.76 61.97 61.79
41.35 35.39 36.62 37.02 37.64 36.59 35.93 35.84 36.55 35.01 35.90 31.14 34.76 35.55 40.00 42.75 44.01 44.49 45.24 45.77 45.34 45.74 46.33 46.56 46.86 48.16 49.36 49.97 50.64 51.06 52.24 52.95 52.18 51.83 52.50 54.00 56.03 58.10 59.08 58.65 59.75 60.19 60.90 61.43
39.30 35.56 36.17 33.90 37.10 36.92 34.24 36.54 36.90 36.94 37.07 36.48 37.27 37.36 43.17 44.10 45.03 44.42 44.69 44.57 44.31 44.97 45.24 45.88 46.94 47.98 48.53 49.18 49.37 49.73 50.02 49.99 50.75 49.91 50.17 51.94 52.82 54.59 56.39 57.64 58.24 59.20 59.64 60.03
37.39 36.46 33.20 28.83 34.04 34.61 31.37 35.98 36.60 37.04 39.33 39.26 34.95 40.02 43.42 42.50 42.49 42.89 42.70 43.26 43.28 43.88 44.71 45.47 46.39 47.20 48.35 48.94 49.61 49.40 50.30 51.23 50.70 50.64 50.80 51.10 51.75 52.53 54.04 55.21 56.99 57.78 58.29 59.04
36.27 35.43 34.66 30.12 33.34 24.88 35.99 41.75 40.71 39.05 40.33 41.97 41.69 41.97 42.26 41.97 42.74 43.25 44.33 43.55 43.35 44.09 44.83 45.68 46.39 47.86 49.42 49.52 49.26 50.08 50.49 50.21 50.00 49.95 50.37 51.15 51.48 51.55 52.58 53.63 54.59 56.61 57.28 57.91
39.75 36.81 32.78 29.64 30.11 33.81 35.50 38.35 38.36 36.54 37.04 41.77 39.18 40.56 41.67 42.21 41.85 41.09 44.28 45.31 44.40 44.86 46.03 47.39 47.71 47.60 49.21 49.05 50.39 50.23 49.31 48.83 48.67 48.78 49.56 50.38 51.07 51.31 51.53 52.22 53.51 55.06 55.84 55.85
37.11 38.72 35.11 31.77 27.94 25.28 34.15 41.11 42.38 41.38 33.41 40.43 40.26 39.28 38.86 39.41 33.27 37.53 43.25 43.98 44.11 44.48 44.56 46.10 46.81 47.01 46.70 45.78 47.02 45.49 45.81 47.06 47.64 48.31 49.82 50.54 50.62 50.54 50.75 52.31 53.79 54.42 54.94 55.23
33.88 34.26 31.19 31.31 30.77 34.32 39.05 41.06 42.67 31.42 34.09 40.32 39.98 39.70 39.20 36.35 38.77 41.53 43.42 42.89 43.63 43.73 43.87 44.67 44.06 43.67 43.30 44.87 44.70 43.23 43.90 43.58 46.61 47.88 49.95 50.92 51.14 50.54 51.17 52.50 53.45 54.13 53.88 54.31
34.90 33.79 32.63 33.05 30.61 28.00 41.50 41.53 35.25 39.48 41.16 40.51 40.39 39.84 38.57 39.81 40.48 41.22 41.58 41.60 41.64 41.78 41.24 41.52 42.18 40.91 41.33 41.66 40.91 39.90 40.51 42.92 43.89 44.63 45.35 47.30 50.23 49.91 50.21 51.52 52.32 53.41 53.99 53.40
34.00 38.32 36.13 36.49 36.41 40.33 42.35 41.09 42.18 42.05 39.96 39.47 38.82 39.82 40.70 39.95 39.82 40.47 40.08 40.44 40.44 40.40 40.56 41.48 40.01 38.98 39.59 40.01 39.93 38.23 39.33 40.99 42.01 42.48 43.23 44.67 47.01 47.49 50.47 50.67 51.07 50.80 52.75 51.93
40.54 40.56 39.14 37.68 38.78 39.58 41.26 41.58 42.52 41.94 40.00 40.69 41.08 41.46 41.55 39.12 39.95 39.12 39.09 38.94 39.29 39.38 38.76 39.34 38.30 37.32 37.52 39.27 39.78 39.75 40.06 40.69 40.74 40.76 41.01 43.13 43.81 44.95 46.21 47.86 49.40 48.95 49.28 50.46
39.56 40.43 37.58 38.30 40.18 41.13 40.29 42.19 41.43 41.19 41.58 41.03 41.54 41.21 40.65 40.62 38.87 38.66 38.01 38.22 38.05 37.35 37.48 38.11 38.49 38.68 38.96 40.47 41.31 43.08 42.21 41.03 40.54 40.13 40.36 41.88 43.51 44.64 45.02 45.61 47.21 48.98 51.90 51.50
41.28 38.89 37.92 37.01 37.73 38.58 39.30 41.37 42.06 40.36 40.01 40.80 40.29 40.08 40.77 40.28 38.78 38.48 37.16 37.58 36.45 35.51 37.58 37.88 38.17 38.73 39.59 41.30 42.75 40.93 40.79 40.54 41.61 39.13 40.50 41.62 43.75 43.51 44.83 45.25 46.64 42.53 44.29 42.64

GFSCGP_sfc_wetblb_084.txt.gz
Wetbulb
49.56 46.18 43.97 45.97 46.37 45.67 43.90 42.91 42.62 45.20 47.85 46.67 46.44 46.71 48.58 50.89 51.53 51.37 52.07 52.66 53.41 54.28 56.30 57.85 58.69 60.60 61.83 63.61 64.63 67.70 72.65 75.24 75.39 74.39 73.49 73.18 72.37 73.50 73.92 74.31 75.91 75.02 74.94 74.64
46.32 43.63 47.01 47.14 46.52 44.70 44.29 42.94 43.29 45.84 47.38 46.78 46.54 46.11 49.13 50.43 50.84 51.57 51.89 52.40 53.21 54.22 55.31 56.56 58.12 59.56 61.46 63.00 64.36 66.35 70.72 74.48 75.23 74.54 74.20 73.79 73.31 72.79 73.23 73.86 74.75 74.87 74.31 74.41
44.73 45.58 46.89 45.48 44.84 43.40 44.29 43.31 43.57 43.31 46.53 47.78 46.72 45.29 47.58 49.96 51.21 51.73 52.77 53.54 53.65 53.94 54.76 56.16 56.93 58.88 60.50 62.12 64.25 65.33 68.19 72.81 76.01 76.60 75.04 74.15 73.79 73.21 71.84 72.89 72.75 73.82 73.80 73.91
45.95 48.42 45.83 45.22 43.95 45.16 42.37 46.25 44.75 44.14 43.73 40.64 47.20 38.24 45.66 48.32 48.70 50.34 51.67 52.74 53.31 54.24 55.15 55.88 56.72 58.09 59.11 60.74 62.93 65.06 66.81 69.88 73.26 75.48 74.65 74.03 71.63 70.52 71.66 72.53 72.99 73.28 73.36 73.03
44.87 45.02 44.76 44.26 44.95 46.07 44.14 46.92 46.03 45.52 44.01 43.73 43.48 41.14 44.41 47.94 46.63 48.23 50.53 51.76 52.46 53.71 54.68 55.40 56.87 58.43 59.84 60.95 61.53 63.59 66.44 67.77 70.85 73.66 75.05 73.24 72.25 72.05 72.17 72.77 75.13 74.91 73.98 73.24
46.86 49.31 47.31 46.78 46.88 46.84 47.85 46.22 46.37 46.33 44.60 37.99 42.49 41.38 42.84 44.07 45.10 47.25 49.81 51.25 52.82 54.58 55.61 56.70 57.89 58.84 59.40 60.90 61.25 61.84 64.66 67.26 69.31 71.67 73.30 74.37 74.20 73.22 71.64 72.75 72.14 72.42 72.35 72.78
45.91 46.45 48.54 48.15 45.65 48.27 47.10 44.34 38.04 37.08 37.66 36.79 42.48 39.25 41.49 45.84 47.93 48.93 49.33 51.39 53.19 54.84 55.61 56.06 56.56 57.37 58.30 59.19 61.04 61.63 61.76 65.06 69.06 70.47 71.44 72.00 72.79 73.94 73.70 73.59 72.60 72.91 71.50 72.03
39.82 39.04 44.75 47.85 46.08 44.37 44.44 43.94 37.46 29.70 32.82 35.68 40.65 35.58 41.62 47.58 49.30 50.55 51.23 52.35 53.35 54.09 55.20 55.73 56.45 57.43 57.84 58.61 59.69 61.63 60.72 62.38 66.65 70.84 70.96 71.48 72.19 72.70 73.00 73.45 72.43 71.80 70.57 72.13
39.99 39.49 46.25 46.92 47.50 46.34 43.88 40.29 44.88 37.83 38.29 34.50 38.07 41.04 45.27 48.05 47.97 48.95 49.88 51.15 51.94 53.52 54.57 55.23 56.42 57.30 58.01 58.79 59.31 60.37 61.66 61.70 63.96 68.22 71.19 71.72 72.92 73.25 72.85 73.85 73.44 71.68 73.00 71.18
43.52 38.21 43.80 45.31 47.07 46.67 43.94 46.07 37.56 39.65 28.39 27.63 35.33 36.51 38.38 43.42 45.08 47.42 48.28 49.24 51.23 52.54 53.28 54.51 55.31 56.20 57.87 58.98 59.79 60.34 61.89 61.87 62.78 65.79 67.74 69.02 69.71 69.34 68.15 68.40 68.40 68.22 68.22 68.49
45.19 41.53 40.07 42.86 41.80 40.74 42.42 40.40 40.69 40.09 38.17 30.33 29.35 35.52 44.85 44.14 45.67 46.62 48.30 48.83 50.91 51.75 52.50 53.35 54.18 55.34 56.44 57.41 58.14 59.78 59.71 61.18 61.96 63.42 64.94 65.06 64.59 64.82 65.67 65.60 65.79 66.06 67.17 67.04
45.45 42.21 37.42 39.69 44.15 44.75 43.56 41.34 41.96 36.07 33.52 36.11 35.15 35.30 46.43 47.18 48.23 49.09 48.64 49.65 51.61 52.46 52.49 53.25 53.68 54.20 54.46 54.98 56.37 57.77 59.47 58.72 60.56 61.00 62.03 62.03 63.25 63.89 64.53 64.25 65.00 65.49 65.84 66.00
45.32 39.83 35.07 37.11 40.69 43.30 40.39 42.10 42.15 41.59 40.35 34.98 31.83 35.25 45.73 47.06 47.17 49.01 49.08 50.39 51.16 51.71 52.06 52.84 53.35 53.16 53.35 53.81 54.64 55.88 56.85 57.65 58.48 58.95 60.48 60.84 62.09 63.35 64.24 64.26 64.71 64.85 64.64 64.75
47.31 41.16 38.29 34.28 37.73 40.80 37.78 39.88 41.89 41.35 36.29 36.74 37.26 39.12 43.12 45.11 46.24 48.17 49.65 50.60 50.80 51.43 51.54 52.14 52.16 52.24 52.70 53.36 53.80 54.13 54.85 56.59 56.34 57.01 57.68 58.67 61.27 62.52 63.09 64.43 64.79 64.34 63.96 63.33
44.24 38.50 40.36 40.95 41.04 40.92 39.90 39.59 40.01 38.87 39.86 36.27 38.78 39.29 42.80 45.11 46.91 48.05 49.49 50.03 49.86 49.92 49.96 50.28 50.47 50.99 51.65 52.15 53.03 53.76 54.31 54.83 55.66 55.39 55.95 56.80 57.78 60.11 62.00 62.90 63.94 63.98 63.67 62.96
44.75 36.85 39.47 37.43 40.53 40.56 38.28 39.97 40.24 40.20 40.43 40.49 40.80 40.32 46.40 48.38 49.08 47.94 48.41 48.24 47.50 47.97 48.86 49.63 50.17 50.67 50.98 51.77 52.13 52.87 53.18 54.08 54.96 53.87 53.10 56.02 56.61 57.04 58.19 60.53 62.54 63.54 63.24 62.93
41.05 38.87 37.12 33.22 38.39 37.69 34.69 40.13 40.79 41.31 42.59 41.95 38.38 43.64 47.04 46.21 46.00 46.42 46.81 47.21 46.68 47.37 48.19 48.94 49.35 50.07 50.79 51.39 52.15 51.91 52.67 53.70 53.71 53.98 52.61 53.72 54.49 55.75 56.50 57.51 59.21 61.23 63.00 64.40
39.28 39.27 38.28 33.75 36.35 28.30 40.09 44.31 43.55 41.58 43.06 44.77 44.81 45.52 46.09 45.94 46.90 46.84 47.02 46.39 46.39 46.69 46.64 46.77 47.31 48.62 49.71 49.39 49.93 51.53 50.11 51.78 52.39 52.83 53.61 53.00 51.25 52.06 53.19 55.87 56.27 58.95 61.10 63.09
42.92 39.54 34.87 32.03 33.53 37.92 39.80 41.94 41.38 40.09 40.32 45.32 44.38 44.89 45.32 45.85 45.75 44.31 47.37 47.19 45.40 45.31 46.16 46.98 47.07 47.65 47.28 47.44 48.16 47.70 49.27 49.75 48.74 50.32 52.45 53.53 52.65 52.25 52.00 52.02 53.89 57.43 59.40 60.67
41.83 41.90 36.96 34.52 30.09 27.88 39.20 43.26 45.37 45.27 37.74 44.50 44.69 43.92 43.49 43.83 35.69 39.62 44.18 44.80 45.00 45.16 44.91 43.93 44.97 44.09 44.97 43.77 46.20 45.85 44.90 46.33 46.63 47.79 48.99 52.70 53.44 53.36 53.69 56.46 56.10 56.62 58.57 58.86
36.26 37.08 33.65 33.24 32.80 37.32 43.09 44.03 45.97 34.49 37.92 45.39 44.67 43.99 41.97 38.36 40.31 43.58 44.72 44.27 43.86 43.16 42.87 43.16 43.55 42.62 43.35 44.01 43.61 42.97 42.20 40.81 43.33 45.64 48.86 47.93 49.22 51.50 54.19 56.71 57.98 58.07 57.04 57.94
37.09 35.28 34.92 35.89 32.40 30.08 44.77 44.35 38.70 43.73 45.83 44.87 44.31 43.50 40.89 41.35 42.33 43.17 43.74 42.39 41.70 41.01 41.37 41.85 41.24 41.33 41.75 42.55 41.90 40.43 39.99 41.73 42.24 42.21 43.03 45.66 48.22 50.15 51.75 55.70 56.05 56.43 57.73 57.11
36.75 41.21 39.54 39.48 40.50 44.69 47.47 45.46 47.08 46.22 44.86 44.57 42.71 43.26 41.73 41.42 42.59 42.82 41.39 40.82 40.38 40.44 40.17 40.44 39.65 39.08 39.84 40.64 40.97 39.34 39.81 40.93 41.14 41.10 41.55 41.73 44.75 46.51 48.99 50.57 53.48 53.96 56.11 55.36
42.64 44.82 41.13 40.01 43.15 44.77 46.34 46.87 46.71 46.94 45.36 45.06 43.66 42.70 42.66 42.70 41.89 40.94 40.14 39.78 39.24 39.42 38.95 39.03 38.03 37.63 38.43 40.36 40.51 40.92 41.53 42.26 41.58 40.27 40.58 41.38 42.91 43.97 44.76 47.15 49.85 50.68 52.57 53.64
42.65 43.92 40.96 41.55 44.32 44.86 45.28 46.25 46.26 45.57 45.79 44.48 44.73 44.71 44.64 43.63 41.61 39.88 38.85 38.39 37.85 38.05 37.72 38.13 37.96 37.96 38.09 39.34 39.99 42.72 42.70 41.92 40.62 40.84 41.06 40.89 41.66 43.20 43.99 45.06 45.56 49.09 52.83 53.11
43.48 41.65 40.32 38.78 44.04 43.59 44.78 46.56 46.57 44.43 43.89 43.76 43.79 43.70 44.43 43.56 40.80 39.41 37.90 37.80 36.80 36.40 37.39 37.47 37.49 37.59 38.26 40.21 41.72 42.98 41.89 41.94 40.73 40.58 39.55 41.02 41.33 42.22 43.94 44.60 45.23 43.48 43.84 42.97

GFSCGP_sfc_wetblb_087.txt.gz
Wetbulb
51.23 47.67 45.67 47.54 48.42 48.04 46.68 45.82 45.04 47.18 48.94 47.95 47.69 48.05 49.84 51.97 52.46 52.39 53.35 53.92 54.62 55.35 57.30 58.67 59.48 60.43 61.07 63.91 66.18 69.65 70.77 71.26 76.58 75.47 74.52 74.67 73.88 75.17 75.76 76.12 76.99 76.54 76.07 75.37
48.81 45.11 48.84 49.56 48.79 47.13 46.64 44.99 44.85 47.33 49.03 48.53 47.95 47.79 50.46 51.93 52.36 53.15 53.45 53.86 54.48 55.24 56.08 57.51 58.74 60.22 61.25 64.28 67.18 67.66 68.30 72.30 74.49 75.47 75.56 75.27 75.00 76.01 76.02 76.35 76.46 77.00 76.84 76.32
46.40 48.22 48.84 47.34 46.71 45.30 45.73 44.67 45.21 45.30 47.87 49.17 47.85 46.66 49.52 52.47 53.35 53.56 53.96 54.91 55.33 55.54 55.72 56.81 57.68 59.45 60.25 61.06 65.86 66.37 69.84 70.59 72.30 76.25 75.97 76.24 76.20 75.58 74.26 74.49 75.31 75.28 75.51 75.71
47.70 49.82 46.79 46.30 45.58 46.84 43.98 48.13 47.13 45.64 45.11 42.17 49.35 40.71 47.87 50.49 51.13 52.31 53.27 54.20 54.79 55.42 56.38 56.82 57.52 58.66 60.40 61.17 62.58 65.78 67.74 69.98 70.45 72.44 74.20 74.46 72.89 72.33 73.79 74.12 74.46 75.48 75.85 75.16
46.46 46.96 46.89 45.64 46.74 48.14 45.92 49.09 47.24 47.17 45.49 45.39 45.61 43.59 46.95 50.38 48.82 50.08 51.61 52.62 53.92 55.00 55.77 56.87 57.76 58.97 60.02 61.25 61.98 65.11 67.73 68.32 70.20 71.96 73.93 73.45 73.81 73.49 73.57 74.53 74.75 75.45 75.50 75.25
48.40 50.85 48.86 48.34 49.13 48.83 49.61 47.58 47.43 47.48 46.00 40.10 44.97 44.55 44.78 47.45 47.59 49.14 51.51 52.80 53.73 55.22 56.49 57.33 58.41 59.31 59.60 60.91 61.12 62.31 65.56 67.37 69.36 69.85 71.05 73.38 72.95 73.46 72.68 73.65 73.00 73.72 74.08 74.89
46.47 47.11 49.84 50.34 47.17 50.06 48.55 46.21 39.98 38.99 38.71 38.00 45.65 42.29 44.29 47.88 49.18 49.78 50.29 52.20 53.94 55.30 55.84 56.50 56.77 57.26 58.01 59.49 60.38 61.26 61.99 63.89 66.14 68.29 69.90 72.01 73.13 74.17 73.09 72.94 72.17 72.70 73.36 73.49
40.29 39.95 47.43 49.18 47.43 46.07 46.58 45.72 40.49 33.14 35.64 39.45 45.49 39.13 44.63 48.49 50.37 51.51 51.78 52.76 53.98 54.26 54.78 55.18 56.25 57.22 58.01 59.36 60.24 61.00 61.19 62.45 64.26 65.80 68.78 71.66 72.85 73.01 73.39 73.09 72.11 72.95 71.98 73.64
40.02 39.77 47.76 48.31 48.97 48.02 44.84 42.36 47.11 41.37 42.04 37.50 40.30 43.86 47.38 49.67 49.21 49.86 50.47 50.80 51.55 53.06 54.10 54.90 55.32 56.63 57.69 58.31 59.73 60.18 61.01 61.33 63.63 64.14 67.40 71.38 71.99 71.63 71.75 73.53 72.45 73.12 73.16 70.73
45.08 39.12 47.21 48.09 48.60 48.78 46.08 47.39 40.55 42.10 31.47 31.64 38.00 39.16 40.70 45.46 46.32 48.09 48.55 49.71 50.96 52.12 53.20 54.63 55.49 56.31 57.39 58.07 58.57 59.80 60.88 61.29 62.17 63.81 64.52 66.94 69.84 71.16 72.20 73.02 69.64 69.66 71.02 72.90
46.08 43.11 43.56 45.74 43.29 42.63 43.74 42.83 42.86 42.73 40.52 33.07 32.37 37.87 46.44 45.97 47.47 47.70 49.26 50.82 51.52 52.48 52.89 53.89 54.93 56.00 56.63 57.37 57.59 58.27 59.22 60.29 60.84 62.28 63.71 65.51 67.07 68.99 69.40 67.32 65.44 68.21 71.01 71.87
47.38 43.75 39.18 41.02 47.37 47.00 45.67 43.24 43.76 37.97 36.88 39.28 38.32 37.87 48.78 47.83 48.65 49.39 49.18 50.59 52.05 52.68 53.18 54.02 54.23 55.29 55.50 55.92 56.29 56.72 57.75 58.50 59.90 60.94 61.78 63.68 64.80 66.29 67.58 66.68 63.31 66.98 68.09 69.27
46.34 42.05 36.08 38.25 42.88 46.20 42.49 43.34 43.83 43.94 42.97 37.19 34.68 37.68 48.47 48.73 48.59 49.45 49.57 50.84 51.63 52.92 53.10 53.17 54.08 54.22 54.39 54.79 55.07 55.34 56.42 56.94 57.86 59.23 59.69 59.60 62.83 64.10 65.60 65.43 67.10 66.43 66.73 66.64
47.44 44.01 40.26 35.88 38.45 43.43 40.69 42.23 43.55 43.26 37.47 38.58 39.33 41.32 45.12 46.69 47.36 48.74 49.92 51.46 51.48 52.02 52.28 53.04 53.17 53.35 53.51 54.12 54.14 54.39 55.00 55.98 56.75 57.19 58.37 58.98 59.36 62.59 64.26 65.19 64.85 64.76 64.89 64.48
44.92 39.71 41.74 42.50 43.67 43.12 42.35 41.65 42.17 41.13 42.02 38.39 40.88 41.08 44.24 46.56 47.67 49.24 50.69 51.03 50.82 50.91 51.10 51.51 51.70 52.29 52.98 53.46 54.20 54.39 54.89 55.29 55.82 55.69 56.11 57.35 59.33 59.53 61.36 63.42 64.39 64.43 64.48 63.97
44.78 39.15 40.97 38.54 42.22 42.30 40.26 41.89 42.19 42.31 42.58 42.23 42.39 41.87 47.51 49.27 50.38 49.47 49.89 49.69 49.10 49.35 49.78 50.48 51.31 51.30 51.68 52.07 52.48 53.65 53.51 53.86 55.38 54.73 54.74 56.33 56.61 58.58 58.76 59.66 61.90 64.02 63.72 63.34
41.74 40.31 38.28 34.14 40.19 41.04 36.70 40.59 41.87 42.37 43.88 43.71 40.56 44.79 48.46 47.80 48.22 48.34 48.34 48.42 47.86 48.10 48.78 48.79 48.58 49.05 50.22 50.61 51.26 50.08 51.00 52.09 52.11 52.33 54.43 54.88 55.86 55.54 57.50 57.99 58.85 61.49 65.03 66.73
40.96 39.94 38.88 36.35 38.03 29.72 41.34 46.61 45.50 43.81 44.41 46.00 46.15 47.06 48.13 48.04 48.74 49.06 49.66 48.60 47.62 47.51 47.11 46.89 46.83 46.94 47.45 48.10 48.22 48.05 47.81 48.13 48.89 47.79 50.47 52.91 54.72 55.11 55.67 55.34 55.12 60.03 63.22 64.74
44.98 40.39 35.48 33.25 33.38 38.38 40.97 43.58 43.89 42.03 42.12 47.03 46.55 46.99 47.47 48.10 47.87 46.57 48.77 48.25 46.60 46.38 45.71 45.51 45.30 45.21 44.54 44.58 45.19 46.30 44.65 46.23 44.17 45.81 47.67 49.66 51.93 53.51 55.11 54.71 53.51 58.35 58.88 62.85
43.44 44.11 38.57 35.65 31.33 29.35 41.36 45.05 47.63 46.73 38.33 47.30 46.49 45.84 45.78 46.06 39.99 42.96 46.69 46.63 46.40 46.21 45.05 44.05 44.43 44.18 43.49 43.92 44.61 44.00 43.79 43.67 43.72 43.23 44.80 47.68 49.00 50.27 49.36 55.44 55.70 54.55 58.05 57.83
38.84 38.84 34.42 34.31 33.68 37.74 45.13 46.88 47.76 36.63 39.50 47.28 47.14 46.63 45.93 43.55 44.99 46.39 47.13 46.28 46.33 44.40 43.62 43.63 43.13 42.15 42.36 42.75 42.25 41.15 41.57 41.06 43.58 44.92 46.18 46.53 47.31 49.31 49.40 49.21 56.40 56.87 54.40 55.85
37.71 35.82 35.34 36.76 33.31 31.70 47.09 46.58 40.33 45.97 48.40 47.59 47.62 47.16 45.81 45.60 45.68 44.74 46.38 44.75 44.46 41.96 41.84 41.80 40.49 40.38 41.00 41.56 40.33 38.99 39.17 41.35 42.46 43.19 43.11 44.07 46.14 45.81 46.75 48.75 49.60 55.78 56.54 52.71
37.69 41.37 39.44 40.18 40.75 47.06 49.35 47.97 49.97 49.31 47.60 47.44 47.08 47.43 46.50 45.02 44.97 45.48 45.07 43.70 41.47 40.50 39.82 39.97 38.44 38.44 39.66 40.62 40.95 39.47 40.36 41.33 41.32 41.59 41.17 42.04 43.17 45.06 44.51 44.80 48.12 51.15 56.23 55.23
43.18 47.03 43.04 42.73 45.05 45.22 46.86 49.13 49.23 49.96 47.96 48.10 48.01 47.59 46.98 45.10 45.43 45.22 44.65 40.86 39.58 39.24 37.69 38.10 38.01 37.61 37.76 39.71 40.36 40.67 41.42 41.97 42.03 41.26 40.53 41.03 41.05 42.29 44.12 44.75 46.57 50.53 53.23 55.45
43.23 45.26 42.94 43.27 45.20 46.44 47.49 47.73 48.66 48.61 48.63 47.51 48.17 47.33 46.25 45.17 45.09 43.92 40.90 39.86 38.93 37.69 37.14 37.77 37.57 37.55 38.06 39.78 40.78 43.67 44.41 43.85 41.60 41.62 41.14 41.76 41.35 41.54 42.00 43.51 45.26 46.05 52.81 54.37
44.69 43.00 41.29 40.62 46.05 45.81 46.80 48.55 49.10 47.37 46.28 47.57 46.78 46.16 46.53 45.57 44.92 43.53 40.20 39.53 38.14 36.34 37.10 36.96 37.17 36.91 38.42 39.97 41.45 44.79 45.75 44.49 42.73 42.01 40.93 40.37 41.28 41.27 41.81 42.64 43.76 42.33 41.92 41.12

GFSCGP_sfc_wetblb_090.txt.gz
Wetbulb
50.59 46.46 44.72 47.24 48.30 47.75 47.03 45.50 45.08 47.06 49.03 47.67 47.19 47.53 49.32 51.43 51.96 51.87 52.67 53.97 55.16 56.11 58.42 60.66 62.06 63.43 64.70 65.35 68.07 68.11 68.39 70.01 69.80 73.69 73.62 74.22 73.83 73.91 74.46 74.70 73.74 73.24 73.64 73.46
48.49 44.42 48.70 49.84 49.01 47.60 46.46 44.68 44.79 47.34 48.68 48.01 47.26 46.83 49.57 51.17 51.71 52.74 54.09 54.28 55.06 55.94 57.17 59.58 61.70 67.39 66.14 65.65 67.36 69.62 69.83 70.90 71.74 71.38 73.36 74.02 74.22 74.30 73.83 74.75 74.21 74.40 73.52 72.93
45.80 48.35 49.84 48.01 47.10 45.71 46.07 44.65 44.53 44.26 47.55 49.11 47.37 45.38 48.03 51.11 53.07 54.06 54.57 55.19 54.92 56.16 57.22 59.35 60.42 62.96 64.35 64.23 64.71 65.86 67.96 70.10 72.02 71.98 68.55 72.73 74.44 74.44 73.27 73.23 73.16 73.38 74.12 73.14
47.67 49.84 47.97 46.75 45.38 46.28 42.79 47.50 46.84 46.13 44.84 40.52 47.98 39.24 46.84 49.91 50.92 52.58 53.67 54.94 54.45 55.80 56.67 57.72 58.95 60.32 61.68 62.62 64.43 66.88 68.23 69.20 67.34 69.65 69.28 67.56 69.49 70.49 71.88 72.34 73.36 73.65 73.54 73.68
45.85 47.09 46.55 45.36 46.10 48.20 45.36 48.99 47.41 46.57 44.85 44.25 44.33 41.63 45.51 50.07 48.91 50.82 51.86 52.92 53.87 54.84 56.31 56.82 57.94 59.56 60.83 63.11 64.67 66.88 67.16 66.34 66.72 67.22 68.77 67.11 66.37 69.20 71.79 72.86 72.15 72.47 73.18 73.13
47.03 50.85 49.35 48.22 49.21 49.21 49.60 47.32 47.18 46.74 44.71 38.29 43.28 43.17 43.57 46.62 47.73 49.55 51.30 52.38 53.39 54.13 55.35 56.39 58.33 60.17 60.69 61.28 60.87 63.55 65.40 66.60 66.47 65.37 65.71 66.26 67.66 67.33 69.64 70.44 71.02 71.37 71.89 72.87
45.26 45.91 48.91 50.05 46.46 48.90 48.19 45.16 38.38 37.66 37.99 37.08 45.91 43.08 45.20 48.91 49.55 50.07 50.24 51.18 52.99 54.41 55.08 55.77 55.99 56.77 58.50 59.29 61.25 60.72 61.47 63.39 66.17 65.61 64.27 64.62 65.49 67.81 69.36 69.71 70.25 70.35 70.39 71.40
41.15 39.71 46.71 50.03 47.54 45.27 46.25 45.47 39.12 32.66 34.92 38.33 44.92 38.98 44.38 49.20 50.73 51.90 51.82 52.64 53.34 53.69 53.64 54.93 55.91 57.16 56.31 58.20 59.99 60.01 60.73 61.24 62.61 62.92 63.55 64.34 65.09 66.97 68.47 70.29 70.02 69.87 70.15 70.61
41.48 41.04 48.24 49.05 49.90 47.59 44.18 41.05 46.75 40.96 42.08 38.01 40.79 43.90 47.79 49.42 49.55 50.76 50.94 51.58 51.55 52.58 53.11 53.88 54.99 56.88 57.17 58.19 59.67 60.32 59.73 60.86 61.42 62.58 62.40 63.88 64.40 65.23 67.66 69.40 70.44 70.00 70.62 69.58
45.61 39.44 47.02 48.88 49.59 48.78 45.93 47.59 39.93 40.90 31.90 30.79 37.62 39.47 40.55 45.44 46.66 48.23 48.59 49.20 51.06 52.32 52.97 54.46 55.31 56.93 58.20 59.01 58.70 60.77 60.94 60.90 61.23 61.82 61.69 61.69 63.32 65.25 66.75 68.43 69.10 69.43 70.11 66.40
47.56 43.66 43.29 47.02 44.27 42.04 42.98 41.57 42.86 42.65 40.92 32.92 31.16 36.86 47.01 46.34 47.19 47.12 48.14 49.51 50.49 51.51 52.25 53.43 54.46 55.71 56.80 57.35 57.52 58.51 59.70 59.27 58.68 59.21 60.63 61.23 61.85 62.95 63.47 65.66 67.63 68.25 60.50 57.14
47.53 43.58 38.90 42.24 48.22 48.47 46.12 42.96 43.74 37.17 35.87 39.07 37.55 37.11 49.48 48.95 48.48 48.92 48.85 49.90 50.79 52.48 52.94 53.12 54.13 55.30 55.49 55.63 56.06 56.53 58.36 57.65 57.40 58.07 57.99 60.31 60.82 61.14 62.14 62.95 64.99 60.62 58.91 57.10
47.16 42.26 36.46 38.88 43.76 46.59 43.46 43.87 43.95 43.51 43.31 37.20 34.59 36.76 48.10 48.85 49.45 49.66 49.40 49.71 50.52 52.46 52.50 53.27 54.10 54.31 54.84 54.90 55.03 55.04 55.70 55.53 56.33 56.68 56.33 57.37 60.36 60.11 60.03 62.02 63.59 59.53 60.43 56.55
47.32 43.43 39.84 35.71 38.87 42.87 40.91 43.20 43.88 42.19 37.49 37.61 38.18 40.41 45.03 47.89 47.70 48.27 49.78 50.94 51.30 52.13 52.51 52.71 53.01 53.04 53.73 54.37 54.59 54.64 54.54 55.35 55.45 56.09 56.00 55.86 57.38 59.46 59.71 60.25 58.94 59.96 60.58 62.30
46.17 39.15 41.37 41.90 43.64 42.95 41.87 41.98 42.88 41.15 41.46 37.89 40.17 40.96 44.10 46.30 47.46 49.23 50.64 50.41 49.96 49.71 50.31 51.03 51.36 51.76 51.97 51.81 51.82 51.79 51.84 52.06 52.78 52.92 52.99 53.35 55.09 57.09 58.15 58.64 60.17 57.61 60.55 62.15
46.64 38.78 41.28 38.92 42.42 42.80 40.63 42.97 43.27 42.75 42.46 41.70 41.86 41.36 47.07 48.72 49.55 48.92 49.06 48.67 48.05 48.86 49.07 49.35 49.88 49.77 49.30 49.31 48.63 48.51 48.07 48.13 49.83 49.36 49.52 51.75 52.96 53.43 54.57 57.30 57.72 59.82 57.89 61.02
41.96 41.03 38.52 34.86 40.92 40.59 36.02 41.11 42.12 42.83 43.92 42.67 39.05 43.63 47.56 47.32 47.62 47.62 48.28 48.68 47.69 47.55 47.89 48.03 48.11 47.88 47.69 47.56 47.78 46.45 46.86 47.28 47.07 46.29 47.12 49.10 50.53 51.80 51.99 54.51 56.76 57.61 58.59 59.61
41.65 39.95 39.06 34.82 37.81 29.69 41.34 45.92 45.84 44.26 44.98 45.77 45.41 46.73 47.25 46.90 47.63 48.11 48.75 47.92 47.17 47.25 47.40 47.05 46.86 46.53 45.58 45.51 45.27 45.94 45.99 45.21 45.79 45.01 46.33 46.73 47.59 49.87 50.57 50.74 53.91 56.80 58.34 59.09
44.20 40.22 36.50 33.29 33.50 38.17 40.67 43.96 43.34 42.06 42.42 47.27 45.70 46.41 46.62 47.10 47.01 46.71 49.36 48.40 47.49 47.67 47.51 46.81 46.16 44.66 44.23 44.00 44.36 44.07 44.06 43.59 43.20 43.87 45.02 45.43 47.14 46.32 47.18 49.18 50.62 55.25 56.42 58.19
43.28 42.11 37.52 34.85 31.38 28.37 40.61 45.81 48.21 46.92 37.24 47.18 46.47 45.51 45.25 45.65 39.56 43.03 47.49 47.93 48.12 47.89 46.29 44.27 43.18 42.69 42.35 42.11 42.45 42.09 41.78 41.91 40.94 42.61 44.32 45.89 46.64 45.84 46.63 48.58 50.02 51.62 55.54 55.75
37.48 37.90 35.21 34.26 31.69 36.60 45.09 46.63 48.31 36.11 38.38 47.07 46.81 46.25 45.42 42.81 44.24 46.77 48.52 48.06 47.09 46.00 43.87 43.03 42.01 40.25 40.11 40.77 40.62 39.25 39.74 39.51 41.14 41.87 42.31 43.19 44.37 45.84 45.78 45.73 47.23 49.56 52.19 55.11
38.24 36.27 36.18 36.79 33.12 30.52 47.63 46.77 40.50 45.46 48.30 47.61 47.17 46.62 45.21 45.75 46.11 46.95 47.04 46.29 45.25 42.96 42.06 41.46 39.64 38.69 39.37 40.18 39.96 39.29 39.14 40.95 41.75 41.74 41.74 41.70 41.99 43.25 45.90 46.50 46.42 46.49 48.71 52.05
37.08 41.19 38.35 39.03 39.34 47.46 49.18 48.37 50.13 49.62 47.89 47.44 46.80 46.98 46.32 45.20 45.41 45.89 45.09 45.07 42.54 41.64 40.38 39.93 38.13 37.85 39.16 39.75 39.94 38.62 39.88 41.60 42.06 41.87 41.65 41.35 41.73 42.29 42.77 43.21 45.39 44.53 45.46 47.77
43.83 46.35 41.39 41.03 43.97 44.86 48.22 49.46 49.49 49.27 48.24 48.48 47.77 47.34 46.46 45.10 45.37 44.04 44.01 42.97 40.84 40.09 38.90 38.51 37.43 37.01 36.69 38.37 39.15 40.34 42.05 43.52 43.41 43.26 42.49 42.27 41.60 41.21 41.79 42.79 44.87 44.47 44.31 46.60
43.31 44.60 42.64 42.37 45.33 46.84 46.99 48.21 48.97 48.66 48.78 47.29 47.93 47.03 45.83 46.04 44.54 43.69 42.79 40.71 39.70 38.72 38.14 37.29 36.62 36.18 36.27 37.95 38.89 41.78 43.93 44.29 43.94 43.56 42.76 42.44 41.82 41.68 40.86 41.90 42.89 44.20 45.60 46.96
44.87 42.76 40.64 40.14 46.14 45.16 45.74 47.83 49.16 47.54 46.31 46.97 46.14 45.33 46.71 45.97 43.70 42.93 41.69 40.03 38.64 37.51 36.49 35.84 35.69 36.04 36.69 38.14 39.18 41.15 43.97 45.46 44.79 44.02 42.75 41.24 41.09 41.05 41.29 40.85 41.95 41.20 42.59 41.54

GFSCGP_sfc_wetblb_093.txt.gz
Wetbulb
46.25 39.41 37.34 41.30 43.76 44.33 43.37 41.57 40.67 43.70 46.24 44.38 42.76 42.47 44.67 46.89 47.26 47.00 47.55 48.29 49.39 50.52 52.37 53.37 56.01 56.28 55.96 57.67 56.57 57.46 58.42 59.59 61.80 63.11 66.14 70.70 69.85 71.38 71.24 72.01 71.73 70.21 71.26 70.63
42.80 38.71 44.89 47.58 47.16 45.77 43.86 41.25 40.04 44.08 46.59 43.42 42.74 42.44 45.51 46.46 46.91 47.40 47.99 48.59 49.50 49.48 51.17 53.49 54.73 57.08 57.59 57.36 58.53 60.91 61.17 63.10 64.76 64.87 65.45 68.29 70.20 71.74 72.65 72.44 72.10 71.97 70.81 71.78
41.25 44.94 48.56 46.75 44.66 44.31 41.88 40.39 41.24 40.92 44.51 44.88 42.79 40.20 43.10 47.28 48.37 49.56 49.73 50.18 50.05 49.97 51.07 53.42 55.14 55.15 55.50 55.87 56.91 58.85 60.53 61.24 60.96 61.68 64.18 61.17 65.66 69.31 69.28 70.08 70.81 71.76 71.86 71.85
44.09 47.81 47.23 44.48 44.01 44.09 38.97 45.19 44.63 43.38 40.89 34.43 43.46 31.43 40.68 44.85 46.33 48.32 48.64 48.54 49.28 50.70 51.95 52.53 52.69 53.14 53.87 55.45 57.27 59.35 58.84 58.61 59.36 60.81 60.15 59.35 59.83 60.96 64.00 68.27 70.26 71.16 71.99 71.63
42.63 44.73 44.76 43.12 43.95 45.52 41.97 47.24 45.12 44.10 39.16 37.61 39.48 33.97 38.54 44.07 44.32 45.91 47.09 48.94 48.72 49.67 50.63 51.26 52.06 53.68 54.60 55.32 54.63 57.35 58.29 56.99 59.73 58.28 58.99 59.31 58.87 60.51 62.57 64.89 67.68 68.99 70.36 71.41
44.37 48.77 47.27 46.19 47.82 47.33 48.30 44.57 43.20 41.32 37.64 30.19 38.39 36.64 37.40 41.90 44.39 45.42 47.08 48.71 49.76 50.41 50.90 51.51 52.39 53.42 53.20 54.15 54.77 54.40 54.51 56.25 58.28 58.71 58.31 58.13 57.83 58.69 59.98 61.69 63.20 66.77 69.09 70.01
42.62 43.63 47.15 48.85 45.21 46.49 44.44 37.74 29.74 28.22 28.69 29.78 41.27 38.46 39.32 46.40 46.91 47.18 46.28 47.89 49.15 49.58 49.20 49.50 48.04 50.12 51.09 52.61 53.22 54.13 53.79 54.76 56.59 58.08 58.26 58.43 58.38 59.08 59.38 60.45 62.33 64.48 67.21 68.30
37.22 36.34 45.31 48.91 46.54 42.65 42.90 40.83 34.33 26.54 26.96 31.81 41.99 35.47 41.92 46.83 47.98 48.38 49.20 48.42 49.02 47.55 47.52 48.04 48.20 49.89 50.41 50.16 51.66 52.97 52.53 53.33 55.02 55.27 56.43 56.61 57.03 59.22 60.38 61.29 62.36 63.76 65.58 68.26
37.59 38.67 48.79 48.63 48.92 45.91 42.09 37.94 42.82 34.78 36.59 30.85 34.98 39.81 45.42 47.92 46.87 47.75 47.34 47.86 46.99 47.86 48.03 48.38 48.30 48.62 50.72 50.71 52.09 53.04 52.96 52.73 54.35 54.76 55.96 54.99 56.47 57.04 58.42 60.34 61.88 63.14 64.88 67.21
41.44 35.25 45.14 47.58 49.14 48.08 43.41 45.51 36.04 35.50 27.67 25.10 33.93 36.50 38.09 41.68 42.69 44.64 43.34 42.82 43.99 45.91 46.74 47.05 49.18 50.01 51.14 51.58 51.55 51.46 52.47 53.42 54.34 54.01 55.07 55.45 56.08 57.14 57.30 58.68 59.89 61.24 63.32 62.84
41.77 38.64 39.73 44.44 41.94 39.93 41.67 38.23 39.42 39.23 37.11 26.03 25.36 33.30 44.32 41.59 42.36 42.10 42.65 44.41 44.48 44.72 46.18 47.57 48.48 49.19 49.81 50.33 50.46 50.77 51.39 52.73 52.33 52.27 52.16 52.94 54.34 55.73 56.82 56.25 58.42 60.73 60.76 57.16
43.91 39.06 34.21 38.53 45.42 48.06 45.35 39.86 40.05 32.80 31.96 33.91 31.81 32.93 46.63 45.49 43.73 43.88 43.36 44.81 44.36 44.21 47.04 46.91 47.53 48.13 48.56 49.15 50.53 49.91 49.87 50.42 50.53 50.82 51.65 51.49 52.23 54.14 54.79 55.38 56.31 58.71 57.50 57.14
43.38 36.62 30.32 33.90 39.02 43.78 42.06 42.76 41.84 39.51 38.64 33.48 29.43 32.90 47.08 46.58 45.08 45.01 43.33 45.57 46.24 46.38 46.76 46.58 47.02 47.30 48.58 48.63 49.39 49.28 49.00 49.02 49.48 49.26 49.12 49.72 50.45 51.12 53.01 54.67 55.52 56.75 57.90 56.42
46.51 38.72 35.13 30.66 37.76 40.62 38.48 41.19 43.12 38.76 29.51 33.32 34.26 36.51 41.55 43.82 44.23 45.42 44.21 44.61 44.40 44.67 46.12 46.30 45.38 44.98 46.00 47.67 48.08 48.26 47.98 48.18 47.98 47.77 47.22 46.93 47.79 49.22 50.08 51.08 52.93 56.17 57.42 56.59
40.39 34.07 37.04 38.33 41.05 41.80 40.63 40.64 40.65 39.51 39.27 33.75 36.74 38.53 41.57 42.58 43.06 42.88 43.59 44.81 45.03 44.87 45.50 45.71 45.25 44.83 45.61 46.31 46.81 47.30 46.84 46.59 47.04 46.66 45.91 45.71 47.06 48.09 48.54 49.15 50.47 51.96 55.77 58.01
42.04 33.12 36.35 35.63 40.52 40.29 38.60 41.47 41.52 41.96 41.84 41.23 40.99 39.49 42.65 44.09 44.24 43.69 43.50 44.63 43.70 44.43 45.17 45.40 45.69 45.36 45.27 45.50 45.79 45.93 45.31 45.02 45.56 45.06 44.62 45.32 45.62 45.93 46.42 47.57 48.46 49.15 49.99 54.88
38.93 37.04 34.17 30.01 38.90 38.13 33.57 38.93 40.90 41.55 43.43 41.93 36.24 40.13 41.96 41.53 42.54 41.65 41.88 42.74 42.60 43.21 43.95 44.12 44.06 43.94 43.66 43.30 43.91 43.44 43.97 45.16 44.61 44.59 44.76 44.69 45.01 44.99 45.53 47.18 46.84 47.83 47.69 49.92
39.28 38.20 36.53 31.00 35.24 26.22 38.52 44.98 45.33 42.90 43.69 44.18 43.72 42.38 42.50 41.52 42.40 42.75 42.83 40.71 42.05 43.25 43.68 42.66 41.93 42.25 42.83 43.33 43.06 42.81 43.43 42.41 42.60 43.15 44.25 44.01 42.77 43.39 45.24 45.42 44.59 46.58 46.86 47.80
40.41 39.02 34.53 32.19 30.04 35.32 39.09 43.38 42.95 41.00 40.08 43.26 41.53 42.51 42.98 42.88 42.06 39.50 44.75 44.83 43.19 42.58 41.92 41.18 42.59 43.19 41.98 42.38 42.08 41.08 40.95 40.72 40.71 40.89 41.65 42.83 42.81 43.01 44.05 43.86 44.66 44.07 44.62 46.81
41.88 41.34 35.96 33.84 28.25 27.20 39.26 44.53 46.91 45.63 35.51 44.10 43.23 41.84 40.92 40.52 34.56 37.26 43.03 43.68 43.84 41.74 41.42 42.05 42.01 42.14 41.51 40.83 40.61 39.49 39.35 39.70 39.56 40.48 41.19 42.20 42.33 41.92 41.76 42.64 43.40 44.06 45.63 47.24
35.80 36.30 32.68 31.15 27.71 33.25 43.42 46.03 46.43 34.10 35.40 43.59 43.10 41.53 40.15 37.10 38.36 40.89 43.17 43.25 43.32 42.05 41.75 42.04 41.45 40.46 39.75 39.99 39.83 38.78 39.14 38.96 40.55 41.51 42.02 42.30 42.60 42.31 42.29 42.32 43.76 44.97 44.87 46.82
34.23 33.25 32.62 33.50 30.40 25.63 46.61 46.12 39.09 41.15 42.71 43.64 43.01 41.27 39.75 40.34 41.17 41.87 42.56 42.28 41.36 40.59 40.73 40.79 39.83 38.89 39.06 39.64 39.20 37.88 37.95 39.86 41.06 41.48 41.86 42.21 42.82 43.18 43.47 42.05 42.34 43.31 44.00 44.71
35.04 37.52 34.30 36.37 35.16 44.01 47.15 46.03 47.79 45.39 43.33 43.11 41.11 41.79 41.22 40.09 40.63 41.95 41.20 40.42 40.56 40.19 39.93 40.10 38.54 37.18 38.06 38.39 38.46 37.33 38.33 40.15 40.94 41.49 42.19 42.99 43.52 43.50 43.17 41.41 41.41 42.20 44.43 44.49
42.42 44.56 36.48 39.99 43.18 44.73 46.39 47.03 47.75 45.33 44.05 43.07 43.06 41.89 41.46 40.36 41.14 39.54 40.17 39.81 38.77 39.41 38.61 37.58 36.45 35.77 35.50 37.22 38.00 38.44 39.89 40.79 40.64 41.97 43.04 44.40 44.49 43.40 42.94 42.44 42.04 41.25 42.79 44.56
41.88 42.86 40.52 39.48 42.91 45.13 46.50 46.67 46.24 46.40 44.54 43.89 43.26 42.20 42.08 40.80 39.31 39.37 38.57 38.00 38.42 37.81 36.76 36.35 35.43 35.24 35.19 36.80 37.26 38.74 39.23 39.80 41.19 43.44 44.41 44.44 42.70 41.78 42.06 42.30 41.86 41.98 43.57 44.60
42.54 39.91 35.54 35.67 42.59 42.13 43.64 45.02 48.20 43.49 43.11 42.87 41.84 42.02 41.89 40.13 39.75 38.97 37.98 37.92 37.33 36.10 36.00 35.36 35.03 35.35 35.54 36.11 36.26 37.19 38.78 40.25 40.45 42.07 44.69 42.01 41.47 41.35 41.79 41.58 41.24 40.32 41.01 41.00

GFSCGP_sfc_wetblb_096.txt.gz
Wetbulb
44.03 38.29 35.75 39.40 41.28 42.15 40.90 39.58 38.25 40.74 44.64 42.67 41.98 42.32 43.62 44.60 45.28 44.41 45.21 46.12 47.26 49.07 51.01 53.04 55.44 56.09 57.52 58.34 58.82 58.85 59.86 59.49 60.40 61.61 61.82 65.58 68.27 69.55 70.26 69.91 70.79 70.25 69.66 69.98
40.72 36.58 42.43 44.91 44.59 43.37 42.30 39.12 38.44 41.81 44.76 41.41 40.41 40.32 43.16 44.69 44.88 45.46 46.38 46.49 47.25 47.39 51.23 54.00 54.42 54.87 54.78 55.38 56.30 57.49 58.27 58.80 60.18 61.64 62.42 64.44 63.43 66.29 69.39 70.80 70.87 70.27 70.03 69.76
38.57 42.71 46.60 44.76 42.88 42.16 41.07 39.02 39.27 39.68 42.87 42.76 40.74 38.45 41.28 45.28 46.53 47.42 47.24 47.39 47.79 50.17 50.56 51.56 52.92 52.93 53.29 54.76 56.62 57.00 56.25 56.53 57.48 59.54 59.08 58.70 59.06 59.82 61.40 63.89 66.99 69.12 70.10 70.25
41.51 46.29 45.59 44.00 42.99 42.52 36.99 43.26 43.89 42.70 38.48 33.35 41.18 30.81 37.96 42.37 43.75 45.93 46.08 47.03 48.39 49.25 49.72 50.65 50.62 51.52 53.64 53.96 56.71 56.18 55.99 56.08 58.48 58.00 56.64 56.83 56.85 56.01 58.06 59.34 62.87 64.95 67.32 68.51
40.78 42.88 42.54 41.63 42.55 44.32 40.14 45.77 43.57 42.39 37.02 34.63 36.63 32.62 36.69 40.85 41.06 43.10 44.55 46.28 46.93 48.03 49.00 49.35 50.64 51.76 52.37 52.65 55.18 55.67 54.20 56.11 57.56 56.05 56.77 56.37 55.86 56.99 58.01 59.06 58.97 59.19 61.89 66.62
42.31 46.56 45.55 44.26 46.44 45.21 46.69 42.48 39.96 38.21 34.75 28.68 35.05 34.21 34.01 37.97 41.39 42.90 44.81 46.43 48.06 47.81 48.88 49.72 50.70 51.14 51.51 52.11 52.07 52.07 52.62 53.62 55.44 57.00 55.75 55.31 54.96 54.90 55.15 56.11 56.63 58.23 60.45 62.37
40.86 41.37 45.02 47.89 43.57 45.21 42.19 35.54 27.95 27.27 27.47 28.01 38.93 35.47 36.23 42.30 44.48 45.11 44.67 46.49 47.70 48.16 48.07 48.57 48.26 48.75 48.55 49.94 51.26 52.03 51.68 51.25 52.35 54.00 55.23 54.71 54.99 54.62 54.94 56.21 56.64 57.75 59.66 61.23
34.50 34.53 44.20 47.87 44.86 41.10 39.84 37.23 29.68 25.42 26.19 29.75 38.17 33.40 39.35 44.87 46.30 47.56 48.83 47.84 47.47 46.64 46.57 48.06 49.04 48.87 48.60 49.83 49.77 50.41 51.37 50.50 51.31 52.87 53.73 53.69 54.98 54.09 55.76 56.59 58.00 57.96 59.41 60.09
37.35 38.74 46.83 47.51 47.58 44.91 40.36 35.28 40.26 33.89 34.86 29.72 33.00 38.10 43.28 45.98 46.40 47.09 46.14 46.54 45.85 46.03 45.87 46.18 47.40 46.89 46.37 48.58 49.26 50.52 50.32 50.36 50.69 51.14 52.42 53.47 53.20 52.64 54.24 56.02 57.15 57.98 58.21 60.52
40.48 34.41 44.32 46.61 47.82 46.30 42.73 44.73 34.25 33.64 27.26 24.72 32.90 36.08 36.86 40.10 42.49 44.61 44.04 43.88 44.40 45.87 45.81 45.11 46.37 46.88 47.51 47.46 47.99 48.73 49.08 48.72 48.96 49.07 49.41 50.47 50.60 52.46 54.51 55.07 55.58 55.72 56.99 58.69
41.26 37.50 38.38 42.48 40.14 38.42 39.56 37.97 38.33 36.84 35.53 25.78 24.23 31.74 42.16 41.67 40.91 41.55 42.60 43.75 42.22 41.61 43.15 44.48 45.16 45.52 46.13 46.71 46.84 46.75 47.37 47.44 47.35 47.71 47.99 48.06 48.61 49.58 50.86 53.31 54.42 55.13 56.53 57.49
42.48 37.36 33.53 36.90 42.90 45.19 41.79 38.91 36.88 31.18 30.15 32.62 30.04 30.69 45.43 44.83 44.35 42.51 41.58 43.50 42.92 43.44 43.22 43.38 43.79 44.86 45.16 45.62 46.02 46.04 46.49 46.18 46.39 46.67 46.85 46.78 47.03 47.61 48.08 49.03 50.20 52.41 53.75 56.70
41.78 35.06 29.82 32.41 36.59 41.29 38.95 41.22 39.33 37.36 34.24 31.30 29.42 30.33 45.96 46.38 45.09 44.53 41.39 41.51 42.85 43.20 43.09 43.28 43.31 43.89 44.84 45.36 46.22 46.02 46.00 45.31 45.75 46.26 46.12 46.00 46.20 46.29 46.22 47.03 48.37 49.34 50.77 52.96
45.24 36.60 33.18 28.62 34.37 38.36 37.19 40.45 41.20 37.39 29.61 30.96 32.24 34.53 40.69 42.82 42.30 41.50 41.16 41.54 41.23 42.04 43.66 43.28 41.98 41.76 43.02 45.12 45.42 45.11 45.56 46.54 46.42 46.37 45.74 44.90 45.06 45.63 45.86 46.29 47.38 48.41 49.44 49.93
38.97 33.10 35.41 37.52 39.07 39.80 39.63 40.04 40.35 39.05 38.51 31.56 33.86 33.83 38.68 40.29 39.96 40.21 40.74 42.31 42.89 41.98 42.17 42.57 42.35 41.73 42.19 42.77 43.74 44.85 44.63 44.91 44.95 44.25 43.97 43.99 44.63 45.26 45.39 45.27 45.68 46.42 47.41 48.84
39.71 31.89 34.60 34.08 38.83 38.47 36.79 39.65 40.30 41.23 41.02 40.48 40.45 38.22 40.52 40.80 39.86 40.88 41.69 42.18 41.31 41.87 42.75 42.83 43.26 42.82 42.40 42.65 43.03 43.43 43.22 42.81 42.83 42.35 43.11 43.03 43.75 44.26 44.43 44.94 44.95 45.43 46.76 48.00
35.64 35.10 34.70 29.43 37.20 37.21 31.52 37.09 38.73 39.75 42.70 42.30 37.16 38.22 38.77 38.26 39.89 39.60 39.20 40.34 40.62 41.16 41.73 42.09 41.67 41.64 41.65 41.92 42.48 41.04 41.75 42.06 41.34 41.78 42.00 42.62 43.35 44.22 44.43 43.11 42.78 43.35 45.09 45.62
35.72 35.31 37.19 33.12 33.94 25.82 34.93 42.16 43.14 40.68 41.43 42.46 40.17 39.69 39.72 38.89 39.82 40.48 39.76 38.61 39.61 40.66 40.51 40.49 40.08 41.05 41.46 41.52 41.42 41.49 41.19 40.63 40.84 40.76 41.24 42.04 41.83 42.16 43.22 42.82 42.26 42.70 43.23 43.39
40.76 38.43 34.72 31.16 27.14 32.59 36.72 41.37 41.00 38.87 38.57 41.64 40.24 40.13 41.32 41.15 40.25 38.53 42.61 41.59 40.27 39.51 39.78 39.71 40.68 40.84 40.53 40.75 40.91 40.67 40.02 40.20 40.23 40.28 40.81 41.84 42.22 41.79 41.76 41.83 41.49 42.08 43.07 43.55
40.58 40.47 34.61 33.21 26.97 23.86 36.13 43.70 45.60 44.77 35.74 42.80 41.45 40.10 39.63 38.52 32.49 35.15 39.16 40.55 40.13 39.84 39.75 40.42 40.44 40.92 40.25 40.30 40.72 39.57 38.98 39.43 39.17 39.88 40.71 41.69 41.64 41.88 41.78 42.14 42.01 42.41 42.30 42.71
34.64 35.85 32.77 32.43 29.62 31.13 41.06 44.11 45.65 32.92 34.66 41.86 42.09 40.17 38.40 36.45 37.66 39.36 40.40 40.16 39.63 40.21 40.64 40.92 40.24 38.78 39.24 39.92 39.38 38.36 38.23 37.82 39.48 40.61 41.05 41.53 42.08 42.29 42.93 43.00 43.10 42.58 42.15 42.44
31.92 31.66 31.93 33.33 30.63 27.41 44.69 45.06 38.80 40.64 42.40 41.73 41.54 40.40 38.88 38.52 39.54 39.69 38.94 38.53 39.56 39.28 39.62 39.38 37.85 37.44 38.16 38.67 38.12 36.99 36.95 39.00 39.92 40.30 40.51 41.21 42.28 43.36 44.47 43.90 43.74 42.94 42.06 41.53
35.40 35.59 33.13 34.40 31.27 40.95 45.29 44.34 45.27 44.76 42.53 40.34 40.07 40.33 39.95 39.24 37.64 37.51 37.56 37.97 38.21 38.49 38.32 37.83 36.80 36.33 37.15 37.49 37.61 36.38 37.84 38.91 39.76 39.52 39.52 40.92 43.27 44.69 45.06 43.16 43.13 41.87 41.48 41.12
42.22 44.91 36.90 37.81 41.27 44.07 44.97 46.91 46.92 47.36 43.42 41.82 40.86 40.43 39.64 36.96 37.38 36.29 36.93 37.15 36.70 37.39 36.56 37.23 36.32 35.44 35.27 36.88 37.24 37.34 37.93 38.62 38.53 38.57 40.25 41.78 43.21 43.11 42.34 42.67 43.36 42.09 41.39 41.24
39.63 42.86 40.49 38.39 41.66 44.67 45.43 46.32 46.97 46.11 43.00 41.50 41.60 39.65 38.26 37.96 36.72 36.53 36.76 36.85 37.10 37.01 37.02 36.87 36.10 35.56 35.30 36.11 35.98 36.70 37.48 38.07 37.59 38.26 39.33 41.10 43.47 42.21 41.57 42.48 42.94 42.43 42.97 42.23
39.90 37.84 34.53 32.90 41.90 41.47 42.97 44.74 47.43 42.23 40.54 41.44 39.96 38.19 39.12 38.09 36.90 37.25 36.96 37.93 37.84 37.05 37.14 35.83 35.59 34.84 35.07 35.26 35.02 35.95 37.34 37.30 37.15 37.20 39.14 41.37 42.57 42.23 41.80 41.35 41.35 40.55 40.07 40.17

GFSCGP_sfc_wetblb_099.txt.gz
Wetbulb
42.78 37.27 34.77 38.24 39.73 40.31 39.07 37.23 36.74 39.68 42.58 40.35 39.63 39.99 43.06 43.32 43.60 44.25 45.11 45.86 46.94 48.28 52.95 53.35 52.05 55.02 56.32 56.75 55.53 56.58 58.53 59.53 60.68 61.37 60.90 61.68 62.17 65.06 66.69 68.97 70.51 69.93 69.16 69.66
38.95 35.38 41.15 42.63 42.58 41.38 40.13 37.47 37.01 40.37 42.64 40.08 39.46 38.91 41.11 43.07 43.62 44.36 45.44 45.92 46.59 50.14 51.45 52.86 53.44 54.87 56.40 56.22 57.52 58.96 60.23 59.73 59.94 59.77 60.98 61.31 59.86 61.99 64.40 65.43 64.71 68.23 69.23 69.03
36.83 40.74 45.07 43.38 41.29 40.14 38.69 36.66 37.38 38.65 41.26 41.12 38.64 36.96 39.22 42.90 44.64 45.47 45.38 45.95 46.67 49.77 49.74 50.90 51.92 52.59 54.02 54.86 55.05 55.26 54.89 55.51 56.39 56.85 55.95 55.51 56.38 56.65 56.32 58.16 61.31 62.65 65.19 66.75
39.50 43.87 43.28 41.95 40.93 41.08 35.65 41.75 41.93 41.25 37.09 32.33 38.91 29.74 36.92 40.35 41.30 43.97 44.95 45.16 47.72 48.96 49.63 50.04 50.70 51.53 53.48 54.74 54.78 54.26 54.79 55.96 56.64 55.81 55.15 54.52 53.86 53.14 54.92 56.59 58.85 59.62 61.26 62.78
39.18 41.49 40.58 39.45 41.09 42.94 39.66 43.38 41.49 40.13 35.48 33.05 35.65 31.75 35.50 38.99 39.23 41.22 42.54 45.24 45.66 46.62 47.69 49.58 50.88 51.47 52.44 54.52 53.50 53.14 53.81 55.93 55.54 55.33 55.06 54.75 53.96 54.75 55.49 56.31 56.16 56.50 57.76 59.95
41.07 45.52 43.66 42.55 44.72 44.56 45.01 40.68 37.82 35.68 32.82 27.99 33.35 32.44 32.55 36.41 39.39 40.73 43.09 44.64 46.30 46.86 48.25 48.74 49.35 50.37 50.23 51.88 52.53 51.53 52.09 53.50 54.58 55.08 54.93 54.04 53.24 52.53 52.67 53.02 53.83 55.05 56.37 57.88
38.76 40.48 43.38 45.87 41.86 43.75 40.48 34.43 26.87 25.98 26.19 26.77 35.85 33.17 34.91 40.35 42.61 44.32 43.67 44.54 45.66 46.80 46.95 47.39 47.15 47.86 49.18 50.05 49.76 49.98 49.90 50.01 50.95 52.75 53.86 53.25 52.43 51.99 52.59 52.51 52.70 53.62 55.39 56.48
33.19 32.51 42.47 46.83 43.17 39.45 38.17 35.63 28.57 24.56 24.91 28.26 35.96 31.20 37.19 42.88 43.95 45.37 46.26 45.95 45.78 44.91 45.24 46.57 47.58 47.23 47.10 47.81 47.16 47.45 47.96 47.11 48.14 48.51 48.99 50.15 50.86 51.55 51.65 52.37 54.38 55.19 55.80 56.86
35.10 37.67 45.22 46.86 46.64 44.12 38.66 35.16 39.08 33.04 33.02 28.32 31.20 35.45 41.08 43.91 43.66 44.86 44.89 45.20 45.10 45.21 44.86 43.87 43.49 44.57 45.07 46.00 46.03 46.54 46.79 46.53 46.78 46.81 46.85 46.93 47.51 48.02 48.90 50.60 52.59 54.91 55.72 57.18
39.30 34.78 42.94 45.35 46.90 46.29 41.90 43.00 33.71 33.15 27.13 24.38 30.39 32.75 33.79 39.36 41.28 43.17 43.63 44.46 44.00 42.78 43.16 43.42 44.47 45.14 45.50 45.51 45.56 45.92 46.11 45.96 46.10 45.60 45.51 46.64 46.21 47.04 47.47 48.76 49.52 51.37 52.51 54.02
39.78 36.98 37.06 41.08 39.41 38.05 39.66 38.03 37.42 36.33 32.69 26.69 25.22 31.24 40.85 41.88 40.63 40.07 39.37 39.22 39.36 40.69 41.14 42.13 43.12 44.05 44.46 44.53 44.65 44.88 44.88 44.98 44.86 44.98 44.94 44.67 45.48 46.36 46.51 46.43 47.58 48.94 50.36 51.16
41.27 36.66 32.37 35.91 41.62 43.79 40.42 36.96 36.24 31.33 29.77 30.46 29.79 32.18 43.25 42.56 40.20 40.39 40.28 41.20 40.28 40.40 40.89 41.70 42.58 43.46 44.00 43.82 44.49 44.68 45.09 44.81 44.88 44.79 44.72 44.06 44.86 45.41 45.05 45.68 46.03 46.89 47.87 49.11
41.91 34.53 29.38 32.15 34.45 40.15 37.94 39.63 36.90 34.67 33.19 29.47 26.78 29.46 44.01 43.65 42.70 41.29 41.05 41.71 41.72 41.83 41.81 42.08 42.41 42.39 43.40 43.60 44.06 44.16 44.08 43.62 43.95 45.09 44.87 44.34 44.30 44.46 44.37 44.95 45.80 45.96 46.22 47.53
44.59 35.93 33.58 29.71 31.60 36.24 35.31 39.18 39.97 37.87 30.79 29.93 30.58 33.89 39.56 40.94 40.43 39.05 39.15 40.49 41.86 41.17 42.47 42.33 41.20 40.89 41.67 43.10 43.52 43.77 43.57 43.88 44.11 43.95 43.17 42.73 42.81 43.59 43.91 44.56 44.81 45.33 45.72 45.26
38.33 33.51 35.41 36.99 38.89 38.29 37.53 38.20 39.11 38.24 37.85 34.16 33.62 33.08 36.29 37.43 38.21 38.38 39.79 40.63 40.60 39.98 40.83 41.60 41.35 40.54 41.02 41.68 42.04 42.83 42.95 42.98 42.70 42.39 41.64 41.42 43.08 42.92 42.82 43.42 44.08 45.89 46.24 45.39
38.22 31.70 34.03 33.56 38.00 37.27 35.62 37.70 38.96 39.07 39.12 39.51 39.02 37.95 38.35 38.43 39.57 39.33 39.58 40.11 39.55 40.33 41.35 41.64 42.27 42.03 41.52 41.43 41.83 42.18 41.73 41.43 42.20 41.25 40.46 41.60 41.91 42.33 42.00 42.78 43.30 44.90 43.19 42.78
34.64 33.26 30.98 28.71 35.72 35.61 31.10 36.13 37.27 38.25 40.37 39.72 36.15 39.64 39.49 39.17 39.30 38.06 38.04 38.94 38.94 40.02 40.81 41.12 40.95 40.91 40.57 40.52 41.08 40.10 40.83 41.27 40.45 40.03 40.67 41.02 41.84 41.81 41.89 42.04 42.19 42.58 41.67 42.54
34.27 32.61 31.82 30.46 31.89 23.54 33.96 40.14 41.13 38.99 39.24 40.83 38.27 38.08 38.90 38.72 39.31 39.77 39.04 38.09 38.85 39.60 39.94 39.51 39.30 39.62 40.10 40.26 41.10 41.07 40.48 40.01 40.18 40.48 40.73 41.57 41.52 41.90 42.22 41.26 41.99 42.28 42.63 42.27
37.01 34.18 33.35 27.89 28.25 31.77 35.57 41.29 41.22 37.70 36.51 39.17 37.99 38.66 39.66 40.38 39.46 37.87 40.83 40.34 38.99 38.93 39.27 39.12 39.04 39.10 40.50 40.03 40.29 40.10 39.48 39.08 39.48 39.50 40.17 40.95 41.41 40.86 41.16 41.33 41.73 42.57 42.57 42.40
39.52 40.31 32.50 32.87 27.61 23.33 33.08 42.59 44.90 43.37 34.42 41.96 41.13 40.24 39.54 39.15 34.01 34.13 38.41 39.39 39.07 39.50 38.83 38.76 40.36 40.40 39.34 39.23 39.29 38.62 38.52 38.17 38.29 39.20 39.86 40.69 40.30 40.99 40.98 41.20 41.95 42.88 43.28 42.86
34.95 35.27 31.04 31.40 24.83 30.00 38.24 43.32 44.60 29.86 31.06 40.70 41.10 39.21 39.52 36.07 37.08 37.20 37.91 37.48 38.33 38.23 38.33 39.70 39.07 38.10 38.24 38.56 38.52 37.33 37.43 37.08 38.68 39.89 40.19 40.28 40.91 41.18 41.83 42.42 43.31 43.63 43.59 43.52
33.26 32.28 32.22 33.59 30.11 25.41 42.82 43.60 36.03 37.91 39.60 40.82 40.84 39.86 38.09 38.65 38.05 37.34 37.04 36.42 36.80 37.47 37.95 38.50 37.19 37.01 37.91 38.34 37.47 36.64 36.29 38.10 38.91 39.31 39.58 39.16 40.09 41.31 42.84 43.60 44.31 43.27 42.90 42.99
33.68 33.53 29.66 31.23 30.13 37.23 43.24 40.80 43.15 43.36 40.49 40.13 39.71 39.90 39.56 37.16 36.41 36.13 35.13 35.52 37.40 37.36 37.61 38.20 37.33 37.04 37.65 37.67 37.60 35.77 36.85 37.66 37.99 38.00 38.15 38.79 40.70 42.07 43.05 43.86 42.39 41.68 42.71 42.05
41.94 44.01 38.54 38.09 38.57 41.56 43.76 45.24 46.67 45.09 42.10 41.01 41.48 39.31 38.01 36.22 35.78 35.28 36.25 36.79 36.93 37.46 37.36 37.94 36.60 35.78 35.24 36.35 36.60 36.51 36.94 37.62 37.33 36.93 37.75 39.04 39.69 41.04 43.92 43.17 42.46 42.24 42.33 41.51
39.88 42.27 39.70 38.78 39.20 42.19 43.48 44.92 46.02 44.66 42.18 40.48 39.98 38.87 37.14 36.06 35.53 35.04 36.72 36.74 37.26 37.32 37.29 37.16 36.06 35.49 35.31 36.01 35.83 36.56 36.95 37.16 36.27 36.63 37.82 38.87 40.50 41.74 43.24 42.44 42.18 41.94 42.54 42.36
38.00 36.89 34.99 32.62 39.78 39.13 40.25 44.04 46.60 41.38 40.88 40.01 38.90 37.53 37.40 36.61 35.51 34.37 34.91 35.19 35.87 36.55 37.08 36.17 36.06 35.73 35.69 35.60 35.50 36.05 37.01 36.58 36.09 36.07 37.57 38.98 40.21 42.54 43.41 41.92 41.52 40.97 39.88 39.69

GFSCGP_sfc_wetblb_105.txt.gz
Wetbulb
43.06 40.07 39.09 42.56 43.92 44.48 43.00 42.04 41.52 44.73 46.88 43.79 43.53 43.86 46.10 48.90 50.32 50.83 52.22 52.54 55.05 57.71 61.17 62.57 58.62 60.94 63.62 66.56 69.04 70.35 69.53 70.07 69.40 69.43 70.23 71.32 71.65 73.10 74.19 74.60 74.44 74.22 74.01 74.13
40.59 38.16 42.98 45.15 44.60 42.81 42.57 41.17 41.65 44.85 45.77 44.27 44.11 43.58 46.94 47.83 49.07 51.93 51.04 53.02 54.69 57.13 58.49 57.68 57.32 60.46 62.80 64.40 65.69 66.29 66.81 68.30 69.96 68.98 68.41 68.41 67.31 67.34 69.32 69.87 71.51 72.35 71.83 71.80
40.74 42.86 45.91 43.45 43.30 41.58 42.44 41.43 42.01 41.88 45.03 45.46 43.40 42.65 44.57 47.48 48.16 49.48 50.72 53.49 54.27 55.80 55.22 56.06 57.07 59.36 60.08 62.50 63.81 64.71 65.03 66.27 67.27 66.10 64.26 64.15 64.48 64.74 64.71 64.48 65.22 67.52 68.05 68.30
43.02 46.16 43.57 43.19 42.31 43.95 40.56 45.22 44.28 43.49 42.09 39.64 44.07 38.54 43.67 45.52 46.53 47.65 50.20 51.39 52.48 53.59 55.73 56.04 57.44 58.71 59.83 61.15 62.13 62.67 63.79 64.69 64.54 65.28 65.60 66.58 63.14 61.32 62.37 64.02 65.08 65.73 66.20 66.20
41.75 43.05 42.75 42.11 43.46 45.38 43.29 45.94 45.02 44.47 42.71 41.56 41.70 40.28 43.35 45.45 44.75 47.75 50.14 51.34 53.20 55.11 55.61 55.89 57.70 58.55 60.30 59.65 60.59 62.02 62.58 61.16 61.55 62.20 62.91 62.51 62.95 61.99 61.73 62.41 63.32 64.48 64.25 64.12
44.39 47.31 45.98 45.51 46.47 45.91 46.44 44.33 43.40 42.93 42.32 36.94 40.27 40.41 41.53 44.33 45.83 48.37 49.92 50.86 52.31 54.39 56.35 57.84 58.98 59.22 58.78 58.07 58.74 58.45 59.26 58.61 59.13 60.17 60.69 60.83 60.69 60.13 59.91 60.47 59.66 60.15 60.43 61.39
42.71 43.64 46.75 47.27 44.31 45.87 45.19 43.01 37.11 35.47 35.62 35.37 40.62 39.74 43.20 45.76 47.92 48.82 50.68 51.14 53.30 55.47 56.33 56.77 57.06 57.25 57.94 56.25 56.16 55.47 56.46 55.46 56.43 57.03 56.73 56.75 56.89 56.88 56.75 56.84 56.54 56.76 56.93 58.04
37.39 35.44 43.44 46.96 44.78 43.14 42.88 43.59 37.99 30.72 32.45 36.11 40.62 37.95 43.03 47.86 49.32 50.14 51.51 52.71 53.96 54.21 54.62 55.09 55.12 55.46 55.07 54.54 55.37 55.54 54.79 53.73 54.64 54.58 54.54 55.17 55.25 54.40 54.39 55.06 54.69 54.51 54.90 55.70
38.07 38.13 46.36 47.61 47.75 46.92 42.19 40.00 43.77 38.90 37.85 37.36 39.91 41.99 47.04 47.82 47.68 49.32 50.14 51.70 51.96 52.29 52.34 52.13 52.32 53.45 53.38 53.39 53.20 53.23 53.35 53.46 53.56 53.40 53.86 54.08 54.08 53.95 53.74 54.37 54.65 53.93 54.92 54.88
43.44 37.99 44.97 46.62 48.46 47.10 45.38 46.14 39.95 41.19 32.46 30.97 36.53 38.02 41.07 45.07 46.09 48.41 49.07 49.84 50.26 50.09 50.77 51.33 51.91 52.07 52.27 52.34 52.60 53.14 53.00 52.06 52.11 52.29 52.82 52.55 52.96 53.15 53.01 52.97 52.58 52.87 53.41 53.76
46.02 42.11 41.15 44.44 43.73 42.99 42.81 42.33 41.74 42.74 40.48 34.81 33.06 37.47 46.44 47.30 48.52 48.60 49.33 49.81 50.04 50.36 50.67 50.85 51.04 51.34 51.42 51.70 51.90 51.96 51.70 51.43 51.26 51.44 51.88 51.77 51.75 51.92 51.93 51.53 51.77 51.99 52.13 52.07
44.28 42.50 38.41 39.95 44.16 45.84 45.23 42.98 43.59 38.99 36.81 39.23 39.16 38.53 46.65 47.81 49.15 49.64 48.43 48.05 48.74 49.58 49.50 49.82 50.19 50.16 50.51 50.53 50.82 50.99 50.74 50.30 50.21 50.66 50.74 50.64 50.67 50.58 50.29 50.43 50.84 51.24 50.84 51.43
45.95 40.62 35.03 37.47 41.44 44.10 42.75 42.92 42.13 42.41 41.75 38.27 35.78 37.88 45.98 46.55 46.41 47.24 46.31 46.62 47.26 47.79 48.03 48.54 49.10 49.43 49.52 49.65 49.80 49.62 49.44 49.27 49.86 49.66 49.51 49.54 49.42 49.45 49.37 49.48 49.94 50.48 49.96 49.91
48.13 41.04 38.83 34.13 36.56 42.06 40.16 42.10 42.25 42.49 37.57 38.36 38.50 40.76 43.51 45.30 46.26 46.26 46.10 46.72 46.84 47.18 47.27 47.90 48.60 48.64 48.67 48.80 48.47 48.20 48.40 49.02 48.62 48.39 48.34 48.06 48.28 48.54 48.45 48.73 48.96 49.07 49.36 48.97
45.61 39.43 41.09 40.51 41.90 41.44 41.17 41.16 41.31 40.36 41.52 37.56 39.92 40.21 44.65 46.44 46.98 46.95 46.70 47.18 46.74 46.80 46.73 47.35 47.36 47.85 48.07 47.61 47.33 47.60 47.81 47.80 48.10 47.10 46.25 46.79 47.53 47.99 48.08 48.03 47.93 48.65 48.94 48.90
42.63 38.49 40.01 37.56 39.92 40.14 38.60 40.64 41.25 41.48 41.94 41.55 41.62 41.20 47.15 46.03 47.10 45.20 45.68 45.88 45.75 45.45 45.62 46.23 46.56 46.48 45.96 45.89 46.04 46.42 46.74 46.72 46.72 45.57 44.70 45.18 45.48 46.04 45.87 46.18 46.99 47.97 48.37 48.91
41.11 39.81 37.67 33.85 37.40 37.71 34.78 39.42 40.66 41.49 42.85 42.73 38.95 43.70 45.78 43.37 44.97 45.35 45.19 45.64 44.82 44.94 45.21 45.44 45.02 44.86 45.08 45.16 45.70 45.16 45.10 45.45 44.86 44.69 45.08 45.25 44.73 44.48 44.75 45.42 46.64 47.15 47.43 46.93
40.07 39.98 38.84 34.23 35.73 26.42 37.50 42.96 42.62 41.09 42.42 44.15 44.30 45.70 46.99 47.10 45.92 45.56 45.60 45.38 44.60 44.16 44.56 44.31 44.31 44.26 44.82 44.81 44.15 43.50 43.41 42.10 41.86 42.88 44.13 43.24 43.31 43.43 44.48 45.24 45.38 45.11 45.88 46.78
42.27 40.08 34.73 32.16 31.35 34.76 37.98 41.83 41.29 40.66 40.58 43.86 43.42 43.89 44.54 45.14 45.56 43.48 44.74 44.53 43.72 43.43 43.48 43.16 43.54 43.20 42.62 41.90 41.92 40.56 40.41 40.58 40.42 41.80 42.37 41.42 42.62 42.40 43.95 42.84 43.27 45.24 46.61 47.34
41.49 41.47 36.90 34.25 28.35 26.95 37.88 42.61 46.39 45.83 38.14 43.53 44.56 43.87 43.87 45.08 41.38 43.06 43.95 42.91 42.48 42.48 42.94 42.85 42.39 41.95 41.40 41.39 41.20 40.12 39.71 39.44 40.07 40.00 40.16 40.96 41.92 41.82 41.87 42.68 44.55 46.29 46.68 45.79
35.75 36.69 32.67 31.92 31.21 35.10 41.22 43.64 46.66 35.61 38.34 45.14 45.85 45.43 44.91 43.78 41.72 43.30 42.90 42.02 42.52 42.81 42.78 42.95 41.91 40.71 41.11 41.49 40.71 38.70 38.23 38.39 39.30 39.54 39.71 40.66 41.82 41.59 42.16 44.67 45.94 45.36 44.76 44.31
34.59 33.16 33.05 33.70 31.64 28.49 45.00 45.29 39.88 44.20 45.84 46.28 45.51 43.22 40.91 41.64 42.34 41.86 41.67 41.70 41.75 41.66 41.79 41.94 40.49 40.62 41.62 40.46 38.72 37.46 37.28 38.40 38.71 39.07 38.94 39.76 41.09 42.22 44.10 43.86 43.76 43.82 43.51 43.11
35.62 39.45 37.07 38.04 37.79 42.73 46.87 46.53 48.04 47.46 45.81 44.86 44.72 44.63 44.15 42.52 41.12 40.88 40.60 40.45 40.82 40.69 41.32 42.06 40.57 39.84 39.87 38.91 38.46 36.93 37.42 38.11 38.15 37.99 38.36 39.19 41.04 42.61 43.75 43.37 42.24 42.09 43.29 43.98
41.87 43.30 41.09 40.31 42.13 44.02 46.44 47.68 48.16 47.77 45.32 45.98 46.03 42.86 42.92 41.11 40.55 39.44 39.22 39.09 39.43 39.91 40.11 41.00 39.21 37.85 37.25 38.46 37.65 37.48 37.70 38.12 37.62 36.86 37.47 38.78 39.87 41.35 43.94 43.68 42.51 42.65 43.53 43.78
40.86 42.20 40.39 40.29 43.40 44.71 47.05 47.21 46.20 45.11 44.60 41.28 41.93 42.81 41.57 41.16 39.51 38.79 38.43 38.97 39.54 40.06 40.55 40.92 39.21 37.77 36.80 37.12 36.75 37.53 37.76 37.57 36.38 36.67 36.86 38.10 39.51 40.88 42.32 42.58 42.42 42.96 45.44 46.18
41.78 41.64 40.35 39.41 44.86 45.45 45.50 48.10 46.03 44.84 42.90 42.46 41.94 40.69 41.07 40.48 39.37 38.70 37.94 38.93 39.34 39.25 39.94 39.61 38.76 37.67 36.79 36.38 36.39 36.78 37.09 37.25 36.33 35.59 35.90 36.88 38.10 38.94 39.55 40.60 41.59 42.58 41.61 40.77

GFSCGP_sfc_wetblb_108.txt.gz
Wetbulb
46.61 43.86 42.58 45.82 47.71 47.25 46.07 44.69 44.63 47.43 49.64 48.58 48.10 48.42 49.97 51.46 51.37 51.17 51.61 53.84 56.36 58.06 61.91 63.43 64.05 65.68 65.71 68.64 71.19 71.71 73.77 75.49 75.60 74.25 74.67 73.60 73.23 74.66 74.64 76.17 76.26 76.04 75.88 75.82
44.33 42.18 47.22 48.40 48.35 46.99 46.29 44.91 45.09 47.88 49.15 47.94 48.56 48.00 50.65 51.02 51.14 52.22 52.97 55.13 56.19 57.76 59.12 62.01 63.04 63.03 65.17 68.76 70.68 72.73 73.71 74.16 73.97 73.86 74.31 73.69 73.73 74.19 75.52 75.14 74.54 74.24 73.76 73.80
44.23 45.92 48.04 46.93 46.18 45.17 45.58 44.58 45.08 45.16 47.97 49.53 48.10 46.73 48.53 51.03 52.32 53.64 55.13 56.55 56.87 57.01 57.98 59.76 61.56 63.58 64.45 67.39 68.24 70.18 71.91 73.91 74.35 74.60 71.75 68.45 69.07 69.00 65.90 66.84 66.89 68.72 68.70 68.60
46.61 48.93 46.65 46.07 44.91 46.20 42.66 47.45 46.51 45.55 44.96 42.18 48.63 41.32 47.21 49.64 50.44 51.92 53.75 55.08 55.82 56.80 58.46 60.31 61.57 61.63 63.89 66.28 69.17 70.25 71.69 71.79 72.28 72.42 70.22 68.62 64.89 63.75 63.81 64.70 65.03 66.30 67.87 67.02
44.75 46.08 45.82 44.72 45.30 47.39 44.67 48.35 47.02 46.44 45.16 45.57 45.68 42.61 46.60 49.32 48.23 50.54 53.00 53.97 55.68 57.14 58.16 57.92 59.67 60.34 63.25 66.96 67.80 67.15 67.09 66.41 65.52 67.56 68.69 66.02 66.27 64.34 64.96 66.61 66.29 67.59 67.73 67.27
46.88 49.96 48.33 47.36 48.02 48.19 48.94 46.85 47.20 47.08 45.51 40.30 44.30 43.68 44.38 47.25 48.56 50.67 53.05 54.78 55.33 57.16 58.18 59.78 60.80 62.21 63.88 65.79 65.45 64.90 63.99 63.16 64.22 64.85 65.88 66.10 64.91 63.75 63.73 65.18 64.24 63.60 64.15 64.42
44.85 45.76 48.22 48.98 46.00 48.56 47.64 45.19 39.26 37.77 38.31 37.96 45.65 43.17 44.96 49.66 51.11 51.94 53.58 55.21 56.43 57.92 59.66 60.42 60.98 61.63 61.52 62.05 62.82 62.74 62.62 61.49 61.81 61.68 60.82 60.64 61.71 61.56 60.80 61.77 61.46 61.71 61.34 61.50
40.20 38.33 45.33 48.55 46.75 45.23 45.69 45.48 40.16 33.89 36.00 39.21 45.21 40.41 46.18 51.83 53.46 54.57 55.27 56.88 58.05 59.11 60.23 60.56 61.07 61.29 60.80 61.15 61.27 60.59 60.63 60.21 60.68 60.38 59.94 59.73 59.45 58.84 58.81 60.06 59.08 59.30 59.29 59.74
40.97 41.14 47.64 48.12 49.31 48.64 45.83 42.72 47.65 42.76 43.05 40.25 42.62 45.50 49.42 51.86 52.09 53.64 54.95 56.26 57.11 58.13 59.35 59.43 59.77 60.26 59.93 59.59 59.41 59.48 59.36 59.23 58.64 58.57 59.12 58.79 58.79 58.96 58.15 59.26 59.80 58.71 59.84 58.95
46.06 40.72 46.11 47.08 49.54 49.78 47.73 49.15 42.07 43.34 34.91 34.23 39.54 41.95 43.82 48.41 50.10 52.98 53.83 55.36 56.36 56.97 56.67 57.23 57.92 58.39 58.42 58.19 57.95 58.37 57.96 57.14 56.83 57.18 57.35 57.33 57.79 58.07 58.19 58.06 58.04 58.11 58.45 58.57
48.36 46.06 44.31 48.34 45.81 44.98 45.68 44.77 45.76 45.77 43.64 37.53 36.10 39.47 50.40 49.60 51.77 52.91 54.33 55.69 55.66 55.92 56.15 56.50 56.81 56.96 57.08 57.36 57.27 56.83 56.98 55.35 56.61 55.89 56.38 56.77 56.72 56.91 57.10 56.90 57.15 57.35 57.74 57.55
48.63 46.22 41.08 43.19 48.52 49.75 49.22 46.76 46.76 41.12 39.59 42.73 41.43 40.30 51.24 51.93 53.25 54.76 54.38 54.92 55.68 56.50 56.22 55.94 55.86 55.99 55.79 55.54 55.38 56.46 55.78 54.92 55.18 55.41 55.43 55.69 56.10 56.24 56.06 56.20 56.58 56.98 56.27 56.81
49.46 45.08 39.16 41.00 45.35 47.79 46.09 47.58 48.16 47.19 46.29 40.20 37.91 39.91 49.96 51.57 52.24 54.19 53.54 53.58 53.94 54.45 54.43 54.54 54.51 54.25 54.15 54.97 55.23 54.58 54.17 53.87 54.34 54.66 54.54 55.02 55.46 55.53 55.45 55.56 55.87 55.74 55.42 55.29
51.11 46.69 42.88 38.13 40.89 45.97 43.26 45.20 46.98 46.41 40.91 41.42 42.38 43.77 47.59 49.57 50.71 51.78 52.05 52.78 52.19 52.20 52.30 52.77 52.93 53.28 54.04 53.51 52.84 52.81 53.12 53.85 53.92 53.73 53.68 53.77 54.00 54.58 54.51 54.83 54.57 54.58 54.36 53.82
50.08 43.45 44.38 44.13 43.94 43.70 42.80 44.29 45.82 44.20 45.16 40.90 43.89 43.63 47.00 49.85 51.13 51.87 52.66 52.52 52.01 51.57 51.48 51.43 52.25 52.65 52.08 51.82 52.00 51.93 52.33 52.73 53.21 52.54 52.71 53.02 53.44 53.38 53.33 53.15 53.32 53.36 53.34 53.40
48.10 43.36 44.44 40.00 44.30 43.83 41.67 45.17 45.57 45.38 45.07 45.12 45.57 44.72 50.02 51.77 52.38 51.69 51.62 51.46 50.81 50.97 49.90 50.42 50.44 49.90 50.14 50.71 50.67 51.27 51.92 52.05 52.31 51.50 51.59 52.34 52.40 52.24 51.41 51.51 51.84 52.11 52.47 53.07
44.58 45.20 43.10 38.10 43.07 42.77 39.23 43.29 44.44 45.34 46.73 46.05 42.60 46.78 50.40 49.43 50.22 51.04 51.12 50.93 50.47 50.05 49.60 49.97 49.45 49.52 49.89 50.35 50.70 50.37 50.60 50.71 49.95 49.56 50.11 50.49 50.78 49.78 49.83 50.48 50.87 51.54 51.61 51.78
45.54 44.68 43.66 39.12 40.23 31.19 41.80 45.84 45.07 43.82 45.29 47.09 46.83 47.79 48.78 50.18 51.17 51.62 52.04 50.89 49.45 49.29 49.04 49.10 49.07 49.31 50.24 50.27 50.06 49.67 49.09 48.00 47.65 47.58 48.11 48.81 48.68 47.93 48.13 47.39 50.25 50.94 50.73 50.54
49.03 45.22 39.74 36.14 35.82 38.16 40.39 43.71 43.83 43.27 43.77 47.77 47.00 48.58 49.39 50.80 49.96 48.21 49.75 49.85 48.90 48.38 48.73 48.65 49.61 49.59 49.29 48.97 48.70 47.68 46.94 45.97 45.16 44.78 45.75 45.97 45.74 44.77 46.36 47.65 49.27 50.23 49.87 48.15
45.37 45.90 40.51 36.99 31.43 30.19 42.32 45.69 49.28 48.82 40.52 48.16 49.00 48.40 48.93 49.23 44.10 45.68 49.20 48.53 48.13 48.22 48.78 48.55 49.01 48.94 48.54 47.65 46.91 45.46 44.56 44.07 43.45 43.00 43.14 42.25 41.71 43.25 44.81 47.03 48.21 49.83 47.36 48.06
38.84 40.03 37.42 37.11 35.99 39.21 45.47 46.58 49.45 38.10 40.60 49.38 50.34 49.92 49.10 45.90 47.46 47.83 48.50 47.82 47.94 48.19 47.95 48.40 48.48 47.26 45.94 45.87 44.71 43.02 41.40 41.04 42.00 41.96 41.08 40.58 41.31 43.08 44.44 46.21 48.51 47.18 47.60 45.69
37.82 37.17 36.30 36.98 33.70 32.53 46.78 46.80 42.21 48.01 50.67 50.73 50.37 49.83 48.24 47.81 47.73 47.00 46.67 46.27 46.54 46.38 46.77 47.76 46.37 44.74 44.55 43.86 42.22 39.62 38.91 41.19 40.52 40.03 39.62 39.73 41.12 43.28 44.97 45.78 45.44 46.44 46.55 45.13
38.44 42.77 39.58 39.75 40.06 48.10 49.88 50.03 52.02 52.41 50.54 50.15 49.52 49.31 48.95 47.91 46.33 45.75 45.38 45.12 44.88 44.50 45.56 46.40 43.81 42.64 42.71 41.12 39.51 37.61 37.83 38.85 39.32 39.01 38.93 39.08 41.81 43.50 44.25 43.68 44.43 45.56 45.39 44.85
44.45 46.62 43.43 43.04 45.17 47.44 49.87 51.56 51.92 51.79 50.62 51.04 50.98 49.80 48.48 46.33 45.50 44.27 44.21 43.99 43.61 44.25 44.03 45.52 44.63 41.90 39.84 39.77 38.44 38.55 38.13 38.23 37.95 37.83 37.69 38.59 40.04 41.42 42.95 44.38 45.56 44.80 44.32 44.05
44.22 46.04 43.94 42.92 46.76 48.11 49.43 50.87 50.56 50.26 49.93 47.78 47.34 47.77 46.61 45.54 43.53 42.70 42.03 42.19 42.89 43.45 43.95 44.64 44.33 42.50 39.82 37.96 37.01 37.31 37.74 37.98 36.81 36.68 37.00 37.99 38.72 40.03 41.64 41.70 43.32 43.50 44.94 43.95
47.04 42.60 43.33 41.08 48.25 48.35 48.07 50.56 50.52 48.66 46.94 46.06 46.14 45.06 45.04 44.04 42.00 41.59 41.53 42.53 42.66 42.66 43.21 43.03 43.12 42.90 39.82 36.94 35.85 35.96 37.52 37.43 36.58 36.03 36.50 37.41 38.10 39.14 40.03 40.26 41.82 41.30 40.38 40.07

GFSCGP_sfc_wetblb_111.txt.gz
Wetbulb
47.87 43.93 42.52 45.59 47.48 47.37 47.87 47.11 45.43 48.14 50.47 49.38 49.47 49.47 51.24 53.39 53.53 52.55 52.62 52.63 53.43 54.33 58.27 62.38 64.82 65.54 66.73 68.15 71.41 72.13 73.59 76.08 76.09 75.25 74.26 74.79 73.50 75.90 77.86 76.63 76.35 75.46 75.30 75.25
45.12 42.11 46.75 48.23 48.34 47.55 47.32 46.41 45.97 48.62 50.38 49.91 49.36 48.98 51.68 52.89 52.85 53.09 53.20 53.51 53.53 54.28 57.83 61.98 64.63 66.14 66.82 68.84 70.34 72.13 74.52 76.28 75.35 73.36 75.18 74.70 74.55 74.77 76.48 77.18 76.43 76.32 75.31 75.71
43.38 45.27 47.52 47.47 47.28 46.50 46.55 45.62 46.15 46.12 49.37 50.44 49.11 47.63 49.64 52.35 53.11 53.33 53.80 54.55 55.36 55.29 57.87 60.28 63.03 64.91 66.25 67.79 69.78 70.10 71.00 72.83 75.06 74.88 75.36 75.35 75.34 73.86 74.32 72.33 71.46 72.08 71.37 70.75
45.56 48.19 46.45 47.01 46.27 47.73 44.61 48.29 47.33 46.84 46.26 43.03 50.47 42.23 49.27 51.14 51.31 52.22 53.99 55.25 56.21 57.37 58.39 59.56 61.67 64.22 64.84 66.77 68.74 69.48 71.37 73.42 74.88 75.57 73.99 72.96 70.91 69.02 67.59 66.82 66.93 68.06 68.68 67.79
44.46 46.00 46.37 45.71 46.35 48.60 46.26 49.17 47.56 47.03 45.90 45.77 46.11 44.21 47.41 51.30 49.41 51.26 53.36 55.19 56.56 57.55 57.83 58.95 61.22 63.60 65.18 66.75 67.59 70.63 71.87 72.45 71.21 72.88 73.69 70.57 71.47 67.30 65.99 65.03 68.98 68.31 69.34 68.22
47.45 51.08 49.87 48.33 49.29 49.28 49.89 47.94 47.67 47.41 45.48 40.04 44.98 44.96 45.18 48.00 50.10 51.51 53.47 54.66 55.88 56.58 57.90 59.32 61.93 63.61 64.98 67.62 68.99 69.97 68.94 68.17 68.49 68.25 68.46 69.51 68.72 67.81 66.00 67.04 65.47 65.09 65.34 67.60
45.63 47.05 49.65 50.19 47.21 49.43 48.53 45.92 39.74 38.16 38.32 38.34 46.28 44.52 45.92 51.32 51.47 52.98 53.21 54.38 56.15 58.23 59.56 60.95 61.62 62.48 64.77 66.16 66.59 65.56 64.99 64.16 64.99 64.59 64.75 64.88 64.82 65.30 64.51 63.40 63.20 63.99 62.69 62.87
40.23 39.82 47.13 49.26 47.64 46.07 46.34 45.95 40.77 34.27 36.08 39.30 45.71 42.21 46.00 52.71 54.31 54.81 56.20 56.37 57.72 59.09 60.70 61.60 62.54 63.32 64.33 64.77 64.80 63.79 63.29 62.81 63.27 63.10 62.44 62.86 62.70 62.27 62.01 62.96 61.83 62.01 61.64 62.33
41.31 41.91 48.26 49.08 49.17 49.19 46.41 43.86 48.32 43.37 43.43 40.42 41.85 46.36 51.57 53.20 52.86 53.83 55.36 57.15 58.10 59.61 60.70 61.51 62.28 62.44 62.83 62.52 62.68 62.77 62.15 61.88 62.01 61.92 61.99 61.70 62.01 61.52 61.31 61.85 62.34 60.64 62.69 60.77
45.77 41.05 47.17 47.91 49.50 49.73 47.98 49.58 42.94 43.76 35.81 34.64 39.56 42.24 43.05 49.42 50.87 52.46 53.89 55.92 57.97 59.88 60.71 61.48 61.63 61.71 61.94 61.81 61.43 61.74 61.71 60.71 60.47 60.41 60.55 60.86 60.47 60.04 60.49 60.77 60.44 60.71 60.96 60.85
47.80 45.71 44.08 47.50 45.59 44.96 45.88 45.33 46.62 46.09 43.83 37.60 37.01 41.29 51.15 50.22 52.13 52.32 54.17 56.68 58.03 58.85 59.07 59.75 60.25 60.60 60.49 60.70 60.44 60.11 60.00 59.39 59.10 59.74 59.74 59.07 59.29 59.43 59.64 59.41 59.54 59.63 60.13 59.90
48.22 45.33 39.42 44.01 48.50 49.70 49.01 46.96 47.56 42.58 39.06 43.72 41.89 40.10 52.57 51.74 53.50 54.93 55.06 57.14 57.85 58.48 58.77 58.80 58.83 58.79 58.68 58.73 58.81 59.03 58.33 58.78 58.84 58.57 57.92 58.20 58.38 58.73 58.69 58.71 59.03 59.39 58.83 59.06
49.73 44.28 40.28 39.25 45.70 49.42 46.78 48.31 48.14 47.95 47.22 42.12 37.79 40.25 52.02 52.90 53.14 54.24 54.77 56.31 56.93 57.71 57.66 57.53 57.26 57.17 57.43 57.28 57.14 56.88 56.94 56.70 56.97 57.13 57.10 57.33 57.53 57.77 57.97 58.31 58.57 58.47 58.23 57.91
52.79 46.57 43.90 39.89 42.71 47.07 44.64 47.26 48.52 45.51 38.83 40.99 40.73 42.38 47.02 49.12 50.36 52.17 54.00 56.13 56.42 56.57 56.07 56.37 56.30 56.36 56.37 55.71 55.56 55.23 55.56 56.20 56.16 56.11 55.98 56.01 56.63 57.09 56.95 57.18 57.26 57.44 57.35 56.68
50.94 43.94 46.26 44.24 46.96 46.94 45.59 45.58 45.97 45.93 46.08 42.64 44.97 44.47 45.03 50.27 52.42 53.40 55.17 55.39 54.59 54.26 54.60 54.35 54.86 54.38 54.70 54.33 54.08 54.31 54.40 54.76 55.18 54.53 54.25 54.85 55.89 56.37 56.44 56.17 55.99 55.55 55.31 55.44
51.17 44.62 46.21 41.87 46.56 45.79 43.78 46.61 47.21 47.57 47.13 46.81 46.56 45.50 50.92 52.78 53.52 52.11 52.84 54.00 53.57 53.76 54.05 53.68 53.35 53.13 52.53 53.00 53.01 53.49 53.83 54.29 54.52 53.81 53.61 54.43 54.70 55.12 55.41 55.22 53.79 53.30 53.53 53.86
48.31 45.93 43.84 39.89 44.43 42.68 40.40 45.00 45.02 47.15 48.58 47.18 43.75 47.60 51.69 50.99 51.70 52.51 53.47 53.46 52.37 53.33 52.95 52.59 52.49 52.68 52.94 53.07 53.19 52.90 53.20 53.70 52.96 52.77 53.11 53.21 53.54 53.16 53.71 53.09 52.19 52.46 52.55 54.21
46.28 46.22 45.85 40.13 42.34 33.69 44.39 48.94 48.17 46.88 47.71 48.73 48.48 49.38 50.41 51.03 53.02 53.26 54.59 52.93 51.85 52.79 52.12 52.22 52.29 52.28 52.78 53.21 52.97 52.87 52.55 52.27 51.77 51.44 51.16 51.22 50.87 50.43 50.53 50.07 50.52 51.42 52.59 53.22
48.54 44.75 39.38 38.63 38.49 41.57 42.79 45.04 44.49 43.15 43.61 48.07 47.71 48.70 49.75 52.39 52.91 51.42 53.37 53.94 52.81 52.09 51.99 51.70 52.06 52.04 52.32 52.30 51.69 51.08 50.77 50.79 49.91 49.52 49.08 48.49 47.80 47.06 46.97 46.63 47.64 50.40 51.24 50.47
47.82 47.41 42.86 40.47 36.21 33.16 44.02 47.95 50.57 50.09 42.21 49.55 50.02 49.56 49.97 51.76 46.41 47.56 51.53 52.31 51.67 51.45 51.60 50.82 51.44 51.80 51.42 50.70 49.87 48.63 48.25 47.42 46.98 46.54 45.95 45.94 45.78 44.84 44.42 43.62 46.23 48.60 49.27 49.29
41.88 42.50 39.64 39.28 37.81 42.05 47.94 48.89 50.42 39.95 41.83 50.22 50.70 50.09 48.15 47.47 48.68 50.39 52.01 50.39 50.70 50.58 50.20 50.91 50.65 49.39 48.31 47.83 46.30 45.23 44.76 44.54 44.28 43.90 43.82 43.92 43.81 43.32 42.81 43.74 45.94 47.70 48.27 48.49
40.58 39.26 39.35 40.93 37.57 35.79 49.60 48.55 43.68 48.83 52.05 50.74 50.17 51.08 49.89 50.05 50.32 50.13 49.72 49.27 48.88 48.43 48.73 49.07 48.08 47.64 45.86 45.16 43.73 42.35 42.06 42.21 41.13 40.52 41.33 41.77 41.93 42.09 42.47 44.99 45.87 47.00 47.07 47.28
39.55 43.52 42.40 42.03 42.95 49.70 51.99 52.00 53.07 53.21 49.66 50.14 50.73 51.55 51.41 50.00 49.36 49.27 48.32 47.57 47.55 47.10 47.14 48.46 47.98 46.60 44.52 43.48 41.83 39.84 40.10 39.55 38.60 38.56 40.10 39.88 40.34 41.71 41.98 44.42 44.71 45.30 46.40 46.80
45.62 48.61 44.09 45.24 46.54 48.83 50.98 51.95 52.13 52.00 50.33 50.59 50.84 50.98 50.73 48.64 48.29 46.98 46.63 46.17 46.08 46.47 46.57 47.58 47.22 46.03 43.34 40.44 39.32 37.54 37.45 38.25 38.02 37.61 38.10 39.00 38.95 39.92 41.02 43.34 44.48 43.26 43.77 44.25
46.65 47.56 45.08 45.38 47.30 49.11 49.63 50.48 50.62 50.61 51.73 51.26 50.68 49.88 48.53 47.05 45.52 45.18 44.62 44.96 45.20 45.60 46.45 46.24 45.85 45.20 44.35 40.56 38.37 37.45 36.79 37.45 37.10 36.71 37.59 38.17 38.70 39.18 40.32 41.38 41.92 42.14 43.64 43.75
48.83 45.80 44.11 43.54 49.11 48.75 48.40 50.31 51.32 50.90 49.83 49.47 48.31 46.88 46.34 45.22 44.02 44.61 44.22 44.67 44.72 44.64 45.12 44.38 44.62 43.55 42.94 41.56 39.29 37.94 37.74 37.34 36.73 36.17 36.41 37.07 38.26 38.58 38.81 39.91 41.05 41.01 40.10 39.83

GFSCGP_sfc_wetblb_114.txt.gz
Wetbulb
50.48 44.34 42.04 44.59 45.45 45.62 45.48 44.97 44.36 46.47 48.83 48.61 47.81 48.37 50.21 51.97 52.09 52.81 53.38 53.60 53.50 54.21 56.40 58.09 64.10 66.15 69.53 71.28 72.66 74.47 73.25 74.07 71.35 72.53 71.48 72.37 72.27 73.30 71.41 64.84 65.43 69.51 72.29 72.17
46.20 41.77 45.56 46.94 46.32 45.52 45.31 44.35 45.06 47.75 49.62 48.95 48.72 48.14 51.00 52.29 52.69 53.73 54.24 53.84 54.23 54.51 55.82 57.30 63.19 66.84 67.76 69.61 73.02 74.04 74.94 75.30 75.79 74.24 74.89 73.90 72.44 73.81 73.76 74.38 74.81 74.09 72.45 74.29
43.04 45.18 46.88 45.50 44.82 44.38 44.73 43.97 45.13 45.93 48.33 49.52 48.22 46.39 49.06 51.71 53.31 53.95 53.56 54.23 54.99 55.72 55.61 57.19 63.51 65.30 67.30 68.23 71.16 72.27 74.74 75.38 76.08 76.30 73.69 74.59 75.46 74.11 74.21 74.21 74.23 75.03 74.92 74.76
45.21 47.79 45.61 44.15 43.85 45.36 42.61 47.34 47.21 46.97 45.46 41.50 48.56 39.83 48.61 50.90 51.26 52.18 52.78 54.16 54.39 55.38 56.58 57.21 62.57 64.81 65.54 68.56 68.71 70.04 71.65 74.68 74.93 75.96 75.12 73.49 71.06 69.64 70.46 68.91 71.38 70.18 68.88 68.31
44.28 44.85 44.49 43.37 43.87 46.58 44.95 48.90 47.17 46.93 45.20 44.73 44.75 42.16 46.16 50.84 49.21 50.70 53.11 54.11 55.83 57.70 56.10 57.59 58.78 64.43 66.26 68.50 69.15 70.62 73.51 74.40 75.35 75.40 75.40 71.90 71.90 70.13 67.79 68.64 68.65 70.09 69.58 68.18
47.09 49.32 47.19 46.64 47.21 47.89 49.32 47.46 47.37 46.68 44.59 38.78 43.23 42.55 43.68 47.24 49.90 51.32 53.40 53.54 55.52 56.35 58.32 59.38 63.57 65.59 65.39 67.08 68.20 70.81 71.49 69.82 69.42 69.33 71.86 69.31 67.32 68.15 66.78 68.15 66.73 67.14 68.52 68.88
44.99 45.08 47.55 48.68 46.34 48.25 47.41 45.13 38.40 36.95 37.32 36.65 44.62 42.58 45.41 50.64 52.03 52.51 52.90 53.92 56.08 58.37 60.52 60.98 62.04 63.01 65.26 66.35 69.23 68.64 67.44 67.19 67.17 66.40 65.84 65.44 64.61 64.13 65.30 63.95 64.53 63.99 63.79 64.81
40.50 38.26 45.33 48.72 47.28 44.92 45.55 45.27 39.12 33.09 34.53 37.92 44.45 40.42 44.85 52.64 53.75 54.66 54.65 55.53 56.37 58.56 60.55 60.90 62.16 63.29 65.42 66.40 66.17 65.35 64.98 64.09 63.68 63.29 63.81 64.44 64.87 62.93 63.65 62.06 61.51 61.21 61.04 62.13
41.05 41.16 47.65 49.11 49.03 48.43 45.11 42.54 47.09 42.05 43.55 38.89 41.78 45.43 49.80 52.24 52.36 53.15 54.21 55.48 57.12 58.42 60.53 61.64 62.73 64.28 65.07 64.71 64.29 64.16 63.24 63.42 63.20 63.14 63.67 63.67 62.12 62.78 62.08 62.74 62.44 62.50 64.20 60.85
45.43 39.62 46.12 47.37 49.12 48.56 47.39 48.71 41.82 42.99 35.15 33.44 39.83 42.24 42.57 48.58 50.57 52.13 53.74 55.30 57.50 59.48 60.65 61.43 61.78 62.96 63.07 63.25 63.40 63.16 63.10 62.20 62.52 62.66 62.88 61.84 61.90 61.87 61.68 62.72 61.84 61.40 62.02 62.12
47.17 44.12 42.09 46.45 45.15 43.59 44.03 43.44 45.01 45.96 43.81 37.31 35.67 39.86 48.07 49.31 51.19 50.28 53.81 56.52 58.25 59.10 59.89 60.60 60.92 61.34 61.13 61.07 60.58 61.54 60.88 60.89 61.25 61.38 61.31 61.34 60.69 60.71 61.32 61.22 61.15 60.96 61.80 60.96
47.65 44.75 37.89 42.02 48.25 49.14 48.01 45.48 45.96 39.97 39.64 42.82 40.79 39.51 49.57 51.22 53.12 52.45 51.98 56.97 58.26 59.31 59.50 59.60 59.53 59.51 59.27 59.09 58.96 59.45 60.06 59.80 59.87 59.98 60.03 60.42 60.83 61.00 60.77 60.40 60.33 60.72 59.68 59.92
47.59 43.09 36.74 38.90 44.77 48.47 45.34 46.48 48.22 48.84 47.58 42.43 39.56 38.54 50.33 52.58 51.72 51.43 50.86 53.99 57.04 58.06 58.44 58.29 57.81 57.55 57.65 57.71 57.41 57.22 57.47 57.49 57.54 57.94 58.30 60.12 60.34 59.97 59.98 59.31 59.47 59.04 58.17 57.71
48.62 44.52 40.47 36.59 41.57 45.83 43.55 44.89 46.95 47.41 43.08 41.83 42.52 43.46 47.82 49.86 50.67 52.77 53.29 55.06 54.19 53.86 56.81 57.04 56.57 56.23 56.19 56.17 55.58 55.16 55.52 56.12 56.41 56.07 56.39 56.46 57.28 57.60 57.49 58.04 57.94 57.59 57.30 56.32
47.91 41.30 43.10 40.82 44.83 44.97 46.21 44.82 46.20 43.87 45.10 41.03 42.61 42.95 47.63 49.63 50.41 52.70 54.18 54.53 53.60 53.32 54.62 55.41 55.13 54.99 54.82 54.57 54.24 54.54 54.28 54.57 55.74 54.34 54.39 55.05 55.92 56.39 56.32 56.24 56.85 56.80 56.03 54.99
49.41 42.73 45.05 42.91 44.21 43.17 45.59 46.63 46.48 44.66 44.26 45.07 45.75 42.00 48.90 50.78 50.75 50.21 53.28 54.06 53.61 53.49 54.12 54.22 54.12 53.80 53.73 53.50 53.35 53.42 53.77 53.51 53.84 53.53 52.86 54.35 54.58 54.76 54.78 55.22 55.29 55.21 53.74 53.60
48.47 45.68 44.13 37.64 42.68 42.90 40.99 46.23 46.77 47.43 48.77 47.77 44.01 47.73 51.63 49.33 49.19 50.57 53.53 53.79 52.94 52.13 52.96 52.87 52.95 52.64 52.87 52.48 53.24 52.46 52.23 52.94 52.60 52.16 52.26 52.41 52.78 52.14 52.31 52.36 51.70 51.33 51.21 51.86
47.39 46.70 43.78 37.81 38.51 32.03 44.14 50.26 49.96 47.72 48.19 49.44 48.57 50.19 51.34 50.79 51.78 52.87 53.74 53.24 52.78 52.38 52.33 52.10 51.83 52.12 52.62 52.67 52.08 51.72 51.47 51.25 51.12 50.55 50.59 50.65 49.70 49.12 49.26 48.73 48.29 48.89 49.39 49.67
50.19 47.00 41.05 36.08 37.72 41.87 44.00 46.44 46.64 46.29 45.49 48.91 48.43 49.69 51.40 51.83 51.16 49.72 52.79 53.22 52.23 51.92 51.42 51.19 51.62 51.81 51.88 50.51 49.82 49.04 49.00 49.20 48.45 47.93 47.08 46.97 46.48 45.83 45.92 45.41 45.60 45.86 46.65 47.72
47.63 47.34 42.76 39.85 35.93 33.36 43.21 47.96 49.57 47.74 41.34 49.89 50.16 49.82 51.11 51.55 45.22 46.10 51.10 51.61 51.07 51.09 50.58 50.37 50.87 50.01 48.44 47.27 46.84 46.10 45.65 45.31 44.54 43.80 43.67 43.97 44.19 43.93 43.48 44.05 43.92 45.04 45.07 46.10
40.72 40.73 38.20 36.55 38.45 41.37 47.84 49.41 50.64 40.01 42.63 51.06 51.71 51.83 51.21 48.62 49.19 50.29 50.71 50.03 50.30 50.08 49.09 49.85 48.85 46.75 45.56 45.09 44.42 43.06 42.86 41.87 41.83 42.18 41.75 41.11 42.12 42.88 43.09 43.19 43.58 43.37 45.76 46.16
37.50 38.01 39.84 41.82 38.52 34.71 49.52 48.92 44.60 49.47 52.97 52.13 51.32 50.96 49.52 49.53 50.23 49.86 49.69 48.92 48.59 48.15 48.25 48.66 47.47 45.78 44.78 44.07 42.26 40.54 39.61 40.14 40.70 40.05 39.74 40.27 41.57 41.21 41.78 42.55 42.83 43.83 45.00 45.18
39.98 44.09 42.89 43.81 42.87 51.56 53.00 52.29 53.86 54.13 51.46 51.07 50.80 51.19 50.87 49.58 49.05 49.11 47.87 47.80 46.96 46.70 47.14 48.30 47.07 46.24 45.06 43.09 40.60 37.65 37.49 38.13 38.28 37.92 37.84 38.81 40.35 40.24 40.79 40.50 41.03 42.82 44.51 43.10
46.23 49.44 45.27 44.92 46.70 48.92 50.00 51.46 51.55 52.10 51.00 51.40 51.49 50.54 50.14 48.62 48.13 46.92 46.19 45.89 45.69 46.07 46.11 46.39 45.93 44.65 43.81 42.98 40.50 38.49 38.04 37.76 37.20 36.84 36.75 38.03 38.34 39.18 40.08 40.58 41.24 41.20 41.22 40.94
46.68 47.34 45.70 45.34 47.16 47.55 48.82 50.09 51.24 50.98 51.44 50.55 50.68 49.96 48.40 47.11 45.49 45.02 44.61 44.61 44.89 45.34 45.09 45.02 43.74 42.82 42.20 42.89 42.10 39.86 38.57 37.28 35.90 36.41 36.91 37.28 37.41 38.16 38.49 38.76 39.57 40.17 41.73 41.50
47.92 46.12 44.51 43.64 48.07 47.72 47.44 51.29 51.65 50.03 49.39 49.24 47.78 45.96 45.90 45.34 44.37 44.75 43.69 44.34 44.33 43.87 44.09 43.46 43.03 42.74 41.45 41.21 40.44 40.30 39.12 38.03 36.35 34.86 34.93 35.25 35.40 36.66 36.73 37.32 38.06 39.51 39.20 39.28

GFSCGP_sfc_wetblb_117.txt.gz
Wetbulb
48.16 41.55 38.83 41.22 43.09 42.94 42.03 40.39 40.11 43.18 46.24 44.22 42.60 43.04 44.56 47.78 47.55 47.04 47.38 47.59 48.06 48.66 50.33 52.56 56.34 63.40 67.65 67.81 66.37 62.43 62.54 65.08 64.19 64.16 63.01 62.94 62.41 63.92 67.06 64.52 68.23 68.02 66.84 68.34
43.99 40.20 44.93 46.14 45.22 43.61 41.97 39.69 39.39 43.77 47.07 45.07 43.88 43.06 46.58 48.42 48.01 47.80 48.04 48.76 48.25 48.31 49.67 51.44 59.74 63.63 67.26 67.75 66.17 65.61 65.01 66.77 64.71 64.46 64.87 64.31 63.39 65.06 70.03 65.34 66.53 65.86 65.41 67.63
41.11 44.34 48.04 45.46 42.86 41.90 40.85 39.02 39.85 40.55 45.18 46.95 44.85 41.86 44.76 49.55 50.10 50.62 50.38 50.43 49.63 48.81 48.81 50.62 61.35 64.39 66.05 67.68 69.89 69.57 69.65 67.60 66.44 68.64 69.74 69.37 68.94 69.13 69.15 68.25 65.96 66.24 67.16 69.67
44.11 47.93 45.95 43.34 41.24 42.31 37.82 43.43 43.58 43.32 42.34 37.18 44.57 32.72 42.21 46.37 47.13 49.48 49.01 47.51 48.40 50.03 50.38 50.38 61.83 62.98 67.04 67.99 70.87 71.62 71.85 70.67 71.21 71.81 69.37 69.30 67.63 66.39 68.15 68.04 68.32 66.01 67.61 68.92
43.37 44.63 43.93 41.46 41.67 43.59 40.35 45.28 43.77 43.24 41.66 39.22 40.10 35.09 39.50 45.55 46.00 47.57 47.69 48.62 48.62 49.40 49.88 50.60 59.67 63.23 67.04 66.68 66.86 68.66 70.15 69.66 69.28 69.31 68.81 67.38 66.70 63.62 63.11 64.57 62.63 61.35 61.55 62.88
45.76 49.21 46.08 44.52 45.66 44.73 45.29 43.84 43.71 42.35 37.96 31.27 37.80 37.32 37.09 41.76 45.23 47.02 48.83 49.58 50.78 51.29 50.70 50.62 60.23 61.93 64.49 64.11 65.76 66.93 65.26 63.82 63.61 65.43 63.96 63.25 62.89 62.78 63.23 61.45 60.20 61.48 62.70 62.71
43.93 44.03 47.35 47.76 43.05 44.48 42.78 39.25 33.33 31.21 30.21 29.76 39.96 37.08 37.97 45.45 49.30 50.03 49.20 49.34 50.25 53.82 52.49 54.16 58.74 59.78 64.18 64.08 63.86 64.31 62.29 60.46 60.06 60.14 59.86 58.75 59.44 58.77 57.99 58.66 58.86 58.07 57.86 59.28
36.43 35.74 43.90 47.67 43.57 41.02 40.29 39.50 32.67 25.54 27.81 31.77 40.75 34.73 40.07 47.41 49.70 51.85 52.59 50.81 53.62 55.29 57.07 57.38 59.07 62.99 62.87 62.13 61.63 60.71 58.73 57.69 58.34 58.63 58.15 57.51 57.98 58.03 57.38 56.66 55.91 55.77 55.48 56.76
36.56 37.22 46.66 46.96 46.79 45.04 41.34 38.42 42.45 36.91 38.65 33.84 36.51 39.67 46.23 49.04 49.86 50.06 51.82 52.59 51.79 54.39 56.13 57.78 61.51 61.23 60.56 60.36 59.43 58.52 58.03 57.51 57.77 57.56 56.71 56.34 56.06 55.73 55.62 55.93 55.86 56.95 56.32 57.19
41.96 36.52 45.06 45.96 46.92 47.53 44.34 44.95 37.37 36.73 28.93 28.60 35.32 38.71 38.23 45.14 46.63 50.56 49.17 50.83 54.28 56.15 57.29 58.68 58.82 58.77 58.61 58.29 57.88 57.14 56.49 56.16 56.23 55.59 55.66 55.23 54.91 55.05 54.71 54.56 54.33 54.62 55.50 56.09
43.08 41.64 40.80 44.30 43.06 40.81 42.09 41.16 40.37 38.40 35.36 29.10 28.62 35.96 46.70 45.53 46.45 48.32 50.05 51.61 52.82 55.14 56.07 56.20 55.99 56.08 56.18 56.01 55.63 54.67 54.71 54.59 54.47 53.74 53.72 53.25 53.09 53.56 53.74 53.58 54.20 54.56 54.82 55.27
44.07 41.60 36.00 38.77 45.96 47.77 45.42 41.24 40.95 33.28 33.38 36.76 33.90 36.57 49.29 47.98 50.18 49.88 49.40 52.13 53.80 53.88 55.18 55.43 55.38 55.37 54.89 54.30 54.33 52.54 53.24 52.82 52.28 52.51 52.11 51.62 52.57 52.85 52.78 53.02 53.61 54.10 53.53 54.07
45.22 39.18 31.97 36.29 40.35 44.39 41.84 44.22 42.28 40.91 40.14 34.98 31.95 34.89 48.58 50.49 49.55 51.74 51.02 50.50 52.69 54.66 54.90 54.84 54.76 53.59 52.72 52.07 51.75 50.90 50.49 50.41 50.97 51.42 50.83 51.16 51.31 51.48 51.58 51.98 52.57 52.95 52.70 52.82
47.11 40.16 36.44 31.85 36.29 41.57 39.95 43.18 42.75 41.55 33.79 36.38 38.42 39.61 44.92 47.33 48.23 49.64 50.55 51.88 52.73 53.34 53.99 51.82 50.79 50.73 50.88 50.82 50.68 50.04 49.61 50.37 50.35 50.34 49.52 49.17 49.59 50.13 50.46 51.31 51.73 52.26 52.49 51.27
45.44 37.81 40.80 42.14 43.50 43.53 43.31 43.75 42.63 41.70 42.16 37.77 40.78 41.31 44.04 46.54 48.62 48.91 50.95 51.48 51.49 51.94 52.19 50.49 49.65 49.68 50.11 49.26 49.30 49.98 49.56 49.58 49.49 49.37 48.50 48.51 49.20 49.83 50.02 50.28 50.90 51.40 50.92 50.64
44.44 37.67 40.76 39.61 42.68 43.58 41.58 44.11 44.58 45.40 44.27 43.12 42.50 42.56 47.74 49.20 51.36 50.73 50.66 50.96 50.78 52.23 50.76 50.29 50.03 49.89 49.18 48.91 49.25 49.14 48.93 48.76 48.85 48.34 47.99 49.12 49.07 48.77 48.18 47.79 47.49 47.22 47.32 47.75
40.57 40.27 37.53 35.72 40.61 40.09 36.35 41.59 44.40 45.09 45.57 44.74 39.67 44.39 47.79 47.69 48.36 49.07 51.19 51.32 50.96 49.63 48.91 48.79 48.51 48.33 48.21 47.92 47.68 46.68 47.02 47.86 47.82 47.11 48.19 47.55 46.58 46.02 45.37 45.61 45.08 44.54 44.52 44.81
42.89 41.34 39.79 33.79 34.86 30.58 41.06 46.60 48.25 46.54 47.24 47.15 46.51 47.01 47.32 47.35 48.39 49.62 50.15 49.08 48.11 47.19 46.98 47.36 47.57 47.16 45.73 45.40 44.99 45.28 45.93 45.55 45.57 44.66 44.23 43.97 43.30 43.35 43.34 42.73 42.29 42.49 44.24 44.91
45.54 41.53 38.66 33.32 32.45 39.67 41.87 45.87 46.00 44.25 43.37 48.75 47.00 47.94 48.25 47.02 46.71 46.05 48.57 47.94 46.76 46.35 46.81 45.86 45.26 44.34 43.03 42.63 42.98 42.99 42.48 42.59 42.67 41.14 41.16 41.51 41.53 41.18 42.06 42.15 42.38 43.11 43.23 41.94
42.05 46.39 38.97 36.75 32.93 30.56 41.92 46.82 49.82 47.61 37.81 48.33 48.12 46.69 46.05 46.26 39.22 41.65 47.31 46.55 46.69 46.69 45.65 44.21 43.62 43.15 41.52 40.71 40.85 40.00 40.13 41.47 39.50 40.10 40.10 40.58 39.50 39.13 41.03 41.54 41.63 42.48 40.41 41.48
38.96 39.82 36.59 35.62 35.01 39.64 45.93 48.59 49.15 35.74 38.18 47.17 47.20 46.81 45.47 42.63 43.19 44.38 45.93 45.45 45.24 45.13 45.03 44.09 42.62 40.74 40.17 39.88 38.92 37.37 37.74 36.40 38.71 39.95 39.82 39.27 39.18 40.29 40.48 40.42 41.45 41.92 41.62 42.88
36.91 35.35 34.87 37.65 34.60 31.19 49.30 48.61 41.71 45.17 47.26 47.04 46.65 46.52 44.85 44.87 45.00 44.83 44.85 44.10 44.17 43.51 44.67 44.07 41.45 40.11 39.20 38.30 36.73 35.31 35.39 37.25 37.76 38.22 37.72 38.05 38.47 39.88 40.59 39.72 40.12 40.39 41.55 42.98
36.34 40.58 37.04 40.08 38.10 46.49 49.02 47.54 48.43 48.74 47.07 47.12 46.86 47.11 46.17 44.82 44.05 43.89 42.25 41.42 42.45 42.80 42.81 42.73 41.72 39.73 38.25 37.67 37.51 36.16 36.03 37.05 37.12 36.88 36.86 37.29 38.37 38.81 39.37 39.36 38.94 39.47 40.63 40.87
45.03 47.69 41.68 42.01 45.17 45.29 46.73 47.85 48.22 47.94 46.86 47.36 47.28 46.22 45.04 42.61 42.41 41.31 41.35 41.01 41.12 41.05 40.91 40.92 39.25 38.03 37.53 38.19 38.28 37.63 37.39 37.89 37.29 35.80 35.50 36.40 36.56 36.91 38.22 38.23 38.72 38.82 39.25 39.60
43.40 45.22 43.23 42.86 45.41 46.41 46.95 47.14 47.65 47.63 47.59 46.24 45.63 44.62 42.93 41.94 40.89 40.77 40.56 40.60 40.30 39.70 39.43 39.07 37.58 36.57 36.59 36.96 36.67 36.35 38.52 38.51 36.14 35.80 35.40 35.21 35.44 35.85 36.33 37.31 37.72 38.30 39.47 39.63
44.77 43.09 40.66 40.24 45.42 45.10 45.49 47.20 48.94 45.79 43.87 43.06 42.19 41.58 42.32 41.74 40.11 39.94 39.37 39.43 39.24 38.56 38.83 37.96 37.48 36.68 36.02 36.24 35.90 36.41 37.07 39.50 37.19 34.43 33.91 33.89 34.54 35.42 35.69 36.04 37.07 38.80 38.73 38.90

GFSCGP_sfc_wetblb_120.txt.gz
Wetbulb
42.70 38.22 35.93 38.06 40.12 40.59 40.24 37.91 36.50 39.34 43.08 41.69 40.64 40.88 41.70 44.49 43.43 43.40 44.03 44.65 45.75 46.43 49.24 49.38 62.99 65.45 64.97 65.74 64.89 64.28 62.29 63.74 64.11 63.29 63.12 63.18 63.66 64.79 65.42 65.17 67.08 67.77 69.17 67.44
39.91 36.85 42.90 44.98 43.38 41.89 40.59 38.46 37.41 40.30 43.34 42.11 41.32 40.52 43.45 44.43 43.69 45.00 46.11 46.03 46.15 45.81 46.77 50.32 63.26 65.11 65.12 64.71 63.74 64.13 63.73 64.21 64.79 63.41 62.59 62.77 62.17 62.71 65.95 64.98 67.91 67.60 67.14 67.65
39.19 42.23 46.81 44.50 42.66 40.70 39.73 38.26 37.68 37.55 41.95 42.86 41.09 39.63 42.21 45.05 45.97 46.96 47.25 47.23 47.04 46.57 47.03 50.09 61.64 64.88 65.12 64.67 62.95 63.08 64.37 64.52 64.52 63.57 64.90 65.25 63.35 65.37 66.60 63.64 63.79 64.28 65.48 67.48
42.02 46.06 44.99 43.10 41.59 41.94 36.62 42.68 42.29 40.77 38.78 32.39 41.68 33.19 39.14 43.75 45.43 46.71 47.35 46.97 47.46 46.69 46.86 51.84 60.99 65.13 65.40 65.28 64.28 62.61 63.63 63.96 64.54 65.01 65.69 65.23 63.24 63.87 65.37 65.94 65.36 64.92 65.47 67.01
41.41 43.14 42.66 41.93 42.52 44.55 39.64 43.86 42.20 41.59 38.77 34.81 38.25 33.32 37.39 42.39 41.92 44.18 46.47 46.16 46.04 48.02 47.76 52.58 61.69 65.70 66.69 66.61 66.12 65.25 66.19 65.33 66.88 66.59 67.15 65.77 63.43 63.28 64.26 64.09 63.45 62.78 63.26 66.56
45.46 49.32 46.31 44.73 47.12 46.17 45.58 42.07 41.20 40.51 38.32 29.79 36.63 35.53 35.09 38.48 43.35 45.34 46.94 47.72 47.26 47.25 47.36 56.84 62.67 65.26 63.29 65.93 66.53 67.41 65.06 62.84 65.75 65.91 65.74 65.63 63.16 62.11 61.71 59.80 59.33 59.72 60.22 60.06
43.37 44.35 47.99 48.37 43.99 45.67 43.16 37.71 29.98 28.49 26.88 28.40 37.36 34.72 36.54 42.16 45.69 47.03 46.17 46.35 48.22 48.22 47.01 56.22 61.35 61.93 63.95 63.74 62.24 61.31 60.81 58.43 58.57 58.24 58.35 59.87 58.08 58.54 58.00 56.95 55.80 56.41 56.87 56.27
36.76 35.01 44.22 47.94 43.19 40.35 40.01 37.88 27.94 23.29 24.02 28.99 38.56 31.94 37.45 45.03 46.80 49.30 48.72 48.43 51.25 51.06 51.67 57.35 61.22 61.97 62.61 60.04 58.17 58.20 57.94 56.88 56.55 56.46 56.14 56.42 56.23 55.99 55.10 54.53 53.96 53.60 54.18 55.07
36.41 36.81 46.53 47.38 47.30 45.11 40.22 35.53 39.14 33.88 36.11 32.15 34.09 38.76 45.59 48.28 47.89 49.82 49.86 51.61 50.49 55.21 58.53 60.89 60.34 59.72 58.52 57.55 56.93 57.08 56.61 55.95 55.81 55.60 54.88 54.65 55.26 54.91 53.94 54.18 54.61 54.29 54.16 55.85
40.95 34.65 43.83 45.70 47.22 46.69 42.97 42.64 35.21 35.94 28.50 25.99 32.64 36.28 36.82 43.14 45.36 49.26 49.47 50.11 52.64 56.20 57.52 57.83 57.86 57.35 57.08 57.04 56.70 55.97 55.61 55.04 54.80 53.75 53.53 53.69 53.25 53.39 53.24 53.73 52.95 53.13 53.73 54.23
43.01 38.63 40.00 44.30 41.80 40.38 40.45 38.56 39.75 37.81 35.15 27.12 27.85 33.62 44.27 44.29 45.80 48.78 49.40 51.36 52.23 52.65 53.38 54.07 54.83 55.26 55.20 54.82 53.95 52.95 52.84 52.22 51.39 51.85 51.22 51.20 51.60 52.33 52.43 52.72 52.71 52.83 52.64 53.22
43.05 40.34 33.88 37.53 44.05 45.88 41.70 39.92 37.75 33.84 30.09 33.54 33.96 32.73 47.02 47.83 49.71 49.30 50.49 51.97 52.88 53.75 54.59 54.73 54.70 53.76 52.82 50.47 50.49 50.75 49.91 49.54 49.49 50.32 50.50 50.35 50.59 50.87 50.90 51.11 51.52 52.12 51.75 52.20
44.93 39.84 31.59 35.04 39.14 42.96 39.92 42.04 39.79 37.97 35.54 33.11 29.77 33.43 47.11 49.49 48.81 50.09 50.11 51.90 52.86 51.99 51.27 51.28 51.19 50.77 50.20 49.26 49.21 49.05 48.96 48.29 48.69 48.93 48.04 48.00 48.21 48.24 48.36 49.01 50.06 50.86 51.03 51.08
46.07 40.52 34.48 31.13 34.18 39.11 38.14 41.24 41.49 37.89 31.84 34.16 35.55 38.36 42.86 45.79 48.01 49.35 49.86 50.19 51.84 51.80 50.81 49.75 48.60 48.17 49.04 49.35 48.73 48.48 48.43 48.49 48.43 48.17 47.37 47.34 47.21 47.57 47.90 48.43 48.54 49.10 49.62 48.92
43.40 37.95 37.49 40.57 42.66 43.46 42.51 41.78 42.17 38.08 38.27 34.85 38.73 40.23 43.66 45.12 47.58 49.08 49.98 51.15 50.79 49.75 49.63 48.88 47.78 47.65 47.74 47.35 47.50 47.69 47.52 47.76 47.46 47.38 46.60 45.95 46.32 46.20 46.09 45.59 45.50 46.03 46.04 46.45
43.88 38.37 39.36 39.59 43.20 42.47 42.04 43.81 43.42 43.00 43.02 42.55 42.29 40.65 46.16 48.10 49.49 48.99 49.75 50.41 49.47 48.19 47.88 47.82 48.04 47.32 46.10 45.84 45.50 46.01 45.87 46.06 45.90 45.56 44.57 44.85 44.30 44.32 43.46 43.45 43.44 43.34 43.57 43.75
41.26 39.92 36.15 34.82 40.11 40.85 36.98 41.48 43.46 44.01 45.05 44.38 39.77 42.89 46.76 47.24 48.60 48.51 49.02 49.03 46.66 47.08 46.85 46.63 44.73 43.76 42.73 42.62 43.59 42.92 43.26 43.92 43.26 42.34 42.88 42.76 42.26 42.17 41.79 42.27 41.95 41.38 41.30 41.38
41.40 40.03 36.13 33.42 36.78 30.12 40.29 45.20 46.61 44.87 45.74 45.68 45.51 45.98 46.46 45.32 46.05 48.12 46.69 46.00 45.57 45.80 44.18 42.80 41.83 40.99 40.87 41.28 41.41 41.62 41.83 41.63 40.96 40.00 40.36 40.73 40.08 39.57 39.91 40.25 40.06 39.85 40.11 41.12
45.66 42.19 35.35 32.45 32.56 38.14 41.65 42.74 45.88 42.69 42.40 47.67 44.54 44.62 43.86 44.22 43.93 42.97 45.93 45.61 43.97 42.92 42.61 41.63 41.59 40.25 39.50 39.26 39.69 39.65 39.42 38.86 38.81 38.85 38.77 39.11 38.80 38.21 38.36 39.07 39.53 41.36 41.85 41.95
42.29 42.16 36.59 34.55 32.14 30.63 40.35 45.65 48.37 47.85 38.75 47.94 45.74 44.20 44.12 45.99 37.42 39.77 44.91 44.97 43.65 43.52 42.82 41.66 40.71 39.27 37.72 37.25 37.35 36.04 35.35 35.14 35.40 37.08 37.70 38.09 37.90 37.08 38.26 38.89 39.07 40.65 41.75 41.61
39.43 39.69 35.41 35.14 33.62 38.30 45.34 47.08 49.55 36.72 37.93 46.88 46.37 45.48 43.84 39.88 41.45 42.50 44.13 43.30 44.04 43.08 41.99 40.67 38.74 36.76 36.03 35.93 35.18 35.02 35.40 34.72 35.53 37.54 37.89 37.22 37.00 36.97 39.00 39.96 39.99 40.20 40.22 40.86
36.90 35.33 35.75 37.19 31.99 30.99 48.86 47.91 42.18 43.66 44.71 44.99 44.00 43.19 41.89 42.12 42.26 41.93 42.31 42.51 42.53 41.49 41.17 40.09 37.81 36.16 35.59 35.32 35.15 34.61 34.67 35.80 36.17 36.66 36.97 37.49 38.12 38.65 39.14 38.87 39.58 39.80 40.03 40.14
37.05 40.08 38.02 38.94 39.55 43.82 47.13 45.54 46.75 46.20 43.84 43.80 44.00 44.76 44.05 42.37 41.12 41.15 40.24 40.61 41.11 41.32 40.65 39.81 37.65 36.08 35.31 35.44 34.75 33.08 35.68 36.89 36.33 35.46 34.76 35.79 36.87 37.69 38.12 37.49 37.65 38.14 39.17 39.41
45.01 46.88 41.69 41.01 42.63 43.03 44.74 46.07 46.67 46.39 44.59 44.96 44.53 43.29 42.21 39.63 40.10 39.20 39.01 38.89 38.35 38.49 37.60 37.62 36.89 35.91 34.34 34.74 35.59 33.63 36.06 38.63 36.75 34.80 35.24 35.54 35.67 36.42 36.99 37.69 37.67 37.67 37.80 38.08
43.87 44.73 41.77 40.75 42.57 43.83 44.63 44.36 44.13 43.61 43.51 42.58 42.47 41.77 40.43 39.89 39.01 38.84 37.92 37.80 37.29 36.50 36.42 35.69 34.79 34.18 34.02 34.11 34.27 34.58 36.19 39.38 36.01 35.25 34.88 34.48 35.15 35.20 35.72 36.58 37.65 37.90 39.23 38.95
45.20 42.43 40.68 39.23 43.81 42.75 41.89 42.50 42.85 41.24 40.77 41.11 39.99 39.16 39.88 39.73 38.17 38.21 36.86 37.07 36.65 35.62 35.75 35.03 34.01 33.76 33.98 34.38 33.62 33.74 35.89 38.77 36.01 34.40 33.71 34.10 34.18 34.46 35.16 35.27 35.78 38.22 38.38 38.64

GFSCGP_sfc_wetblb_123.txt.gz
Wetbulb
45.38 39.06 34.64 38.18 39.76 38.34 37.89 35.77 34.95 37.22 40.97 39.42 37.41 37.70 40.03 42.63 42.32 42.05 42.18 42.47 43.52 44.69 46.48 57.46 64.70 66.56 68.59 67.73 66.92 65.82 63.70 63.51 63.76 62.42 63.65 66.84 64.75 64.52 64.75 65.67 66.94 67.55 69.24 69.46
38.97 37.18 41.36 41.94 41.03 38.36 37.59 35.69 34.90 38.66 41.74 38.74 38.64 38.62 40.89 41.70 42.25 42.10 43.90 43.09 43.47 43.74 43.96 56.50 63.52 64.87 66.63 65.99 66.14 64.49 63.77 63.17 63.58 64.43 62.63 63.60 62.13 62.69 64.12 64.61 65.83 66.60 68.22 67.77
37.12 38.93 43.82 41.35 38.57 36.75 37.14 36.07 35.69 36.45 40.45 40.13 38.36 36.46 39.25 43.43 43.04 43.83 43.50 44.09 44.29 45.17 44.74 56.79 62.10 62.72 64.30 65.11 64.91 64.52 64.12 63.29 63.85 63.63 62.72 62.25 62.13 62.06 63.61 62.60 63.67 65.43 65.85 67.59
39.97 43.49 40.72 40.14 39.28 39.87 34.91 40.89 40.70 39.46 36.54 30.07 38.38 28.48 36.69 40.77 41.99 43.81 44.83 42.95 44.20 45.35 44.80 57.63 61.46 62.07 63.17 64.07 65.07 64.71 63.83 62.74 63.71 63.04 63.11 62.05 60.07 60.35 62.68 62.71 62.77 63.49 63.89 64.98
40.14 40.97 40.37 38.93 40.92 42.84 38.51 42.87 40.40 40.28 35.80 32.17 34.90 30.45 34.66 38.92 39.37 41.70 43.39 44.94 45.81 46.18 45.97 56.46 61.51 62.87 63.53 63.93 63.04 61.91 62.91 62.71 63.21 63.44 63.63 64.25 62.71 63.68 64.30 64.67 63.94 62.71 63.91 65.24
43.41 46.74 44.50 42.89 45.37 44.89 44.58 41.14 39.48 37.99 35.26 26.22 33.70 32.26 32.93 36.54 40.32 42.14 44.62 45.97 46.95 46.01 45.50 56.84 62.18 63.97 63.82 63.68 62.14 61.93 62.35 61.56 63.09 63.89 64.70 64.77 63.45 62.19 62.46 60.24 60.13 59.40 59.44 60.00
41.47 42.42 45.48 46.52 41.95 45.25 41.67 36.13 27.14 25.25 24.74 26.04 34.23 32.22 35.05 40.27 43.70 44.94 45.39 46.20 46.46 45.67 50.56 59.48 62.00 62.98 65.49 65.60 64.77 63.08 60.16 57.72 59.10 60.23 60.17 60.16 59.62 60.48 59.80 57.93 57.13 58.13 55.57 55.14
35.83 34.16 43.49 46.42 43.01 39.28 38.48 36.85 26.15 21.12 22.01 25.85 36.18 30.01 35.28 44.65 48.79 49.51 50.58 50.69 49.96 44.11 55.38 60.38 61.89 64.26 61.15 58.65 58.93 57.54 56.65 55.79 56.61 56.53 55.77 55.83 55.28 55.16 54.24 53.84 53.74 53.63 53.59 54.45
35.75 35.78 45.55 47.15 47.17 44.79 40.02 35.59 38.00 32.50 33.48 29.15 32.11 35.60 43.43 49.03 48.92 50.96 53.32 55.22 56.09 57.15 58.69 59.32 58.27 57.37 56.47 56.19 56.13 56.05 55.85 55.40 55.20 55.34 55.10 54.88 54.78 54.07 53.73 53.30 53.74 53.35 53.51 54.93
40.86 35.16 43.38 45.88 47.91 46.52 41.29 41.53 32.86 33.70 25.75 25.39 31.56 34.90 35.51 42.94 45.85 49.17 50.89 51.71 53.59 55.27 55.55 55.71 56.38 56.01 56.39 56.31 55.81 56.24 56.75 55.29 54.22 53.99 54.20 53.53 52.85 53.51 53.77 53.62 52.42 52.42 52.71 53.10
42.28 38.92 38.76 42.22 41.28 39.54 40.52 38.06 37.63 34.89 31.96 25.97 27.11 33.16 42.16 44.29 47.22 48.88 50.21 51.28 51.86 52.97 53.66 54.00 53.78 53.38 53.00 53.57 53.94 54.23 53.63 53.59 51.33 52.51 51.09 51.71 51.70 52.90 52.39 51.58 51.48 51.66 51.51 52.28
43.17 39.59 34.69 37.53 42.80 44.87 41.38 37.77 37.91 28.82 28.91 31.96 31.79 33.04 45.92 47.34 49.32 50.27 50.55 51.67 52.19 52.41 51.15 49.67 49.39 50.40 50.58 50.65 51.11 51.17 51.29 50.08 48.86 48.91 48.68 48.38 48.48 48.53 48.42 48.82 49.24 50.11 49.97 50.41
43.12 38.48 31.93 33.80 39.67 42.73 40.14 41.16 38.22 36.38 35.25 32.09 30.88 32.11 45.77 48.78 49.11 50.22 49.87 50.01 49.76 48.94 47.96 48.15 48.52 48.59 48.74 48.98 49.00 48.46 47.63 46.61 47.47 47.75 47.17 46.86 46.59 46.84 46.50 46.62 47.00 47.67 48.10 48.02
45.81 41.37 32.69 29.00 33.91 38.15 37.41 40.27 39.89 37.34 29.94 32.38 32.73 37.07 43.87 46.15 47.43 50.06 49.53 49.97 49.58 48.98 49.41 48.98 48.83 48.52 48.30 48.25 47.22 46.30 46.11 46.61 46.75 46.66 45.62 44.76 44.25 44.16 43.85 44.16 44.25 44.94 45.34 44.92
42.47 37.46 36.97 39.03 40.82 41.57 40.50 40.48 40.17 37.46 36.24 34.34 37.33 38.77 43.50 46.37 47.59 49.46 50.11 50.51 49.51 48.58 48.52 48.57 47.79 47.15 46.92 45.78 45.62 45.32 44.84 44.96 45.54 44.65 43.41 42.55 42.96 43.08 42.99 42.67 42.80 43.05 43.21 43.43
41.59 37.60 39.41 38.02 42.40 42.49 40.08 41.91 42.96 40.83 39.70 39.16 40.48 39.83 45.17 48.35 48.92 48.12 48.74 48.77 46.60 45.84 46.31 45.95 45.41 44.50 43.99 43.95 43.45 43.41 43.01 42.32 42.52 41.56 41.00 41.57 41.32 41.78 41.11 41.03 41.10 40.99 40.99 41.16
39.44 38.82 36.18 33.79 41.07 40.19 36.07 40.04 42.04 42.26 42.97 42.25 38.23 42.08 47.43 47.28 48.11 48.61 49.13 46.83 45.24 45.49 44.12 42.56 41.82 41.41 41.24 41.80 41.85 40.47 40.54 40.68 39.81 39.48 40.38 40.17 39.81 39.48 38.72 39.61 40.03 39.59 39.18 39.17
39.26 38.34 35.58 32.59 37.19 28.99 39.08 44.64 45.47 43.34 44.42 44.55 44.57 46.20 47.87 46.46 45.19 45.78 47.02 44.94 44.01 42.22 41.04 40.14 39.13 39.21 39.43 39.53 39.50 38.93 38.70 38.47 38.76 38.07 38.44 38.81 38.09 37.95 37.79 37.57 38.15 37.96 38.14 38.90
43.37 41.06 34.56 29.80 29.92 37.97 41.01 43.83 43.95 42.02 40.71 46.16 43.81 44.87 42.96 43.52 43.30 42.04 44.79 44.08 42.02 40.24 39.10 38.73 38.78 38.26 37.71 36.99 37.17 36.32 35.68 35.54 36.00 35.95 36.65 37.29 37.17 36.43 36.53 37.00 37.06 37.26 38.30 40.90
43.93 42.30 35.71 32.67 28.38 29.74 39.75 45.67 48.85 47.39 38.72 45.49 44.38 43.70 43.41 46.22 38.78 39.83 42.89 42.69 41.23 40.13 39.67 38.62 38.47 38.10 36.77 35.22 34.92 34.85 34.11 34.16 34.30 35.26 36.25 36.92 36.46 36.08 35.71 35.99 37.18 40.17 40.24 40.30
39.15 38.13 33.74 33.14 33.14 37.44 45.10 47.33 49.44 35.14 37.16 44.88 45.67 45.91 45.74 40.17 41.18 42.08 43.33 42.04 41.80 40.52 39.20 38.58 37.37 35.19 34.17 34.43 34.27 33.65 34.46 34.50 35.66 36.53 35.94 36.13 36.26 37.14 38.91 38.78 39.40 39.68 39.76 40.20
37.43 36.17 32.09 34.10 31.26 32.99 47.17 47.23 40.45 42.19 46.08 46.30 44.22 41.98 40.72 41.15 41.39 41.81 42.09 41.34 41.06 39.58 38.86 37.97 35.45 34.02 33.38 33.80 33.43 34.94 35.07 37.08 37.21 36.71 35.93 34.52 35.27 37.63 38.37 38.00 38.33 38.79 39.04 39.26
36.35 39.16 34.41 35.95 36.41 43.75 46.64 44.76 47.23 46.92 43.24 42.97 42.15 42.53 42.09 40.60 40.51 41.10 40.49 40.97 40.62 39.39 37.64 37.04 35.11 34.03 33.74 33.74 33.01 34.76 36.72 37.27 37.01 36.02 35.61 35.83 36.57 37.36 37.51 37.16 37.12 37.54 38.46 38.55
44.69 45.74 40.21 38.96 41.68 42.14 42.98 44.55 45.44 45.48 43.87 44.18 44.01 42.43 41.47 39.60 39.46 38.81 40.03 39.78 38.62 38.21 37.05 36.44 34.82 33.51 32.61 33.31 33.82 32.32 37.35 37.79 35.83 35.51 35.31 35.60 35.56 36.00 36.65 37.17 37.69 37.59 37.98 37.92
44.04 44.21 40.10 38.61 40.14 40.77 41.68 42.68 42.63 42.87 42.78 41.71 42.13 41.08 39.89 38.77 37.58 36.94 35.92 35.58 35.03 34.36 34.39 34.34 33.14 32.51 32.28 32.38 32.19 32.75 35.99 36.59 34.60 35.67 35.31 34.99 34.94 34.90 35.09 36.02 36.79 37.33 38.44 38.26
45.01 41.59 39.93 38.19 41.08 40.09 39.57 42.22 43.29 41.03 39.97 39.98 39.16 37.99 38.62 38.03 36.34 36.01 34.60 34.43 34.33 33.28 33.22 32.52 32.28 32.37 32.53 32.47 32.32 33.06 35.48 35.47 34.32 33.14 34.23 34.47 34.35 34.45 34.44 34.85 35.19 37.43 37.47 37.86